ftp/pub/mcmurdo/arrivalheights/2024/09022024.txt

Download

		Temp	Hi	Low	Out	Dew	Wind	Wind	Wind	Hi	Hi	Wind	Heat	THW		Heat	Cool	In 	In	In 	In 	In 	In Air	Wind	Wind	ISS 	Arc.
Date	Time	Out	Temp	Temp	Hum	Pt.	Speed	Dir	Run	Speed	Dir	Chill	Index	Index	Bar  	D-D 	D-D 	Temp	Hum	Dew	Heat	EMC	Density	Samp	Tx 	Recept	Int.
09/01/24	0:01	-23.4	-23.4	-23.4	73	-26.9	16.5	NW	0.28	18.3	NW	-37.1	-23.5	-37.1	735.2	0.029	0.000	18.4	3	-27.7	14.8	0.75	 .0731	22	1	95.7	1
09/01/24	0:02	-23.5	-23.4	-23.5	73	-27.0	16.5	NW	0.28	18.3	NW	-37.2	-23.6	-37.2	735.3	0.029	0.000	18.4	3	-27.7	14.8	0.75	 .0731	23	1	100.0	1
09/01/24	0:03	-23.5	-23.4	-23.5	73	-27.0	17.4	NW	0.29	19.1	NW	-37.4	-23.6	-37.5	735.3	0.029	0.000	18.4	3	-27.7	14.8	0.75	 .0731	24	1	100.0	1
09/01/24	0:04	-23.5	-23.5	-23.5	74	-26.8	20.0	NW	0.33	21.7	NW	-38.3	-23.6	-38.3	735.3	0.029	0.000	18.4	3	-27.7	14.8	0.75	 .0731	23	1	100.0	1
09/01/24	0:05	-23.5	-23.5	-23.5	74	-26.8	20.9	NW	0.35	22.6	NW	-38.5	-23.6	-38.6	735.1	0.029	0.000	18.4	3	-27.7	14.8	0.75	 .0731	23	1	100.0	1
09/01/24	0:06	-23.6	-23.5	-23.6	74	-26.9	20.9	NW	0.35	24.3	NW	-38.6	-23.6	-38.7	735.1	0.029	0.000	18.4	3	-27.7	14.8	0.75	 .0731	24	1	100.0	1
09/01/24	0:07	-23.6	-23.6	-23.6	74	-26.9	20.9	NW	0.35	22.6	NW	-38.6	-23.6	-38.7	735.1	0.029	0.000	18.4	3	-27.7	14.8	0.75	 .0731	23	1	100.0	1
09/01/24	0:08	-23.6	-23.6	-23.6	74	-26.9	20.9	NW	0.35	21.7	NW	-38.6	-23.6	-38.7	735.2	0.029	0.000	18.4	3	-27.7	14.8	0.75	 .0731	24	1	100.0	1
09/01/24	0:09	-23.5	-23.5	-23.6	74	-26.8	19.1	NW	0.32	20.9	NW	-38.0	-23.6	-38.1	735.2	0.029	0.000	18.4	3	-27.7	14.8	0.75	 .0731	23	1	100.0	1
09/01/24	0:10	-23.5	-23.5	-23.5	74	-26.8	20.0	NW	0.33	22.6	NW	-38.3	-23.6	-38.3	735.3	0.029	0.000	18.4	3	-27.7	14.8	0.75	 .0731	24	1	100.0	1
09/01/24	0:11	-23.5	-23.5	-23.5	74	-26.8	18.3	NW	0.30	20.0	NW	-37.7	-23.6	-37.8	735.3	0.029	0.000	18.4	3	-27.7	14.8	0.75	 .0731	23	1	100.0	1
09/01/24	0:12	-23.5	-23.5	-23.5	74	-26.8	19.1	NW	0.32	20.0	NW	-38.0	-23.6	-38.1	735.3	0.029	0.000	18.4	3	-27.7	14.8	0.75	 .0731	23	1	100.0	1
09/01/24	0:13	-23.6	-23.6	-23.6	74	-26.9	18.3	NNW	0.30	20.0	NNW	-37.8	-23.6	-37.8	735.2	0.029	0.000	18.4	3	-27.7	14.8	0.75	 .0731	24	1	100.0	1
09/01/24	0:14	-23.6	-23.6	-23.6	74	-26.9	19.1	NNW	0.32	21.7	NNW	-38.1	-23.6	-38.1	735.2	0.029	0.000	18.4	3	-27.7	14.8	0.75	 .0731	23	1	100.0	1
09/01/24	0:15	-23.6	-23.6	-23.6	74	-26.9	18.3	NNW	0.30	21.7	NNW	-37.8	-23.6	-37.8	735.2	0.029	0.000	18.4	3	-27.7	14.8	0.75	 .0731	24	1	100.0	1
09/01/24	0:16	-23.4	-23.4	-23.6	74	-26.8	20.0	NNW	0.33	21.7	NNW	-38.2	-23.5	-38.2	735.2	0.029	0.000	18.4	3	-27.7	14.8	0.75	 .0731	23	1	100.0	1
09/01/24	0:17	-23.4	-23.4	-23.5	75	-26.6	20.0	NW	0.33	20.9	NNW	-38.1	-23.4	-38.2	735.2	0.029	0.000	18.4	3	-27.7	14.8	0.75	 .0731	23	1	100.0	1
09/01/24	0:18	-23.4	-23.4	-23.4	75	-26.6	19.1	NW	0.32	20.0	NW	-37.8	-23.4	-37.9	735.3	0.029	0.000	18.4	3	-27.7	14.8	0.75	 .0731	24	1	100.0	1
09/01/24	0:19	-23.4	-23.4	-23.4	75	-26.6	18.3	NW	0.30	19.1	NW	-37.6	-23.4	-37.7	735.4	0.029	0.000	18.4	3	-27.7	14.8	0.75	 .0731	23	1	100.0	1
09/01/24	0:20	-23.4	-23.4	-23.4	75	-26.6	17.4	WNW	0.29	19.1	WNW	-37.4	-23.5	-37.4	735.6	0.029	0.000	18.4	3	-27.7	14.8	0.75	 .0731	24	1	100.0	1
09/01/24	0:21	-23.4	-23.4	-23.4	75	-26.6	16.5	NW	0.28	18.3	NW	-37.1	-23.5	-37.1	735.6	0.029	0.000	18.4	3	-27.7	14.8	0.75	 .0731	23	1	100.0	1
09/01/24	0:22	-23.4	-23.4	-23.5	75	-26.6	16.5	NW	0.28	17.4	NW	-37.1	-23.5	-37.1	735.4	0.029	0.000	18.4	3	-27.7	14.8	0.75	 .0731	24	1	100.0	1
09/01/24	0:23	-23.5	-23.4	-23.5	75	-26.7	17.4	NNW	0.29	19.1	NNW	-37.4	-23.6	-37.5	735.3	0.029	0.000	18.4	3	-27.7	14.8	0.75	 .0731	23	1	100.0	1
09/01/24	0:24	-23.4	-23.4	-23.5	75	-26.6	17.4	NNW	0.29	19.1	NW	-37.4	-23.5	-37.4	735.2	0.029	0.000	18.4	3	-27.7	14.8	0.75	 .0731	23	1	100.0	1
09/01/24	0:25	-23.4	-23.4	-23.4	75	-26.6	16.5	NNW	0.28	18.3	NNW	-37.1	-23.5	-37.1	735.3	0.029	0.000	18.4	3	-27.7	14.8	0.75	 .0731	24	1	100.0	1
09/01/24	0:26	-23.4	-23.4	-23.4	75	-26.6	16.5	NNW	0.28	17.4	NNW	-37.1	-23.5	-37.1	735.3	0.029	0.000	18.4	3	-27.7	14.8	0.75	 .0731	23	1	100.0	1
09/01/24	0:27	-23.4	-23.4	-23.4	75	-26.6	17.4	NNW	0.29	18.3	NNW	-37.4	-23.5	-37.4	735.2	0.029	0.000	18.4	3	-27.7	14.8	0.75	 .0731	24	1	100.0	1
09/01/24	0:28	-23.4	-23.4	-23.4	75	-26.6	17.4	NNW	0.29	19.1	NNW	-37.3	-23.4	-37.3	735.3	0.029	0.000	18.4	3	-27.7	14.8	0.75	 .0731	23	1	100.0	1
09/01/24	0:29	-23.4	-23.4	-23.4	76	-26.4	17.4	NNW	0.29	19.1	NNW	-37.3	-23.4	-37.3	735.2	0.029	0.000	18.4	3	-27.7	14.8	0.75	 .0731	23	1	100.0	1
09/01/24	0:30	-23.3	-23.3	-23.4	76	-26.4	17.4	NNW	0.29	20.9	NNW	-37.2	-23.4	-37.3	735.3	0.029	0.000	18.4	3	-27.7	14.8	0.75	 .0731	24	1	100.0	1
09/01/24	0:31	-23.3	-23.3	-23.3	76	-26.4	15.7	NNW	0.26	19.1	NNW	-36.6	-23.4	-36.7	735.3	0.029	0.000	18.4	3	-27.7	14.8	0.75	 .0731	23	1	100.0	1
09/01/24	0:32	-23.3	-23.3	-23.3	76	-26.3	14.8	NNW	0.25	18.3	NNW	-36.2	-23.3	-36.3	735.3	0.029	0.000	18.5	3	-27.6	14.8	0.75	 .0731	24	1	100.0	1
09/01/24	0:33	-23.2	-23.2	-23.3	76	-26.3	17.4	NNW	0.29	20.0	NNW	-37.1	-23.3	-37.2	735.3	0.029	0.000	18.5	3	-27.6	14.8	0.75	 .0731	23	1	100.0	1
09/01/24	0:34	-23.2	-23.2	-23.2	76	-26.3	17.4	N	0.29	20.0	NNW	-37.1	-23.3	-37.2	735.3	0.029	0.000	18.5	3	-27.6	14.8	0.75	 .0731	23	1	100.0	1
09/01/24	0:35	-23.2	-23.2	-23.2	76	-26.2	17.4	N	0.29	19.1	N	-37.0	-23.2	-37.1	735.3	0.029	0.000	18.5	3	-27.6	14.8	0.75	 .0731	24	1	100.0	1
09/01/24	0:36	-23.2	-23.2	-23.2	76	-26.2	14.8	NNW	0.25	17.4	NNW	-36.1	-23.2	-36.2	735.5	0.029	0.000	18.5	3	-27.6	14.8	0.75	 .0731	23	1	100.0	1
09/01/24	0:37	-23.1	-23.1	-23.2	76	-26.2	16.5	NNW	0.28	20.0	NNW	-36.7	-23.2	-36.7	735.5	0.029	0.000	18.5	3	-27.6	14.8	0.75	 .0731	24	1	100.0	1
09/01/24	0:38	-23.1	-23.1	-23.1	76	-26.1	16.5	NNW	0.28	19.1	NNW	-36.6	-23.1	-36.6	735.4	0.029	0.000	18.6	3	-27.6	14.9	0.75	 .0731	23	1	100.0	1
09/01/24	0:39	-23.1	-23.1	-23.1	76	-26.2	17.4	NNW	0.29	20.0	NNW	-36.9	-23.2	-37.0	735.4	0.029	0.000	18.5	3	-27.6	14.8	0.75	 .0731	24	1	100.0	1
09/01/24	0:40	-23.1	-23.1	-23.1	77	-26.0	16.5	NNW	0.28	19.1	NNW	-36.6	-23.1	-36.6	735.4	0.029	0.000	18.6	3	-27.6	14.9	0.75	 .0731	23	1	100.0	1
09/01/24	0:41	-23.0	-23.0	-23.1	77	-25.9	18.3	NNW	0.30	20.9	NNW	-37.1	-23.1	-37.1	735.4	0.029	0.000	18.6	3	-27.6	14.9	0.75	 .0731	23	1	100.0	1
09/01/24	0:42	-22.9	-22.9	-22.9	77	-25.8	18.3	NNW	0.30	20.0	NNW	-36.9	-22.9	-37.0	735.4	0.029	0.000	18.6	3	-27.6	14.9	0.75	 .0731	24	1	100.0	1
09/01/24	0:43	-22.9	-22.9	-22.9	77	-25.8	17.4	NNW	0.29	21.7	N	-36.7	-22.9	-36.7	735.5	0.029	0.000	18.6	3	-27.6	14.9	0.75	 .0731	23	1	100.0	1
09/01/24	0:44	-22.8	-22.8	-22.8	77	-25.8	18.3	N	0.30	20.0	N	-36.8	-22.9	-36.9	735.5	0.029	0.000	18.6	3	-27.6	14.9	0.75	 .0731	24	1	100.0	1
09/01/24	0:45	-22.8	-22.8	-22.8	77	-25.8	17.4	NNW	0.29	19.1	NNW	-36.6	-22.9	-36.6	735.5	0.029	0.000	18.6	3	-27.6	14.9	0.75	 .0731	23	1	100.0	1
09/01/24	0:46	-22.8	-22.8	-22.8	77	-25.8	15.7	NNW	0.26	18.3	N	-36.0	-22.9	-36.1	735.5	0.029	0.000	18.6	3	-27.6	14.9	0.75	 .0731	23	1	100.0	1
09/01/24	0:47	-22.8	-22.8	-22.8	77	-25.8	14.8	NNW	0.25	16.5	NNW	-35.7	-22.9	-35.7	735.5	0.029	0.000	18.6	3	-27.6	14.9	0.75	 .0731	24	1	100.0	1
09/01/24	0:48	-22.8	-22.8	-22.8	77	-25.8	16.5	NNW	0.28	20.0	NNW	-36.3	-22.9	-36.3	735.5	0.029	0.000	18.6	3	-27.6	14.9	0.75	 .0731	23	1	100.0	1
09/01/24	0:49	-22.8	-22.8	-22.8	77	-25.7	15.7	NNW	0.26	16.5	NNW	-35.9	-22.8	-35.9	735.5	0.029	0.000	18.6	3	-27.6	14.9	0.75	 .0731	24	1	100.0	1
09/01/24	0:50	-22.8	-22.8	-22.8	77	-25.7	13.9	NW	0.23	15.7	NNW	-35.3	-22.8	-35.3	735.6	0.029	0.000	18.6	3	-27.6	14.9	0.75	 .0731	23	1	100.0	1
09/01/24	0:51	-22.8	-22.8	-22.8	77	-25.7	15.7	NNW	0.26	18.3	N	-35.9	-22.8	-35.9	735.6	0.029	0.000	18.6	3	-27.6	14.9	0.75	 .0731	23	1	100.0	1
09/01/24	0:52	-22.8	-22.8	-22.8	77	-25.7	15.7	NNW	0.26	17.4	NNW	-35.9	-22.8	-35.9	735.6	0.029	0.000	18.6	3	-27.6	14.9	0.75	 .0731	24	1	100.0	1
09/01/24	0:53	-22.7	-22.7	-22.8	77	-25.6	15.7	NNW	0.26	17.4	NNW	-35.8	-22.8	-35.9	735.6	0.029	0.000	18.6	3	-27.6	14.9	0.75	 .0731	23	1	100.0	1
09/01/24	0:54	-22.7	-22.7	-22.7	77	-25.6	16.5	NNW	0.28	17.4	NNW	-36.1	-22.8	-36.2	735.5	0.029	0.000	18.6	3	-27.6	14.9	0.75	 .0731	24	1	100.0	1
09/01/24	0:55	-22.8	-22.7	-22.8	77	-25.7	15.7	NNW	0.26	17.4	NNW	-35.9	-22.8	-35.9	735.5	0.029	0.000	18.6	3	-27.6	14.9	0.75	 .0731	23	1	100.0	1
09/01/24	0:56	-22.8	-22.8	-22.8	77	-25.7	14.8	NNW	0.25	16.5	NNW	-35.6	-22.8	-35.7	735.6	0.029	0.000	18.6	3	-27.6	14.9	0.75	 .0731	24	1	100.0	1
09/01/24	0:57	-22.8	-22.8	-22.8	77	-25.7	14.8	NNW	0.25	16.5	NNW	-35.6	-22.8	-35.7	735.6	0.029	0.000	18.6	3	-27.6	14.9	0.75	 .0731	23	1	100.0	1
09/01/24	0:58	-22.8	-22.8	-22.8	77	-25.8	15.7	NNW	0.26	16.5	NNW	-36.0	-22.9	-36.1	735.5	0.029	0.000	18.6	3	-27.6	14.9	0.75	 .0731	23	1	100.0	1
09/01/24	0:59	-22.8	-22.8	-22.8	77	-25.8	14.8	NNW	0.25	15.7	NNW	-35.7	-22.9	-35.7	735.6	0.029	0.000	18.6	3	-27.6	14.9	0.75	 .0731	24	1	100.0	1
09/01/24	1:00	-22.8	-22.8	-22.8	77	-25.8	14.8	NNW	0.25	16.5	NNW	-35.7	-22.9	-35.7	735.7	0.029	0.000	18.6	3	-27.6	14.9	0.75	 .0731	23	1	100.0	1
09/01/24	1:01	-22.9	-22.9	-22.9	77	-25.8	13.9	NNW	0.23	14.8	NW	-35.4	-22.9	-35.4	735.7	0.029	0.000	18.6	3	-27.6	14.9	0.75	 .0731	24	1	100.0	1
09/01/24	1:02	-22.9	-22.9	-22.9	77	-25.8	13.9	NNW	0.23	14.8	NNW	-35.4	-22.9	-35.4	735.7	0.029	0.000	18.7	3	-27.5	14.9	0.75	 .0731	23	1	100.0	1
09/01/24	1:03	-22.9	-22.9	-22.9	77	-25.9	13.9	NNW	0.23	14.8	NNW	-35.4	-23.0	-35.5	735.7	0.029	0.000	18.7	3	-27.5	14.9	0.75	 .0731	23	1	100.0	1
09/01/24	1:04	-22.9	-22.9	-22.9	77	-25.8	15.7	NNW	0.26	18.3	N	-36.1	-22.9	-36.1	735.7	0.029	0.000	18.7	3	-27.5	14.9	0.75	 .0731	24	1	100.0	1
09/01/24	1:05	-22.9	-22.9	-22.9	77	-25.8	16.5	N	0.28	17.4	NNW	-36.3	-22.9	-36.4	735.6	0.029	0.000	18.7	3	-27.5	14.9	0.75	 .0731	23	1	100.0	1
09/01/24	1:06	-22.9	-22.9	-22.9	77	-25.8	16.5	NNW	0.28	18.3	NNW	-36.3	-22.9	-36.4	735.7	0.029	0.000	18.7	3	-27.5	14.9	0.75	 .0731	24	1	100.0	1
09/01/24	1:07	-22.8	-22.8	-22.9	77	-25.8	16.5	NNW	0.28	19.1	NNW	-36.3	-22.9	-36.3	735.6	0.029	0.000	18.7	3	-27.5	14.9	0.75	 .0731	23	1	100.0	1
09/01/24	1:08	-22.8	-22.8	-22.8	77	-25.7	15.7	NNW	0.26	17.4	NNW	-35.9	-22.8	-35.9	735.6	0.029	0.000	18.7	3	-27.5	15.0	0.75	 .0731	24	1	100.0	1
09/01/24	1:09	-22.8	-22.8	-22.8	77	-25.7	17.4	NNW	0.29	20.0	NNW	-36.5	-22.8	-36.6	735.6	0.029	0.000	18.7	3	-27.5	14.9	0.75	 .0731	23	1	100.0	1
09/01/24	1:10	-22.7	-22.7	-22.7	78	-25.5	16.5	NNW	0.28	18.3	NNW	-36.1	-22.8	-36.2	735.6	0.029	0.000	18.7	3	-27.5	15.0	0.75	 .0731	23	1	100.0	1
09/01/24	1:11	-22.8	-22.7	-22.8	78	-25.6	17.4	NNW	0.29	19.1	NNW	-36.5	-22.8	-36.6	735.7	0.029	0.000	18.7	3	-27.5	15.0	0.75	 .0731	24	1	100.0	1
09/01/24	1:12	-22.8	-22.8	-22.8	78	-25.6	17.4	N	0.29	19.1	NNW	-36.6	-22.9	-36.6	735.6	0.029	0.000	18.7	3	-27.5	15.0	0.75	 .0731	23	1	100.0	1
09/01/24	1:13	-22.9	-22.8	-22.9	78	-25.7	17.4	N	0.29	18.3	N	-36.7	-22.9	-36.7	735.7	0.029	0.000	18.7	3	-27.5	15.0	0.75	 .0731	24	1	100.0	1
09/01/24	1:14	-22.9	-22.8	-22.9	78	-25.7	17.4	N	0.29	18.3	N	-36.7	-22.9	-36.7	735.6	0.029	0.000	18.7	3	-27.5	15.0	0.75	 .0731	23	1	100.0	1
09/01/24	1:15	-22.9	-22.9	-22.9	78	-25.7	16.5	N	0.28	17.4	N	-36.4	-23.0	-36.5	735.6	0.029	0.000	18.7	3	-27.5	15.0	0.75	 .0731	23	1	100.0	1
09/01/24	1:16	-23.0	-22.9	-23.0	78	-25.8	16.5	N	0.28	17.4	N	-36.5	-23.1	-36.6	735.6	0.029	0.000	18.7	3	-27.5	15.0	0.75	 .0731	24	1	100.0	1
09/01/24	1:17	-23.0	-23.0	-23.0	78	-25.8	15.7	NNW	0.26	16.5	NNW	-36.2	-23.1	-36.3	735.6	0.029	0.000	18.7	3	-27.5	15.0	0.75	 .0731	23	1	100.0	1
09/01/24	1:18	-23.1	-23.1	-23.1	78	-25.8	16.5	N	0.28	18.3	N	-36.6	-23.1	-36.6	735.5	0.029	0.000	18.7	3	-27.5	15.0	0.75	 .0731	24	1	100.0	1
09/01/24	1:19	-23.1	-23.1	-23.1	78	-25.8	17.4	N	0.29	18.3	N	-36.9	-23.1	-36.9	735.5	0.029	0.000	18.7	3	-27.5	15.0	0.75	 .0731	23	1	100.0	1
09/01/24	1:20	-23.1	-23.1	-23.1	78	-25.8	16.5	N	0.28	18.3	N	-36.6	-23.1	-36.6	735.4	0.029	0.000	18.8	3	-27.5	15.1	0.75	 .0730	24	1	100.0	1
09/01/24	1:21	-23.1	-23.1	-23.1	78	-25.8	15.7	N	0.26	16.5	N	-36.3	-23.1	-36.3	735.5	0.029	0.000	18.8	3	-27.5	15.1	0.75	 .0730	23	1	100.0	1
09/01/24	1:22	-23.1	-23.1	-23.1	78	-25.8	15.7	N	0.26	17.4	N	-36.3	-23.1	-36.3	735.4	0.029	0.000	18.8	3	-27.5	15.1	0.75	 .0730	23	1	100.0	1
09/01/24	1:23	-23.0	-23.0	-23.1	78	-25.8	17.4	N	0.29	19.1	N	-36.8	-23.1	-36.8	735.4	0.029	0.000	18.7	3	-27.5	15.0	0.75	 .0730	24	1	100.0	1
09/01/24	1:24	-22.9	-22.9	-23.0	78	-25.7	18.3	N	0.30	20.0	N	-36.9	-22.9	-37.0	735.4	0.029	0.000	18.8	3	-27.5	15.1	0.75	 .0730	23	1	100.0	1
09/01/24	1:25	-22.7	-22.7	-22.8	78	-25.5	18.3	N	0.30	19.1	N	-36.7	-22.8	-36.8	735.3	0.029	0.000	18.8	3	-27.5	15.1	0.75	 .0730	24	1	100.0	1
09/01/24	1:26	-22.6	-22.6	-22.7	78	-25.4	17.4	N	0.29	19.1	N	-36.3	-22.7	-36.3	735.4	0.028	0.000	18.8	3	-27.5	15.1	0.75	 .0730	23	1	100.0	1
09/01/24	1:27	-22.5	-22.5	-22.6	78	-25.3	16.5	N	0.28	17.4	N	-35.8	-22.6	-35.9	735.5	0.028	0.000	18.8	3	-27.5	15.1	0.75	 .0730	23	1	100.0	1
09/01/24	1:28	-22.5	-22.5	-22.5	78	-25.3	17.4	N	0.29	18.3	N	-36.1	-22.6	-36.2	735.5	0.028	0.000	18.8	3	-27.5	15.1	0.75	 .0730	24	1	100.0	1
09/01/24	1:29	-22.4	-22.4	-22.5	78	-25.2	17.4	N	0.29	20.0	NNW	-36.1	-22.5	-36.1	735.5	0.028	0.000	18.8	3	-27.5	15.1	0.75	 .0730	23	1	100.0	1
09/01/24	1:30	-22.4	-22.4	-22.4	78	-25.2	17.4	N	0.29	18.3	N	-36.0	-22.4	-36.1	735.6	0.028	0.000	18.8	3	-27.5	15.1	0.75	 .0730	24	1	100.0	1
09/01/24	1:31	-22.4	-22.4	-22.4	78	-25.2	16.5	N	0.28	19.1	N	-35.8	-22.5	-35.8	735.5	0.028	0.000	18.8	3	-27.5	15.1	0.75	 .0730	23	1	100.0	1
09/01/24	1:32	-22.4	-22.4	-22.4	78	-25.2	17.4	N	0.29	19.1	NNW	-36.1	-22.5	-36.1	735.5	0.028	0.000	18.8	3	-27.5	15.1	0.75	 .0730	24	1	100.0	1
09/01/24	1:33	-22.4	-22.4	-22.4	78	-25.2	17.4	NNW	0.29	19.1	NNW	-36.1	-22.5	-36.1	735.6	0.028	0.000	18.8	3	-27.4	15.1	0.75	 .0730	23	1	100.0	1
09/01/24	1:34	-22.4	-22.4	-22.4	78	-25.2	17.4	N	0.29	19.1	N	-36.0	-22.4	-36.1	735.6	0.028	0.000	18.8	3	-27.4	15.1	0.75	 .0730	23	1	100.0	1
09/01/24	1:35	-22.4	-22.4	-22.4	78	-25.2	16.5	N	0.28	19.1	NNW	-35.8	-22.5	-35.8	735.6	0.028	0.000	18.8	3	-27.4	15.1	0.75	 .0730	24	1	100.0	1
09/01/24	1:36	-22.6	-22.4	-22.6	78	-25.3	17.4	N	0.29	18.3	N	-36.2	-22.6	-36.3	735.6	0.028	0.000	18.8	3	-27.4	15.1	0.75	 .0730	23	1	100.0	1
09/01/24	1:37	-22.7	-22.6	-22.7	78	-25.4	17.4	N	0.29	18.3	N	-36.3	-22.7	-36.4	735.6	0.028	0.000	18.8	3	-27.4	15.1	0.75	 .0730	24	1	100.0	1
09/01/24	1:38	-22.7	-22.7	-22.7	78	-25.4	16.5	N	0.28	17.4	N	-36.1	-22.7	-36.1	735.6	0.028	0.000	18.8	3	-27.4	15.1	0.75	 .0730	23	1	100.0	1
09/01/24	1:39	-22.6	-22.6	-22.7	78	-25.3	16.5	NNE	0.28	17.4	N	-35.9	-22.6	-36.0	735.6	0.028	0.000	18.8	3	-27.4	15.1	0.75	 .0730	23	1	100.0	1
09/01/24	1:40	-22.3	-22.3	-22.5	78	-25.1	14.8	NNE	0.25	16.5	NNE	-34.9	-22.3	-35.0	735.7	0.028	0.000	18.9	3	-27.4	15.2	0.75	 .0730	24	1	100.0	1
09/01/24	1:41	-22.0	-22.0	-22.2	78	-24.8	14.8	N	0.25	16.5	N	-34.6	-22.1	-34.6	735.7	0.028	0.000	18.9	3	-27.4	15.2	0.75	 .0730	23	1	100.0	1
09/01/24	1:42	-21.8	-21.8	-21.9	78	-24.6	14.8	N	0.25	17.4	N	-34.4	-21.9	-34.4	735.6	0.028	0.000	18.9	3	-27.4	15.2	0.75	 .0730	24	1	100.0	1
09/01/24	1:43	-21.8	-21.8	-21.8	78	-24.6	17.4	N	0.29	19.1	N	-35.3	-21.9	-35.3	735.6	0.028	0.000	18.9	3	-27.4	15.2	0.75	 .0730	23	1	100.0	1
09/01/24	1:44	-21.8	-21.8	-21.8	78	-24.6	17.4	N	0.29	19.1	N	-35.2	-21.8	-35.2	735.7	0.028	0.000	18.9	3	-27.4	15.2	0.75	 .0730	23	1	100.0	1
09/01/24	1:45	-21.8	-21.8	-21.8	78	-24.6	16.5	N	0.28	18.3	N	-34.9	-21.8	-34.9	735.8	0.028	0.000	18.9	3	-27.4	15.2	0.75	 .0730	24	1	100.0	1
09/01/24	1:46	-21.8	-21.8	-21.8	78	-24.6	17.4	N	0.29	19.1	N	-35.3	-21.9	-35.3	735.7	0.028	0.000	18.9	3	-27.4	15.2	0.75	 .0730	23	1	100.0	1
09/01/24	1:47	-21.9	-21.8	-21.9	78	-24.7	17.4	N	0.29	18.3	N	-35.3	-21.9	-35.4	735.7	0.028	0.000	18.9	3	-27.4	15.2	0.75	 .0730	24	1	100.0	1
09/01/24	1:48	-22.1	-21.9	-22.1	78	-24.9	15.7	N	0.26	16.5	N	-34.9	-22.1	-35.0	735.7	0.028	0.000	18.9	3	-27.3	15.2	0.75	 .0730	23	1	100.0	1
09/01/24	1:49	-22.1	-22.1	-22.1	78	-24.9	15.7	N	0.26	16.5	N	-34.9	-22.1	-35.0	735.7	0.028	0.000	18.9	3	-27.3	15.2	0.75	 .0730	24	1	100.0	1
09/01/24	1:50	-22.2	-22.1	-22.2	78	-25.0	15.7	N	0.26	17.4	N	-35.1	-22.2	-35.2	735.7	0.028	0.000	18.9	3	-27.3	15.2	0.75	 .0730	23	1	100.0	1
09/01/24	1:51	-22.2	-22.2	-22.2	78	-25.0	15.7	N	0.26	16.5	N	-35.2	-22.3	-35.2	735.7	0.028	0.000	18.9	3	-27.3	15.2	0.75	 .0730	23	1	100.0	1
09/01/24	1:52	-22.2	-22.2	-22.2	78	-25.0	16.5	N	0.28	18.3	N	-35.4	-22.2	-35.4	735.7	0.028	0.000	18.9	3	-27.3	15.2	0.75	 .0730	24	1	100.0	1
09/01/24	1:53	-22.2	-22.2	-22.2	78	-25.0	15.7	N	0.26	17.4	N	-35.1	-22.2	-35.2	735.7	0.028	0.000	18.9	3	-27.3	15.2	0.75	 .0730	23	1	100.0	1
09/01/24	1:54	-22.1	-22.1	-22.1	78	-24.9	16.5	N	0.28	17.4	N	-35.3	-22.1	-35.3	735.7	0.028	0.000	18.9	3	-27.3	15.2	0.75	 .0730	24	1	100.0	1
09/01/24	1:55	-22.1	-22.1	-22.1	78	-24.9	15.7	N	0.26	17.4	N	-34.9	-22.1	-35.0	735.8	0.028	0.000	18.9	3	-27.3	15.2	0.75	 .0730	23	1	100.0	1
09/01/24	1:56	-22.1	-22.1	-22.1	78	-24.9	16.5	N	0.28	17.4	N	-35.3	-22.1	-35.3	735.8	0.028	0.000	18.9	3	-27.3	15.2	0.75	 .0730	23	1	100.0	1
09/01/24	1:57	-22.0	-22.0	-22.1	78	-24.8	16.5	N	0.28	17.4	N	-35.2	-22.1	-35.3	735.7	0.028	0.000	18.9	3	-27.3	15.2	0.75	 .0730	24	1	100.0	1
09/01/24	1:58	-22.0	-22.0	-22.0	78	-24.8	15.7	N	0.26	17.4	N	-34.9	-22.1	-34.9	735.7	0.028	0.000	18.9	3	-27.3	15.2	0.75	 .0730	23	1	100.0	1
09/01/24	1:59	-22.0	-21.9	-22.0	78	-24.8	14.8	N	0.25	16.5	N	-34.6	-22.1	-34.6	735.8	0.028	0.000	18.9	3	-27.3	15.2	0.75	 .0730	24	1	100.0	1
09/01/24	2:00	-22.0	-22.0	-22.0	78	-24.8	13.9	N	0.23	16.5	N	-34.3	-22.1	-34.3	735.9	0.028	0.000	19.0	3	-27.3	15.3	0.75	 .0730	23	1	100.0	1
09/01/24	2:01	-22.0	-22.0	-22.0	78	-24.8	13.9	NNW	0.23	15.7	N	-34.3	-22.1	-34.3	735.8	0.028	0.000	19.0	3	-27.3	15.3	0.75	 .0730	23	1	100.0	1
09/01/24	2:02	-22.0	-22.0	-22.0	78	-24.8	13.0	N	0.22	14.8	N	-33.9	-22.1	-33.9	735.9	0.028	0.000	19.0	3	-27.3	15.3	0.75	 .0730	24	1	100.0	1
09/01/24	2:03	-22.1	-22.1	-22.1	78	-24.9	13.0	N	0.22	13.9	N	-34.1	-22.2	-34.1	736.0	0.028	0.000	19.0	3	-27.3	15.3	0.75	 .0730	23	1	100.0	1
09/01/24	2:04	-22.2	-22.1	-22.2	78	-25.0	13.9	N	0.23	13.9	N	-34.4	-22.2	-34.5	735.9	0.028	0.000	19.0	3	-27.3	15.3	0.75	 .0730	24	1	100.0	1
09/01/24	2:05	-22.2	-22.2	-22.2	78	-25.0	13.9	NNW	0.23	15.7	NNW	-34.4	-22.2	-34.5	735.9	0.028	0.000	19.0	3	-27.3	15.3	0.75	 .0730	23	1	100.0	1
09/01/24	2:06	-22.1	-22.1	-22.2	78	-24.9	13.9	NNW	0.23	15.7	NNW	-34.4	-22.2	-34.4	736.0	0.028	0.000	19.0	3	-27.3	15.3	0.75	 .0730	24	1	100.0	1
09/01/24	2:07	-22.1	-22.1	-22.1	78	-24.9	13.0	NNW	0.22	14.8	NNW	-34.0	-22.1	-34.1	736.0	0.028	0.000	19.0	3	-27.3	15.3	0.75	 .0730	23	1	100.0	1
09/01/24	2:08	-22.1	-22.1	-22.1	78	-24.9	13.0	NNW	0.22	14.8	NNW	-34.0	-22.1	-34.1	736.0	0.028	0.000	19.0	3	-27.3	15.3	0.75	 .0730	23	1	100.0	1
09/01/24	2:09	-22.0	-22.0	-22.1	78	-24.8	13.0	N	0.22	14.8	N	-33.9	-22.1	-33.9	736.0	0.028	0.000	19.1	3	-27.3	15.3	0.75	 .0730	24	1	100.0	1
09/01/24	2:10	-22.1	-22.1	-22.1	78	-24.9	13.0	N	0.22	13.9	N	-34.0	-22.1	-34.1	736.0	0.028	0.000	19.1	3	-27.3	15.3	0.75	 .0730	23	1	100.0	1
09/01/24	2:11	-22.1	-22.1	-22.1	78	-24.9	13.0	N	0.22	13.9	N	-34.0	-22.1	-34.1	736.0	0.028	0.000	19.1	3	-27.3	15.3	0.75	 .0730	24	1	100.0	1
09/01/24	2:12	-21.9	-21.9	-22.1	78	-24.7	13.0	N	0.22	14.8	NNE	-33.8	-21.9	-33.8	735.9	0.028	0.000	19.1	3	-27.3	15.3	0.75	 .0730	23	1	100.0	1
09/01/24	2:13	-21.7	-21.7	-21.8	78	-24.5	13.9	N	0.23	14.8	N	-33.9	-21.8	-33.9	735.9	0.028	0.000	19.1	3	-27.3	15.3	0.75	 .0730	23	1	100.0	1
09/01/24	2:14	-21.4	-21.4	-21.7	78	-24.3	13.0	N	0.22	14.8	N	-33.2	-21.5	-33.3	735.8	0.028	0.000	19.1	3	-27.2	15.4	0.75	 .0730	24	1	100.0	1
09/01/24	2:15	-21.3	-21.3	-21.4	78	-24.1	13.0	N	0.22	13.9	NNE	-33.0	-21.3	-33.1	735.9	0.028	0.000	19.1	3	-27.2	15.4	0.75	 .0730	23	1	100.0	1
09/01/24	2:16	-21.2	-21.2	-21.3	78	-24.0	12.2	N	0.20	13.9	N	-32.6	-21.3	-32.6	735.9	0.027	0.000	19.1	3	-27.2	15.4	0.75	 .0730	24	1	100.0	1
09/01/24	2:17	-21.2	-21.2	-21.3	78	-24.0	10.4	NNW	0.17	12.2	NNW	-31.8	-21.3	-31.8	736.0	0.027	0.000	19.1	3	-27.2	15.4	0.75	 .0730	23	1	100.0	1
09/01/24	2:18	-21.2	-21.2	-21.2	78	-24.0	11.3	N	0.19	13.0	N	-32.2	-21.3	-32.2	735.9	0.027	0.000	19.1	3	-27.2	15.4	0.75	 .0730	24	1	100.0	1
09/01/24	2:19	-21.1	-21.1	-21.2	78	-23.9	11.3	N	0.19	13.9	N	-32.0	-21.2	-32.1	735.9	0.027	0.000	19.1	3	-27.2	15.4	0.75	 .0730	23	1	100.0	1
09/01/24	2:20	-21.0	-21.0	-21.1	78	-23.8	12.2	N	0.20	13.0	N	-32.3	-21.1	-32.3	735.8	0.027	0.000	19.1	3	-27.2	15.4	0.75	 .0730	23	1	100.0	1
09/01/24	2:21	-20.8	-20.8	-21.0	78	-23.6	10.4	N	0.17	13.9	N	-31.2	-20.8	-31.3	735.8	0.027	0.000	19.1	3	-27.2	15.4	0.75	 .0730	24	1	100.0	1
09/01/24	2:22	-20.5	-20.5	-20.7	78	-23.3	9.6	N	0.16	10.4	NNE	-30.4	-20.6	-30.4	735.9	0.027	0.000	19.1	3	-27.2	15.4	0.75	 .0730	23	1	100.0	1
09/01/24	2:23	-20.2	-20.2	-20.4	78	-23.0	8.7	N	0.14	9.6	N	-29.6	-20.2	-29.6	736.0	0.027	0.000	19.1	3	-27.2	15.4	0.75	 .0730	24	1	100.0	1
09/01/24	2:24	-20.0	-20.0	-20.2	78	-22.9	9.6	N	0.16	11.3	N	-29.8	-20.1	-29.8	735.9	0.027	0.000	19.2	3	-27.2	15.4	0.75	 .0730	23	1	100.0	1
09/01/24	2:25	-19.8	-19.8	-19.9	78	-22.7	10.4	N	0.17	11.3	N	-30.0	-19.9	-30.1	735.9	0.027	0.000	19.2	3	-27.2	15.4	0.75	 .0730	23	1	100.0	1
09/01/24	2:26	-19.6	-19.6	-19.8	78	-22.4	9.6	N	0.16	10.4	N	-29.2	-19.6	-29.3	735.9	0.026	0.000	19.2	3	-27.2	15.4	0.75	 .0730	24	1	100.0	1
09/01/24	2:27	-19.3	-19.3	-19.5	78	-22.2	7.0	NNW	0.12	7.8	NNW	-27.4	-19.4	-27.5	736.0	0.026	0.000	19.2	3	-27.2	15.4	0.75	 .0730	23	1	100.0	1
09/01/24	2:28	-19.1	-19.1	-19.3	78	-21.9	7.8	N	0.13	8.7	N	-27.7	-19.1	-27.7	736.0	0.026	0.000	19.2	3	-27.2	15.4	0.75	 .0730	24	1	100.0	1
09/01/24	2:29	-18.9	-18.9	-19.1	78	-21.8	7.0	N	0.12	8.7	N	-26.9	-18.9	-27.0	736.0	0.026	0.000	19.2	3	-27.2	15.4	0.75	 .0730	23	1	100.0	1
09/01/24	2:30	-18.7	-18.7	-18.8	78	-21.6	7.8	N	0.13	9.6	N	-27.3	-18.8	-27.3	736.0	0.026	0.000	19.2	3	-27.2	15.4	0.75	 .0730	24	1	100.0	1
09/01/24	2:31	-18.6	-18.6	-18.7	78	-21.5	7.8	N	0.13	8.7	N	-27.1	-18.7	-27.2	736.0	0.026	0.000	19.2	3	-27.2	15.4	0.75	 .0730	23	1	100.0	1
09/01/24	2:32	-18.5	-18.5	-18.6	79	-21.2	6.1	N	0.10	7.8	N	-25.8	-18.6	-25.9	736.0	0.026	0.000	19.2	3	-27.2	15.4	0.75	 .0730	23	1	100.0	1
09/01/24	2:33	-18.4	-18.4	-18.5	79	-21.1	7.0	N	0.12	7.8	N	-26.3	-18.4	-26.4	735.9	0.026	0.000	19.2	3	-27.2	15.4	0.75	 .0730	24	1	100.0	1
09/01/24	2:34	-18.3	-18.3	-18.4	79	-21.1	6.1	N	0.10	8.7	N	-25.7	-18.4	-25.7	735.9	0.025	0.000	19.2	3	-27.2	15.4	0.75	 .0730	23	1	100.0	1
09/01/24	2:35	-18.3	-18.3	-18.3	78	-21.2	6.1	N	0.10	7.0	N	-25.6	-18.3	-25.7	735.9	0.025	0.000	19.2	3	-27.2	15.4	0.75	 .0730	24	1	100.0	1
09/01/24	2:36	-18.2	-18.2	-18.3	78	-21.1	5.2	N	0.09	7.0	N	-24.8	-18.3	-24.9	735.9	0.025	0.000	19.2	3	-27.2	15.4	0.75	 .0730	23	1	100.0	1
09/01/24	2:37	-18.1	-18.1	-18.2	78	-21.0	5.2	N	0.09	7.0	N	-24.7	-18.2	-24.8	735.9	0.025	0.000	19.2	3	-27.2	15.4	0.75	 .0730	23	1	100.0	1
09/01/24	2:38	-18.0	-18.0	-18.1	78	-20.9	6.1	N	0.10	7.0	N	-25.3	-18.1	-25.3	735.9	0.025	0.000	19.2	3	-27.2	15.4	0.75	 .0730	24	1	100.0	1
09/01/24	2:39	-17.9	-17.9	-18.0	79	-20.6	5.2	N	0.09	7.0	NNE	-24.4	-17.9	-24.5	735.9	0.025	0.000	19.2	3	-27.2	15.4	0.75	 .0730	23	1	100.0	1
09/01/24	2:40	-17.8	-17.8	-17.8	79	-20.5	5.2	N	0.09	7.0	N	-24.3	-17.8	-24.4	735.9	0.025	0.000	19.2	3	-27.2	15.4	0.75	 .0730	24	1	100.0	1
09/01/24	2:41	-17.7	-17.7	-17.8	79	-20.5	5.2	N	0.09	7.0	N	-24.3	-17.8	-24.3	735.9	0.025	0.000	19.2	3	-27.2	15.4	0.75	 .0730	23	1	100.0	1
09/01/24	2:42	-17.7	-17.7	-17.7	78	-20.6	4.3	N	0.07	6.1	N	-23.4	-17.7	-23.5	735.9	0.025	0.000	19.2	3	-27.2	15.4	0.75	 .0730	23	1	100.0	1
09/01/24	2:43	-17.6	-17.6	-17.6	78	-20.5	5.2	N	0.09	7.0	N	-24.1	-17.6	-24.1	735.9	0.025	0.000	19.3	3	-27.1	15.5	0.75	 .0730	24	1	100.0	1
09/01/24	2:44	-17.6	-17.6	-17.6	78	-20.5	6.1	N	0.10	7.0	N	-24.7	-17.6	-24.8	735.9	0.025	0.000	19.3	3	-27.1	15.5	0.75	 .0730	23	1	100.0	1
09/01/24	2:45	-17.6	-17.6	-17.6	78	-20.5	6.1	NNE	0.10	7.0	NNE	-24.7	-17.6	-24.8	735.9	0.025	0.000	19.3	3	-27.1	15.5	0.75	 .0730	24	1	100.0	1
09/01/24	2:46	-17.6	-17.6	-17.6	78	-20.5	7.0	NNE	0.12	8.7	NNE	-25.4	-17.7	-25.4	735.9	0.025	0.000	19.3	3	-27.1	15.5	0.75	 .0730	23	1	100.0	1
09/01/24	2:47	-18.1	-17.7	-18.1	78	-21.0	9.6	N	0.16	10.4	N	-27.4	-18.1	-27.4	736.0	0.025	0.000	19.3	3	-27.1	15.5	0.75	 .0730	24	1	100.0	1
09/01/24	2:48	-18.7	-18.2	-18.7	78	-21.6	10.4	NNE	0.17	12.2	NNE	-28.6	-18.7	-28.6	735.9	0.026	0.000	19.3	3	-27.1	15.5	0.75	 .0730	23	1	100.0	1
09/01/24	2:49	-18.9	-18.7	-18.9	79	-21.7	4.3	NNE	0.07	7.8	NNE	-24.9	-19.0	-25.0	735.9	0.026	0.000	19.3	3	-27.1	15.6	0.75	 .0729	23	1	100.0	1
09/01/24	2:50	-18.9	-18.9	-18.9	78	-21.8	5.2	NNE	0.09	7.8	NNE	-25.7	-18.9	-25.7	735.9	0.026	0.000	19.3	3	-27.1	15.6	0.75	 .0729	24	1	100.0	1
09/01/24	2:51	-18.8	-18.8	-18.9	78	-21.7	5.2	NE	0.09	6.1	NE	-25.6	-18.9	-25.6	735.9	0.026	0.000	19.3	3	-27.1	15.6	0.75	 .0729	23	1	100.0	1
09/01/24	2:52	-18.7	-18.7	-18.8	78	-21.6	4.3	NNE	0.07	5.2	NNE	-24.6	-18.7	-24.7	735.9	0.026	0.000	19.3	3	-27.1	15.6	0.75	 .0729	24	1	100.0	1
09/01/24	2:53	-18.6	-18.6	-18.7	78	-21.4	1.7	NE	0.03	3.5	NE	-20.9	-18.6	-20.9	736.0	0.026	0.000	19.4	3	-27.0	15.6	0.75	 .0729	23	1	100.0	1
09/01/24	2:54	-18.4	-18.4	-18.5	78	-21.3	2.6	NE	0.04	3.5	NE	-22.3	-18.5	-22.3	736.0	0.026	0.000	19.4	3	-27.0	15.6	0.75	 .0729	23	1	100.0	1
09/01/24	2:55	-18.2	-18.2	-18.4	78	-21.1	2.6	NE	0.04	3.5	NE	-22.1	-18.3	-22.1	735.9	0.025	0.000	19.4	3	-27.0	15.6	0.75	 .0729	24	1	100.0	1
09/01/24	2:56	-18.1	-18.1	-18.2	78	-21.0	4.3	NNE	0.07	7.8	NNE	-23.9	-18.1	-23.9	735.9	0.025	0.000	19.4	3	-27.0	15.6	0.75	 .0729	23	1	100.0	1
09/01/24	2:57	-18.2	-18.1	-18.2	79	-20.9	8.7	NNE	0.14	11.3	N	-27.1	-18.2	-27.1	736.0	0.025	0.000	19.4	3	-27.0	15.6	0.75	 .0729	24	1	100.0	1
09/01/24	2:58	-18.6	-18.2	-18.6	79	-21.3	11.3	NNW	0.19	13.0	N	-28.8	-18.6	-28.8	736.0	0.026	0.000	19.4	3	-27.0	15.6	0.75	 .0729	23	1	100.0	1
09/01/24	2:59	-19.3	-18.7	-19.3	79	-22.1	12.2	NNW	0.20	13.0	NNW	-30.2	-19.4	-30.2	736.0	0.026	0.000	19.4	3	-27.0	15.6	0.75	 .0729	24	1	100.0	1
09/01/24	3:00	-20.2	-19.5	-20.2	79	-22.9	9.6	N	0.16	10.4	N	-30.0	-20.2	-30.1	736.0	0.027	0.000	19.4	3	-27.0	15.6	0.75	 .0729	23	1	100.0	1
09/01/24	3:01	-20.6	-20.2	-20.6	78	-23.4	10.4	N	0.17	11.3	N	-31.0	-20.7	-31.1	736.0	0.027	0.000	19.4	3	-27.0	15.6	0.75	 .0729	23	1	100.0	1
09/01/24	3:02	-21.2	-20.7	-21.2	78	-24.0	10.4	N	0.17	11.3	N	-31.7	-21.2	-31.7	736.0	0.027	0.000	19.4	3	-27.0	15.6	0.75	 .0729	24	1	100.0	1
09/01/24	3:03	-21.6	-21.3	-21.6	78	-24.4	10.4	NNE	0.17	12.2	NNE	-32.2	-21.6	-32.2	735.9	0.028	0.000	19.4	3	-27.0	15.7	0.75	 .0729	23	1	100.0	1
09/01/24	3:04	-21.5	-21.5	-21.6	78	-24.3	9.6	NNE	0.16	11.3	NNE	-31.7	-21.6	-31.7	735.9	0.028	0.000	19.4	3	-27.0	15.7	0.75	 .0729	24	1	100.0	1
09/01/24	3:05	-21.3	-21.3	-21.4	77	-24.2	9.6	NNE	0.16	10.4	NNE	-31.4	-21.3	-31.4	735.9	0.028	0.000	19.4	3	-27.0	15.7	0.75	 .0729	23	1	100.0	1
09/01/24	3:06	-21.2	-21.2	-21.2	78	-24.0	9.6	NNE	0.16	10.4	NNE	-31.2	-21.2	-31.3	736.0	0.027	0.000	19.4	3	-27.0	15.7	0.75	 .0729	23	1	100.0	1
09/01/24	3:07	-21.2	-21.1	-21.2	78	-24.0	9.6	N	0.16	10.4	NNE	-31.2	-21.2	-31.3	736.0	0.027	0.000	19.4	3	-27.0	15.7	0.75	 .0729	24	1	100.0	1
09/01/24	3:08	-21.3	-21.2	-21.3	78	-24.1	8.7	N	0.14	10.4	N	-30.9	-21.3	-30.9	736.1	0.028	0.000	19.4	3	-27.0	15.7	0.75	 .0729	23	1	100.0	1
09/01/24	3:09	-21.3	-21.3	-21.3	78	-24.1	8.7	NNE	0.14	10.4	NNE	-31.0	-21.4	-31.1	736.1	0.028	0.000	19.4	3	-27.0	15.7	0.75	 .0729	24	1	100.0	1
09/01/24	3:10	-21.2	-21.2	-21.3	78	-24.0	7.0	NNE	0.12	7.8	N	-29.7	-21.2	-29.8	736.0	0.027	0.000	19.4	3	-27.0	15.7	0.75	 .0729	23	1	100.0	1
09/01/24	3:11	-20.8	-20.8	-21.1	78	-23.7	6.1	N	0.10	7.8	NNE	-28.7	-20.9	-28.7	736.1	0.027	0.000	19.4	3	-27.0	15.7	0.75	 .0729	23	1	100.0	1
09/01/24	3:12	-20.4	-20.4	-20.8	78	-23.3	3.5	NNE	0.06	4.3	N	-25.7	-20.5	-25.8	736.1	0.027	0.000	19.4	3	-27.0	15.7	0.75	 .0729	24	1	100.0	1
09/01/24	3:13	-20.1	-20.1	-20.3	78	-22.9	1.7	NNE	0.03	2.6	NNE	-22.6	-20.1	-22.6	736.0	0.027	0.000	19.4	3	-27.0	15.7	0.75	 .0729	23	1	100.0	1
09/01/24	3:14	-19.7	-19.7	-20.0	79	-22.4	1.7	NNE	0.03	2.6	NNE	-22.2	-19.8	-22.3	736.1	0.026	0.000	19.5	3	-27.0	15.7	0.75	 .0729	24	1	100.0	1
09/01/24	3:15	-19.5	-19.5	-19.7	79	-22.2	0.9	NNE	0.01	1.7	NNE	-19.6	-19.6	-19.6	736.1	0.026	0.000	19.5	3	-27.0	15.7	0.75	 .0729	23	1	100.0	1
09/01/24	3:16	-19.3	-19.3	-19.4	79	-22.0	0.9	NNE	0.01	1.7	NNE	-19.3	-19.3	-19.3	736.1	0.026	0.000	19.5	3	-27.0	15.7	0.75	 .0729	24	1	100.0	1
09/01/24	3:17	-19.1	-19.1	-19.2	79	-21.8	0.0	NNE	0.00	1.7	NNE	-19.0	-19.1	-19.1	736.1	0.026	0.000	19.5	3	-27.0	15.7	0.75	 .0729	23	1	100.0	1
09/01/24	3:18	-18.9	-18.9	-19.1	79	-21.6	2.6	N	0.04	3.5	N	-22.8	-18.9	-22.8	736.1	0.026	0.000	19.5	3	-27.0	15.7	0.75	 .0729	23	1	100.0	1
09/01/24	3:19	-18.7	-18.7	-18.8	79	-21.5	2.6	NNW	0.04	3.5	NNW	-22.6	-18.8	-22.7	736.1	0.026	0.000	19.5	3	-27.0	15.7	0.75	 .0729	24	1	100.0	1
09/01/24	3:20	-18.6	-18.6	-18.7	79	-21.4	1.7	NNW	0.03	2.6	NNW	-21.0	-18.7	-21.1	736.0	0.026	0.000	19.5	3	-27.0	15.7	0.75	 .0729	23	1	100.0	1
09/01/24	3:21	-18.6	-18.6	-18.6	79	-21.3	2.6	NNW	0.04	5.2	NE	-22.4	-18.6	-22.5	736.0	0.026	0.000	19.5	3	-27.0	15.7	0.75	 .0729	24	1	100.0	1
09/01/24	3:22	-18.4	-18.4	-18.5	79	-21.2	4.3	NE	0.07	5.2	NE	-24.3	-18.5	-24.4	736.0	0.026	0.000	19.5	3	-27.0	15.7	0.75	 .0729	23	1	100.0	1
09/01/24	3:23	-18.2	-18.2	-18.4	79	-21.0	4.3	NE	0.07	5.2	NE	-24.1	-18.3	-24.1	736.0	0.025	0.000	19.6	3	-26.9	15.8	0.75	 .0729	23	1	100.0	1
09/01/24	3:24	-18.0	-18.0	-18.2	79	-20.8	3.5	NE	0.06	4.3	NE	-22.9	-18.1	-22.9	736.1	0.025	0.000	19.6	3	-26.9	15.8	0.75	 .0729	24	1	100.0	1
09/01/24	3:25	-17.8	-17.8	-17.9	79	-20.5	3.5	NE	0.06	4.3	NE	-22.7	-17.8	-22.7	736.1	0.025	0.000	19.6	3	-26.9	15.8	0.75	 .0729	23	1	100.0	1
09/01/24	3:26	-17.6	-17.6	-17.7	79	-20.4	4.3	NE	0.07	5.2	NE	-23.4	-17.7	-23.4	736.1	0.025	0.000	19.6	3	-26.9	15.8	0.75	 .0729	24	1	100.0	1
09/01/24	3:27	-17.4	-17.4	-17.6	79	-20.2	5.2	NE	0.09	5.2	NE	-23.9	-17.5	-24.0	736.1	0.025	0.000	19.6	3	-26.9	15.8	0.75	 .0729	23	1	100.0	1
09/01/24	3:28	-17.3	-17.3	-17.4	79	-20.0	6.1	NE	0.10	7.8	NE	-24.4	-17.3	-24.4	736.0	0.025	0.000	19.6	3	-26.9	15.8	0.75	 .0729	24	1	100.0	1
09/01/24	3:29	-17.2	-17.2	-17.3	79	-20.0	6.1	NE	0.10	7.8	NE	-24.3	-17.3	-24.4	736.0	0.025	0.000	19.6	3	-26.9	15.8	0.75	 .0729	23	1	100.0	1
09/01/24	3:30	-17.2	-17.2	-17.2	79	-19.9	5.2	NE	0.09	6.1	NE	-23.6	-17.2	-23.7	736.0	0.025	0.000	19.6	3	-26.9	15.8	0.75	 .0729	23	1	100.0	1
09/01/24	3:31	-17.1	-17.1	-17.1	79	-19.9	4.3	NE	0.07	5.2	NE	-22.8	-17.2	-22.8	736.1	0.025	0.000	19.6	3	-26.9	15.8	0.75	 .0729	24	1	100.0	1
09/01/24	3:32	-17.1	-17.1	-17.1	79	-19.8	3.5	NE	0.06	4.3	NE	-21.8	-17.1	-21.9	736.1	0.025	0.000	19.6	3	-26.9	15.8	0.75	 .0729	23	1	100.0	1
09/01/24	3:33	-17.0	-17.0	-17.1	79	-19.8	3.5	NE	0.06	4.3	NE	-21.8	-17.1	-21.8	736.1	0.025	0.000	19.6	3	-26.9	15.8	0.75	 .0729	24	1	100.0	1
09/01/24	3:34	-16.9	-16.9	-17.0	79	-19.7	4.3	NE	0.07	4.3	NE	-22.6	-17.0	-22.6	736.1	0.024	0.000	19.6	3	-26.9	15.8	0.75	 .0729	23	1	100.0	1
09/01/24	3:35	-16.9	-16.9	-16.9	79	-19.7	4.3	NE	0.07	4.3	NE	-22.6	-17.0	-22.6	736.2	0.024	0.000	19.7	3	-26.9	15.9	0.75	 .0729	23	1	100.0	1
09/01/24	3:36	-16.9	-16.9	-16.9	79	-19.7	3.5	NE	0.06	4.3	NE	-21.7	-17.0	-21.8	736.2	0.024	0.000	19.7	3	-26.9	15.9	0.75	 .0729	24	1	100.0	1
09/01/24	3:37	-16.9	-16.9	-16.9	79	-19.7	4.3	NNE	0.07	6.1	NNE	-22.5	-16.9	-22.6	736.1	0.024	0.000	19.7	3	-26.9	15.9	0.75	 .0729	23	1	100.0	1
09/01/24	3:38	-16.8	-16.8	-16.9	79	-19.6	3.5	NNW	0.06	7.0	N	-21.6	-16.9	-21.6	736.1	0.024	0.000	19.7	3	-26.9	15.9	0.75	 .0729	24	1	100.0	1
09/01/24	3:39	-16.8	-16.8	-16.8	79	-19.6	4.3	N	0.07	5.2	NNW	-22.4	-16.9	-22.5	736.2	0.024	0.000	19.7	3	-26.9	15.9	0.75	 .0729	23	1	100.0	1
09/01/24	3:40	-16.8	-16.8	-16.8	79	-19.6	7.0	N	0.12	7.8	N	-24.3	-16.8	-24.4	736.2	0.024	0.000	19.7	3	-26.9	15.9	0.75	 .0729	24	1	100.0	1
09/01/24	3:41	-16.8	-16.8	-16.8	79	-19.6	6.1	N	0.10	7.8	N	-23.8	-16.8	-23.8	736.2	0.024	0.000	19.7	3	-26.9	15.9	0.75	 .0729	23	1	100.0	1
09/01/24	3:42	-16.8	-16.8	-16.8	79	-19.6	5.2	N	0.09	7.0	N	-23.1	-16.8	-23.2	736.3	0.024	0.000	19.7	3	-26.9	15.9	0.75	 .0729	23	1	100.0	1
09/01/24	3:43	-16.8	-16.8	-16.8	79	-19.6	6.1	NNE	0.10	7.8	NNE	-23.8	-16.8	-23.8	736.3	0.024	0.000	19.7	3	-26.8	15.9	0.75	 .0729	24	1	100.0	1
09/01/24	3:44	-16.8	-16.8	-16.8	79	-19.6	6.1	N	0.10	7.0	N	-23.8	-16.8	-23.8	736.3	0.024	0.000	19.7	3	-26.9	15.9	0.75	 .0729	23	1	100.0	1
09/01/24	3:45	-16.8	-16.8	-16.8	79	-19.6	6.1	N	0.10	7.0	N	-23.8	-16.8	-23.8	736.3	0.024	0.000	19.7	3	-26.8	15.9	0.75	 .0729	24	1	100.0	1
09/01/24	3:46	-16.8	-16.8	-16.8	79	-19.6	7.0	NNW	0.12	8.7	NNW	-24.3	-16.8	-24.4	736.3	0.024	0.000	19.7	3	-26.8	15.9	0.75	 .0729	23	1	100.0	1
09/01/24	3:47	-16.8	-16.8	-16.8	79	-19.6	5.2	NNE	0.09	8.7	NNE	-23.1	-16.8	-23.2	736.4	0.024	0.000	19.7	3	-26.8	15.9	0.75	 .0729	23	1	100.0	1
09/01/24	3:48	-16.8	-16.8	-16.8	79	-19.6	1.7	N	0.03	3.5	N	-19.0	-16.9	-19.1	736.4	0.024	0.000	19.7	3	-26.8	15.9	0.75	 .0729	24	1	100.0	1
09/01/24	3:49	-16.8	-16.8	-16.8	78	-19.8	0.9	NNE	0.01	1.7	NNE	-16.8	-16.9	-16.9	736.4	0.024	0.000	19.7	3	-26.8	15.9	0.75	 .0729	23	1	100.0	1
09/01/24	3:50	-16.8	-16.8	-16.8	78	-19.8	1.7	NNE	0.03	2.6	N	-19.0	-16.9	-19.1	736.4	0.024	0.000	19.7	3	-26.8	15.9	0.75	 .0729	24	1	100.0	1
09/01/24	3:51	-16.8	-16.8	-16.8	78	-19.7	1.7	N	0.03	2.6	N	-18.9	-16.8	-19.0	736.4	0.024	0.000	19.7	3	-26.8	15.9	0.75	 .0729	23	1	100.0	1
09/01/24	3:52	-16.7	-16.7	-16.8	79	-19.5	0.9	N	0.01	1.7	N	-16.7	-16.7	-16.7	736.4	0.024	0.000	19.7	3	-26.8	15.9	0.75	 .0729	24	1	100.0	1
09/01/24	3:53	-16.6	-16.6	-16.7	78	-19.5	1.7	N	0.03	2.6	N	-18.8	-16.7	-18.8	736.4	0.024	0.000	19.8	3	-26.8	16.0	0.75	 .0729	23	1	100.0	1
09/01/24	3:54	-16.6	-16.6	-16.6	78	-19.5	1.7	N	0.03	2.6	NE	-18.7	-16.6	-18.8	736.5	0.024	0.000	19.7	3	-26.8	15.9	0.75	 .0729	23	1	100.0	1
09/01/24	3:55	-16.6	-16.6	-16.6	78	-19.5	1.7	ENE	0.03	3.5	ENE	-18.7	-16.6	-18.8	736.5	0.024	0.000	19.8	3	-26.8	16.0	0.75	 .0729	24	1	100.0	1
09/01/24	3:56	-16.5	-16.5	-16.6	78	-19.4	0.9	ENE	0.01	1.7	ENE	-16.5	-16.6	-16.6	736.6	0.024	0.000	19.8	3	-26.8	16.0	0.75	 .0729	23	1	100.0	1
09/01/24	3:57	-16.5	-16.5	-16.6	78	-19.4	0.9	ENE	0.01	1.7	ENE	-16.5	-16.6	-16.6	736.5	0.024	0.000	19.8	3	-26.8	16.0	0.75	 .0729	24	1	100.0	1
09/01/24	3:58	-16.5	-16.5	-16.5	78	-19.4	0.9	ENE	0.01	1.7	ENE	-16.5	-16.6	-16.6	736.6	0.024	0.000	19.8	3	-26.8	16.0	0.75	 .0729	23	1	100.0	1
09/01/24	3:59	-16.5	-16.5	-16.5	78	-19.4	0.9	ENE	0.01	1.7	ENE	-16.5	-16.6	-16.6	736.5	0.024	0.000	19.8	3	-26.8	16.0	0.75	 .0729	23	1	100.0	1
09/01/24	4:00	-16.5	-16.5	-16.5	78	-19.4	0.9	ENE	0.01	1.7	ENE	-16.5	-16.6	-16.6	736.5	0.024	0.000	19.8	3	-26.8	16.0	0.75	 .0729	24	1	100.0	1
09/01/24	4:01	-16.5	-16.5	-16.5	78	-19.4	0.9	ENE	0.01	1.7	ENE	-16.5	-16.6	-16.6	736.5	0.024	0.000	19.8	3	-26.7	16.1	0.75	 .0729	23	1	100.0	1
09/01/24	4:02	-16.5	-16.5	-16.5	78	-19.4	0.0	ENE	0.00	0.9	ENE	-16.5	-16.6	-16.6	736.5	0.024	0.000	19.8	3	-26.7	16.1	0.75	 .0729	24	1	100.0	1
09/01/24	4:03	-16.5	-16.5	-16.5	78	-19.4	0.9	ENE	0.01	1.7	ENE	-16.5	-16.6	-16.6	736.5	0.024	0.000	19.8	3	-26.7	16.1	0.75	 .0729	23	1	100.0	1
09/01/24	4:04	-16.5	-16.5	-16.5	78	-19.4	1.7	ENE	0.03	1.7	ENE	-18.7	-16.6	-18.7	736.6	0.024	0.000	19.8	3	-26.7	16.1	0.75	 .0729	23	1	100.0	1
09/01/24	4:05	-16.5	-16.5	-16.5	78	-19.4	1.7	ENE	0.03	2.6	ENE	-18.7	-16.6	-18.7	736.7	0.024	0.000	19.8	3	-26.7	16.1	0.75	 .0729	24	1	100.0	1
09/01/24	4:06	-16.5	-16.5	-16.5	78	-19.4	1.7	ENE	0.03	2.6	ENE	-18.7	-16.6	-18.7	736.6	0.024	0.000	19.8	3	-26.7	16.1	0.75	 .0729	23	1	100.0	1
09/01/24	4:07	-16.5	-16.5	-16.5	78	-19.4	2.6	ENE	0.04	3.5	ENE	-20.1	-16.6	-20.2	736.6	0.024	0.000	19.9	3	-26.7	16.1	0.75	 .0729	24	1	100.0	1
09/01/24	4:08	-16.5	-16.5	-16.5	78	-19.4	2.6	NNE	0.04	3.5	NNE	-20.1	-16.6	-20.2	736.6	0.024	0.000	19.9	3	-26.7	16.1	0.75	 .0729	23	1	100.0	1
09/01/24	4:09	-16.4	-16.4	-16.4	78	-19.4	1.7	NNE	0.03	2.6	NNE	-18.6	-16.5	-18.7	736.7	0.024	0.000	19.9	3	-26.7	16.1	0.75	 .0729	24	1	100.0	1
09/01/24	4:10	-16.4	-16.4	-16.4	78	-19.4	2.6	N	0.04	2.6	NNE	-20.1	-16.5	-20.1	736.7	0.024	0.000	19.9	3	-26.7	16.1	0.75	 .0729	23	1	100.0	1
09/01/24	4:11	-16.8	-16.4	-16.8	78	-19.8	7.8	NW	0.13	8.7	NW	-24.9	-16.9	-25.0	736.7	0.024	0.000	19.9	3	-26.7	16.1	0.75	 .0729	23	1	100.0	1
09/01/24	4:12	-18.0	-17.0	-18.0	79	-20.8	7.8	NNW	0.13	8.7	NW	-26.4	-18.1	-26.4	736.8	0.025	0.000	19.9	3	-26.7	16.1	0.75	 .0729	24	1	100.0	1
09/01/24	4:13	-18.9	-18.2	-18.9	79	-21.7	7.0	NNW	0.12	7.8	NNW	-27.0	-19.0	-27.1	736.8	0.026	0.000	19.9	3	-26.7	16.1	0.75	 .0729	23	1	100.0	1
09/01/24	4:14	-19.6	-19.1	-19.6	78	-22.4	4.3	N	0.07	7.0	N	-25.7	-19.6	-25.7	736.8	0.026	0.000	19.9	3	-26.7	16.1	0.75	 .0729	24	1	100.0	1
09/01/24	4:15	-20.2	-19.7	-20.2	78	-23.0	4.3	N	0.07	4.3	N	-26.4	-20.2	-26.4	736.7	0.027	0.000	19.9	3	-26.7	16.2	0.75	 .0729	23	1	100.0	1
09/01/24	4:16	-20.2	-20.2	-20.2	78	-23.0	3.5	N	0.06	4.3	N	-25.4	-20.2	-25.5	736.7	0.027	0.000	19.9	3	-26.7	16.2	0.75	 .0729	23	1	100.0	1
09/01/24	4:17	-19.8	-19.8	-20.1	78	-22.7	3.5	N	0.06	4.3	NNE	-25.1	-19.9	-25.1	736.6	0.027	0.000	19.9	3	-26.7	16.1	0.75	 .0729	24	1	100.0	1
09/01/24	4:18	-19.4	-19.4	-19.8	77	-22.5	2.6	N	0.04	3.5	N	-23.4	-19.5	-23.5	736.7	0.026	0.000	19.9	3	-26.7	16.2	0.75	 .0729	23	1	100.0	1
09/01/24	4:19	-19.1	-19.1	-19.4	78	-21.9	2.6	N	0.04	3.5	N	-23.0	-19.1	-23.1	736.7	0.026	0.000	19.9	3	-26.7	16.2	0.75	 .0729	24	1	100.0	1
09/01/24	4:20	-18.7	-18.7	-19.0	78	-21.6	2.6	N	0.04	2.6	N	-22.6	-18.7	-22.6	736.7	0.026	0.000	19.9	3	-26.7	16.2	0.75	 .0729	23	1	100.0	1
09/01/24	4:21	-18.3	-18.3	-18.6	78	-21.2	2.6	N	0.04	3.5	N	-22.1	-18.3	-22.2	736.7	0.025	0.000	19.9	3	-26.7	16.2	0.75	 .0729	24	1	100.0	1
09/01/24	4:22	-18.2	-18.1	-18.2	78	-21.1	6.1	NW	0.10	8.7	NW	-25.4	-18.2	-25.5	736.8	0.025	0.000	19.9	3	-26.7	16.2	0.75	 .0729	23	1	100.0	1
09/01/24	4:23	-18.8	-18.3	-18.8	79	-21.5	8.7	NNW	0.14	9.6	NW	-27.8	-18.8	-27.9	736.7	0.026	0.000	19.9	3	-26.7	16.2	0.75	 .0729	23	1	100.0	1
09/01/24	4:24	-19.6	-18.9	-19.6	79	-22.3	7.8	NNW	0.13	8.7	NNW	-28.3	-19.6	-28.3	736.7	0.026	0.000	20.0	3	-26.6	16.2	0.75	 .0729	24	1	100.0	1
09/01/24	4:25	-20.1	-19.7	-20.1	79	-22.8	5.2	NNW	0.09	7.0	NNW	-27.1	-20.1	-27.1	736.8	0.027	0.000	19.9	3	-26.7	16.2	0.75	 .0729	23	1	100.0	1
09/01/24	4:26	-20.6	-20.1	-20.6	79	-23.2	8.7	NW	0.14	11.3	NW	-30.0	-20.6	-30.1	736.8	0.027	0.000	20.0	3	-26.6	16.2	0.75	 .0729	24	1	100.0	1
09/01/24	4:27	-21.1	-20.7	-21.1	79	-23.7	8.7	NNW	0.14	13.0	NW	-30.6	-21.1	-30.7	736.8	0.027	0.000	20.0	3	-26.6	16.2	0.75	 .0729	23	1	100.0	1
09/01/24	4:28	-21.3	-21.1	-21.3	79	-24.0	5.2	N	0.09	9.6	NNW	-28.5	-21.3	-28.6	736.8	0.028	0.000	20.0	3	-26.6	16.2	0.75	 .0729	23	1	100.0	1
09/01/24	4:29	-21.3	-21.3	-21.3	78	-24.1	2.6	N	0.04	3.5	N	-25.6	-21.4	-25.6	736.9	0.028	0.000	20.0	3	-26.6	16.2	0.75	 .0729	24	1	100.0	1
09/01/24	4:30	-21.2	-21.2	-21.3	78	-24.0	3.5	N	0.06	4.3	N	-26.6	-21.3	-26.7	736.8	0.027	0.000	20.0	3	-26.6	16.2	0.75	 .0729	23	1	100.0	1
09/01/24	4:31	-20.9	-20.9	-21.2	78	-23.7	3.5	NNE	0.06	4.3	NNE	-26.3	-20.9	-26.3	736.7	0.027	0.000	20.0	3	-26.6	16.2	0.75	 .0729	24	1	100.0	1
09/01/24	4:32	-20.5	-20.5	-20.8	78	-23.3	1.7	NNE	0.03	2.6	NNE	-23.1	-20.6	-23.1	736.7	0.027	0.000	20.0	3	-26.6	16.2	0.75	 .0729	23	1	100.0	1
09/01/24	4:33	-20.1	-20.1	-20.4	78	-23.0	2.6	WNW	0.04	3.5	WNW	-24.2	-20.2	-24.2	736.8	0.027	0.000	20.0	3	-26.6	16.2	0.75	 .0729	23	1	100.0	1
09/01/24	4:34	-19.7	-19.7	-20.1	79	-22.4	2.6	SSW	0.04	3.5	SSW	-23.7	-19.7	-23.7	736.8	0.026	0.000	20.0	3	-26.6	16.2	0.75	 .0729	24	1	100.0	1
09/01/24	4:35	-19.2	-19.2	-19.6	79	-21.9	1.7	SSW	0.03	2.6	SSW	-21.7	-19.3	-21.7	736.8	0.026	0.000	20.0	3	-26.6	16.2	0.75	 .0729	23	1	100.0	1
09/01/24	4:36	-18.8	-18.8	-19.2	79	-21.6	1.7	SSW	0.03	3.5	SSE	-21.2	-18.9	-21.3	736.8	0.026	0.000	20.0	3	-26.6	16.2	0.75	 .0729	24	1	100.0	1
09/01/24	4:37	-18.6	-18.6	-18.8	79	-21.3	5.2	SSE	0.09	10.4	NW	-25.2	-18.6	-25.3	736.8	0.026	0.000	20.0	3	-26.6	16.2	0.75	 .0729	23	1	100.0	1
09/01/24	4:38	-19.0	-18.5	-19.0	79	-21.7	11.3	NNW	0.19	13.0	NW	-29.3	-19.1	-29.4	736.8	0.026	0.000	20.0	3	-26.6	16.2	0.75	 .0729	24	1	100.0	1
09/01/24	4:39	-19.7	-19.1	-19.7	80	-22.3	9.6	NNW	0.16	12.2	NNW	-29.4	-19.8	-29.5	736.8	0.026	0.000	20.0	3	-26.6	16.2	0.75	 .0729	23	1	100.0	1
09/01/24	4:40	-20.2	-19.8	-20.2	80	-22.8	7.8	N	0.13	9.6	N	-29.1	-20.3	-29.2	736.8	0.027	0.000	20.0	3	-26.6	16.2	0.75	 .0729	23	1	100.0	1
09/01/24	4:41	-20.2	-20.2	-20.3	79	-22.9	7.0	N	0.12	7.8	NNE	-28.6	-20.3	-28.6	736.8	0.027	0.000	20.0	3	-26.6	16.2	0.75	 .0729	24	1	100.0	1
09/01/24	4:42	-20.0	-20.0	-20.2	79	-22.7	4.3	NNE	0.07	7.0	N	-26.2	-20.1	-26.2	736.8	0.027	0.000	20.1	3	-26.6	16.3	0.75	 .0728	23	1	100.0	1
09/01/24	4:43	-19.7	-19.7	-19.9	79	-22.4	4.3	NE	0.07	5.2	NNE	-25.8	-19.8	-25.9	736.9	0.026	0.000	20.1	3	-26.6	16.3	0.75	 .0729	24	1	100.0	1
09/01/24	4:44	-19.4	-19.4	-19.7	79	-22.2	4.3	NE	0.07	5.2	NE	-25.5	-19.5	-25.6	736.9	0.026	0.000	20.1	3	-26.6	16.3	0.75	 .0729	23	1	100.0	1
09/01/24	4:45	-19.1	-19.1	-19.4	79	-21.8	2.6	NE	0.04	3.5	NE	-23.0	-19.1	-23.1	736.9	0.026	0.000	20.1	3	-26.6	16.3	0.75	 .0729	23	1	100.0	1
09/01/24	4:46	-18.8	-18.8	-19.0	79	-21.5	0.9	NE	0.01	1.7	NE	-18.8	-18.8	-18.8	737.0	0.026	0.000	20.1	3	-26.6	16.3	0.75	 .0729	24	1	100.0	1
09/01/24	4:47	-18.6	-18.6	-18.8	79	-21.4	1.7	NE	0.03	2.6	NE	-21.0	-18.7	-21.1	737.0	0.026	0.000	20.1	3	-26.6	16.3	0.75	 .0729	23	1	100.0	1
09/01/24	4:48	-18.4	-18.4	-18.6	79	-21.1	1.7	NE	0.03	2.6	NE	-20.7	-18.4	-20.8	737.0	0.026	0.000	20.1	3	-26.6	16.3	0.75	 .0729	24	1	100.0	1
09/01/24	4:49	-18.2	-18.2	-18.3	79	-20.9	1.7	NE	0.03	3.5	NE	-20.5	-18.2	-20.6	737.0	0.025	0.000	20.1	3	-26.6	16.3	0.75	 .0729	23	1	100.0	1
09/01/24	4:50	-18.0	-18.0	-18.2	79	-20.8	0.9	NE	0.01	0.9	NE	-17.9	-18.1	-18.0	737.0	0.025	0.000	20.1	3	-26.6	16.4	0.75	 .0729	24	1	100.0	1
09/01/24	4:51	-17.8	-17.8	-17.9	79	-20.6	0.9	NE	0.01	1.7	NE	-17.8	-17.9	-17.8	737.0	0.025	0.000	20.1	3	-26.6	16.4	0.75	 .0729	23	1	100.0	1
09/01/24	4:52	-17.7	-17.7	-17.8	79	-20.4	1.7	NE	0.03	1.7	NE	-19.9	-17.7	-20.0	737.1	0.025	0.000	20.1	3	-26.6	16.4	0.75	 .0729	23	1	100.0	1
09/01/24	4:53	-17.5	-17.5	-17.6	79	-20.3	0.9	NE	0.01	1.7	NE	-17.5	-17.6	-17.6	737.1	0.025	0.000	20.1	3	-26.6	16.4	0.75	 .0729	24	1	100.0	1
09/01/24	4:54	-17.4	-17.4	-17.5	79	-20.2	1.7	NE	0.03	4.3	NW	-19.7	-17.5	-19.7	737.2	0.025	0.000	20.1	3	-26.6	16.4	0.75	 .0729	23	1	100.0	1
09/01/24	4:55	-17.3	-17.3	-17.4	79	-20.1	2.6	NW	0.04	4.3	NW	-21.1	-17.4	-21.1	737.2	0.025	0.000	20.2	3	-26.5	16.4	0.75	 .0729	24	1	100.0	1
09/01/24	4:56	-17.3	-17.3	-17.3	79	-20.0	2.6	NW	0.04	3.5	NW	-21.0	-17.3	-21.1	737.2	0.025	0.000	20.2	3	-26.5	16.4	0.75	 .0729	23	1	100.0	1
09/01/24	4:57	-17.2	-17.2	-17.3	79	-19.9	1.7	NW	0.03	2.6	NW	-19.4	-17.2	-19.4	737.2	0.025	0.000	20.2	3	-26.5	16.4	0.75	 .0729	23	1	100.0	1
09/01/24	4:58	-17.1	-17.1	-17.2	79	-19.8	0.9	NW	0.01	1.7	NW	-17.1	-17.1	-17.1	737.2	0.025	0.000	20.2	3	-26.5	16.4	0.75	 .0729	24	1	100.0	1
09/01/24	4:59	-17.1	-17.1	-17.1	79	-19.8	0.0	NW	0.00	0.9	NW	-17.1	-17.1	-17.1	737.2	0.025	0.000	20.2	3	-26.5	16.4	0.75	 .0729	23	1	100.0	1
09/01/24	5:00	-17.0	-17.0	-17.0	79	-19.8	0.0	NW	0.00	0.9	NW	-17.0	-17.1	-17.1	737.3	0.025	0.000	20.2	3	-26.5	16.4	0.75	 .0729	24	1	100.0	1
09/01/24	5:01	-16.9	-16.9	-17.0	79	-19.7	0.9	NW	0.01	1.7	NW	-16.9	-17.0	-17.0	737.3	0.024	0.000	20.2	3	-26.5	16.6	0.75	 .0729	23	1	100.0	1
09/01/24	5:02	-16.8	-16.8	-16.9	79	-19.6	1.7	NW	0.03	5.2	SW	-19.0	-16.9	-19.1	737.3	0.024	0.000	20.2	3	-26.5	16.6	0.75	 .0729	24	1	100.0	1
09/01/24	5:03	-16.7	-16.7	-16.8	79	-19.5	4.3	SW	0.07	6.1	SW	-22.3	-16.8	-22.4	737.3	0.024	0.000	20.2	3	-26.5	16.6	0.75	 .0729	23	1	100.0	1
09/01/24	5:04	-16.6	-16.6	-16.7	79	-19.3	3.5	SSW	0.06	7.0	ESE	-21.2	-16.6	-21.3	737.3	0.024	0.000	20.2	3	-26.5	16.6	0.75	 .0729	23	1	100.0	1
09/01/24	5:05	-16.6	-16.6	-16.6	79	-19.3	5.2	ESE	0.09	7.0	ESE	-22.9	-16.6	-22.9	737.3	0.024	0.000	20.2	3	-26.5	16.6	0.75	 .0729	24	1	100.0	1
09/01/24	5:06	-16.6	-16.6	-16.6	79	-19.3	3.5	ESE	0.06	3.5	ESE	-21.2	-16.6	-21.3	737.4	0.024	0.000	20.2	3	-26.5	16.6	0.75	 .0729	23	1	100.0	1
09/01/24	5:07	-16.7	-16.6	-16.7	79	-19.5	3.5	ESE	0.06	5.2	ESE	-21.4	-16.7	-21.4	737.3	0.024	0.000	20.2	3	-26.5	16.6	0.75	 .0729	24	1	100.0	1
09/01/24	5:08	-16.7	-16.7	-16.7	79	-19.5	4.3	ESE	0.07	5.2	ESE	-22.3	-16.8	-22.4	737.3	0.024	0.000	20.2	3	-26.5	16.6	0.75	 .0729	23	1	100.0	1
09/01/24	5:09	-16.8	-16.7	-16.8	79	-19.6	3.5	ESE	0.06	3.5	ESE	-21.5	-16.8	-21.6	737.3	0.024	0.000	20.2	3	-26.5	16.6	0.75	 .0729	23	1	100.0	1
09/01/24	5:10	-16.8	-16.8	-16.8	78	-19.8	3.5	ESE	0.06	5.2	ESE	-21.6	-16.9	-21.6	737.4	0.024	0.000	20.2	3	-26.5	16.6	0.75	 .0729	24	1	100.0	1
09/01/24	5:11	-17.3	-16.9	-17.3	79	-20.0	4.3	NNW	0.07	5.2	NNW	-23.0	-17.3	-23.1	737.5	0.025	0.000	20.3	3	-26.4	16.6	0.75	 .0729	23	1	100.0	1
09/01/24	5:12	-17.9	-17.4	-17.9	79	-20.7	4.3	N	0.07	5.2	NNW	-23.8	-18.0	-23.8	737.6	0.025	0.000	20.3	3	-26.4	16.6	0.75	 .0729	24	1	100.0	1
09/01/24	5:13	-18.6	-18.1	-18.6	78	-21.4	2.6	N	0.04	3.5	N	-22.4	-18.6	-22.5	737.5	0.026	0.000	20.3	3	-26.4	16.6	0.75	 .0729	23	1	100.0	1
09/01/24	5:14	-18.9	-18.7	-18.9	78	-21.8	0.9	N	0.01	1.7	N	-18.9	-19.0	-19.0	737.6	0.026	0.000	20.3	3	-26.4	16.6	0.75	 .0729	23	1	100.0	1
09/01/24	5:15	-19.1	-18.9	-19.1	78	-21.9	2.6	SSE	0.04	3.5	SSE	-23.0	-19.1	-23.1	737.6	0.026	0.000	20.3	3	-26.4	16.6	0.75	 .0729	24	1	100.0	1
09/01/24	5:16	-18.9	-18.9	-19.0	77	-22.0	4.3	SSE	0.07	5.2	SSE	-24.9	-19.0	-25.0	737.6	0.026	0.000	20.3	3	-26.4	16.6	0.75	 .0729	23	1	100.0	1
09/01/24	5:17	-18.7	-18.7	-18.9	78	-21.6	7.8	SSE	0.13	10.4	SSE	-27.3	-18.8	-27.3	737.6	0.026	0.000	20.3	3	-26.4	16.6	0.75	 .0729	24	1	100.0	1
09/01/24	5:18	-18.4	-18.4	-18.7	78	-21.3	10.4	SSE	0.17	12.2	SSE	-28.3	-18.5	-28.3	737.5	0.026	0.000	20.3	3	-26.4	16.6	0.75	 .0729	23	1	100.0	1
09/01/24	5:19	-18.1	-18.1	-18.4	78	-21.0	10.4	SE	0.17	12.2	SSE	-27.8	-18.1	-27.8	737.5	0.025	0.000	20.3	3	-26.4	16.6	0.75	 .0729	24	1	100.0	1
09/01/24	5:20	-17.7	-17.7	-18.0	78	-20.6	8.7	SE	0.14	10.4	SSE	-26.5	-17.8	-26.6	737.5	0.025	0.000	20.3	3	-26.4	16.6	0.75	 .0729	23	1	100.0	1
09/01/24	5:21	-17.6	-17.6	-17.7	78	-20.5	7.8	SE	0.13	8.7	SE	-25.9	-17.7	-25.9	737.5	0.025	0.000	20.3	3	-26.4	16.7	0.75	 .0729	23	1	100.0	1
09/01/24	5:22	-17.6	-17.6	-17.6	78	-20.5	8.7	SE	0.14	10.4	SE	-26.3	-17.6	-26.3	737.6	0.025	0.000	20.3	3	-26.4	16.7	0.75	 .0729	24	1	100.0	1
09/01/24	5:23	-17.6	-17.6	-17.6	78	-20.5	8.7	SE	0.14	9.6	SE	-26.4	-17.7	-26.4	737.6	0.025	0.000	20.3	3	-26.4	16.7	0.75	 .0729	23	1	100.0	1
09/01/24	5:24	-17.7	-17.7	-17.7	78	-20.6	8.7	SE	0.14	10.4	SE	-26.5	-17.8	-26.6	737.7	0.025	0.000	20.3	3	-26.4	16.7	0.75	 .0729	24	1	100.0	1
09/01/24	5:25	-17.8	-17.7	-17.8	79	-20.5	9.6	SE	0.16	10.4	SE	-27.0	-17.8	-27.1	737.7	0.025	0.000	20.3	3	-26.4	16.7	0.75	 .0729	23	1	100.0	1
09/01/24	5:26	-17.9	-17.8	-17.9	79	-20.6	9.6	SE	0.16	11.3	SE	-27.2	-17.9	-27.2	737.8	0.025	0.000	20.3	3	-26.4	16.7	0.75	 .0729	23	1	100.0	1
09/01/24	5:27	-18.1	-17.9	-18.1	79	-20.8	12.2	SE	0.20	13.9	SE	-28.5	-18.1	-28.6	737.7	0.025	0.000	20.3	3	-26.4	16.7	0.75	 .0729	24	1	100.0	1
09/01/24	5:28	-18.1	-18.1	-18.1	78	-21.0	12.2	SE	0.20	13.0	SE	-28.5	-18.1	-28.6	737.8	0.025	0.000	20.3	3	-26.4	16.7	0.75	 .0729	23	1	100.0	1
09/01/24	5:29	-18.1	-18.1	-18.1	78	-21.0	13.0	SE	0.22	13.9	SE	-28.9	-18.2	-29.0	737.7	0.025	0.000	20.3	3	-26.4	16.7	0.75	 .0729	24	1	100.0	1
09/01/24	5:30	-18.2	-18.2	-18.2	78	-21.1	13.0	SE	0.22	13.9	SE	-29.1	-18.3	-29.1	737.7	0.025	0.000	20.3	3	-26.4	16.7	0.75	 .0729	23	1	100.0	1
09/01/24	5:31	-18.2	-18.2	-18.2	78	-21.1	13.0	ESE	0.22	13.9	ESE	-29.0	-18.2	-29.1	737.8	0.025	0.000	20.3	3	-26.4	16.7	0.75	 .0729	24	1	100.0	1
09/01/24	5:32	-18.2	-18.2	-18.2	78	-21.1	12.2	ESE	0.20	13.0	ESE	-28.7	-18.3	-28.8	737.7	0.025	0.000	20.3	3	-26.4	16.7	0.75	 .0729	23	1	100.0	1
09/01/24	5:33	-18.2	-18.2	-18.2	78	-21.1	10.4	ESE	0.17	11.3	ESE	-28.0	-18.3	-28.1	737.8	0.025	0.000	20.3	3	-26.4	16.6	0.75	 .0729	23	1	100.0	1
09/01/24	5:34	-18.3	-18.2	-18.3	78	-21.2	9.6	ESE	0.16	11.3	ESE	-27.7	-18.4	-27.8	737.8	0.025	0.000	20.3	3	-26.4	16.6	0.75	 .0729	24	1	100.0	1
09/01/24	5:35	-18.4	-18.3	-18.4	78	-21.3	8.7	E	0.14	9.6	E	-27.4	-18.5	-27.4	737.9	0.026	0.000	20.3	3	-26.4	16.6	0.75	 .0729	23	1	100.0	1
09/01/24	5:36	-18.6	-18.4	-18.6	78	-21.4	8.7	ESE	0.14	9.6	ESE	-27.6	-18.6	-27.6	737.9	0.026	0.000	20.3	3	-26.4	16.6	0.75	 .0729	24	1	100.0	1
09/01/24	5:37	-18.6	-18.6	-18.6	78	-21.5	8.7	E	0.14	9.6	E	-27.6	-18.7	-27.7	737.9	0.026	0.000	20.2	3	-26.5	16.6	0.75	 .0729	23	1	100.0	1
09/01/24	5:38	-18.7	-18.6	-18.7	78	-21.6	8.7	E	0.14	9.6	E	-27.7	-18.7	-27.7	738.0	0.026	0.000	20.2	3	-26.5	16.6	0.75	 .0729	23	1	100.0	1
09/01/24	5:39	-18.8	-18.7	-18.8	78	-21.7	7.0	E	0.12	8.7	E	-26.8	-18.8	-26.8	738.0	0.026	0.000	20.2	3	-26.5	16.6	0.75	 .0729	24	1	100.0	1
09/01/24	5:40	-18.9	-18.8	-18.9	78	-21.8	7.8	E	0.13	8.7	E	-27.4	-18.9	-27.5	738.0	0.026	0.000	20.2	3	-26.5	16.6	0.75	 .0729	23	1	100.0	1
09/01/24	5:41	-19.1	-18.9	-19.1	78	-21.9	8.7	E	0.14	10.4	E	-28.2	-19.1	-28.2	738.0	0.026	0.000	20.2	3	-26.5	16.4	0.75	 .0729	24	1	100.0	1
09/01/24	5:42	-19.2	-19.1	-19.2	78	-22.0	9.6	ENE	0.16	11.3	ENE	-28.8	-19.2	-28.8	738.0	0.026	0.000	20.2	3	-26.5	16.4	0.75	 .0729	23	1	100.0	1
09/01/24	5:43	-19.3	-19.2	-19.3	78	-22.1	10.4	ENE	0.17	11.3	ENE	-29.3	-19.3	-29.4	738.0	0.026	0.000	20.2	3	-26.5	16.4	0.75	 .0729	24	1	100.0	1
09/01/24	5:44	-19.2	-19.2	-19.2	78	-22.0	10.4	ENE	0.17	12.2	ENE	-29.2	-19.2	-29.2	738.0	0.026	0.000	20.2	3	-26.5	16.4	0.75	 .0729	23	1	100.0	1
09/01/24	5:45	-19.1	-19.1	-19.2	78	-22.0	10.4	ENE	0.17	11.3	ENE	-29.1	-19.2	-29.2	738.0	0.026	0.000	20.2	3	-26.5	16.4	0.75	 .0729	23	1	100.0	1
09/01/24	5:46	-18.9	-18.9	-19.1	78	-21.8	9.6	ENE	0.16	10.4	ENE	-28.5	-19.0	-28.6	738.0	0.026	0.000	20.2	3	-26.5	16.4	0.75	 .0729	24	1	100.0	1
09/01/24	5:47	-18.8	-18.8	-18.9	78	-21.7	9.6	ENE	0.16	11.3	E	-28.3	-18.9	-28.4	738.0	0.026	0.000	20.2	3	-26.5	16.4	0.75	 .0729	23	1	100.0	1
09/01/24	5:48	-18.7	-18.7	-18.8	78	-21.6	9.6	ENE	0.16	10.4	ENE	-28.2	-18.8	-28.3	738.0	0.026	0.000	20.2	3	-26.5	16.4	0.75	 .0729	24	1	100.0	1
09/01/24	5:49	-18.7	-18.7	-18.7	78	-21.6	10.4	ENE	0.17	11.3	ENE	-28.6	-18.7	-28.6	738.0	0.026	0.000	20.2	3	-26.5	16.4	0.75	 .0729	23	1	100.0	1
09/01/24	5:50	-18.6	-18.6	-18.7	79	-21.4	9.6	ENE	0.16	12.2	ENE	-28.1	-18.7	-28.1	738.0	0.026	0.000	20.2	3	-26.5	16.4	0.75	 .0729	23	1	100.0	1
09/01/24	5:51	-18.6	-18.6	-18.6	79	-21.4	10.4	ENE	0.17	11.3	E	-28.5	-18.7	-28.6	738.1	0.026	0.000	20.2	3	-26.5	16.4	0.75	 .0729	24	1	100.0	1
09/01/24	5:52	-18.7	-18.7	-18.7	79	-21.5	10.4	ENE	0.17	11.3	E	-28.6	-18.8	-28.7	738.1	0.026	0.000	20.2	3	-26.5	16.4	0.75	 .0729	23	1	100.0	1
09/01/24	5:53	-18.9	-18.7	-18.9	79	-21.6	9.6	E	0.16	12.2	E	-28.4	-18.9	-28.4	738.1	0.026	0.000	20.2	3	-26.5	16.4	0.75	 .0729	24	1	100.0	1
09/01/24	5:54	-19.1	-18.9	-19.1	79	-21.8	9.6	ENE	0.16	10.4	E	-28.6	-19.1	-28.7	738.2	0.026	0.000	20.2	3	-26.5	16.4	0.75	 .0730	23	1	100.0	1
09/01/24	5:55	-19.2	-19.1	-19.2	79	-21.9	10.4	ENE	0.17	12.2	ENE	-29.2	-19.3	-29.3	738.2	0.026	0.000	20.2	3	-26.5	16.4	0.75	 .0730	23	1	100.0	1
09/01/24	5:56	-19.2	-19.2	-19.3	79	-21.9	8.7	ENE	0.14	11.3	ENE	-28.4	-19.3	-28.4	738.1	0.026	0.000	20.2	3	-26.5	16.4	0.75	 .0729	24	1	100.0	1
09/01/24	5:57	-19.2	-19.2	-19.2	78	-22.0	7.0	E	0.12	8.7	E	-27.3	-19.2	-27.3	738.1	0.026	0.000	20.2	3	-26.5	16.4	0.75	 .0730	23	1	100.0	1
09/01/24	5:58	-19.1	-19.1	-19.2	78	-22.0	5.2	ENE	0.09	7.8	ENE	-25.9	-19.2	-25.9	738.2	0.026	0.000	20.2	3	-26.5	16.4	0.75	 .0730	24	1	100.0	1
09/01/24	5:59	-19.0	-19.0	-19.1	78	-21.9	3.5	E	0.06	5.2	E	-24.1	-19.1	-24.1	738.3	0.026	0.000	20.2	3	-26.5	16.6	0.75	 .0729	23	1	100.0	1
09/01/24	6:00	-18.9	-18.9	-19.0	79	-21.6	4.3	SSE	0.07	6.1	SSE	-24.9	-18.9	-24.9	738.3	0.026	0.000	20.2	3	-26.5	16.6	0.75	 .0730	24	1	100.0	1
09/01/24	6:01	-18.7	-18.7	-18.9	79	-21.4	9.6	SE	0.16	12.2	SSE	-28.1	-18.7	-28.2	738.3	0.026	0.000	20.2	3	-26.5	16.6	0.75	 .0729	23	1	100.0	1
09/01/24	6:02	-18.4	-18.4	-18.6	78	-21.3	8.7	SSE	0.14	12.2	S	-27.4	-18.5	-27.4	738.2	0.026	0.000	20.2	3	-26.5	16.6	0.75	 .0729	23	1	100.0	1
09/01/24	6:03	-18.2	-18.2	-18.4	79	-20.9	9.6	S	0.16	12.2	SSE	-27.5	-18.2	-27.6	738.3	0.025	0.000	20.2	3	-26.5	16.6	0.75	 .0729	24	1	100.0	1
09/01/24	6:04	-17.8	-17.8	-18.1	79	-20.6	10.4	SSE	0.17	12.2	S	-27.5	-17.9	-27.6	738.3	0.025	0.000	20.2	3	-26.5	16.6	0.75	 .0730	23	1	100.0	1
09/01/24	6:05	-17.6	-17.6	-17.8	79	-20.4	11.3	SE	0.19	14.8	SSE	-27.6	-17.7	-27.7	738.3	0.025	0.000	20.2	3	-26.5	16.6	0.75	 .0730	24	1	100.0	1
09/01/24	6:06	-17.6	-17.6	-17.6	79	-20.3	10.4	SSE	0.17	13.0	SSE	-27.2	-17.6	-27.2	738.4	0.025	0.000	20.3	3	-26.4	16.6	0.75	 .0729	23	1	100.0	1
09/01/24	6:07	-17.4	-17.4	-17.5	79	-20.2	12.2	SSE	0.20	14.8	SSE	-27.7	-17.5	-27.8	738.3	0.025	0.000	20.2	3	-26.5	16.6	0.75	 .0730	23	1	100.0	1
09/01/24	6:08	-17.4	-17.4	-17.4	79	-20.2	16.5	S	0.28	23.5	SSE	-29.2	-17.5	-29.3	738.3	0.025	0.000	20.3	3	-26.4	16.6	0.75	 .0729	24	1	100.0	1
09/01/24	6:09	-17.2	-17.2	-17.4	78	-20.1	16.5	S	0.28	19.1	S	-28.9	-17.2	-28.9	738.3	0.025	0.000	20.3	3	-26.4	16.6	0.75	 .0729	23	1	100.0	1
09/01/24	6:10	-17.1	-17.1	-17.2	78	-20.0	16.5	S	0.28	22.6	S	-28.7	-17.1	-28.8	738.3	0.025	0.000	20.3	3	-26.4	16.6	0.75	 .0729	24	1	100.0	1
09/01/24	6:11	-17.0	-17.0	-17.0	78	-19.9	13.9	S	0.23	20.0	SSE	-27.8	-17.1	-27.9	738.3	0.025	0.000	20.3	3	-26.4	16.6	0.75	 .0729	23	1	100.0	1
09/01/24	6:12	-17.1	-17.0	-17.1	77	-20.2	10.4	S	0.17	12.2	S	-26.6	-17.2	-26.7	738.4	0.025	0.000	20.3	3	-26.4	16.6	0.75	 .0729	24	1	100.0	1
09/01/24	6:13	-17.3	-17.2	-17.3	77	-20.3	12.2	SSW	0.20	17.4	SSW	-27.5	-17.3	-27.6	738.4	0.025	0.000	20.3	3	-26.4	16.6	0.75	 .0730	23	1	100.0	1
09/01/24	6:14	-17.3	-17.2	-17.3	77	-20.3	10.4	S	0.17	13.9	SW	-26.8	-17.3	-26.8	738.5	0.025	0.000	20.3	3	-26.4	16.6	0.75	 .0730	23	1	100.0	1
09/01/24	6:15	-17.4	-17.3	-17.4	76	-20.7	10.4	S	0.17	13.0	S	-27.0	-17.5	-27.1	738.4	0.025	0.000	20.3	3	-26.4	16.6	0.75	 .0729	24	1	100.0	1
09/01/24	6:16	-17.6	-17.5	-17.6	76	-20.8	8.7	S	0.14	11.3	S	-26.4	-17.7	-26.4	738.4	0.025	0.000	20.3	3	-26.4	16.7	0.75	 .0729	23	1	100.0	1
09/01/24	6:17	-17.7	-17.6	-17.7	76	-20.9	7.0	S	0.12	8.7	S	-25.5	-17.8	-25.6	738.3	0.025	0.000	20.3	3	-26.4	16.7	0.75	 .0729	24	1	100.0	1
09/01/24	6:18	-17.8	-17.8	-17.8	76	-21.0	9.6	S	0.16	12.2	S	-27.1	-17.9	-27.2	738.5	0.025	0.000	20.3	3	-26.4	16.7	0.75	 .0729	23	1	100.0	1
09/01/24	6:19	-17.8	-17.8	-17.8	76	-21.0	6.1	SSW	0.10	8.7	SSW	-25.1	-17.9	-25.1	738.5	0.025	0.000	20.3	3	-26.4	16.7	0.75	 .0729	23	1	100.0	1
09/01/24	6:20	-17.8	-17.8	-17.8	76	-21.0	7.8	S	0.13	9.6	S	-26.2	-17.9	-26.2	738.5	0.025	0.000	20.3	3	-26.4	16.7	0.75	 .0729	24	1	100.0	1
09/01/24	6:21	-17.8	-17.8	-17.8	76	-21.0	11.3	S	0.19	13.0	S	-27.9	-17.9	-27.9	738.5	0.025	0.000	20.3	3	-26.4	16.7	0.75	 .0729	23	1	100.0	1
09/01/24	6:22	-17.8	-17.8	-17.8	76	-21.0	8.7	S	0.14	11.3	S	-26.6	-17.8	-26.6	738.6	0.025	0.000	20.3	3	-26.4	16.7	0.75	 .0730	24	1	100.0	1
09/01/24	6:23	-17.8	-17.8	-17.8	76	-21.0	10.4	S	0.17	12.2	S	-27.4	-17.8	-27.5	738.6	0.025	0.000	20.3	3	-26.4	16.7	0.75	 .0730	23	1	100.0	1
09/01/24	6:24	-17.8	-17.8	-17.8	76	-21.0	11.3	SSE	0.19	13.0	SSE	-27.8	-17.8	-27.8	738.6	0.025	0.000	20.4	3	-26.4	16.8	0.75	 .0729	23	1	100.0	1
09/01/24	6:25	-17.7	-17.7	-17.8	76	-20.9	15.7	SSE	0.26	20.0	SSE	-29.3	-17.7	-29.3	738.4	0.025	0.000	20.4	3	-26.4	16.8	0.75	 .0729	24	1	100.0	1
09/01/24	6:26	-17.6	-17.6	-17.7	76	-20.8	13.9	S	0.23	18.3	SSE	-28.6	-17.7	-28.7	738.4	0.025	0.000	20.3	3	-26.4	16.7	0.75	 .0729	23	1	100.0	1
09/01/24	6:27	-17.6	-17.6	-17.6	76	-20.8	10.4	SSE	0.17	11.3	SSE	-27.2	-17.6	-27.2	738.5	0.025	0.000	20.4	3	-26.4	16.8	0.75	 .0729	24	1	100.0	1
09/01/24	6:28	-17.6	-17.6	-17.6	76	-20.8	10.4	SSE	0.17	13.9	SSE	-27.2	-17.6	-27.2	738.6	0.025	0.000	20.4	3	-26.4	16.8	0.75	 .0729	23	1	100.0	1
09/01/24	6:29	-17.6	-17.6	-17.6	76	-20.8	7.0	S	0.12	10.4	SSE	-25.4	-17.7	-25.4	738.6	0.025	0.000	20.4	3	-26.4	16.8	0.75	 .0729	24	1	100.0	1
09/01/24	6:30	-17.6	-17.6	-17.6	76	-20.8	6.1	S	0.10	7.0	S	-24.8	-17.7	-24.8	738.6	0.025	0.000	20.4	3	-26.4	16.8	0.75	 .0729	23	1	100.0	1
09/01/24	6:31	-17.7	-17.7	-17.7	76	-20.9	6.1	S	0.10	8.7	S	-24.8	-17.7	-24.9	738.6	0.025	0.000	20.4	3	-26.4	16.8	0.75	 .0729	23	1	100.0	1
09/01/24	6:32	-17.7	-17.7	-17.7	76	-20.9	9.6	SSE	0.16	11.3	SSE	-26.9	-17.8	-27.0	738.6	0.025	0.000	20.4	3	-26.4	16.8	0.75	 .0729	24	1	100.0	1
09/01/24	6:33	-17.8	-17.7	-17.8	76	-21.0	8.7	SE	0.14	10.4	SSE	-26.6	-17.8	-26.6	738.6	0.025	0.000	20.4	3	-26.4	16.8	0.75	 .0729	23	1	100.0	1
09/01/24	6:34	-17.9	-17.8	-17.9	76	-21.1	8.7	ESE	0.14	10.4	ESE	-26.8	-18.0	-26.8	738.6	0.025	0.000	20.4	3	-26.3	16.9	0.75	 .0729	24	1	100.0	1
09/01/24	6:35	-18.2	-18.0	-18.2	76	-21.4	12.2	ESE	0.20	14.8	SE	-28.7	-18.2	-28.7	738.6	0.025	0.000	20.4	3	-26.3	16.9	0.75	 .0729	23	1	100.0	1
09/01/24	6:36	-18.3	-18.2	-18.3	76	-21.5	11.3	ESE	0.19	13.9	SE	-28.4	-18.3	-28.5	738.6	0.025	0.000	20.4	3	-26.3	16.9	0.75	 .0729	23	1	100.0	1
09/01/24	6:37	-18.3	-18.3	-18.3	76	-21.5	12.2	ESE	0.20	17.4	ESE	-28.9	-18.4	-28.9	738.6	0.025	0.000	20.4	3	-26.3	16.9	0.75	 .0729	24	1	100.0	1
09/01/24	6:38	-18.2	-18.2	-18.3	76	-21.4	11.3	SE	0.19	15.7	SE	-28.4	-18.3	-28.4	738.6	0.025	0.000	20.4	3	-26.3	16.9	0.75	 .0729	23	1	100.0	1
09/01/24	6:39	-18.1	-18.1	-18.2	77	-21.2	7.8	SE	0.13	12.2	SE	-26.5	-18.2	-26.6	738.8	0.025	0.000	20.4	3	-26.3	16.9	0.75	 .0729	24	1	100.0	1
09/01/24	6:40	-18.1	-18.1	-18.1	77	-21.1	7.0	SE	0.12	8.7	SE	-25.9	-18.1	-25.9	738.7	0.025	0.000	20.4	3	-26.3	16.9	0.75	 .0729	23	1	100.0	1
09/01/24	6:41	-18.1	-18.1	-18.1	77	-21.1	7.8	ESE	0.13	11.3	ESE	-26.4	-18.1	-26.5	738.7	0.025	0.000	20.4	3	-26.3	16.9	0.75	 .0729	24	1	100.0	1
09/01/24	6:42	-18.1	-18.0	-18.1	77	-21.1	8.7	E	0.14	10.4	ESE	-26.9	-18.1	-27.0	738.7	0.025	0.000	20.4	3	-26.3	16.9	0.75	 .0729	23	1	100.0	1
09/01/24	6:43	-18.2	-18.1	-18.2	77	-21.2	8.7	ESE	0.14	11.3	ESE	-27.1	-18.2	-27.1	738.7	0.025	0.000	20.4	3	-26.3	16.9	0.75	 .0729	23	1	100.0	1
09/01/24	6:44	-18.2	-18.2	-18.2	77	-21.3	10.4	ESE	0.17	12.2	ESE	-28.0	-18.3	-28.1	738.7	0.025	0.000	20.4	3	-26.3	16.9	0.75	 .0729	24	1	100.0	1
09/01/24	6:45	-18.2	-18.2	-18.2	77	-21.3	13.0	SSE	0.22	14.8	SSE	-29.1	-18.3	-29.1	738.8	0.025	0.000	20.4	3	-26.3	16.9	0.75	 .0729	23	1	100.0	1
09/01/24	6:46	-18.2	-18.2	-18.2	77	-21.3	12.2	ESE	0.20	13.9	ESE	-28.7	-18.3	-28.8	738.8	0.025	0.000	20.4	3	-26.3	16.9	0.75	 .0729	24	1	100.0	1
09/01/24	6:47	-18.3	-18.2	-18.3	77	-21.3	12.2	ESE	0.20	13.9	ESE	-28.8	-18.3	-28.8	738.8	0.025	0.000	20.5	3	-26.3	16.9	0.75	 .0729	23	1	100.0	1
09/01/24	6:48	-18.4	-18.3	-18.4	77	-21.5	11.3	ESE	0.19	13.0	ESE	-28.7	-18.5	-28.7	738.8	0.026	0.000	20.5	3	-26.3	16.9	0.75	 .0729	23	1	100.0	1
09/01/24	6:49	-18.5	-18.4	-18.5	77	-21.5	10.4	ESE	0.17	12.2	ESE	-28.3	-18.6	-28.4	738.8	0.026	0.000	20.5	3	-26.3	16.9	0.75	 .0729	24	1	100.0	1
09/01/24	6:50	-18.5	-18.5	-18.6	77	-21.5	9.6	ESE	0.16	13.9	ESE	-27.9	-18.6	-28.0	738.8	0.026	0.000	20.5	3	-26.3	16.9	0.75	 .0729	23	1	100.0	1
09/01/24	6:51	-18.4	-18.4	-18.6	77	-21.4	13.9	SE	0.23	16.5	SE	-29.6	-18.4	-29.7	738.7	0.026	0.000	20.6	3	-26.3	17.1	0.75	 .0729	24	1	100.0	1
09/01/24	6:52	-18.3	-18.3	-18.4	77	-21.4	19.1	ESE	0.32	23.5	ESE	-31.2	-18.4	-31.2	738.6	0.025	0.000	20.6	3	-26.3	17.1	0.75	 .0729	23	1	100.0	1
09/01/24	6:53	-18.3	-18.3	-18.3	77	-21.3	16.5	ESE	0.28	22.6	ESE	-30.3	-18.3	-30.4	738.6	0.025	0.000	20.6	3	-26.3	17.1	0.75	 .0729	24	1	100.0	1
09/01/24	6:54	-18.3	-18.3	-18.3	78	-21.2	13.0	ESE	0.22	18.3	ESE	-29.2	-18.3	-29.2	738.5	0.025	0.000	20.6	3	-26.3	17.1	0.75	 .0729	23	1	100.0	1
09/01/24	6:55	-18.3	-18.3	-18.3	78	-21.2	15.7	SE	0.26	18.3	SE	-30.1	-18.3	-30.1	738.7	0.025	0.000	20.6	3	-26.3	17.1	0.75	 .0729	23	1	100.0	1
09/01/24	6:56	-18.2	-18.2	-18.3	78	-21.1	18.3	SE	0.30	20.9	SE	-30.8	-18.3	-30.8	738.6	0.025	0.000	20.6	3	-26.2	17.1	0.75	 .0729	24	1	100.0	1
09/01/24	6:57	-18.2	-18.2	-18.2	78	-21.1	11.3	SE	0.19	13.9	SE	-28.3	-18.2	-28.3	738.7	0.025	0.000	20.6	3	-26.2	17.1	0.75	 .0729	23	1	100.0	1
09/01/24	6:58	-18.2	-18.2	-18.2	78	-21.1	13.0	SE	0.22	14.8	SE	-29.1	-18.3	-29.1	738.8	0.025	0.000	20.6	3	-26.2	17.1	0.75	 .0729	24	1	100.0	1
09/01/24	6:59	-18.3	-18.2	-18.3	78	-21.2	13.0	SE	0.22	15.7	SE	-29.2	-18.3	-29.2	738.7	0.025	0.000	20.6	3	-26.2	17.1	0.75	 .0729	23	1	100.0	1
09/01/24	7:00	-18.3	-18.3	-18.3	78	-21.2	13.0	SE	0.22	16.5	SSE	-29.2	-18.3	-29.2	738.7	0.025	0.000	20.6	3	-26.2	17.1	0.75	 .0729	23	1	100.0	1
09/01/24	7:01	-18.2	-18.2	-18.2	77	-21.2	13.9	SE	0.23	18.3	SE	-29.3	-18.2	-29.4	738.7	0.025	0.000	20.6	3	-26.2	17.1	0.75	 .0729	24	1	100.0	1
09/01/24	7:02	-18.2	-18.2	-18.2	78	-21.1	14.8	SE	0.25	20.0	SE	-29.6	-18.2	-29.7	738.7	0.025	0.000	20.6	3	-26.2	17.1	0.75	 .0729	23	1	100.0	1
09/01/24	7:03	-18.2	-18.2	-18.2	78	-21.1	13.0	SE	0.22	16.5	SE	-29.1	-18.3	-29.1	738.8	0.025	0.000	20.6	3	-26.2	17.1	0.75	 .0729	24	1	100.0	1
09/01/24	7:04	-18.3	-18.2	-18.3	78	-21.2	14.8	ESE	0.25	20.0	ESE	-29.8	-18.3	-29.8	738.8	0.025	0.000	20.7	3	-26.2	17.2	0.75	 .0729	23	1	100.0	1
09/01/24	7:05	-18.3	-18.3	-18.3	78	-21.2	14.8	SE	0.25	17.4	ESE	-29.8	-18.4	-29.9	738.8	0.025	0.000	20.7	3	-26.2	17.2	0.75	 .0729	23	1	100.0	1
09/01/24	7:06	-18.4	-18.4	-18.4	78	-21.3	14.8	SE	0.25	15.7	SE	-30.0	-18.5	-30.1	738.8	0.026	0.000	20.7	3	-26.2	17.2	0.75	 .0729	24	1	100.0	1
09/01/24	7:07	-18.6	-18.4	-18.6	77	-21.6	16.5	SE	0.28	18.3	SE	-30.7	-18.6	-30.8	738.8	0.026	0.000	20.7	3	-26.2	17.2	0.75	 .0729	23	1	100.0	1
09/01/24	7:08	-18.7	-18.6	-18.7	77	-21.7	15.7	SE	0.26	17.4	SE	-30.6	-18.7	-30.6	738.8	0.026	0.000	20.7	3	-26.2	17.2	0.75	 .0729	24	1	100.0	1
09/01/24	7:09	-18.7	-18.7	-18.7	77	-21.8	17.4	SE	0.29	17.4	SE	-31.2	-18.8	-31.2	738.8	0.026	0.000	20.7	3	-26.2	17.2	0.75	 .0729	23	1	100.0	1
09/01/24	7:10	-18.8	-18.7	-18.8	77	-21.8	18.3	SE	0.30	23.5	SE	-31.5	-18.8	-31.6	738.7	0.026	0.000	20.7	3	-26.2	17.2	0.75	 .0729	24	1	100.0	1
09/01/24	7:11	-18.8	-18.8	-18.8	77	-21.8	20.0	SE	0.33	23.5	SE	-32.0	-18.8	-32.1	738.7	0.026	0.000	20.7	3	-26.2	17.2	0.75	 .0729	23	1	100.0	1
09/01/24	7:12	-18.8	-18.8	-18.8	77	-21.9	19.1	SE	0.32	21.7	SE	-31.8	-18.9	-31.9	738.7	0.026	0.000	20.7	3	-26.2	17.2	0.75	 .0729	23	1	100.0	1
09/01/24	7:13	-18.8	-18.8	-18.8	77	-21.9	17.4	SE	0.29	20.9	SE	-31.3	-18.9	-31.4	738.7	0.026	0.000	20.7	3	-26.2	17.2	0.75	 .0729	24	1	100.0	1
09/01/24	7:14	-18.9	-18.8	-18.9	77	-21.9	20.0	SE	0.33	21.7	SE	-32.2	-18.9	-32.2	738.8	0.026	0.000	20.7	3	-26.2	17.2	0.75	 .0729	23	1	100.0	1
09/01/24	7:15	-19.1	-18.9	-19.1	77	-22.1	20.9	ESE	0.35	27.0	SE	-32.6	-19.1	-32.7	738.8	0.026	0.000	20.7	3	-26.1	17.3	0.75	 .0729	24	1	100.0	1
09/01/24	7:16	-19.0	-19.0	-19.1	77	-22.0	18.3	SE	0.30	22.6	SE	-31.8	-19.1	-31.8	738.8	0.026	0.000	20.7	3	-26.1	17.3	0.75	 .0729	23	1	100.0	1
09/01/24	7:17	-18.9	-18.9	-19.0	77	-21.9	18.3	ESE	0.30	27.0	SE	-31.7	-18.9	-31.7	738.8	0.026	0.000	20.7	3	-26.1	17.3	0.75	 .0729	23	1	100.0	1
09/01/24	7:18	-18.9	-18.9	-18.9	77	-21.9	21.7	ESE	0.36	25.2	ESE	-32.6	-18.9	-32.7	738.7	0.026	0.000	20.7	3	-26.1	17.3	0.75	 .0729	24	1	100.0	1
09/01/24	7:19	-18.8	-18.8	-18.9	78	-21.7	20.9	ESE	0.35	25.2	ESE	-32.3	-18.9	-32.3	738.7	0.026	0.000	20.7	3	-26.1	17.3	0.75	 .0729	23	1	100.0	1
09/01/24	7:20	-18.8	-18.8	-18.8	78	-21.7	15.7	ESE	0.26	18.3	ESE	-30.7	-18.8	-30.8	738.9	0.026	0.000	20.7	3	-26.1	17.3	0.75	 .0729	24	1	100.0	1
09/01/24	7:21	-18.8	-18.8	-18.8	78	-21.7	19.1	ESE	0.32	22.6	SE	-31.8	-18.9	-31.9	738.8	0.026	0.000	20.7	3	-26.1	17.3	0.75	 .0729	23	1	100.0	1
09/01/24	7:22	-18.9	-18.8	-18.9	78	-21.8	18.3	ESE	0.30	21.7	SE	-31.7	-19.0	-31.8	738.7	0.026	0.000	20.7	3	-26.1	17.3	0.75	 .0729	24	1	100.0	1
09/01/24	7:23	-19.1	-18.9	-19.1	78	-21.9	15.7	ESE	0.26	20.0	ESE	-31.1	-19.1	-31.1	738.9	0.026	0.000	20.7	3	-26.1	17.3	0.75	 .0729	23	1	100.0	1
09/01/24	7:24	-19.1	-19.1	-19.2	78	-22.0	18.3	SE	0.30	22.6	SE	-31.9	-19.2	-32.0	739.0	0.026	0.000	20.8	3	-26.1	17.3	0.75	 .0729	23	1	100.0	1
09/01/24	7:25	-19.0	-19.0	-19.1	78	-21.9	18.3	SE	0.30	21.7	SE	-31.8	-19.1	-31.8	738.9	0.026	0.000	20.8	3	-26.1	17.3	0.75	 .0729	24	1	100.0	1
09/01/24	7:26	-19.0	-19.0	-19.0	78	-21.9	17.4	SE	0.29	19.1	SE	-31.6	-19.1	-31.6	738.9	0.026	0.000	20.8	3	-26.1	17.3	0.75	 .0729	23	1	100.0	1
09/01/24	7:27	-18.9	-18.9	-19.0	78	-21.8	18.3	SE	0.30	20.0	SE	-31.7	-19.0	-31.8	738.9	0.026	0.000	20.8	3	-26.1	17.3	0.75	 .0729	24	1	100.0	1
09/01/24	7:28	-18.9	-18.9	-18.9	78	-21.8	17.4	SE	0.29	21.7	SE	-31.5	-19.0	-31.6	738.9	0.026	0.000	20.8	3	-26.1	17.3	0.75	 .0729	23	1	100.0	1
09/01/24	7:29	-19.0	-18.9	-19.0	78	-21.9	17.4	SE	0.29	20.0	SE	-31.6	-19.1	-31.6	738.9	0.026	0.000	20.8	3	-26.1	17.3	0.75	 .0729	23	1	100.0	1
09/01/24	7:30	-18.9	-18.9	-19.0	78	-21.8	15.7	SE	0.26	18.3	SSE	-30.9	-19.0	-31.0	738.9	0.026	0.000	20.8	3	-26.1	17.3	0.75	 .0729	24	1	100.0	1
09/01/24	7:31	-18.8	-18.8	-18.9	78	-21.7	19.1	SE	0.32	23.5	SSE	-31.8	-18.9	-31.9	738.9	0.026	0.000	20.8	3	-26.1	17.4	0.75	 .0729	23	1	100.0	1
09/01/24	7:32	-18.7	-18.7	-18.8	78	-21.6	18.3	SE	0.30	23.5	SSE	-31.4	-18.8	-31.5	738.8	0.026	0.000	20.8	3	-26.1	17.3	0.75	 .0729	24	1	100.0	1
09/01/24	7:33	-18.6	-18.6	-18.7	78	-21.5	19.1	SE	0.32	20.9	SE	-31.6	-18.7	-31.6	738.9	0.026	0.000	20.8	3	-26.1	17.3	0.75	 .0729	23	1	100.0	1
09/01/24	7:34	-18.6	-18.6	-18.6	78	-21.4	20.9	SE	0.35	22.6	SE	-31.9	-18.6	-32.0	738.8	0.026	0.000	20.8	3	-26.1	17.4	0.75	 .0728	24	1	100.0	1
09/01/24	7:35	-18.5	-18.5	-18.6	78	-21.4	21.7	SE	0.36	26.1	SE	-32.1	-18.6	-32.1	738.8	0.026	0.000	20.8	3	-26.1	17.4	0.75	 .0728	23	1	100.0	1
09/01/24	7:36	-18.6	-18.5	-18.6	78	-21.4	20.0	SE	0.33	22.6	SE	-31.7	-18.6	-31.8	738.8	0.026	0.000	20.8	3	-26.1	17.4	0.75	 .0728	23	1	100.0	1
09/01/24	7:37	-18.6	-18.6	-18.6	78	-21.5	20.9	SE	0.35	25.2	SSE	-32.0	-18.7	-32.1	738.7	0.026	0.000	20.8	3	-26.1	17.4	0.75	 .0728	24	1	100.0	1
09/01/24	7:38	-18.6	-18.6	-18.6	78	-21.4	22.6	SE	0.38	26.1	SE	-32.3	-18.6	-32.4	738.7	0.026	0.000	20.8	3	-26.1	17.4	0.75	 .0728	23	1	100.0	1
09/01/24	7:39	-18.6	-18.6	-18.6	78	-21.4	21.7	SE	0.36	25.2	SSE	-32.2	-18.6	-32.2	738.7	0.026	0.000	20.8	3	-26.1	17.4	0.75	 .0728	24	1	100.0	1
09/01/24	7:40	-18.6	-18.6	-18.6	78	-21.4	25.2	SE	0.42	30.4	SE	-32.9	-18.6	-33.0	738.7	0.026	0.000	20.8	3	-26.1	17.4	0.75	 .0728	23	1	100.0	1
09/01/24	7:41	-18.5	-18.5	-18.5	78	-21.4	20.9	SE	0.35	29.6	SE	-31.8	-18.6	-31.9	738.8	0.026	0.000	20.8	3	-26.1	17.4	0.75	 .0728	23	1	100.0	1
09/01/24	7:42	-18.5	-18.5	-18.5	78	-21.4	23.5	SE	0.39	24.3	SE	-32.5	-18.6	-32.6	738.7	0.026	0.000	20.8	3	-26.1	17.4	0.75	 .0728	24	1	100.0	1
09/01/24	7:43	-18.4	-18.4	-18.5	78	-21.3	23.5	SE	0.39	27.0	SE	-32.4	-18.5	-32.5	738.7	0.026	0.000	20.8	3	-26.1	17.4	0.75	 .0728	23	1	100.0	1
09/01/24	7:44	-18.4	-18.4	-18.4	78	-21.3	24.3	SE	0.41	27.0	SE	-32.6	-18.4	-32.6	738.8	0.026	0.000	20.8	3	-26.1	17.4	0.75	 .0728	24	1	100.0	1
09/01/24	7:45	-18.4	-18.4	-18.4	78	-21.3	25.2	SE	0.42	27.8	SE	-32.8	-18.5	-32.9	738.8	0.026	0.000	20.8	3	-26.1	17.4	0.75	 .0728	23	1	100.0	1
09/01/24	7:46	-18.5	-18.4	-18.5	78	-21.4	25.2	SE	0.42	28.7	SE	-32.9	-18.6	-32.9	738.8	0.026	0.000	20.8	3	-26.1	17.4	0.75	 .0728	23	1	100.0	1
09/01/24	7:47	-18.5	-18.5	-18.5	78	-21.4	20.0	SE	0.33	26.1	SE	-31.6	-18.6	-31.7	738.8	0.026	0.000	20.8	3	-26.1	17.4	0.75	 .0728	24	1	100.0	1
09/01/24	7:48	-18.6	-18.6	-18.6	78	-21.5	23.5	SE	0.39	26.1	SE	-32.7	-18.7	-32.7	739.0	0.026	0.000	20.8	3	-26.1	17.4	0.75	 .0729	23	1	100.0	1
09/01/24	7:49	-18.6	-18.6	-18.6	78	-21.4	25.2	SE	0.42	33.0	ESE	-32.9	-18.6	-33.0	738.8	0.026	0.000	20.8	3	-26.1	17.4	0.75	 .0729	24	1	100.0	1
09/01/24	7:50	-18.4	-18.4	-18.6	78	-21.3	28.7	SE	0.48	32.2	SE	-33.6	-18.5	-33.6	738.7	0.026	0.000	20.8	3	-26.1	17.4	0.75	 .0728	23	1	100.0	1
09/01/24	7:51	-18.4	-18.4	-18.4	78	-21.3	27.8	SE	0.46	33.0	ESE	-33.3	-18.4	-33.3	738.7	0.026	0.000	20.8	3	-26.1	17.3	0.75	 .0729	24	1	100.0	1
09/01/24	7:52	-18.3	-18.3	-18.3	78	-21.2	29.6	ESE	0.49	33.9	SE	-33.4	-18.3	-33.5	738.6	0.025	0.000	20.8	3	-26.1	17.4	0.75	 .0728	23	1	100.0	1
09/01/24	7:53	-18.2	-18.2	-18.3	78	-21.1	27.0	SE	0.45	35.7	SE	-32.9	-18.3	-32.9	738.5	0.025	0.000	20.8	3	-26.1	17.3	0.75	 .0728	23	1	100.0	1
09/01/24	7:54	-18.2	-18.2	-18.2	78	-21.1	31.3	SE	0.52	36.5	SE	-33.7	-18.2	-33.7	738.5	0.025	0.000	20.8	3	-26.1	17.3	0.75	 .0728	24	1	100.0	1
09/01/24	7:55	-18.1	-18.1	-18.2	78	-21.0	28.7	SE	0.48	36.5	SE	-33.1	-18.2	-33.1	738.6	0.025	0.000	20.8	3	-26.1	17.3	0.75	 .0728	23	1	100.0	1
09/01/24	7:56	-18.2	-18.1	-18.2	78	-21.1	28.7	SE	0.48	32.2	SE	-33.2	-18.2	-33.2	738.5	0.025	0.000	20.7	3	-26.1	17.3	0.75	 .0729	24	1	100.0	1
09/01/24	7:57	-18.3	-18.2	-18.3	78	-21.2	26.1	SE	0.43	29.6	SE	-32.8	-18.3	-32.8	738.6	0.025	0.000	20.7	3	-26.1	17.3	0.75	 .0729	23	1	100.0	1
09/01/24	7:58	-18.3	-18.3	-18.4	78	-21.2	28.7	SE	0.48	36.5	SSE	-33.4	-18.4	-33.4	738.7	0.025	0.000	20.7	3	-26.1	17.3	0.75	 .0729	23	1	100.0	1
09/01/24	7:59	-18.4	-18.3	-18.4	78	-21.3	28.7	SE	0.48	38.3	SSE	-33.6	-18.5	-33.6	738.8	0.026	0.000	20.7	3	-26.2	17.2	0.75	 .0729	24	1	100.0	1
09/01/24	8:00	-18.4	-18.4	-18.4	78	-21.3	24.3	SE	0.41	29.6	SSE	-32.6	-18.5	-32.7	738.9	0.026	0.000	20.7	3	-26.2	17.2	0.75	 .0729	23	1	100.0	1
09/01/24	8:01	-18.8	-18.5	-18.8	78	-21.7	22.6	ESE	0.38	30.4	ESE	-32.7	-18.8	-32.7	739.0	0.026	0.000	20.7	3	-26.2	17.2	0.75	 .0729	24	1	100.0	1
09/01/24	8:02	-18.9	-18.8	-18.9	78	-21.8	25.2	SE	0.42	29.6	SE	-33.5	-19.0	-33.6	739.0	0.026	0.000	20.7	3	-26.2	17.2	0.75	 .0729	23	1	100.0	1
09/01/24	8:03	-18.9	-18.9	-18.9	78	-21.8	25.2	SE	0.42	31.3	SE	-33.5	-19.0	-33.6	739.0	0.026	0.000	20.7	3	-26.2	17.2	0.75	 .0729	24	1	100.0	1
09/01/24	8:04	-18.9	-18.9	-18.9	78	-21.8	28.7	ESE	0.48	31.3	SSE	-34.2	-19.0	-34.3	738.9	0.026	0.000	20.6	3	-26.2	17.1	0.75	 .0729	23	1	100.0	1
09/01/24	8:05	-18.8	-18.8	-18.9	78	-21.7	27.8	ESE	0.46	34.8	SE	-33.8	-18.8	-33.9	738.9	0.026	0.000	20.6	3	-26.2	17.1	0.75	 .0729	23	1	100.0	1
09/01/24	8:06	-18.8	-18.8	-18.8	78	-21.7	27.0	SE	0.45	31.3	SE	-33.6	-18.8	-33.7	738.9	0.026	0.000	20.6	3	-26.2	17.1	0.75	 .0729	24	1	100.0	1
09/01/24	8:07	-18.9	-18.8	-18.9	78	-21.8	26.1	ESE	0.43	32.2	ESE	-33.7	-19.0	-33.7	739.0	0.026	0.000	20.6	3	-26.2	17.1	0.75	 .0729	23	1	100.0	1
09/01/24	8:08	-18.9	-18.9	-19.0	78	-21.8	29.6	SE	0.49	34.8	SE	-34.4	-19.0	-34.4	738.9	0.026	0.000	20.6	3	-26.2	17.1	0.75	 .0729	24	1	100.0	1
09/01/24	8:09	-19.1	-19.0	-19.1	78	-21.9	27.0	ESE	0.45	30.4	ESE	-34.0	-19.1	-34.1	738.9	0.026	0.000	20.6	3	-26.2	17.1	0.75	 .0729	23	1	100.0	1
09/01/24	8:10	-19.1	-19.1	-19.1	78	-21.9	27.8	SE	0.46	32.2	SE	-34.2	-19.1	-34.2	738.8	0.026	0.000	20.6	3	-26.2	17.1	0.75	 .0729	23	1	100.0	1
09/01/24	8:11	-19.1	-19.0	-19.1	78	-21.9	27.8	SE	0.46	33.0	SE	-34.2	-19.1	-34.2	738.9	0.026	0.000	20.6	3	-26.2	17.1	0.75	 .0729	24	1	100.0	1
09/01/24	8:12	-19.1	-18.9	-19.1	78	-21.9	24.3	ESE	0.41	28.7	ESE	-33.4	-19.1	-33.5	738.9	0.026	0.000	20.6	3	-26.2	17.1	0.75	 .0729	23	1	100.0	1
09/01/24	8:13	-19.1	-19.1	-19.1	78	-22.0	23.5	SE	0.39	27.8	SE	-33.3	-19.2	-33.4	739.0	0.026	0.000	20.6	3	-26.2	17.1	0.75	 .0729	24	1	100.0	1
09/01/24	8:14	-19.1	-19.1	-19.1	78	-21.9	25.2	ESE	0.42	33.0	SE	-33.6	-19.1	-33.7	738.9	0.026	0.000	20.7	3	-26.2	17.2	0.75	 .0729	23	1	100.0	1
09/01/24	8:15	-19.2	-19.1	-19.2	78	-22.0	24.3	SE	0.41	28.7	SE	-33.6	-19.2	-33.7	739.0	0.026	0.000	20.7	3	-26.2	17.2	0.75	 .0729	24	1	100.0	1
09/01/24	8:16	-19.2	-19.2	-19.2	78	-22.0	24.3	SE	0.41	27.0	SE	-33.6	-19.2	-33.7	739.0	0.026	0.000	20.7	3	-26.2	17.2	0.75	 .0729	23	1	100.0	1
09/01/24	8:17	-19.0	-19.0	-19.2	78	-21.9	27.8	SE	0.46	33.0	SE	-34.1	-19.1	-34.2	738.9	0.026	0.000	20.7	3	-26.2	17.2	0.75	 .0729	23	1	100.0	1
09/01/24	8:18	-19.0	-19.0	-19.0	78	-21.9	27.0	ESE	0.45	32.2	SE	-33.9	-19.1	-34.0	738.9	0.026	0.000	20.7	3	-26.2	17.2	0.75	 .0729	24	1	100.0	1
09/01/24	8:19	-19.3	-19.0	-19.3	78	-22.1	23.5	ESE	0.39	28.7	SE	-33.6	-19.3	-33.6	739.0	0.026	0.000	20.7	3	-26.2	17.2	0.75	 .0729	23	1	100.0	1
09/01/24	8:20	-19.4	-19.3	-19.4	78	-22.3	26.1	ESE	0.43	30.4	ESE	-34.3	-19.4	-34.3	739.0	0.026	0.000	20.7	3	-26.2	17.2	0.75	 .0729	24	1	100.0	1
09/01/24	8:21	-19.4	-19.3	-19.4	78	-22.3	26.1	ESE	0.43	29.6	SE	-34.3	-19.5	-34.4	739.0	0.026	0.000	20.7	3	-26.2	17.2	0.75	 .0729	23	1	100.0	1
09/01/24	8:22	-19.5	-19.4	-19.5	78	-22.4	26.1	ESE	0.43	27.8	SE	-34.4	-19.6	-34.5	739.0	0.026	0.000	20.7	3	-26.1	17.3	0.75	 .0729	23	1	100.0	1
09/01/24	8:23	-19.8	-19.6	-19.8	78	-22.7	26.1	ESE	0.43	29.6	ESE	-34.9	-19.9	-34.9	739.1	0.027	0.000	20.7	3	-26.1	17.3	0.75	 .0729	24	1	100.0	1
09/01/24	8:24	-20.0	-19.8	-20.0	78	-22.9	27.0	ESE	0.45	31.3	ESE	-35.3	-20.1	-35.3	739.0	0.027	0.000	20.7	3	-26.1	17.3	0.75	 .0729	23	1	100.0	1
09/01/24	8:25	-19.8	-19.8	-20.1	78	-22.7	26.1	ESE	0.43	31.3	ESE	-34.9	-19.9	-34.9	739.0	0.027	0.000	20.7	3	-26.1	17.3	0.75	 .0729	24	1	100.0	1
09/01/24	8:26	-19.7	-19.7	-19.8	78	-22.6	26.1	ESE	0.43	28.7	ESE	-34.7	-19.8	-34.8	739.0	0.026	0.000	20.7	3	-26.1	17.3	0.75	 .0729	23	1	100.0	1
09/01/24	8:27	-19.6	-19.6	-19.7	78	-22.4	29.6	ESE	0.49	33.9	ESE	-35.2	-19.6	-35.3	738.9	0.026	0.000	20.7	3	-26.1	17.3	0.75	 .0729	23	1	100.0	1
09/01/24	8:28	-19.6	-19.6	-19.6	78	-22.4	28.7	ESE	0.48	34.8	ESE	-35.1	-19.6	-35.1	739.0	0.026	0.000	20.7	3	-26.1	17.3	0.75	 .0729	24	1	100.0	1
09/01/24	8:29	-19.3	-19.3	-19.5	79	-22.1	24.3	ESE	0.41	27.0	SE	-33.8	-19.4	-33.9	738.9	0.026	0.000	20.7	3	-26.1	17.3	0.75	 .0729	23	1	100.0	1
09/01/24	8:30	-19.4	-19.3	-19.4	78	-22.3	24.3	SE	0.41	31.3	SE	-33.9	-19.4	-33.9	739.0	0.026	0.000	20.7	3	-26.1	17.3	0.75	 .0729	24	1	100.0	1
09/01/24	8:31	-19.2	-19.2	-19.3	79	-21.9	21.7	SE	0.36	27.0	SSE	-32.9	-19.2	-33.0	739.1	0.026	0.000	20.8	3	-26.1	17.3	0.75	 .0729	23	1	100.0	1
09/01/24	8:32	-18.9	-18.9	-19.1	78	-21.8	27.0	SE	0.45	33.0	ESE	-33.8	-19.0	-33.9	739.0	0.026	0.000	20.8	3	-26.1	17.3	0.75	 .0729	24	1	100.0	1
09/01/24	8:33	-18.8	-18.8	-18.9	79	-21.6	27.8	ESE	0.46	30.4	ESE	-33.9	-18.9	-33.9	738.8	0.026	0.000	20.8	3	-26.1	17.3	0.75	 .0729	23	1	100.0	1
09/01/24	8:34	-18.9	-18.8	-18.9	79	-21.6	28.7	ESE	0.48	33.9	ESE	-34.2	-18.9	-34.2	738.9	0.026	0.000	20.8	3	-26.1	17.3	0.75	 .0729	23	1	100.0	1
09/01/24	8:35	-19.0	-18.9	-19.1	78	-21.9	28.7	SE	0.48	34.8	SE	-34.3	-19.1	-34.3	738.9	0.026	0.000	20.8	3	-26.1	17.3	0.75	 .0729	24	1	100.0	1
09/01/24	8:36	-19.2	-19.1	-19.2	79	-21.9	27.0	ESE	0.45	29.6	ESE	-34.2	-19.3	-34.3	738.8	0.026	0.000	20.8	3	-26.1	17.3	0.75	 .0729	23	1	100.0	1
09/01/24	8:37	-19.6	-19.3	-19.6	78	-22.4	26.1	ESE	0.43	33.0	ESE	-34.5	-19.6	-34.6	738.9	0.026	0.000	20.8	3	-26.1	17.3	0.75	 .0729	24	1	100.0	1
09/01/24	8:38	-19.6	-19.6	-19.6	78	-22.5	28.7	ESE	0.48	33.9	SE	-35.1	-19.7	-35.2	738.8	0.026	0.000	20.8	3	-26.1	17.3	0.75	 .0729	23	1	100.0	1
09/01/24	8:39	-19.7	-19.7	-19.7	78	-22.6	27.8	ESE	0.46	34.8	ESE	-35.1	-19.8	-35.2	739.0	0.026	0.000	20.8	3	-26.1	17.3	0.75	 .0729	23	1	100.0	1
09/01/24	8:40	-19.4	-19.4	-19.7	78	-22.3	30.4	ESE	0.51	37.4	SE	-35.2	-19.4	-35.2	738.8	0.026	0.000	20.8	3	-26.1	17.4	0.75	 .0728	24	1	100.0	1
09/01/24	8:41	-19.1	-19.1	-19.3	78	-21.9	29.6	SE	0.49	36.5	SE	-34.6	-19.1	-34.6	738.9	0.026	0.000	20.8	3	-26.1	17.4	0.75	 .0729	23	1	100.0	1
09/01/24	8:42	-18.8	-18.8	-19.0	79	-21.6	29.6	SE	0.49	36.5	SE	-34.2	-18.9	-34.3	738.8	0.026	0.000	20.8	3	-26.1	17.4	0.75	 .0729	24	1	100.0	1
09/01/24	8:43	-18.8	-18.8	-18.8	79	-21.6	27.8	ESE	0.46	33.0	SE	-33.9	-18.9	-33.9	738.7	0.026	0.000	20.8	3	-26.1	17.4	0.75	 .0728	23	1	100.0	1
09/01/24	8:44	-18.9	-18.8	-18.9	79	-21.7	27.8	ESE	0.46	33.9	ESE	-34.1	-19.0	-34.1	738.7	0.026	0.000	20.8	3	-26.1	17.4	0.75	 .0728	24	1	100.0	1
09/01/24	8:45	-18.8	-18.8	-19.0	79	-21.6	29.6	SE	0.49	36.5	E	-34.2	-18.9	-34.3	738.8	0.026	0.000	20.8	3	-26.1	17.4	0.75	 .0728	23	1	100.0	1
09/01/24	8:46	-18.8	-18.7	-18.8	79	-21.5	33.0	SE	0.55	37.4	ESE	-34.8	-18.8	-34.8	738.8	0.026	0.000	20.8	3	-26.1	17.4	0.75	 .0728	23	1	100.0	1
09/01/24	8:47	-19.0	-18.8	-19.0	79	-21.7	30.4	ESE	0.51	33.9	ESE	-34.6	-19.1	-34.7	738.8	0.026	0.000	20.8	3	-26.1	17.4	0.75	 .0728	24	1	100.0	1
09/01/24	8:48	-18.9	-18.9	-19.0	78	-21.8	32.2	ESE	0.54	35.7	ESE	-34.9	-19.0	-34.9	738.7	0.026	0.000	20.8	3	-26.1	17.4	0.75	 .0728	23	1	100.0	1
09/01/24	8:49	-18.7	-18.7	-18.9	78	-21.6	34.8	ESE	0.58	42.6	SE	-34.9	-18.7	-35.0	738.6	0.026	0.000	20.8	3	-26.1	17.4	0.75	 .0728	24	1	100.0	1
09/01/24	8:50	-18.2	-18.2	-18.6	78	-21.1	32.2	SE	0.54	41.7	SE	-33.8	-18.2	-33.8	738.5	0.025	0.000	20.8	3	-26.1	17.4	0.75	 .0728	23	1	100.0	1
09/01/24	8:51	-18.3	-18.1	-18.3	79	-21.0	36.5	ESE	0.61	42.6	SE	-34.7	-18.3	-34.7	738.6	0.025	0.000	20.9	3	-26.0	17.5	0.75	 .0728	23	1	100.0	1
09/01/24	8:52	-18.8	-18.4	-18.8	79	-21.5	34.8	ESE	0.58	38.3	ESE	-35.1	-18.8	-35.2	738.8	0.026	0.000	20.9	3	-26.0	17.5	0.75	 .0728	24	1	100.0	1
09/01/24	8:53	-19.1	-18.8	-19.1	78	-22.0	34.8	ESE	0.58	39.1	ESE	-35.6	-19.2	-35.6	738.7	0.026	0.000	20.9	3	-26.0	17.5	0.75	 .0728	23	1	100.0	1
09/01/24	8:54	-19.0	-19.0	-19.2	78	-21.9	31.3	ESE	0.52	40.0	ESE	-34.8	-19.1	-34.8	738.8	0.026	0.000	20.9	3	-26.0	17.5	0.75	 .0728	24	1	100.0	1
09/01/24	8:55	-18.7	-18.7	-18.8	78	-21.6	33.0	ESE	0.55	39.1	ESE	-34.7	-18.7	-34.7	738.8	0.026	0.000	20.9	3	-26.0	17.5	0.75	 .0728	23	1	100.0	1
09/01/24	8:56	-18.2	-18.2	-18.6	78	-21.1	31.3	SE	0.52	35.7	SE	-33.7	-18.3	-33.8	738.9	0.025	0.000	20.9	3	-26.0	17.5	0.75	 .0728	23	1	100.0	1
09/01/24	8:57	-18.0	-17.9	-18.1	78	-20.9	27.0	ESE	0.45	30.4	ESE	-32.6	-18.1	-32.6	739.2	0.025	0.000	20.9	3	-26.0	17.5	0.75	 .0729	24	1	100.0	1
09/01/24	8:58	-18.3	-18.1	-18.3	79	-21.0	27.0	ESE	0.45	30.4	ESE	-32.9	-18.3	-33.0	739.2	0.025	0.000	20.9	4	-22.8	17.5	1.04	 .0729	23	1	100.0	1
09/01/24	8:59	-18.8	-18.4	-18.8	79	-21.5	27.0	ESE	0.45	29.6	ESE	-33.6	-18.8	-33.7	739.2	0.026	0.000	20.9	4	-22.8	17.5	1.04	 .0729	24	1	100.0	1
09/01/24	9:00	-19.2	-18.9	-19.2	78	-22.0	27.8	ESE	0.46	35.7	ESE	-34.3	-19.2	-34.4	739.1	0.026	0.000	20.9	4	-22.8	17.5	1.04	 .0728	23	1	100.0	1
09/01/24	9:01	-19.3	-19.2	-19.3	78	-22.2	29.6	ESE	0.49	32.2	ESE	-34.9	-19.4	-35.0	739.0	0.026	0.000	20.8	4	-22.9	17.4	1.04	 .0728	24	1	100.0	1
09/01/24	9:02	-19.7	-19.4	-19.7	78	-22.5	29.6	ESE	0.49	33.0	ESE	-35.4	-19.7	-35.4	739.0	0.026	0.000	20.8	4	-22.9	17.4	1.04	 .0729	23	1	100.0	1
09/01/24	9:03	-19.7	-19.7	-19.7	78	-22.6	32.2	ESE	0.54	35.7	N	-35.9	-19.8	-36.0	739.0	0.026	0.000	20.8	4	-22.9	17.4	1.04	 .0729	23	1	100.0	1
09/01/24	9:04	-19.8	-19.8	-19.8	78	-22.7	30.4	ESE	0.51	37.4	ESE	-35.8	-19.9	-35.8	738.9	0.027	0.000	20.8	4	-22.9	17.4	1.04	 .0728	24	1	100.0	1
09/01/24	9:05	-19.8	-19.8	-19.9	78	-22.7	31.3	SE	0.52	36.5	ESE	-35.9	-19.9	-36.0	738.8	0.027	0.000	20.8	4	-22.9	17.4	1.04	 .0728	23	1	100.0	1
09/01/24	9:06	-19.3	-19.3	-19.7	78	-22.2	30.4	ESE	0.51	33.9	ESE	-35.1	-19.4	-35.2	739.0	0.026	0.000	20.8	4	-22.9	17.4	1.04	 .0729	24	1	100.0	1
09/01/24	9:07	-19.4	-19.3	-19.4	78	-22.3	31.3	ESE	0.52	34.8	ESE	-35.4	-19.5	-35.4	739.2	0.026	0.000	20.8	4	-22.9	17.4	1.04	 .0729	23	1	100.0	1
09/01/24	9:08	-19.6	-19.5	-19.6	79	-22.3	29.6	ESE	0.49	32.2	ESE	-35.3	-19.7	-35.3	739.3	0.026	0.000	20.8	4	-22.9	17.4	1.04	 .0729	23	1	100.0	1
09/01/24	9:09	-19.4	-19.4	-19.6	79	-22.2	30.4	ESE	0.51	36.5	ESE	-35.2	-19.5	-35.3	739.2	0.026	0.000	20.8	4	-22.9	17.4	1.04	 .0729	24	1	100.0	1
09/01/24	9:10	-19.3	-19.3	-19.4	79	-22.0	28.7	ESE	0.48	32.2	E	-34.7	-19.3	-34.7	739.1	0.026	0.000	20.8	4	-22.9	17.4	1.04	 .0729	23	1	100.0	1
09/01/24	9:11	-19.3	-19.3	-19.3	79	-22.1	31.3	ESE	0.52	36.5	ESE	-35.3	-19.4	-35.3	739.2	0.026	0.000	20.8	4	-22.9	17.4	1.04	 .0729	24	1	100.0	1
09/01/24	9:12	-19.5	-19.3	-19.5	79	-22.2	32.2	ESE	0.54	34.8	ESE	-35.7	-19.6	-35.7	739.2	0.026	0.000	20.8	4	-22.9	17.4	1.04	 .0729	23	1	100.0	1
09/01/24	9:13	-19.5	-19.5	-19.6	79	-22.2	31.3	ESE	0.52	33.9	ESE	-35.5	-19.6	-35.6	739.2	0.026	0.000	20.7	4	-22.9	17.3	1.04	 .0729	24	1	100.0	1
09/01/24	9:14	-19.6	-19.5	-19.6	79	-22.3	32.2	ESE	0.54	35.7	ESE	-35.8	-19.7	-35.8	739.3	0.026	0.000	20.7	4	-22.9	17.3	1.04	 .0729	23	1	100.0	1
09/01/24	9:15	-19.4	-19.4	-19.7	79	-22.2	30.4	ESE	0.51	36.5	ESE	-35.2	-19.5	-35.3	739.2	0.026	0.000	20.7	4	-22.9	17.3	1.04	 .0729	23	1	100.0	1
09/01/24	9:16	-19.4	-19.4	-19.4	79	-22.2	29.6	ESE	0.49	34.8	ESE	-35.1	-19.5	-35.1	739.3	0.026	0.000	20.7	4	-23.0	17.2	1.03	 .0729	24	1	100.0	1
09/01/24	9:17	-19.5	-19.4	-19.5	79	-22.2	31.3	ESE	0.52	34.8	E	-35.5	-19.6	-35.6	739.2	0.026	0.000	20.7	4	-22.9	17.3	1.04	 .0729	23	1	100.0	1
09/01/24	9:18	-19.1	-19.1	-19.5	78	-22.0	31.3	E	0.52	36.5	E	-34.9	-19.2	-35.0	739.1	0.026	0.000	20.7	4	-23.0	17.2	1.03	 .0729	24	1	100.0	1
09/01/24	9:19	-18.8	-18.8	-19.1	79	-21.5	32.2	ESE	0.54	37.4	ESE	-34.7	-18.8	-34.7	739.1	0.026	0.000	20.7	4	-23.0	17.2	1.03	 .0729	23	1	100.0	1
09/01/24	9:20	-18.4	-18.4	-18.7	79	-21.2	28.7	ESE	0.48	39.1	ESE	-33.6	-18.5	-33.6	739.4	0.026	0.000	20.7	4	-23.0	17.2	1.03	 .0729	23	1	100.0	1
09/01/24	9:21	-18.2	-18.2	-18.3	79	-21.0	23.5	ESE	0.39	33.0	ESE	-32.1	-18.3	-32.2	739.5	0.025	0.000	20.7	4	-22.9	17.3	1.04	 .0729	24	1	100.0	1
09/01/24	9:22	-18.1	-18.1	-18.2	79	-20.9	28.7	ESE	0.48	33.0	SE	-33.1	-18.2	-33.1	739.5	0.025	0.000	20.7	4	-23.0	17.2	1.03	 .0729	23	1	100.0	1
09/01/24	9:23	-18.0	-18.0	-18.1	79	-20.8	28.7	SE	0.48	34.8	SE	-32.9	-18.1	-33.0	739.4	0.025	0.000	20.7	4	-23.0	17.2	1.03	 .0729	24	1	100.0	1
09/01/24	9:24	-18.0	-17.9	-18.0	79	-20.8	27.8	SE	0.46	31.3	ESE	-32.8	-18.1	-32.8	739.4	0.025	0.000	20.7	4	-23.0	17.2	1.03	 .0729	23	1	100.0	1
09/01/24	9:25	-18.3	-18.1	-18.3	79	-21.0	27.0	ESE	0.45	30.4	ESE	-32.9	-18.3	-33.0	739.5	0.025	0.000	20.7	4	-23.0	17.2	1.03	 .0729	24	1	100.0	1
09/01/24	9:26	-18.5	-18.3	-18.5	79	-21.2	27.0	ESE	0.45	31.3	ESE	-33.3	-18.6	-33.3	739.5	0.026	0.000	20.7	4	-22.9	17.3	1.04	 .0729	23	1	100.0	1
09/01/24	9:27	-18.7	-18.5	-18.7	79	-21.4	27.8	ESE	0.46	29.6	ESE	-33.7	-18.7	-33.7	739.5	0.026	0.000	20.7	4	-22.9	17.3	1.04	 .0729	23	1	100.0	1
09/01/24	9:28	-18.7	-18.7	-18.7	78	-21.6	28.7	ESE	0.48	30.4	ESE	-33.9	-18.8	-33.9	739.5	0.026	0.000	20.7	4	-22.9	17.3	1.04	 .0729	24	1	100.0	1
09/01/24	9:29	-18.8	-18.8	-18.8	79	-21.6	26.1	ESE	0.43	29.6	ESE	-33.5	-18.9	-33.6	739.5	0.026	0.000	20.7	4	-22.9	17.3	1.04	 .0729	23	1	100.0	1
09/01/24	9:30	-18.9	-18.8	-18.9	79	-21.6	27.0	ESE	0.45	29.6	ESE	-33.8	-18.9	-33.8	739.5	0.026	0.000	20.7	4	-22.9	17.3	1.04	 .0729	24	1	100.0	1
09/01/24	9:31	-18.9	-18.9	-18.9	79	-21.6	27.8	ESE	0.46	32.2	ESE	-33.9	-18.9	-34.0	739.6	0.026	0.000	20.7	4	-22.9	17.3	1.04	 .0729	23	1	100.0	1
09/01/24	9:32	-18.9	-18.9	-18.9	79	-21.7	23.5	ESE	0.39	26.1	ESE	-33.1	-19.0	-33.2	739.7	0.026	0.000	20.7	4	-22.9	17.3	1.04	 .0730	23	1	100.0	1
09/01/24	9:33	-19.0	-18.9	-19.0	79	-21.7	26.1	ESE	0.43	27.0	ESE	-33.8	-19.1	-33.8	739.7	0.026	0.000	20.8	4	-22.9	17.4	1.04	 .0729	24	1	100.0	1
09/01/24	9:34	-18.9	-18.9	-19.0	78	-21.8	25.2	ESE	0.42	29.6	SE	-33.5	-19.0	-33.6	739.7	0.026	0.000	20.8	4	-22.9	17.4	1.04	 .0729	23	1	100.0	1
09/01/24	9:35	-18.3	-18.3	-18.9	78	-21.2	27.8	SE	0.46	31.3	SE	-33.1	-18.3	-33.2	739.6	0.025	0.000	20.8	4	-22.9	17.4	1.04	 .0729	24	1	100.0	1
09/01/24	9:36	-17.9	-17.9	-18.2	79	-20.7	27.8	SE	0.46	32.2	ESE	-32.7	-18.0	-32.7	739.7	0.025	0.000	20.8	4	-22.9	17.4	1.04	 .0729	23	1	100.0	1
09/01/24	9:37	-17.8	-17.8	-17.9	79	-20.6	27.8	ESE	0.46	31.3	SE	-32.5	-17.9	-32.6	739.7	0.025	0.000	20.8	4	-22.9	17.4	1.04	 .0729	23	1	100.0	1
09/01/24	9:38	-17.9	-17.8	-17.9	79	-20.7	27.8	ESE	0.46	31.3	E	-32.7	-18.0	-32.7	739.7	0.025	0.000	20.8	4	-22.9	17.4	1.04	 .0729	24	1	100.0	1
09/01/24	9:39	-18.1	-18.0	-18.1	79	-20.8	27.0	ESE	0.45	30.4	ESE	-32.7	-18.1	-32.7	739.8	0.025	0.000	20.8	4	-22.9	17.4	1.04	 .0729	23	1	100.0	1
09/01/24	9:40	-18.0	-18.0	-18.1	79	-20.8	27.0	ESE	0.45	32.2	ESE	-32.6	-18.1	-32.6	739.8	0.025	0.000	20.8	4	-22.9	17.4	1.04	 .0729	24	1	100.0	1
09/01/24	9:41	-17.8	-17.8	-18.0	79	-20.5	23.5	ESE	0.39	30.4	N	-31.5	-17.8	-31.6	739.8	0.025	0.000	20.8	4	-22.9	17.4	1.04	 .0729	23	1	100.0	1
09/01/24	9:42	-17.7	-17.7	-17.7	79	-20.4	22.6	ESE	0.38	27.0	ESE	-31.2	-17.7	-31.2	739.9	0.025	0.000	20.8	4	-22.9	17.4	1.04	 .0729	24	1	100.0	1
09/01/24	9:43	-17.4	-17.4	-17.6	79	-20.2	25.2	SE	0.42	29.6	SE	-31.4	-17.5	-31.5	739.9	0.025	0.000	20.8	4	-22.9	17.4	1.04	 .0729	23	1	100.0	1
09/01/24	9:44	-17.4	-17.4	-17.4	79	-20.2	27.0	SE	0.45	31.3	ESE	-31.7	-17.4	-31.8	739.8	0.025	0.000	20.8	4	-22.9	17.4	1.04	 .0729	23	1	100.0	1
09/01/24	9:45	-17.5	-17.4	-17.5	79	-20.3	28.7	ESE	0.48	34.8	ESE	-32.2	-17.6	-32.3	739.8	0.025	0.000	20.8	4	-22.9	17.4	1.04	 .0729	24	1	100.0	1
09/01/24	9:46	-17.7	-17.5	-17.7	79	-20.4	25.2	ESE	0.42	27.8	ESE	-31.8	-17.7	-31.8	740.0	0.025	0.000	20.9	4	-22.8	17.5	1.04	 .0729	23	1	100.0	1
09/01/24	9:47	-17.9	-17.7	-17.9	79	-20.7	27.0	ESE	0.45	28.7	ESE	-32.5	-18.0	-32.6	740.0	0.025	0.000	20.8	4	-22.9	17.4	1.04	 .0729	24	1	100.0	1
09/01/24	9:48	-18.2	-18.0	-18.2	79	-21.0	27.8	ESE	0.46	29.6	ESE	-33.1	-18.3	-33.1	740.0	0.025	0.000	20.9	4	-22.8	17.5	1.04	 .0729	23	1	100.0	1
09/01/24	9:49	-18.3	-18.2	-18.3	78	-21.2	27.0	ESE	0.45	31.3	ESE	-32.9	-18.3	-33.0	740.0	0.025	0.000	20.9	4	-22.8	17.5	1.04	 .0729	24	1	100.0	1
09/01/24	9:50	-18.2	-18.2	-18.3	78	-21.1	26.1	ESE	0.43	28.7	ESE	-32.7	-18.3	-32.8	740.0	0.025	0.000	20.9	4	-22.8	17.5	1.04	 .0729	23	1	100.0	1
09/01/24	9:51	-18.3	-18.2	-18.3	78	-21.2	26.1	ESE	0.43	29.6	ESE	-32.8	-18.3	-32.8	740.0	0.025	0.000	20.9	4	-22.8	17.5	1.04	 .0729	23	1	100.0	1
09/01/24	9:52	-18.3	-18.3	-18.3	78	-21.2	27.8	ESE	0.46	32.2	ESE	-33.2	-18.4	-33.3	740.0	0.025	0.000	20.9	4	-22.8	17.5	1.04	 .0729	24	1	100.0	1
09/01/24	9:53	-18.3	-18.3	-18.4	79	-21.1	26.1	ESE	0.43	30.4	SE	-32.8	-18.4	-32.9	740.1	0.025	0.000	20.9	4	-22.8	17.6	1.04	 .0729	23	1	100.0	1
09/01/24	9:54	-17.9	-17.9	-18.3	78	-20.8	28.7	SE	0.48	34.8	SE	-32.8	-18.0	-32.9	740.1	0.025	0.000	20.9	4	-22.8	17.5	1.04	 .0729	24	1	100.0	1
09/01/24	9:55	-17.7	-17.7	-17.8	79	-20.4	24.3	SE	0.41	27.8	ESE	-31.6	-17.7	-31.6	740.0	0.025	0.000	20.9	4	-22.8	17.5	1.04	 .0729	23	1	100.0	1
09/01/24	9:56	-17.2	-17.2	-17.7	79	-20.0	24.3	SSE	0.41	29.6	SSE	-30.9	-17.3	-31.0	740.2	0.025	0.000	20.9	4	-22.8	17.5	1.04	 .0730	23	1	100.0	1
09/01/24	9:57	-16.8	-16.8	-17.2	79	-19.6	25.2	SE	0.42	31.3	SSE	-30.6	-16.9	-30.7	740.2	0.024	0.000	20.9	4	-22.8	17.5	1.04	 .0730	24	1	100.0	1
09/01/24	9:58	-16.6	-16.6	-16.8	79	-19.4	22.6	SE	0.38	27.8	SSE	-29.8	-16.7	-29.8	740.1	0.024	0.000	20.9	4	-22.8	17.5	1.04	 .0729	23	1	100.0	1
09/01/24	9:59	-16.7	-16.6	-16.7	79	-19.5	23.5	SE	0.39	27.8	SE	-30.0	-16.7	-30.1	740.2	0.024	0.000	20.9	4	-22.8	17.5	1.04	 .0730	24	1	100.0	1
09/01/24	10:00	-16.5	-16.5	-16.6	79	-19.3	23.5	SE	0.39	26.1	SE	-29.8	-16.6	-29.8	740.1	0.024	0.000	20.9	4	-22.8	17.5	1.04	 .0729	23	1	100.0	1
09/01/24	10:01	-16.6	-16.5	-16.6	79	-19.4	24.3	ESE	0.41	27.8	ESE	-30.2	-16.7	-30.2	740.1	0.024	0.000	20.9	4	-22.8	17.5	1.04	 .0729	23	1	100.0	1
09/01/24	10:02	-16.8	-16.7	-16.8	79	-19.6	23.5	ESE	0.39	27.8	ESE	-30.2	-16.9	-30.3	740.2	0.024	0.000	20.9	4	-22.8	17.5	1.04	 .0730	24	1	100.0	1
09/01/24	10:03	-17.1	-16.9	-17.1	79	-19.9	23.5	ESE	0.39	29.6	ESE	-30.6	-17.2	-30.7	740.2	0.025	0.000	20.9	4	-22.8	17.5	1.04	 .0730	23	1	100.0	1
09/01/24	10:04	-17.2	-17.1	-17.2	78	-20.1	25.2	SE	0.42	36.5	SE	-31.1	-17.2	-31.1	740.2	0.025	0.000	20.8	4	-22.9	17.4	1.04	 .0730	24	1	100.0	1
09/01/24	10:05	-16.9	-16.9	-17.1	78	-19.9	27.8	SE	0.46	32.2	SE	-31.3	-17.0	-31.4	740.1	0.024	0.000	20.8	4	-22.9	17.4	1.04	 .0730	23	1	100.0	1
09/01/24	10:06	-16.7	-16.7	-16.9	78	-19.7	27.0	ESE	0.45	30.4	ESE	-30.8	-16.8	-30.9	740.2	0.024	0.000	20.8	4	-22.9	17.4	1.04	 .0730	24	1	100.0	1
09/01/24	10:07	-16.8	-16.7	-16.8	78	-19.8	22.6	ESE	0.38	26.1	ESE	-30.1	-16.9	-30.1	740.3	0.024	0.000	20.8	4	-22.9	17.4	1.04	 .0730	23	1	100.0	1
09/01/24	10:08	-17.0	-16.9	-17.0	79	-19.8	25.2	ESE	0.42	33.0	ESE	-30.8	-17.1	-30.9	740.4	0.025	0.000	20.8	4	-22.9	17.4	1.04	 .0730	23	1	100.0	1
09/01/24	10:09	-16.8	-16.8	-17.0	78	-19.8	23.5	SE	0.39	28.7	SE	-30.2	-16.9	-30.3	740.3	0.024	0.000	20.8	4	-22.9	17.4	1.04	 .0730	24	1	100.0	1
09/01/24	10:10	-16.6	-16.6	-16.8	78	-19.5	22.6	SE	0.38	27.8	SE	-29.7	-16.6	-29.7	740.3	0.024	0.000	20.8	4	-22.9	17.4	1.04	 .0730	23	1	100.0	1
09/01/24	10:11	-16.6	-16.5	-16.6	79	-19.3	23.5	ESE	0.39	29.6	ESE	-29.9	-16.6	-29.9	740.4	0.024	0.000	20.8	4	-22.9	17.4	1.04	 .0730	24	1	100.0	1
09/01/24	10:12	-16.7	-16.6	-16.7	79	-19.5	25.2	ESE	0.42	31.3	SE	-30.5	-16.8	-30.6	740.4	0.024	0.000	20.8	4	-22.9	17.4	1.04	 .0730	23	1	100.0	1
09/01/24	10:13	-17.1	-16.8	-17.1	79	-19.8	20.9	ESE	0.35	27.0	SE	-29.9	-17.1	-30.0	740.5	0.025	0.000	20.8	4	-22.9	17.4	1.04	 .0730	23	1	100.0	1
09/01/24	10:14	-16.9	-16.9	-17.1	79	-19.7	23.5	SE	0.39	27.8	SE	-30.4	-17.0	-30.4	740.3	0.024	0.000	20.7	4	-22.9	17.3	1.04	 .0730	24	1	100.0	1
09/01/24	10:15	-16.8	-16.8	-16.9	78	-19.7	20.0	SE	0.33	24.3	SE	-29.3	-16.8	-29.4	740.5	0.024	0.000	20.7	4	-22.9	17.3	1.04	 .0730	23	1	100.0	1
09/01/24	10:16	-16.7	-16.7	-16.8	78	-19.6	19.1	SE	0.32	22.6	SE	-28.9	-16.7	-29.0	740.5	0.024	0.000	20.7	4	-22.9	17.3	1.04	 .0730	24	1	100.0	1
09/01/24	10:17	-16.7	-16.7	-16.7	79	-19.5	20.9	SE	0.35	24.3	SE	-29.5	-16.8	-29.6	740.5	0.024	0.000	20.7	4	-22.9	17.3	1.04	 .0730	23	1	100.0	1
09/01/24	10:18	-16.8	-16.7	-16.8	79	-19.6	20.9	ESE	0.35	24.3	ESE	-29.6	-16.8	-29.6	740.6	0.024	0.000	20.7	4	-22.9	17.3	1.04	 .0730	23	1	100.0	1
09/01/24	10:19	-16.9	-16.8	-16.9	79	-19.7	20.9	ESE	0.35	25.2	SE	-29.8	-17.0	-29.8	740.7	0.024	0.000	20.7	4	-22.9	17.3	1.04	 .0730	24	1	100.0	1
09/01/24	10:20	-16.9	-16.9	-17.0	79	-19.7	16.5	ESE	0.28	19.1	ESE	-28.6	-17.0	-28.7	740.7	0.024	0.000	20.7	4	-22.9	17.3	1.04	 .0730	23	1	100.0	1
09/01/24	10:21	-16.9	-16.9	-16.9	79	-19.7	17.4	ESE	0.29	20.0	ESE	-28.8	-16.9	-28.8	740.7	0.024	0.000	20.8	4	-22.9	17.4	1.04	 .0730	24	1	100.0	1
09/01/24	10:22	-17.1	-16.9	-17.1	79	-19.8	18.3	ESE	0.30	20.9	ESE	-29.2	-17.1	-29.3	740.7	0.025	0.000	20.8	4	-22.9	17.4	1.04	 .0730	23	1	100.0	1
09/01/24	10:23	-17.2	-17.1	-17.2	79	-20.0	19.1	ESE	0.32	21.7	ESE	-29.7	-17.3	-29.8	740.7	0.025	0.000	20.7	4	-22.9	17.3	1.04	 .0730	24	1	100.0	1
09/01/24	10:24	-17.4	-17.3	-17.4	79	-20.2	18.3	ESE	0.30	23.5	ESE	-29.7	-17.4	-29.7	740.7	0.025	0.000	20.8	4	-22.9	17.4	1.04	 .0730	23	1	100.0	1
09/01/24	10:25	-17.4	-17.3	-17.4	79	-20.2	19.1	E	0.32	20.9	E	-30.0	-17.5	-30.1	740.7	0.025	0.000	20.8	4	-22.9	17.4	1.04	 .0730	23	1	100.0	1
09/01/24	10:26	-17.6	-17.4	-17.6	78	-20.5	18.3	E	0.30	20.0	ESE	-29.9	-17.6	-29.9	740.8	0.025	0.000	20.8	4	-22.9	17.4	1.04	 .0730	24	1	100.0	1
09/01/24	10:27	-17.7	-17.6	-17.7	79	-20.4	15.7	ESE	0.26	17.4	ESE	-29.3	-17.7	-29.3	740.8	0.025	0.000	20.8	4	-22.9	17.4	1.04	 .0730	23	1	100.0	1
09/01/24	10:28	-17.8	-17.7	-17.8	78	-20.7	14.8	ESE	0.25	16.5	ESE	-29.1	-17.8	-29.2	740.8	0.025	0.000	20.8	4	-22.9	17.4	1.04	 .0730	24	1	100.0	1
09/01/24	10:29	-17.8	-17.8	-17.8	78	-20.7	14.8	E	0.25	16.5	ESE	-29.1	-17.8	-29.2	740.9	0.025	0.000	20.8	4	-22.9	17.4	1.04	 .0730	23	1	100.0	1
09/01/24	10:30	-17.8	-17.8	-17.8	78	-20.7	15.7	E	0.26	19.1	ESE	-29.4	-17.8	-29.4	740.9	0.025	0.000	20.8	4	-22.9	17.4	1.04	 .0730	24	1	100.0	1
09/01/24	10:31	-17.8	-17.8	-17.8	78	-20.7	16.5	ESE	0.28	19.1	ESE	-29.7	-17.8	-29.7	740.9	0.025	0.000	20.8	4	-22.9	17.4	1.04	 .0730	23	1	100.0	1
09/01/24	10:32	-17.7	-17.7	-17.7	79	-20.5	15.7	E	0.26	17.4	ESE	-29.3	-17.8	-29.4	740.9	0.025	0.000	20.8	4	-22.9	17.4	1.04	 .0730	23	1	100.0	1
09/01/24	10:33	-17.7	-17.7	-17.7	79	-20.4	16.5	ESE	0.28	18.3	ESE	-29.6	-17.7	-29.6	740.9	0.025	0.000	20.8	4	-22.9	17.4	1.04	 .0730	24	1	100.0	1
09/01/24	10:34	-17.7	-17.7	-17.7	79	-20.4	17.4	ESE	0.29	20.9	ESE	-29.8	-17.7	-29.8	740.9	0.025	0.000	20.8	4	-22.9	17.4	1.04	 .0730	23	1	100.0	1
09/01/24	10:35	-17.7	-17.7	-17.7	79	-20.4	16.5	ESE	0.28	19.1	ESE	-29.6	-17.7	-29.6	740.9	0.025	0.000	20.8	4	-22.9	17.4	1.04	 .0730	24	1	100.0	1
09/01/24	10:36	-17.7	-17.7	-17.7	79	-20.4	16.5	ESE	0.28	20.0	ESE	-29.6	-17.7	-29.6	740.9	0.025	0.000	20.8	4	-22.9	17.4	1.04	 .0730	23	1	100.0	1
09/01/24	10:37	-17.6	-17.6	-17.7	79	-20.4	18.3	E	0.30	20.9	E	-30.0	-17.7	-30.1	740.8	0.025	0.000	20.9	4	-22.8	17.5	1.04	 .0730	23	1	100.0	1
09/01/24	10:38	-17.6	-17.6	-17.6	79	-20.3	16.5	ESE	0.28	19.1	ESE	-29.4	-17.6	-29.4	740.9	0.025	0.000	20.9	4	-22.8	17.5	1.04	 .0730	24	1	100.0	1
09/01/24	10:39	-17.5	-17.5	-17.6	79	-20.3	20.0	ESE	0.33	21.7	ESE	-30.3	-17.6	-30.3	740.9	0.025	0.000	20.8	4	-22.9	17.4	1.04	 .0730	23	1	100.0	1
09/01/24	10:40	-17.3	-17.3	-17.5	79	-20.0	20.0	ESE	0.33	24.3	ESE	-30.0	-17.3	-30.1	740.8	0.025	0.000	20.9	4	-22.8	17.5	1.04	 .0730	24	1	100.0	1
09/01/24	10:41	-17.2	-17.2	-17.3	79	-20.0	17.4	E	0.29	20.9	E	-29.2	-17.3	-29.3	740.9	0.025	0.000	20.9	4	-22.8	17.5	1.04	 .0730	23	1	100.0	1
09/01/24	10:42	-17.1	-17.1	-17.2	79	-19.9	15.7	E	0.26	18.3	E	-28.6	-17.2	-28.6	741.0	0.025	0.000	20.9	4	-22.8	17.5	1.04	 .0730	23	1	100.0	1
09/01/24	10:43	-17.1	-17.1	-17.1	79	-19.8	15.7	E	0.26	18.3	E	-28.4	-17.1	-28.5	741.0	0.025	0.000	20.9	4	-22.8	17.5	1.04	 .0730	24	1	100.0	1
09/01/24	10:44	-17.1	-17.1	-17.1	79	-19.8	16.5	E	0.28	22.6	E	-28.7	-17.1	-28.8	741.0	0.025	0.000	20.9	4	-22.8	17.6	1.04	 .0730	23	1	100.0	1
09/01/24	10:45	-17.0	-17.0	-17.0	79	-19.8	16.5	E	0.28	20.9	E	-28.7	-17.1	-28.7	741.0	0.025	0.000	20.9	4	-22.8	17.5	1.04	 .0730	24	1	100.0	1
09/01/24	10:46	-17.0	-17.0	-17.0	79	-19.8	16.5	E	0.28	20.9	ESE	-28.7	-17.1	-28.7	741.0	0.025	0.000	20.9	4	-22.8	17.6	1.04	 .0730	23	1	100.0	1
09/01/24	10:47	-17.1	-17.0	-17.1	79	-19.8	16.5	ESE	0.28	19.1	ESE	-28.7	-17.1	-28.8	741.1	0.025	0.000	20.9	4	-22.8	17.6	1.04	 .0730	24	1	100.0	1
09/01/24	10:48	-17.1	-17.1	-17.1	79	-19.9	18.3	ESE	0.30	21.7	ESE	-29.3	-17.2	-29.4	741.1	0.025	0.000	20.9	4	-22.8	17.6	1.04	 .0730	23	1	100.0	1
09/01/24	10:49	-17.2	-17.2	-17.2	79	-19.9	19.1	E	0.32	20.9	E	-29.6	-17.2	-29.7	741.0	0.025	0.000	20.9	4	-22.8	17.6	1.04	 .0730	23	1	100.0	1
09/01/24	10:50	-17.3	-17.2	-17.3	79	-20.0	18.3	E	0.30	20.9	E	-29.6	-17.3	-29.6	741.0	0.025	0.000	20.9	4	-22.8	17.6	1.04	 .0730	24	1	100.0	1
09/01/24	10:51	-17.3	-17.3	-17.3	79	-20.1	17.4	E	0.29	19.1	E	-29.3	-17.4	-29.4	741.0	0.025	0.000	20.9	4	-22.8	17.6	1.04	 .0730	23	1	100.0	1
09/01/24	10:52	-17.4	-17.3	-17.4	79	-20.2	20.0	E	0.33	21.7	E	-30.2	-17.4	-30.2	741.1	0.025	0.000	20.9	4	-22.8	17.6	1.04	 .0730	24	1	100.0	1
09/01/24	10:53	-17.4	-17.4	-17.4	79	-20.2	19.1	E	0.32	21.7	ESE	-29.9	-17.4	-30.0	741.1	0.025	0.000	20.9	4	-22.8	17.6	1.04	 .0730	23	1	100.0	1
09/01/24	10:54	-17.3	-17.3	-17.3	79	-20.1	19.1	E	0.32	20.9	E	-29.8	-17.4	-29.9	741.1	0.025	0.000	20.9	4	-22.8	17.6	1.04	 .0730	23	1	100.0	1
09/01/24	10:55	-17.3	-17.3	-17.3	79	-20.1	19.1	E	0.32	20.9	E	-29.8	-17.4	-29.9	741.1	0.025	0.000	21.0	4	-22.7	17.6	1.05	 .0730	24	1	100.0	1
09/01/24	10:56	-17.3	-17.3	-17.3	79	-20.1	18.3	E	0.30	20.9	E	-29.6	-17.4	-29.7	741.1	0.025	0.000	21.0	4	-22.7	17.6	1.05	 .0730	23	1	100.0	1
09/01/24	10:57	-17.3	-17.3	-17.3	79	-20.1	18.3	E	0.30	19.1	E	-29.6	-17.4	-29.7	741.1	0.025	0.000	21.0	4	-22.7	17.6	1.05	 .0730	24	1	100.0	1
09/01/24	10:58	-17.4	-17.3	-17.4	79	-20.2	19.1	E	0.32	21.7	E	-29.9	-17.4	-30.0	741.1	0.025	0.000	21.0	4	-22.7	17.6	1.05	 .0730	23	1	100.0	1
09/01/24	10:59	-17.4	-17.4	-17.4	79	-20.2	20.9	E	0.35	27.0	ESE	-30.4	-17.4	-30.4	741.1	0.025	0.000	21.0	4	-22.7	17.6	1.05	 .0730	24	1	100.0	1
09/01/24	11:00	-17.3	-17.3	-17.4	79	-20.1	20.0	E	0.33	22.6	ESE	-30.1	-17.4	-30.1	741.1	0.025	0.000	21.0	4	-22.7	17.6	1.05	 .0730	23	1	100.0	1
09/01/24	11:01	-17.1	-17.1	-17.3	79	-19.9	17.4	E	0.29	22.6	ESE	-29.1	-17.2	-29.1	741.0	0.025	0.000	21.0	4	-22.7	17.6	1.05	 .0730	23	1	100.0	1
09/01/24	11:02	-16.9	-16.9	-17.1	79	-19.7	20.9	ESE	0.35	27.0	SE	-29.8	-17.0	-29.8	741.0	0.024	0.000	21.0	4	-22.7	17.6	1.05	 .0730	24	1	100.0	1
09/01/24	11:03	-16.8	-16.8	-16.9	79	-19.6	18.3	E	0.30	22.6	E	-28.9	-16.9	-29.0	741.2	0.024	0.000	21.0	4	-22.7	17.6	1.05	 .0730	23	1	100.0	1
09/01/24	11:04	-16.8	-16.8	-16.8	79	-19.6	17.4	E	0.29	20.9	E	-28.7	-16.9	-28.8	741.2	0.024	0.000	21.0	4	-22.7	17.6	1.05	 .0730	24	1	100.0	1
09/01/24	11:05	-16.8	-16.8	-16.8	79	-19.6	17.4	E	0.29	21.7	E	-28.7	-16.9	-28.8	741.2	0.024	0.000	20.9	4	-22.8	17.6	1.04	 .0730	23	1	100.0	1
09/01/24	11:06	-16.9	-16.8	-16.9	79	-19.7	16.5	E	0.28	20.0	ESE	-28.5	-16.9	-28.6	741.2	0.024	0.000	20.9	4	-22.8	17.6	1.04	 .0730	23	1	100.0	1
09/01/24	11:07	-16.8	-16.8	-16.9	79	-19.6	19.1	ESE	0.32	22.6	ESE	-29.2	-16.9	-29.2	741.3	0.024	0.000	20.9	4	-22.8	17.6	1.04	 .0730	24	1	100.0	1
09/01/24	11:08	-16.7	-16.7	-16.8	79	-19.5	15.7	E	0.26	17.4	ESE	-28.1	-16.8	-28.1	741.3	0.024	0.000	20.9	4	-22.8	17.6	1.04	 .0730	23	1	100.0	1
09/01/24	11:09	-16.8	-16.7	-16.8	79	-19.6	16.5	ESE	0.28	18.3	E	-28.4	-16.8	-28.4	741.4	0.024	0.000	20.9	4	-22.8	17.6	1.04	 .0731	24	1	100.0	1
09/01/24	11:10	-16.8	-16.8	-16.8	79	-19.6	17.4	E	0.29	20.0	E	-28.7	-16.9	-28.8	741.4	0.024	0.000	20.9	4	-22.8	17.6	1.04	 .0731	23	1	100.0	1
09/01/24	11:11	-16.9	-16.8	-16.9	79	-19.7	18.3	E	0.30	20.9	E	-29.1	-17.0	-29.2	741.3	0.024	0.000	20.9	4	-22.8	17.6	1.04	 .0731	23	1	100.0	1
09/01/24	11:12	-17.0	-16.9	-17.0	79	-19.8	18.3	E	0.30	23.5	E	-29.2	-17.1	-29.2	741.4	0.025	0.000	20.9	4	-22.8	17.6	1.04	 .0731	24	1	100.0	1
09/01/24	11:13	-16.9	-16.9	-17.0	79	-19.7	17.4	ESE	0.29	20.9	E	-28.8	-17.0	-28.9	741.5	0.024	0.000	20.9	4	-22.8	17.5	1.04	 .0731	23	1	100.0	1
09/01/24	11:14	-16.8	-16.8	-16.9	79	-19.6	17.4	E	0.29	21.7	E	-28.6	-16.8	-28.7	741.4	0.024	0.000	20.9	4	-22.8	17.5	1.04	 .0731	24	1	100.0	1
09/01/24	11:15	-16.7	-16.7	-16.7	79	-19.5	17.4	E	0.29	20.0	E	-28.5	-16.7	-28.6	741.4	0.024	0.000	20.9	4	-22.8	17.5	1.04	 .0731	23	1	100.0	1
09/01/24	11:16	-16.7	-16.7	-16.7	79	-19.5	17.4	E	0.29	20.9	E	-28.6	-16.8	-28.6	741.5	0.024	0.000	20.8	4	-22.9	17.4	1.04	 .0731	24	1	100.0	1
09/01/24	11:17	-16.7	-16.7	-16.7	79	-19.5	16.5	E	0.28	20.0	E	-28.3	-16.8	-28.3	741.6	0.024	0.000	20.8	4	-22.9	17.4	1.04	 .0731	23	1	100.0	1
09/01/24	11:18	-16.7	-16.7	-16.7	79	-19.5	17.4	E	0.29	23.5	E	-28.6	-16.8	-28.6	741.6	0.024	0.000	20.8	4	-22.9	17.4	1.04	 .0731	23	1	100.0	1
09/01/24	11:19	-16.7	-16.7	-16.7	79	-19.5	17.4	E	0.29	22.6	E	-28.5	-16.7	-28.6	741.6	0.024	0.000	20.8	4	-22.9	17.4	1.04	 .0731	24	1	100.0	1
09/01/24	11:20	-16.6	-16.6	-16.7	79	-19.3	15.7	E	0.26	21.7	E	-27.8	-16.6	-27.9	741.6	0.024	0.000	20.8	4	-22.9	17.4	1.04	 .0731	23	1	100.0	1
09/01/24	11:21	-16.5	-16.5	-16.6	79	-19.3	13.0	ESE	0.22	15.7	ESE	-26.9	-16.6	-26.9	741.7	0.024	0.000	20.8	4	-22.9	17.4	1.04	 .0731	24	1	100.0	1
09/01/24	11:22	-16.6	-16.5	-16.6	79	-19.3	15.7	E	0.26	22.6	E	-27.8	-16.6	-27.9	741.6	0.024	0.000	20.8	4	-22.9	17.4	1.04	 .0731	23	1	100.0	1
09/01/24	11:23	-16.7	-16.6	-16.7	79	-19.5	14.8	E	0.25	17.4	E	-27.7	-16.7	-27.7	741.6	0.024	0.000	20.8	4	-22.9	17.4	1.04	 .0731	23	1	100.0	1
09/01/24	11:24	-16.7	-16.7	-16.7	79	-19.5	16.5	E	0.28	19.1	E	-28.3	-16.8	-28.3	741.7	0.024	0.000	20.8	4	-22.9	17.4	1.04	 .0731	24	1	100.0	1
09/01/24	11:25	-16.8	-16.7	-16.8	79	-19.6	19.1	E	0.32	22.6	ESE	-29.1	-16.8	-29.2	741.6	0.024	0.000	20.8	4	-22.9	17.4	1.04	 .0731	23	1	100.0	1
09/01/24	11:26	-16.8	-16.8	-16.8	79	-19.6	19.1	E	0.32	22.6	E	-29.2	-16.9	-29.2	741.6	0.024	0.000	20.8	4	-22.9	17.4	1.04	 .0731	24	1	100.0	1
09/01/24	11:27	-16.8	-16.8	-16.9	79	-19.6	17.4	E	0.29	20.9	E	-28.7	-16.9	-28.8	741.6	0.024	0.000	20.8	4	-22.9	17.4	1.04	 .0731	23	1	100.0	1
09/01/24	11:28	-16.8	-16.8	-16.8	79	-19.6	17.4	E	0.29	21.7	E	-28.7	-16.9	-28.8	741.7	0.024	0.000	20.8	4	-22.9	17.4	1.04	 .0731	24	1	100.0	1
09/01/24	11:29	-16.9	-16.8	-16.9	79	-19.7	18.3	E	0.30	20.9	E	-29.0	-16.9	-29.1	741.7	0.024	0.000	20.8	4	-22.9	17.4	1.04	 .0731	23	1	100.0	1
09/01/24	11:30	-16.9	-16.9	-16.9	79	-19.7	15.7	E	0.26	17.4	E	-28.2	-16.9	-28.3	741.7	0.024	0.000	20.8	4	-22.9	17.4	1.04	 .0731	23	1	100.0	1
09/01/24	11:31	-16.9	-16.8	-16.9	79	-19.7	15.7	ESE	0.26	20.0	ESE	-28.2	-16.9	-28.3	741.8	0.024	0.000	20.9	4	-22.8	17.5	1.04	 .0731	24	1	100.0	1
09/01/24	11:32	-16.8	-16.8	-16.8	79	-19.6	13.9	E	0.23	16.5	ESE	-27.6	-16.9	-27.7	741.8	0.024	0.000	20.9	4	-22.8	17.5	1.04	 .0731	23	1	100.0	1
09/01/24	11:33	-16.8	-16.8	-16.8	79	-19.6	17.4	E	0.29	20.0	E	-28.7	-16.9	-28.8	741.7	0.024	0.000	20.9	4	-22.8	17.5	1.04	 .0731	24	1	100.0	1
09/01/24	11:34	-16.8	-16.8	-16.8	79	-19.6	17.4	E	0.29	20.0	E	-28.7	-16.9	-28.8	741.7	0.024	0.000	20.9	4	-22.8	17.5	1.04	 .0731	23	1	100.0	1
09/01/24	11:35	-16.8	-16.8	-16.8	79	-19.6	18.3	E	0.30	20.0	E	-28.9	-16.9	-29.0	741.7	0.024	0.000	20.9	4	-22.8	17.5	1.04	 .0731	23	1	100.0	1
09/01/24	11:36	-16.8	-16.8	-16.8	79	-19.6	16.5	E	0.28	19.1	E	-28.4	-16.8	-28.4	741.7	0.024	0.000	20.9	4	-22.8	17.5	1.04	 .0731	24	1	100.0	1
09/01/24	11:37	-16.7	-16.7	-16.8	79	-19.5	18.3	E	0.30	24.3	E	-28.8	-16.8	-28.8	741.7	0.024	0.000	20.9	4	-22.8	17.5	1.04	 .0731	23	1	100.0	1
09/01/24	11:38	-16.6	-16.6	-16.7	79	-19.3	16.5	E	0.28	20.9	ESE	-28.1	-16.6	-28.1	741.7	0.024	0.000	20.9	4	-22.8	17.5	1.04	 .0731	24	1	100.0	1
09/01/24	11:39	-16.5	-16.5	-16.6	79	-19.3	14.8	E	0.25	17.4	E	-27.4	-16.6	-27.5	741.7	0.024	0.000	20.9	4	-22.8	17.5	1.04	 .0731	23	1	100.0	1
09/01/24	11:40	-16.5	-16.4	-16.5	79	-19.3	13.9	E	0.23	18.3	E	-27.2	-16.6	-27.2	741.8	0.024	0.000	20.9	4	-22.8	17.5	1.04	 .0731	23	1	100.0	1
09/01/24	11:41	-16.5	-16.5	-16.5	79	-19.3	16.5	E	0.28	19.1	E	-28.0	-16.6	-28.1	741.8	0.024	0.000	20.9	4	-22.8	17.5	1.04	 .0731	24	1	100.0	1
09/01/24	11:42	-16.6	-16.5	-16.6	79	-19.3	18.3	ESE	0.30	21.7	ESE	-28.6	-16.6	-28.6	741.7	0.024	0.000	20.9	4	-22.8	17.6	1.04	 .0731	23	1	100.0	1
09/01/24	11:43	-16.6	-16.6	-16.6	79	-19.3	16.5	E	0.28	20.9	ESE	-28.1	-16.6	-28.1	741.7	0.024	0.000	20.9	4	-22.8	17.6	1.04	 .0731	24	1	100.0	1
09/01/24	11:44	-16.6	-16.6	-16.6	79	-19.3	16.5	E	0.28	24.3	E	-28.1	-16.6	-28.1	741.8	0.024	0.000	20.9	4	-22.8	17.6	1.04	 .0731	23	1	100.0	1
09/01/24	11:45	-16.5	-16.5	-16.6	79	-19.3	17.4	E	0.29	23.5	E	-28.3	-16.6	-28.3	741.7	0.024	0.000	20.9	4	-22.8	17.6	1.04	 .0731	24	1	100.0	1
09/01/24	11:46	-16.4	-16.4	-16.5	79	-19.2	13.0	E	0.22	14.8	E	-26.8	-16.5	-26.8	741.8	0.024	0.000	20.9	4	-22.8	17.6	1.04	 .0731	23	1	100.0	1
09/01/24	11:47	-16.4	-16.4	-16.4	79	-19.2	13.9	E	0.23	16.5	E	-27.1	-16.5	-27.2	741.8	0.024	0.000	20.9	4	-22.8	17.6	1.04	 .0731	23	1	100.0	1
09/01/24	11:48	-16.4	-16.4	-16.4	79	-19.2	14.8	E	0.25	18.3	ESE	-27.4	-16.5	-27.4	741.8	0.024	0.000	20.9	4	-22.8	17.6	1.04	 .0731	24	1	100.0	1
09/01/24	11:49	-16.4	-16.4	-16.4	79	-19.2	16.5	E	0.28	18.3	ESE	-27.9	-16.5	-28.0	741.9	0.024	0.000	20.9	4	-22.8	17.6	1.04	 .0731	23	1	100.0	1
09/01/24	11:50	-16.5	-16.4	-16.5	79	-19.3	13.9	ESE	0.23	16.5	E	-27.2	-16.6	-27.2	741.9	0.024	0.000	20.9	4	-22.8	17.6	1.04	 .0731	24	1	100.0	1
09/01/24	11:51	-16.6	-16.6	-16.6	79	-19.3	13.9	ESE	0.23	16.5	ESE	-27.2	-16.6	-27.3	741.9	0.024	0.000	20.9	4	-22.8	17.6	1.04	 .0731	23	1	100.0	1
09/01/24	11:52	-16.6	-16.6	-16.6	79	-19.3	15.7	ESE	0.26	17.4	ESE	-27.8	-16.6	-27.9	741.8	0.024	0.000	21.0	4	-22.7	17.6	1.05	 .0731	23	1	100.0	1
09/01/24	11:53	-16.5	-16.5	-16.6	79	-19.3	16.5	ESE	0.28	19.1	ESE	-28.0	-16.6	-28.1	741.8	0.024	0.000	21.0	4	-22.7	17.6	1.05	 .0731	24	1	100.0	1
09/01/24	11:54	-16.5	-16.5	-16.5	79	-19.3	14.8	ESE	0.25	17.4	E	-27.4	-16.6	-27.5	741.9	0.024	0.000	21.0	4	-22.7	17.6	1.05	 .0731	23	1	100.0	1
09/01/24	11:55	-16.4	-16.4	-16.5	79	-19.2	14.8	ESE	0.25	18.3	E	-27.4	-16.5	-27.4	741.9	0.024	0.000	21.0	4	-22.7	17.6	1.05	 .0731	24	1	100.0	1
09/01/24	11:56	-16.4	-16.4	-16.4	79	-19.2	16.5	ESE	0.28	18.3	E	-27.9	-16.5	-28.0	741.9	0.024	0.000	21.0	4	-22.7	17.6	1.05	 .0731	23	1	100.0	1
09/01/24	11:57	-16.5	-16.4	-16.5	79	-19.3	16.5	ESE	0.28	17.4	E	-28.0	-16.6	-28.1	741.9	0.024	0.000	21.0	4	-22.7	17.6	1.05	 .0731	24	1	100.0	1
09/01/24	11:58	-16.5	-16.5	-16.5	79	-19.3	19.1	ESE	0.32	22.6	ESE	-28.7	-16.6	-28.8	741.9	0.024	0.000	21.1	4	-22.7	17.7	1.05	 .0731	23	1	100.0	1
09/01/24	11:59	-16.5	-16.5	-16.5	79	-19.3	17.4	ESE	0.29	20.9	ESE	-28.3	-16.6	-28.3	741.9	0.024	0.000	21.0	4	-22.7	17.6	1.05	 .0731	23	1	100.0	1
09/01/24	12:00	-16.6	-16.6	-16.6	79	-19.4	18.3	ESE	0.30	20.9	ESE	-28.7	-16.7	-28.7	741.9	0.024	0.000	21.1	4	-22.7	17.7	1.05	 .0731	24	1	100.0	1
09/01/24	12:01	-16.6	-16.6	-16.6	79	-19.4	17.4	ESE	0.29	19.1	ESE	-28.4	-16.7	-28.4	742.0	0.024	0.000	21.1	4	-22.7	17.7	1.05	 .0731	23	1	100.0	1
09/01/24	12:02	-16.6	-16.6	-16.6	79	-19.4	15.7	E	0.26	18.3	E	-27.9	-16.7	-27.9	742.0	0.024	0.000	21.1	4	-22.7	17.7	1.05	 .0731	24	1	100.0	1
09/01/24	12:03	-16.7	-16.7	-16.7	79	-19.5	20.9	E	0.35	24.3	E	-29.4	-16.7	-29.4	741.9	0.024	0.000	21.1	4	-22.7	17.7	1.05	 .0731	23	1	100.0	1
09/01/24	12:04	-16.7	-16.7	-16.7	79	-19.5	16.5	ESE	0.28	17.4	ESE	-28.2	-16.7	-28.3	742.1	0.024	0.000	21.1	4	-22.7	17.7	1.05	 .0731	23	1	100.0	1
09/01/24	12:05	-16.7	-16.7	-16.7	79	-19.5	17.4	ESE	0.29	20.0	ESE	-28.6	-16.8	-28.6	742.1	0.024	0.000	21.1	4	-22.7	17.7	1.05	 .0731	24	1	100.0	1
09/01/24	12:06	-16.7	-16.7	-16.7	79	-19.5	17.4	E	0.29	20.9	ESE	-28.6	-16.8	-28.6	742.0	0.024	0.000	21.1	4	-22.7	17.8	1.05	 .0731	23	1	100.0	1
09/01/24	12:07	-16.7	-16.7	-16.7	79	-19.5	18.3	ESE	0.30	20.9	ESE	-28.7	-16.7	-28.8	742.0	0.024	0.000	21.1	4	-22.7	17.7	1.05	 .0731	24	1	100.0	1
09/01/24	12:08	-16.6	-16.6	-16.7	79	-19.4	20.0	ESE	0.33	22.6	ESE	-29.1	-16.7	-29.2	742.1	0.024	0.000	21.1	4	-22.7	17.7	1.05	 .0731	23	1	100.0	1
09/01/24	12:09	-16.5	-16.5	-16.6	79	-19.3	16.5	ESE	0.28	19.1	ESE	-28.0	-16.6	-28.1	742.1	0.024	0.000	21.1	4	-22.7	17.8	1.05	 .0731	24	1	100.0	1
09/01/24	12:10	-16.4	-16.4	-16.5	79	-19.2	19.1	ESE	0.32	21.7	ESE	-28.7	-16.5	-28.7	742.2	0.024	0.000	21.1	4	-22.7	17.8	1.05	 .0731	23	1	100.0	1
09/01/24	12:11	-16.3	-16.3	-16.4	79	-19.1	17.4	ESE	0.29	22.6	ESE	-28.1	-16.4	-28.1	742.2	0.024	0.000	21.1	4	-22.7	17.7	1.05	 .0731	23	1	100.0	1
09/01/24	12:12	-16.3	-16.3	-16.3	79	-19.1	19.1	ESE	0.32	21.7	ESE	-28.4	-16.3	-28.5	742.1	0.024	0.000	21.1	4	-22.7	17.8	1.05	 .0731	24	1	100.0	1
09/01/24	12:13	-16.3	-16.3	-16.3	79	-19.1	19.1	ESE	0.32	21.7	E	-28.4	-16.3	-28.5	742.0	0.024	0.000	21.1	4	-22.7	17.7	1.05	 .0731	23	1	100.0	1
09/01/24	12:14	-16.2	-16.2	-16.3	79	-19.0	18.3	ESE	0.30	21.7	ESE	-28.2	-16.3	-28.2	742.0	0.024	0.000	21.1	4	-22.7	17.7	1.05	 .0731	24	1	100.0	1
09/01/24	12:15	-16.2	-16.2	-16.2	79	-19.0	17.4	ESE	0.29	21.7	ESE	-27.9	-16.3	-27.9	742.0	0.024	0.000	21.1	4	-22.7	17.8	1.05	 .0731	23	1	100.0	1
09/01/24	12:16	-16.1	-16.1	-16.2	79	-18.9	20.0	SE	0.33	25.2	SE	-28.4	-16.1	-28.4	741.9	0.024	0.000	21.1	4	-22.7	17.7	1.05	 .0731	23	1	100.0	1
09/01/24	12:17	-15.9	-15.9	-16.0	79	-18.7	20.9	ESE	0.35	24.3	ESE	-28.4	-15.9	-28.4	742.0	0.024	0.000	21.1	4	-22.7	17.7	1.05	 .0731	24	1	100.0	1
09/01/24	12:18	-15.7	-15.7	-15.8	79	-18.5	19.1	SE	0.32	23.5	ESE	-27.7	-15.8	-27.8	742.0	0.024	0.000	21.1	4	-22.7	17.7	1.05	 .0731	23	1	100.0	1
09/01/24	12:19	-15.7	-15.7	-15.7	79	-18.5	18.3	ESE	0.30	20.0	ESE	-27.5	-15.8	-27.6	742.0	0.024	0.000	21.1	4	-22.7	17.7	1.05	 .0731	24	1	100.0	1
09/01/24	12:20	-15.8	-15.8	-15.8	79	-18.6	15.7	ESE	0.26	17.4	ESE	-26.9	-15.9	-26.9	742.1	0.024	0.000	21.1	4	-22.7	17.7	1.05	 .0731	23	1	100.0	1
09/01/24	12:21	-16.0	-15.9	-16.0	79	-18.8	15.7	ESE	0.26	17.4	ESE	-27.1	-16.1	-27.2	742.2	0.024	0.000	21.1	4	-22.7	17.7	1.05	 .0731	24	1	100.0	1
09/01/24	12:22	-16.1	-16.0	-16.1	79	-18.9	15.7	ESE	0.26	17.4	ESE	-27.2	-16.1	-27.2	742.2	0.024	0.000	21.1	4	-22.7	17.7	1.05	 .0731	23	1	100.0	1
09/01/24	12:23	-16.0	-16.0	-16.1	79	-18.8	17.4	ESE	0.29	22.6	ESE	-27.6	-16.1	-27.7	742.2	0.024	0.000	21.0	4	-22.7	17.6	1.05	 .0731	23	1	100.0	1
09/01/24	12:24	-15.8	-15.8	-16.0	79	-18.6	17.4	SE	0.29	22.6	SE	-27.4	-15.9	-27.4	742.1	0.024	0.000	21.0	4	-22.7	17.6	1.05	 .0731	24	1	100.0	1
09/01/24	12:25	-15.6	-15.6	-15.8	78	-18.6	20.9	SE	0.35	23.5	SSE	-28.0	-15.7	-28.1	742.0	0.024	0.000	21.0	4	-22.7	17.6	1.05	 .0731	23	1	100.0	1
09/01/24	12:26	-15.6	-15.6	-15.6	79	-18.4	16.5	SE	0.28	23.5	SE	-26.8	-15.6	-26.8	742.1	0.024	0.000	21.0	4	-22.7	17.6	1.05	 .0731	24	1	100.0	1
09/01/24	12:27	-15.7	-15.6	-15.7	79	-18.5	13.9	ESE	0.23	15.7	SE	-26.1	-15.7	-26.2	742.2	0.024	0.000	20.9	4	-22.8	17.6	1.04	 .0731	23	1	100.0	1
09/01/24	12:28	-15.8	-15.7	-15.8	79	-18.6	16.5	SE	0.28	18.3	SE	-27.1	-15.8	-27.1	742.2	0.024	0.000	20.9	4	-22.8	17.6	1.04	 .0731	23	1	100.0	1
09/01/24	12:29	-15.9	-15.8	-15.9	79	-18.7	17.4	ESE	0.29	21.7	ESE	-27.4	-15.9	-27.5	742.1	0.024	0.000	20.9	4	-22.8	17.6	1.04	 .0731	24	1	100.0	1
09/01/24	12:30	-15.9	-15.9	-15.9	79	-18.7	17.4	ESE	0.29	20.0	SE	-27.6	-16.0	-27.6	742.1	0.024	0.000	20.9	4	-22.8	17.6	1.04	 .0731	23	1	100.0	1
09/01/24	12:31	-16.1	-16.0	-16.1	79	-18.9	19.1	SE	0.32	22.6	SE	-28.2	-16.1	-28.2	742.0	0.024	0.000	20.9	4	-22.8	17.6	1.04	 .0731	24	1	100.0	1
09/01/24	12:32	-16.1	-16.1	-16.1	79	-18.9	17.4	ESE	0.29	21.7	SSE	-27.8	-16.2	-27.8	742.0	0.024	0.000	20.9	4	-22.8	17.6	1.04	 .0731	23	1	100.0	1
09/01/24	12:33	-16.2	-16.1	-16.2	78	-19.1	18.3	ESE	0.30	21.7	ESE	-28.1	-16.2	-28.1	742.1	0.024	0.000	20.9	4	-22.8	17.6	1.04	 .0731	23	1	100.0	1
09/01/24	12:34	-16.3	-16.2	-16.3	78	-19.2	16.5	ESE	0.28	18.3	ESE	-27.7	-16.3	-27.8	742.1	0.024	0.000	20.9	4	-22.8	17.6	1.04	 .0731	24	1	100.0	1
09/01/24	12:35	-16.4	-16.3	-16.4	79	-19.2	18.3	ESE	0.30	21.7	ESE	-28.4	-16.4	-28.4	742.1	0.024	0.000	20.9	4	-22.8	17.6	1.04	 .0731	23	1	100.0	1
09/01/24	12:36	-16.4	-16.4	-16.4	79	-19.2	21.7	ESE	0.36	25.2	ESE	-29.3	-16.5	-29.4	742.1	0.024	0.000	20.9	4	-22.8	17.6	1.04	 .0731	24	1	100.0	1
09/01/24	12:37	-16.4	-16.4	-16.4	78	-19.3	20.0	ESE	0.33	24.3	ESE	-28.8	-16.4	-28.9	742.0	0.024	0.000	20.9	4	-22.8	17.6	1.04	 .0731	23	1	100.0	1
09/01/24	12:38	-16.4	-16.4	-16.4	78	-19.4	19.1	ESE	0.32	20.9	ESE	-28.7	-16.5	-28.7	742.1	0.024	0.000	20.9	4	-22.8	17.6	1.04	 .0731	23	1	100.0	1
09/01/24	12:39	-16.5	-16.4	-16.5	79	-19.3	21.7	ESE	0.36	26.1	ESE	-29.4	-16.6	-29.4	742.1	0.024	0.000	20.9	4	-22.8	17.6	1.04	 .0731	24	1	100.0	1
09/01/24	12:40	-16.6	-16.5	-16.6	78	-19.5	22.6	ESE	0.38	26.1	ESE	-29.7	-16.6	-29.7	742.0	0.024	0.000	20.9	4	-22.8	17.6	1.04	 .0731	23	1	100.0	1
09/01/24	12:41	-16.6	-16.6	-16.6	79	-19.3	20.9	ESE	0.35	23.5	ESE	-29.3	-16.6	-29.3	742.1	0.024	0.000	20.9	4	-22.8	17.6	1.04	 .0731	24	1	100.0	1
09/01/24	12:42	-16.6	-16.6	-16.6	79	-19.4	20.0	ESE	0.33	22.6	ESE	-29.1	-16.7	-29.2	742.2	0.024	0.000	21.0	4	-22.7	17.6	1.05	 .0731	23	1	100.0	1
09/01/24	12:43	-16.6	-16.6	-16.7	79	-19.4	23.5	ESE	0.39	28.7	E	-29.9	-16.7	-30.0	742.1	0.024	0.000	20.9	4	-22.8	17.6	1.04	 .0731	24	1	100.0	1
09/01/24	12:44	-16.3	-16.3	-16.6	78	-19.3	22.6	ESE	0.38	27.8	ESE	-29.4	-16.4	-29.4	742.0	0.024	0.000	21.0	4	-22.7	17.6	1.05	 .0731	23	1	100.0	1
09/01/24	12:45	-16.0	-16.0	-16.3	78	-19.0	17.4	E	0.29	20.9	ESE	-27.6	-16.1	-27.7	742.1	0.024	0.000	21.0	4	-22.7	17.6	1.05	 .0731	23	1	100.0	1
09/01/24	12:46	-16.1	-16.0	-16.1	79	-18.9	19.1	ESE	0.32	21.7	ESE	-28.2	-16.1	-28.2	742.2	0.024	0.000	21.0	4	-22.7	17.6	1.05	 .0731	24	1	100.0	1
09/01/24	12:47	-16.2	-16.1	-16.2	79	-19.0	17.4	ESE	0.29	19.1	ESE	-27.9	-16.3	-27.9	742.3	0.024	0.000	21.0	4	-22.7	17.6	1.05	 .0731	23	1	100.0	1
09/01/24	12:48	-16.5	-16.3	-16.5	79	-19.3	17.4	ESE	0.29	20.9	ESE	-28.3	-16.6	-28.3	742.3	0.024	0.000	21.0	4	-22.7	17.6	1.05	 .0731	24	1	100.0	1
09/01/24	12:49	-16.7	-16.6	-16.7	79	-19.5	17.4	ESE	0.29	27.0	ESE	-28.6	-16.8	-28.6	742.2	0.024	0.000	21.1	4	-22.7	17.7	1.05	 .0731	23	1	100.0	1
09/01/24	12:50	-16.7	-16.7	-16.7	79	-19.5	19.1	ESE	0.32	24.3	ESE	-28.9	-16.7	-29.0	742.1	0.024	0.000	21.1	4	-22.7	17.7	1.05	 .0731	24	1	100.0	1
09/01/24	12:51	-16.4	-16.4	-16.7	79	-19.2	23.5	SE	0.39	30.4	N	-29.7	-16.4	-29.7	742.2	0.024	0.000	21.1	4	-22.7	17.7	1.05	 .0731	23	1	100.0	1
09/01/24	12:52	-16.1	-16.1	-16.3	78	-19.0	24.3	ESE	0.41	29.6	ESE	-29.4	-16.1	-29.4	742.0	0.024	0.000	21.1	4	-22.7	17.7	1.05	 .0731	23	1	100.0	1
09/01/24	12:53	-15.8	-15.8	-16.0	79	-18.6	22.6	ESE	0.38	28.7	ESE	-28.7	-15.9	-28.8	742.2	0.024	0.000	21.1	4	-22.7	17.7	1.05	 .0731	24	1	100.0	1
09/01/24	12:54	-15.7	-15.7	-15.8	79	-18.5	19.1	ESE	0.32	25.2	ESE	-27.7	-15.8	-27.8	742.1	0.024	0.000	21.1	4	-22.7	17.7	1.05	 .0731	23	1	100.0	1
09/01/24	12:55	-15.7	-15.7	-15.7	79	-18.5	18.3	E	0.30	22.6	ESE	-27.5	-15.8	-27.6	742.2	0.024	0.000	21.1	4	-22.7	17.7	1.05	 .0731	24	1	100.0	1
09/01/24	12:56	-15.8	-15.7	-15.8	79	-18.6	19.1	ESE	0.32	21.7	E	-27.9	-15.9	-27.9	742.2	0.024	0.000	21.1	4	-22.7	17.8	1.05	 .0731	23	1	100.0	1
09/01/24	12:57	-15.8	-15.8	-15.9	79	-18.6	22.6	ESE	0.38	25.2	ESE	-28.7	-15.9	-28.8	742.3	0.024	0.000	21.1	4	-22.7	17.8	1.05	 .0731	23	1	100.0	1
09/01/24	12:58	-15.8	-15.8	-15.8	79	-18.6	18.3	ESE	0.30	22.6	ESE	-27.6	-15.8	-27.6	742.2	0.024	0.000	21.1	4	-22.7	17.8	1.05	 .0731	24	1	100.0	1
09/01/24	12:59	-15.9	-15.8	-15.9	79	-18.7	18.3	ESE	0.30	24.3	ESE	-27.7	-15.9	-27.8	742.4	0.024	0.000	21.1	4	-22.7	17.8	1.05	 .0731	23	1	100.0	1
09/01/24	13:00	-15.6	-15.6	-15.8	78	-18.6	25.2	ESE	0.42	29.6	ESE	-29.0	-15.7	-29.1	742.3	0.024	0.000	21.1	4	-22.7	17.8	1.05	 .0731	24	1	100.0	1
09/01/24	13:01	-15.4	-15.4	-15.6	78	-18.4	19.1	ESE	0.32	26.1	ESE	-27.3	-15.4	-27.3	742.2	0.023	0.000	21.1	4	-22.7	17.8	1.05	 .0731	23	1	100.0	1
09/01/24	13:02	-15.3	-15.3	-15.4	78	-18.3	17.4	ESE	0.29	20.0	ESE	-26.7	-15.4	-26.8	742.2	0.023	0.000	21.1	4	-22.7	17.8	1.05	 .0731	23	1	100.0	1
09/01/24	13:03	-15.4	-15.3	-15.4	78	-18.4	20.0	ESE	0.33	23.5	ESE	-27.5	-15.4	-27.6	742.2	0.023	0.000	21.2	4	-22.6	17.8	1.05	 .0731	24	1	100.0	1
09/01/24	13:04	-15.3	-15.3	-15.4	78	-18.2	17.4	SE	0.29	20.9	ESE	-26.7	-15.3	-26.7	742.2	0.023	0.000	21.1	4	-22.7	17.8	1.05	 .0731	23	1	100.0	1
09/01/24	13:05	-15.3	-15.3	-15.3	78	-18.2	20.0	ESE	0.33	27.8	ESE	-27.3	-15.3	-27.4	742.2	0.023	0.000	21.1	4	-22.7	17.8	1.05	 .0731	24	1	100.0	1
09/01/24	13:06	-15.3	-15.2	-15.3	78	-18.2	23.5	ESE	0.39	27.0	ESE	-28.2	-15.3	-28.2	742.1	0.023	0.000	21.1	4	-22.7	17.8	1.05	 .0731	23	1	100.0	1
09/01/24	13:07	-15.3	-15.3	-15.3	78	-18.2	24.3	ESE	0.41	33.9	SE	-28.3	-15.3	-28.4	742.2	0.023	0.000	21.1	4	-22.7	17.8	1.05	 .0731	24	1	100.0	1
09/01/24	13:08	-14.9	-14.9	-15.2	78	-17.9	21.7	ESE	0.36	33.0	SE	-27.2	-14.9	-27.3	742.0	0.023	0.000	21.1	4	-22.7	17.8	1.05	 .0731	23	1	100.0	1
09/01/24	13:09	-14.8	-14.8	-14.8	78	-17.8	17.4	ESE	0.29	20.9	ESE	-26.1	-14.9	-26.1	742.2	0.023	0.000	21.1	4	-22.7	17.8	1.05	 .0731	23	1	100.0	1
09/01/24	13:10	-14.8	-14.8	-14.8	78	-17.8	17.4	ESE	0.29	21.7	ESE	-26.1	-14.9	-26.1	742.4	0.023	0.000	21.1	4	-22.7	17.8	1.05	 .0731	24	1	100.0	1
09/01/24	13:11	-15.0	-14.9	-15.0	78	-18.0	21.7	ESE	0.36	27.0	SE	-27.4	-15.1	-27.4	742.3	0.023	0.000	21.1	4	-22.7	17.8	1.05	 .0731	23	1	100.0	1
09/01/24	13:12	-15.1	-15.0	-15.1	78	-18.0	21.7	ESE	0.36	25.2	SSE	-27.4	-15.1	-27.5	742.2	0.023	0.000	21.1	4	-22.7	17.8	1.05	 .0731	24	1	100.0	1
09/01/24	13:13	-15.1	-15.1	-15.1	78	-18.1	21.7	ESE	0.36	26.1	N	-27.6	-15.2	-27.6	742.2	0.023	0.000	21.1	4	-22.7	17.8	1.05	 .0731	23	1	100.0	1
09/01/24	13:14	-15.1	-15.1	-15.2	78	-18.1	24.3	SE	0.41	31.3	SE	-28.1	-15.2	-28.2	742.1	0.023	0.000	21.1	4	-22.7	17.8	1.05	 .0731	23	1	100.0	1
09/01/24	13:15	-15.0	-15.0	-15.1	78	-18.0	20.0	SE	0.33	23.5	SE	-27.0	-15.1	-27.1	742.4	0.023	0.000	21.1	4	-22.7	17.7	1.05	 .0731	24	1	100.0	1
09/01/24	13:16	-14.9	-14.9	-14.9	78	-17.9	16.5	ESE	0.28	18.3	ESE	-26.0	-15.0	-26.1	742.4	0.023	0.000	21.1	4	-22.7	17.7	1.05	 .0731	23	1	100.0	1
09/01/24	13:17	-15.0	-14.9	-15.0	78	-18.0	19.1	ESE	0.32	24.3	E	-26.8	-15.1	-26.8	742.4	0.023	0.000	21.1	4	-22.7	17.7	1.05	 .0731	24	1	100.0	1
09/01/24	13:18	-15.1	-14.9	-15.1	78	-18.0	21.7	ESE	0.36	25.2	E	-27.4	-15.1	-27.5	742.2	0.023	0.000	21.1	4	-22.7	17.7	1.05	 .0731	23	1	100.0	1
09/01/24	13:19	-15.3	-15.1	-15.3	78	-18.2	20.0	ESE	0.33	22.6	ESE	-27.3	-15.3	-27.4	742.3	0.023	0.000	21.1	4	-22.7	17.7	1.05	 .0731	24	1	100.0	1
09/01/24	13:20	-15.3	-15.3	-15.3	78	-18.2	22.6	SE	0.38	30.4	SSE	-27.9	-15.3	-28.0	742.3	0.023	0.000	21.1	4	-22.7	17.7	1.05	 .0731	23	1	100.0	1
09/01/24	13:21	-15.1	-15.1	-15.2	78	-18.0	20.9	SE	0.35	27.0	SSE	-27.3	-15.1	-27.3	742.3	0.023	0.000	21.1	4	-22.7	17.7	1.05	 .0731	23	1	100.0	1
09/01/24	13:22	-15.2	-15.1	-15.2	78	-18.1	19.1	ESE	0.32	21.7	ESE	-27.0	-15.2	-27.1	742.5	0.023	0.000	21.1	4	-22.7	17.7	1.05	 .0731	24	1	100.0	1
09/01/24	13:23	-15.3	-15.2	-15.3	78	-18.2	18.3	ESE	0.30	23.5	E	-26.9	-15.3	-26.9	742.4	0.023	0.000	21.1	4	-22.7	17.7	1.05	 .0731	23	1	100.0	1
09/01/24	13:24	-15.2	-15.2	-15.3	78	-18.2	19.1	ESE	0.32	26.1	SE	-27.1	-15.3	-27.1	742.4	0.023	0.000	21.1	4	-22.7	17.7	1.05	 .0731	24	1	100.0	1
09/01/24	13:25	-15.3	-15.2	-15.3	78	-18.3	18.3	ESE	0.30	23.5	ESE	-27.0	-15.4	-27.1	742.4	0.023	0.000	21.1	4	-22.7	17.7	1.05	 .0731	23	1	100.0	1
09/01/24	13:26	-15.3	-15.3	-15.3	78	-18.3	17.4	ESE	0.29	22.6	ESE	-26.7	-15.4	-26.8	742.3	0.023	0.000	21.1	4	-22.7	17.7	1.05	 .0731	23	1	100.0	1
09/01/24	13:27	-15.4	-15.3	-15.4	78	-18.4	18.3	ESE	0.30	20.0	ESE	-27.1	-15.4	-27.1	742.4	0.023	0.000	21.1	4	-22.7	17.7	1.05	 .0731	24	1	100.0	1
09/01/24	13:28	-15.4	-15.4	-15.4	78	-18.4	19.1	ESE	0.32	20.9	ESE	-27.3	-15.5	-27.4	742.4	0.023	0.000	21.1	4	-22.7	17.7	1.05	 .0731	23	1	100.0	1
09/01/24	13:29	-15.4	-15.4	-15.4	78	-18.4	17.4	ESE	0.29	20.9	ESE	-26.9	-15.5	-26.9	742.4	0.023	0.000	21.1	4	-22.7	17.8	1.05	 .0731	24	1	100.0	1
09/01/24	13:30	-15.4	-15.4	-15.4	78	-18.4	17.4	ESE	0.29	20.0	ESE	-26.9	-15.5	-26.9	742.5	0.023	0.000	21.1	4	-22.7	17.8	1.05	 .0731	23	1	100.0	1
09/01/24	13:31	-15.6	-15.5	-15.6	78	-18.6	18.3	ESE	0.30	20.9	E	-27.3	-15.7	-27.4	742.5	0.024	0.000	21.1	4	-22.7	17.8	1.05	 .0731	24	1	100.0	1
09/01/24	13:32	-15.7	-15.7	-15.7	78	-18.7	20.9	ESE	0.35	23.5	ESE	-28.2	-15.8	-28.2	742.4	0.024	0.000	21.1	4	-22.7	17.8	1.05	 .0731	23	1	100.0	1
09/01/24	13:33	-15.7	-15.7	-15.7	78	-18.6	16.5	ESE	0.28	20.0	ESE	-26.9	-15.7	-27.0	742.5	0.024	0.000	21.2	4	-22.6	17.8	1.05	 .0731	23	1	100.0	1
09/01/24	13:34	-15.7	-15.6	-15.7	78	-18.6	19.1	ESE	0.32	20.9	ESE	-27.7	-15.7	-27.7	742.5	0.024	0.000	21.2	4	-22.6	17.8	1.05	 .0731	24	1	100.0	1
09/01/24	13:35	-15.6	-15.6	-15.7	78	-18.6	19.1	ESE	0.32	21.7	ESE	-27.6	-15.7	-27.6	742.5	0.024	0.000	21.2	4	-22.6	17.8	1.05	 .0731	23	1	100.0	1
09/01/24	13:36	-15.5	-15.5	-15.6	78	-18.5	17.4	ESE	0.29	19.1	ESE	-26.9	-15.6	-27.0	742.5	0.023	0.000	21.2	4	-22.6	17.8	1.05	 .0731	24	1	100.0	1
09/01/24	13:37	-15.4	-15.4	-15.5	78	-18.4	16.5	ESE	0.28	20.0	ESE	-26.6	-15.5	-26.7	742.5	0.023	0.000	21.2	4	-22.6	17.9	1.05	 .0731	23	1	100.0	1
09/01/24	13:38	-15.4	-15.4	-15.5	78	-18.4	17.4	ESE	0.29	21.7	ESE	-26.9	-15.5	-26.9	742.5	0.023	0.000	21.2	4	-22.6	17.9	1.05	 .0731	23	1	100.0	1
09/01/24	13:39	-15.4	-15.4	-15.4	78	-18.4	18.3	ESE	0.30	20.9	ESE	-27.1	-15.5	-27.2	742.5	0.023	0.000	21.2	4	-22.6	17.9	1.05	 .0731	24	1	100.0	1
09/01/24	13:40	-15.3	-15.3	-15.4	78	-18.3	18.3	ESE	0.30	21.7	ESE	-27.0	-15.4	-27.1	742.5	0.023	0.000	21.2	4	-22.6	17.9	1.05	 .0731	23	1	100.0	1
09/01/24	13:41	-15.4	-15.3	-15.4	78	-18.4	16.5	ESE	0.28	20.0	ESE	-26.6	-15.4	-26.6	742.5	0.023	0.000	21.3	4	-22.5	18.1	1.04	 .0731	24	1	100.0	1
09/01/24	13:42	-15.3	-15.3	-15.4	78	-18.3	18.3	ESE	0.30	21.7	ESE	-27.0	-15.4	-27.1	742.5	0.023	0.000	21.3	4	-22.5	18.1	1.04	 .0731	23	1	100.0	1
09/01/24	13:43	-15.2	-15.2	-15.3	78	-18.2	19.1	ESE	0.32	22.6	ESE	-27.1	-15.3	-27.1	742.4	0.023	0.000	21.3	4	-22.5	18.1	1.04	 .0731	23	1	100.0	1
09/01/24	13:44	-15.2	-15.2	-15.2	78	-18.2	20.0	ESE	0.33	21.7	ESE	-27.3	-15.3	-27.3	742.5	0.023	0.000	21.3	4	-22.5	18.1	1.04	 .0731	24	1	100.0	1
09/01/24	13:45	-15.2	-15.2	-15.2	78	-18.2	18.3	ESE	0.30	22.6	ESE	-26.8	-15.3	-26.9	742.5	0.023	0.000	21.3	4	-22.5	18.1	1.04	 .0731	23	1	100.0	1
09/01/24	13:46	-15.2	-15.2	-15.2	78	-18.1	18.3	ESE	0.30	20.0	ESE	-26.8	-15.2	-26.8	742.4	0.023	0.000	21.3	4	-22.5	18.1	1.04	 .0731	24	1	100.0	1
09/01/24	13:47	-15.3	-15.2	-15.3	78	-18.2	16.5	ESE	0.28	20.0	ESE	-26.4	-15.3	-26.4	742.4	0.023	0.000	21.3	4	-22.5	18.1	1.04	 .0731	23	1	100.0	1
09/01/24	13:48	-15.3	-15.3	-15.3	78	-18.2	16.5	ESE	0.28	20.9	ESE	-26.4	-15.3	-26.4	742.4	0.023	0.000	21.3	4	-22.5	18.1	1.04	 .0731	24	1	100.0	1
09/01/24	13:49	-15.2	-15.2	-15.3	78	-18.2	18.3	ESE	0.30	21.7	E	-26.8	-15.3	-26.9	742.4	0.023	0.000	21.3	4	-22.5	18.1	1.04	 .0731	23	1	100.0	1
09/01/24	13:50	-15.2	-15.2	-15.2	78	-18.2	14.8	ESE	0.25	17.4	ESE	-25.8	-15.3	-25.9	742.5	0.023	0.000	21.3	4	-22.5	18.1	1.04	 .0731	23	1	100.0	1
09/01/24	13:51	-15.2	-15.2	-15.2	78	-18.2	14.8	ESE	0.25	17.4	ESE	-25.8	-15.3	-25.9	742.6	0.023	0.000	21.3	4	-22.5	18.1	1.04	 .0731	24	1	100.0	1
09/01/24	13:52	-15.2	-15.2	-15.2	78	-18.2	15.7	ESE	0.26	20.0	ESE	-26.1	-15.3	-26.1	742.5	0.023	0.000	21.3	4	-22.5	18.1	1.04	 .0731	23	1	100.0	1
09/01/24	13:53	-15.3	-15.2	-15.3	78	-18.2	13.0	ESE	0.22	16.5	ESE	-25.3	-15.3	-25.3	742.6	0.023	0.000	21.3	4	-22.5	18.1	1.04	 .0731	24	1	100.0	1
09/01/24	13:54	-15.3	-15.3	-15.3	78	-18.3	16.5	ESE	0.28	20.9	E	-26.5	-15.4	-26.6	742.6	0.023	0.000	21.3	4	-22.5	18.1	1.04	 .0731	23	1	100.0	1
09/01/24	13:55	-15.3	-15.3	-15.3	78	-18.3	19.1	E	0.32	23.5	E	-27.2	-15.4	-27.3	742.5	0.023	0.000	21.3	4	-22.5	18.1	1.04	 .0731	23	1	100.0	1
09/01/24	13:56	-15.4	-15.3	-15.4	78	-18.4	15.7	E	0.26	16.5	ESE	-26.4	-15.5	-26.4	742.7	0.023	0.000	21.3	4	-22.5	18.1	1.04	 .0731	24	1	100.0	1
09/01/24	13:57	-15.5	-15.4	-15.5	78	-18.5	15.7	ESE	0.26	17.4	ESE	-26.4	-15.6	-26.5	742.6	0.023	0.000	21.3	4	-22.5	18.1	1.04	 .0731	23	1	100.0	1
09/01/24	13:58	-15.3	-15.3	-15.4	78	-18.2	16.5	E	0.28	20.9	ESE	-26.4	-15.3	-26.4	742.6	0.023	0.000	21.3	4	-22.5	18.1	1.04	 .0731	24	1	100.0	1
09/01/24	13:59	-15.3	-15.3	-15.3	78	-18.2	14.8	E	0.25	20.0	ESE	-25.9	-15.3	-25.9	742.6	0.023	0.000	21.3	4	-22.5	18.1	1.04	 .0731	23	1	100.0	1
09/01/24	14:00	-15.2	-15.2	-15.3	78	-18.2	15.7	ESE	0.26	18.3	ESE	-26.1	-15.3	-26.1	742.5	0.023	0.000	21.2	4	-22.6	17.9	1.05	 .0731	24	1	100.0	1
09/01/24	14:01	-15.2	-15.2	-15.2	78	-18.2	14.8	E	0.25	17.4	ESE	-25.8	-15.3	-25.9	742.6	0.023	0.000	21.2	4	-22.6	17.9	1.05	 .0731	23	1	100.0	1
09/01/24	14:02	-15.3	-15.2	-15.3	78	-18.2	14.8	ESE	0.25	15.7	ESE	-25.9	-15.3	-25.9	742.6	0.023	0.000	21.2	4	-22.6	17.9	1.05	 .0731	23	1	100.0	1
09/01/24	14:03	-15.3	-15.3	-15.3	78	-18.2	14.8	ESE	0.25	16.5	ESE	-25.9	-15.3	-25.9	742.6	0.023	0.000	21.2	4	-22.6	17.9	1.05	 .0731	24	1	100.0	1
09/01/24	14:04	-15.3	-15.3	-15.3	78	-18.2	14.8	ESE	0.25	16.5	ESE	-25.9	-15.3	-25.9	742.6	0.023	0.000	21.2	4	-22.6	17.8	1.05	 .0731	23	1	100.0	1
09/01/24	14:05	-15.3	-15.3	-15.3	78	-18.2	13.9	ESE	0.23	14.8	ESE	-25.6	-15.3	-25.7	742.6	0.023	0.000	21.2	4	-22.6	17.8	1.05	 .0731	24	1	100.0	1
09/01/24	14:06	-15.3	-15.3	-15.3	78	-18.3	14.8	ESE	0.25	17.4	ESE	-25.9	-15.4	-26.0	742.5	0.023	0.000	21.2	4	-22.6	17.8	1.05	 .0731	23	1	100.0	1
09/01/24	14:07	-15.4	-15.4	-15.4	78	-18.4	14.8	ESE	0.25	16.5	ESE	-26.0	-15.4	-26.1	742.5	0.023	0.000	21.2	4	-22.6	17.8	1.05	 .0731	23	1	100.0	1
09/01/24	14:08	-15.4	-15.4	-15.4	78	-18.4	14.8	E	0.25	16.5	E	-26.0	-15.4	-26.1	742.4	0.023	0.000	21.1	4	-22.7	17.8	1.05	 .0731	24	1	100.0	1
09/01/24	14:09	-15.4	-15.4	-15.4	78	-18.4	13.0	ESE	0.22	14.8	ESE	-25.4	-15.4	-25.5	742.4	0.023	0.000	21.1	4	-22.7	17.8	1.05	 .0731	23	1	100.0	1
09/01/24	14:10	-15.4	-15.4	-15.4	78	-18.4	12.2	ESE	0.20	14.8	ESE	-25.1	-15.4	-25.2	742.5	0.023	0.000	21.1	4	-22.7	17.8	1.05	 .0731	24	1	100.0	1
09/01/24	14:11	-15.4	-15.3	-15.4	78	-18.4	13.9	ESE	0.23	14.8	E	-25.7	-15.4	-25.8	742.4	0.023	0.000	21.1	4	-22.7	17.8	1.05	 .0731	23	1	100.0	1
09/01/24	14:12	-15.4	-15.4	-15.4	78	-18.4	13.0	ESE	0.22	14.8	ESE	-25.4	-15.4	-25.5	742.5	0.023	0.000	21.1	4	-22.7	17.8	1.05	 .0731	24	1	100.0	1
09/01/24	14:13	-15.3	-15.3	-15.3	78	-18.3	12.2	ESE	0.20	13.9	SE	-25.1	-15.4	-25.1	742.4	0.023	0.000	21.1	4	-22.7	17.8	1.05	 .0731	23	1	100.0	1
09/01/24	14:14	-15.2	-15.2	-15.3	78	-18.1	13.0	ESE	0.22	14.8	ESE	-25.2	-15.2	-25.2	742.5	0.023	0.000	21.1	4	-22.7	17.8	1.05	 .0731	23	1	100.0	1
09/01/24	14:15	-15.1	-15.1	-15.2	78	-18.0	16.5	ESE	0.28	20.9	ESE	-26.1	-15.1	-26.2	742.4	0.023	0.000	21.1	4	-22.7	17.8	1.05	 .0731	24	1	100.0	1
09/01/24	14:16	-14.9	-14.9	-15.1	78	-17.9	13.9	ESE	0.23	16.5	ESE	-25.2	-15.0	-25.2	742.4	0.023	0.000	21.1	4	-22.7	17.8	1.05	 .0731	23	1	100.0	1
09/01/24	14:17	-14.9	-14.9	-14.9	78	-17.9	13.9	E	0.23	16.5	ESE	-25.2	-15.0	-25.2	742.4	0.023	0.000	21.1	4	-22.7	17.8	1.05	 .0731	24	1	100.0	1
09/01/24	14:18	-15.0	-14.9	-15.0	78	-18.0	15.7	E	0.26	17.4	E	-25.8	-15.1	-25.8	742.3	0.023	0.000	21.1	4	-22.7	17.8	1.05	 .0731	23	1	100.0	1
09/01/24	14:19	-14.9	-14.9	-15.0	78	-17.9	13.9	ESE	0.23	15.7	ESE	-25.2	-15.0	-25.2	742.3	0.023	0.000	21.1	4	-22.7	17.8	1.05	 .0731	23	1	100.0	1
09/01/24	14:20	-15.0	-14.9	-15.0	78	-18.0	12.2	E	0.20	14.8	E	-24.6	-15.1	-24.7	742.4	0.023	0.000	21.1	4	-22.7	17.8	1.05	 .0731	24	1	100.0	1
09/01/24	14:21	-15.1	-15.0	-15.1	78	-18.0	11.3	ESE	0.19	13.0	E	-24.3	-15.1	-24.4	742.5	0.023	0.000	21.2	4	-22.6	17.8	1.05	 .0731	23	1	100.0	1
09/01/24	14:22	-15.1	-15.1	-15.1	78	-18.0	11.3	ESE	0.19	13.0	E	-24.3	-15.1	-24.4	742.6	0.023	0.000	21.2	4	-22.6	17.8	1.05	 .0731	24	1	100.0	1
09/01/24	14:23	-15.1	-15.1	-15.1	78	-18.0	12.2	E	0.20	13.9	ESE	-24.7	-15.1	-24.8	742.6	0.023	0.000	21.2	4	-22.6	17.8	1.05	 .0731	23	1	100.0	1
09/01/24	14:24	-15.1	-15.1	-15.1	78	-18.0	11.3	ESE	0.19	13.9	ESE	-24.3	-15.1	-24.4	742.6	0.023	0.000	21.2	4	-22.6	17.8	1.05	 .0731	23	1	100.0	1
09/01/24	14:25	-14.9	-14.9	-15.1	78	-17.9	9.6	E	0.16	10.4	E	-23.5	-15.0	-23.6	742.6	0.023	0.000	21.2	4	-22.6	17.8	1.05	 .0731	24	1	100.0	1
09/01/24	14:26	-14.9	-14.9	-14.9	78	-17.9	13.0	ESE	0.22	16.5	ESE	-24.8	-14.9	-24.8	742.5	0.023	0.000	21.2	4	-22.6	17.8	1.05	 .0731	23	1	100.0	1
09/01/24	14:27	-14.8	-14.8	-14.8	78	-17.8	11.3	ESE	0.19	14.8	ESE	-24.0	-14.8	-24.1	742.5	0.023	0.000	21.2	4	-22.6	17.8	1.05	 .0731	24	1	100.0	1
09/01/24	14:28	-14.6	-14.6	-14.7	78	-17.6	12.2	ESE	0.20	14.8	E	-24.1	-14.7	-24.2	742.5	0.023	0.000	21.2	4	-22.6	17.8	1.05	 .0731	23	1	100.0	1
09/01/24	14:29	-14.5	-14.5	-14.6	78	-17.5	10.4	ESE	0.17	13.0	ESE	-23.3	-14.6	-23.3	742.5	0.023	0.000	21.2	4	-22.6	17.8	1.05	 .0731	24	1	100.0	1
09/01/24	14:30	-14.5	-14.5	-14.5	78	-17.5	8.7	ESE	0.14	10.4	ESE	-22.5	-14.6	-22.6	742.5	0.023	0.000	21.2	4	-22.6	17.8	1.05	 .0731	23	1	100.0	1
09/01/24	14:31	-14.6	-14.5	-14.6	78	-17.5	7.8	E	0.13	11.3	SSE	-22.1	-14.6	-22.2	742.5	0.023	0.000	21.2	4	-22.6	17.8	1.05	 .0731	23	1	100.0	1
09/01/24	14:32	-14.6	-14.6	-14.6	78	-17.5	8.7	SE	0.14	11.3	SE	-22.6	-14.6	-22.6	742.5	0.023	0.000	21.2	4	-22.6	17.8	1.05	 .0731	24	1	100.0	1
09/01/24	14:33	-14.4	-14.4	-14.5	78	-17.4	10.4	SE	0.17	12.2	SE	-23.2	-14.5	-23.3	742.5	0.023	0.000	21.2	4	-22.6	17.8	1.05	 .0731	23	1	100.0	1
09/01/24	14:34	-14.3	-14.3	-14.4	78	-17.3	9.6	SE	0.16	10.4	SE	-22.7	-14.4	-22.8	742.6	0.023	0.000	21.2	4	-22.6	17.8	1.05	 .0731	24	1	100.0	1
09/01/24	14:35	-14.3	-14.3	-14.3	78	-17.3	10.4	ESE	0.17	11.3	ESE	-23.0	-14.3	-23.1	742.6	0.023	0.000	21.2	4	-22.6	17.8	1.05	 .0731	23	1	100.0	1
09/01/24	14:36	-14.3	-14.3	-14.3	78	-17.3	9.6	ESE	0.16	10.4	ESE	-22.7	-14.3	-22.7	742.6	0.023	0.000	21.2	4	-22.6	17.8	1.05	 .0731	23	1	100.0	1
09/01/24	14:37	-14.3	-14.3	-14.3	78	-17.3	8.7	SE	0.14	9.6	SE	-22.2	-14.3	-22.3	742.6	0.023	0.000	21.2	4	-22.6	17.8	1.05	 .0731	24	1	100.0	1
09/01/24	14:38	-14.3	-14.3	-14.3	78	-17.3	7.0	SE	0.12	8.7	SE	-21.3	-14.3	-21.4	742.7	0.023	0.000	21.2	4	-22.6	17.8	1.05	 .0731	23	1	100.0	1
09/01/24	14:39	-14.4	-14.3	-14.4	78	-17.4	7.0	ENE	0.12	8.7	ENE	-21.4	-14.4	-21.5	742.7	0.023	0.000	21.2	4	-22.6	17.8	1.05	 .0731	24	1	100.0	1
09/01/24	14:40	-14.4	-14.4	-14.4	78	-17.4	10.4	ENE	0.17	11.3	ENE	-23.2	-14.5	-23.3	742.7	0.023	0.000	21.1	4	-22.7	17.8	1.05	 .0731	23	1	100.0	1
09/01/24	14:41	-14.4	-14.4	-14.4	78	-17.4	11.3	E	0.19	13.0	E	-23.6	-14.5	-23.7	742.7	0.023	0.000	21.1	4	-22.7	17.8	1.05	 .0731	24	1	100.0	1
09/01/24	14:42	-14.5	-14.5	-14.6	78	-17.5	12.2	ENE	0.20	13.0	ENE	-24.0	-14.6	-24.1	742.7	0.023	0.000	21.1	4	-22.7	17.8	1.05	 .0731	23	1	100.0	1
09/01/24	14:43	-14.5	-14.5	-14.6	78	-17.5	13.0	E	0.22	13.9	E	-24.3	-14.6	-24.3	742.7	0.023	0.000	21.1	4	-22.7	17.8	1.05	 .0731	23	1	100.0	1
09/01/24	14:44	-14.5	-14.5	-14.5	78	-17.5	10.4	E	0.17	12.2	E	-23.3	-14.6	-23.3	742.6	0.023	0.000	21.1	4	-22.7	17.8	1.05	 .0731	24	1	100.0	1
09/01/24	14:45	-14.6	-14.5	-14.6	78	-17.5	10.4	E	0.17	11.3	E	-23.4	-14.6	-23.4	742.6	0.023	0.000	21.1	4	-22.7	17.8	1.05	 .0731	23	1	100.0	1
09/01/24	14:46	-14.7	-14.6	-14.7	78	-17.7	11.3	E	0.19	13.0	E	-23.9	-14.7	-23.9	742.6	0.023	0.000	21.1	4	-22.7	17.8	1.05	 .0731	24	1	100.0	1
09/01/24	14:47	-14.7	-14.7	-14.7	78	-17.7	9.6	E	0.16	12.2	ESE	-23.2	-14.8	-23.3	742.6	0.023	0.000	21.1	4	-22.7	17.7	1.05	 .0732	23	1	100.0	1
09/01/24	14:48	-14.7	-14.7	-14.7	78	-17.7	9.6	E	0.16	11.3	E	-23.2	-14.8	-23.3	742.6	0.023	0.000	21.1	4	-22.7	17.7	1.05	 .0732	23	1	100.0	1
09/01/24	14:49	-14.6	-14.6	-14.7	78	-17.6	7.0	E	0.12	8.7	E	-21.7	-14.7	-21.8	742.7	0.023	0.000	21.1	4	-22.7	17.7	1.05	 .0732	24	1	100.0	1
09/01/24	14:50	-14.6	-14.6	-14.6	78	-17.6	6.1	ESE	0.10	7.0	E	-21.2	-14.7	-21.2	742.8	0.023	0.000	21.1	4	-22.7	17.7	1.05	 .0732	23	1	100.0	1
09/01/24	14:51	-14.6	-14.6	-14.6	78	-17.5	8.7	ESE	0.14	12.2	E	-22.6	-14.6	-22.6	742.8	0.023	0.000	21.1	4	-22.7	17.7	1.05	 .0732	24	1	100.0	1
09/01/24	14:52	-14.5	-14.5	-14.6	78	-17.5	9.6	E	0.16	11.3	E	-22.9	-14.6	-23.0	742.8	0.023	0.000	21.0	4	-22.7	17.6	1.05	 .0732	23	1	100.0	1
09/01/24	14:53	-14.3	-14.3	-14.5	78	-17.3	6.1	E	0.10	9.6	E	-20.8	-14.4	-20.9	742.8	0.023	0.000	21.0	4	-22.7	17.6	1.05	 .0732	24	1	100.0	1
09/01/24	14:54	-14.3	-14.3	-14.3	78	-17.3	7.8	ENE	0.13	9.6	ENE	-21.8	-14.3	-21.8	742.8	0.023	0.000	21.0	4	-22.7	17.6	1.05	 .0732	23	1	100.0	1
09/01/24	14:55	-14.3	-14.3	-14.3	78	-17.3	7.8	ENE	0.13	8.7	ENE	-21.8	-14.3	-21.8	742.9	0.023	0.000	21.0	4	-22.7	17.6	1.05	 .0732	23	1	100.0	1
09/01/24	14:56	-14.3	-14.3	-14.3	78	-17.3	8.7	ENE	0.14	9.6	ENE	-22.3	-14.4	-22.4	742.9	0.023	0.000	21.0	4	-22.7	17.6	1.05	 .0732	24	1	100.0	1
09/01/24	14:57	-14.4	-14.3	-14.4	78	-17.4	9.6	E	0.16	10.4	E	-22.8	-14.5	-22.9	742.8	0.023	0.000	21.0	4	-22.7	17.6	1.05	 .0732	23	1	100.0	1
09/01/24	14:58	-14.5	-14.4	-14.5	78	-17.5	9.6	ENE	0.16	11.3	ENE	-22.9	-14.6	-23.0	742.8	0.023	0.000	21.0	4	-22.7	17.6	1.05	 .0732	24	1	100.0	1
09/01/24	14:59	-14.5	-14.5	-14.6	78	-17.5	10.4	E	0.17	11.3	E	-23.3	-14.6	-23.3	742.8	0.023	0.000	21.1	4	-22.7	17.7	1.05	 .0732	23	1	100.0	1
09/01/24	15:00	-14.5	-14.5	-14.6	78	-17.5	9.6	E	0.16	10.4	E	-22.9	-14.6	-23.0	742.8	0.023	0.000	21.1	4	-22.7	17.7	1.05	 .0732	23	1	100.0	1
09/01/24	15:01	-14.5	-14.5	-14.5	78	-17.5	10.4	E	0.17	11.3	E	-23.3	-14.6	-23.3	742.7	0.023	0.000	21.1	4	-22.7	17.7	1.05	 .0732	24	1	100.0	1
09/01/24	15:02	-14.5	-14.5	-14.5	78	-17.5	9.6	E	0.16	10.4	E	-22.9	-14.6	-23.0	742.8	0.023	0.000	21.1	4	-22.7	17.7	1.05	 .0732	23	1	100.0	1
09/01/24	15:03	-14.5	-14.5	-14.6	78	-17.5	9.6	E	0.16	10.4	E	-22.9	-14.6	-23.0	742.8	0.023	0.000	21.1	4	-22.7	17.7	1.05	 .0732	24	1	100.0	1
09/01/24	15:04	-14.5	-14.5	-14.5	78	-17.5	9.6	E	0.16	9.6	E	-22.9	-14.6	-23.0	742.8	0.023	0.000	21.1	4	-22.7	17.7	1.05	 .0732	23	1	100.0	1
09/01/24	15:05	-14.6	-14.5	-14.6	78	-17.5	8.7	E	0.14	9.6	E	-22.6	-14.6	-22.6	742.8	0.023	0.000	21.1	4	-22.7	17.8	1.05	 .0732	23	1	100.0	1
09/01/24	15:06	-14.6	-14.6	-14.6	78	-17.5	8.7	E	0.14	9.6	E	-22.6	-14.6	-22.6	742.7	0.023	0.000	21.1	4	-22.7	17.8	1.05	 .0731	24	1	100.0	1
09/01/24	15:07	-14.6	-14.6	-14.6	78	-17.6	9.6	E	0.16	10.4	E	-23.1	-14.7	-23.1	742.7	0.023	0.000	21.1	4	-22.7	17.8	1.05	 .0731	23	1	100.0	1
09/01/24	15:08	-14.6	-14.6	-14.6	78	-17.6	7.8	E	0.13	9.6	E	-22.2	-14.7	-22.3	742.7	0.023	0.000	21.1	4	-22.7	17.8	1.05	 .0731	24	1	100.0	1
09/01/24	15:09	-14.6	-14.6	-14.6	78	-17.5	7.0	E	0.12	7.8	E	-21.7	-14.6	-21.7	742.7	0.023	0.000	21.1	4	-22.7	17.8	1.05	 .0731	23	1	100.0	1
09/01/24	15:10	-14.6	-14.6	-14.6	78	-17.5	7.8	ENE	0.13	8.7	ENE	-22.1	-14.6	-22.2	742.7	0.023	0.000	21.1	4	-22.7	17.8	1.05	 .0731	24	1	100.0	1
09/01/24	15:11	-14.4	-14.4	-14.5	78	-17.4	7.8	ENE	0.13	9.6	ENE	-22.0	-14.5	-22.1	742.7	0.023	0.000	21.1	4	-22.7	17.8	1.05	 .0731	23	1	100.0	1
09/01/24	15:12	-14.4	-14.4	-14.4	78	-17.4	8.7	ENE	0.14	10.4	ENE	-22.4	-14.4	-22.4	742.7	0.023	0.000	21.2	4	-22.6	17.8	1.05	 .0731	23	1	100.0	1
09/01/24	15:13	-14.3	-14.3	-14.3	78	-17.3	9.6	ENE	0.16	10.4	ENE	-22.7	-14.4	-22.8	742.7	0.023	0.000	21.2	4	-22.6	17.8	1.05	 .0731	24	1	100.0	1
09/01/24	15:14	-14.2	-14.2	-14.3	78	-17.2	7.0	E	0.12	8.7	ESE	-21.2	-14.3	-21.3	742.7	0.023	0.000	21.2	4	-22.6	17.8	1.05	 .0731	23	1	100.0	1
09/01/24	15:15	-14.2	-14.2	-14.2	78	-17.2	7.8	E	0.13	11.3	E	-21.7	-14.3	-21.8	742.7	0.023	0.000	21.2	4	-22.6	17.8	1.05	 .0731	24	1	100.0	1
09/01/24	15:16	-14.2	-14.2	-14.3	78	-17.2	11.3	E	0.19	13.0	E	-23.3	-14.3	-23.3	742.7	0.023	0.000	21.2	4	-22.6	17.8	1.05	 .0731	23	1	100.0	1
09/01/24	15:17	-14.2	-14.2	-14.2	78	-17.2	10.4	ESE	0.17	11.3	ESE	-22.9	-14.2	-22.9	742.7	0.023	0.000	21.2	4	-22.6	17.8	1.05	 .0731	23	1	100.0	1
09/01/24	15:18	-14.1	-14.1	-14.2	78	-17.1	13.0	E	0.22	16.5	E	-23.7	-14.1	-23.8	742.7	0.022	0.000	21.2	4	-22.6	17.9	1.05	 .0731	24	1	100.0	1
09/01/24	15:19	-14.0	-14.0	-14.1	78	-17.0	13.9	E	0.23	16.5	E	-23.9	-14.1	-24.0	742.6	0.022	0.000	21.2	4	-22.6	17.9	1.05	 .0731	23	1	100.0	1
09/01/24	15:20	-13.9	-13.9	-14.0	78	-17.0	12.2	E	0.20	13.0	E	-23.3	-14.0	-23.3	742.6	0.022	0.000	21.2	4	-22.6	17.9	1.05	 .0731	24	1	100.0	1
09/01/24	15:21	-13.9	-13.9	-13.9	78	-17.0	10.4	E	0.17	11.3	E	-22.6	-14.0	-22.7	742.7	0.022	0.000	21.2	4	-22.6	17.9	1.05	 .0731	23	1	100.0	1
09/01/24	15:22	-13.9	-13.9	-13.9	78	-17.0	10.4	ENE	0.17	11.3	ENE	-22.6	-14.0	-22.7	742.7	0.022	0.000	21.2	4	-22.6	17.9	1.05	 .0731	24	1	100.0	1
09/01/24	15:23	-13.9	-13.9	-13.9	78	-17.0	10.4	ENE	0.17	11.3	ENE	-22.6	-14.0	-22.7	742.7	0.022	0.000	21.2	4	-22.6	17.9	1.05	 .0731	23	1	100.0	1
09/01/24	15:24	-14.0	-14.0	-14.0	78	-17.0	8.7	ENE	0.14	9.6	ENE	-21.9	-14.1	-21.9	742.7	0.022	0.000	21.2	4	-22.6	17.9	1.05	 .0731	23	1	100.0	1
09/01/24	15:25	-14.1	-14.0	-14.1	78	-17.1	6.1	ENE	0.10	7.8	ENE	-20.5	-14.1	-20.6	742.6	0.022	0.000	21.2	4	-22.6	17.9	1.05	 .0731	24	1	100.0	1
09/01/24	15:26	-14.1	-14.1	-14.1	78	-17.1	8.7	E	0.14	11.3	E	-22.1	-14.2	-22.1	742.7	0.023	0.000	21.3	4	-22.5	18.1	1.04	 .0731	23	1	100.0	1
09/01/24	15:27	-14.2	-14.2	-14.2	78	-17.2	9.6	E	0.16	13.9	E	-22.5	-14.2	-22.6	742.6	0.023	0.000	21.2	4	-22.6	17.9	1.05	 .0731	24	1	100.0	1
09/01/24	15:28	-14.1	-14.1	-14.2	78	-17.1	9.6	ESE	0.16	12.2	E	-22.4	-14.1	-22.4	742.7	0.022	0.000	21.2	4	-22.6	17.9	1.05	 .0731	23	1	100.0	1
09/01/24	15:29	-13.9	-13.9	-14.1	77	-17.1	7.0	ESE	0.12	11.3	E	-20.8	-14.0	-20.9	742.7	0.022	0.000	21.2	4	-22.6	17.9	1.05	 .0731	23	1	100.0	1
09/01/24	15:30	-13.7	-13.7	-13.9	78	-16.7	8.7	ENE	0.14	12.2	ENE	-21.6	-13.8	-21.6	742.7	0.022	0.000	21.2	4	-22.6	17.9	1.05	 .0731	24	1	100.0	1
09/01/24	15:31	-13.5	-13.5	-13.7	77	-16.7	7.0	ENE	0.12	8.7	ENE	-20.3	-13.6	-20.4	742.7	0.022	0.000	21.2	4	-22.6	17.9	1.05	 .0731	23	1	100.0	1
09/01/24	15:32	-13.4	-13.4	-13.5	78	-16.5	7.8	E	0.13	9.6	E	-20.8	-13.5	-20.8	742.7	0.022	0.000	21.2	4	-22.6	17.9	1.05	 .0731	24	1	100.0	1
09/01/24	15:33	-13.4	-13.4	-13.4	78	-16.4	9.6	E	0.16	11.3	E	-21.6	-13.4	-21.6	742.7	0.022	0.000	21.2	4	-22.6	17.8	1.05	 .0731	23	1	100.0	1
09/01/24	15:34	-13.4	-13.4	-13.4	78	-16.4	8.7	E	0.14	10.4	E	-21.1	-13.4	-21.2	742.7	0.022	0.000	21.2	4	-22.6	17.8	1.05	 .0731	24	1	100.0	1
09/01/24	15:35	-13.5	-13.4	-13.5	78	-16.5	9.6	E	0.16	9.6	E	-21.7	-13.6	-21.7	742.7	0.022	0.000	21.2	4	-22.6	17.8	1.05	 .0731	23	1	100.0	1
09/01/24	15:36	-13.7	-13.5	-13.7	78	-16.7	7.8	E	0.13	9.6	E	-21.1	-13.7	-21.1	742.7	0.022	0.000	21.2	4	-22.6	17.8	1.05	 .0731	23	1	100.0	1
09/01/24	15:37	-13.8	-13.7	-13.8	78	-16.8	6.1	E	0.10	7.8	E	-20.2	-13.8	-20.2	742.7	0.022	0.000	21.2	4	-22.6	17.8	1.05	 .0731	24	1	100.0	1
09/01/24	15:38	-13.8	-13.8	-13.8	78	-16.8	10.4	ENE	0.17	13.9	ENE	-22.4	-13.9	-22.5	742.7	0.022	0.000	21.2	4	-22.6	17.8	1.05	 .0731	23	1	100.0	1
09/01/24	15:39	-13.8	-13.8	-13.8	78	-16.8	11.3	E	0.19	13.0	E	-22.8	-13.9	-22.9	742.7	0.022	0.000	21.1	4	-22.7	17.8	1.05	 .0731	24	1	100.0	1
09/01/24	15:40	-13.8	-13.8	-13.8	78	-16.8	12.2	E	0.20	13.0	ENE	-23.2	-13.9	-23.2	742.7	0.022	0.000	21.1	4	-22.7	17.8	1.05	 .0731	23	1	100.0	1
09/01/24	15:41	-13.8	-13.8	-13.8	78	-16.8	13.9	E	0.23	13.9	E	-23.7	-13.8	-23.7	742.7	0.022	0.000	21.1	4	-22.7	17.8	1.05	 .0731	23	1	100.0	1
09/01/24	15:42	-13.8	-13.8	-13.8	78	-16.8	10.4	E	0.17	13.9	E	-22.4	-13.8	-22.4	742.6	0.022	0.000	21.1	4	-22.7	17.8	1.05	 .0731	24	1	100.0	1
09/01/24	15:43	-13.8	-13.8	-13.8	78	-16.8	10.4	E	0.17	12.2	E	-22.4	-13.8	-22.4	742.7	0.022	0.000	21.1	4	-22.7	17.8	1.05	 .0731	23	1	100.0	1
09/01/24	15:44	-13.8	-13.8	-13.8	78	-16.8	11.3	ENE	0.19	13.9	ENE	-22.8	-13.9	-22.9	742.7	0.022	0.000	21.1	4	-22.7	17.8	1.05	 .0731	24	1	100.0	1
09/01/24	15:45	-13.8	-13.8	-13.8	78	-16.8	9.6	ENE	0.16	10.4	ENE	-22.0	-13.8	-22.1	742.7	0.022	0.000	21.1	4	-22.7	17.7	1.05	 .0732	23	1	100.0	1
09/01/24	15:46	-13.8	-13.8	-13.8	77	-16.9	8.7	ENE	0.14	10.4	ENE	-21.6	-13.9	-21.7	742.7	0.022	0.000	21.1	4	-22.7	17.7	1.05	 .0732	23	1	100.0	1
09/01/24	15:47	-13.7	-13.7	-13.8	77	-16.9	11.3	ENE	0.19	14.8	ENE	-22.7	-13.8	-22.8	742.7	0.022	0.000	21.1	4	-22.7	17.8	1.05	 .0731	24	1	100.0	1
09/01/24	15:48	-13.6	-13.6	-13.7	77	-16.8	13.0	E	0.22	13.9	ENE	-23.2	-13.7	-23.3	742.7	0.022	0.000	21.1	4	-22.7	17.8	1.05	 .0731	23	1	100.0	1
09/01/24	15:49	-13.6	-13.6	-13.6	77	-16.7	10.4	ENE	0.17	11.3	ENE	-22.1	-13.7	-22.2	742.8	0.022	0.000	21.1	4	-22.7	17.8	1.05	 .0732	24	1	100.0	1
09/01/24	15:50	-13.6	-13.6	-13.6	77	-16.7	11.3	ENE	0.19	12.2	ENE	-22.4	-13.7	-22.6	742.8	0.022	0.000	21.1	4	-22.7	17.8	1.05	 .0732	23	1	100.0	1
09/01/24	15:51	-13.6	-13.6	-13.6	78	-16.6	13.9	ENE	0.23	18.3	ENE	-23.4	-13.6	-23.4	742.7	0.022	0.000	21.1	4	-22.7	17.8	1.05	 .0731	24	1	100.0	1
09/01/24	15:52	-13.4	-13.4	-13.6	77	-16.6	12.2	ENE	0.20	15.7	ENE	-22.7	-13.6	-22.8	742.7	0.022	0.000	21.1	4	-22.7	17.8	1.05	 .0731	23	1	100.0	1
09/01/24	15:53	-13.4	-13.4	-13.4	77	-16.6	9.6	ENE	0.16	13.0	ENE	-21.6	-13.5	-21.7	742.8	0.022	0.000	21.1	4	-22.7	17.8	1.05	 .0732	23	1	100.0	1
09/01/24	15:54	-13.3	-13.3	-13.4	77	-16.5	13.9	ENE	0.23	16.5	ENE	-23.1	-13.4	-23.2	742.8	0.022	0.000	21.1	4	-22.7	17.8	1.05	 .0732	24	1	100.0	1
09/01/24	15:55	-13.2	-13.2	-13.3	77	-16.4	12.2	ENE	0.20	13.9	ENE	-22.3	-13.3	-22.4	742.8	0.022	0.000	21.2	4	-22.6	17.8	1.05	 .0731	23	1	100.0	1
09/01/24	15:56	-13.2	-13.2	-13.2	77	-16.3	10.4	ENE	0.17	11.3	ENE	-21.6	-13.3	-21.7	742.9	0.022	0.000	21.2	4	-22.6	17.8	1.05	 .0732	24	1	100.0	1
09/01/24	15:57	-13.2	-13.2	-13.2	77	-16.3	8.7	ENE	0.14	9.6	ENE	-20.8	-13.3	-20.9	742.9	0.022	0.000	21.2	4	-22.6	17.8	1.05	 .0732	23	1	100.0	1
09/01/24	15:58	-13.2	-13.2	-13.2	77	-16.4	8.7	ENE	0.14	9.6	ENE	-20.9	-13.3	-21.1	742.9	0.022	0.000	21.2	4	-22.6	17.8	1.05	 .0732	23	1	100.0	1
09/01/24	15:59	-13.3	-13.2	-13.3	77	-16.5	7.8	ENE	0.13	9.6	ENE	-20.6	-13.4	-20.7	742.9	0.022	0.000	21.2	4	-22.6	17.8	1.05	 .0731	24	1	100.0	1
09/01/24	16:00	-13.3	-13.3	-13.3	77	-16.5	5.2	E	0.09	8.7	E	-19.1	-13.4	-19.2	742.8	0.022	0.000	21.2	4	-22.6	17.8	1.05	 .0731	23	1	100.0	1
09/01/24	16:01	-13.4	-13.4	-13.4	77	-16.6	9.6	ENE	0.16	10.4	ENE	-21.6	-13.6	-21.7	742.9	0.022	0.000	21.2	4	-22.6	17.9	1.05	 .0731	24	1	100.0	1
09/01/24	16:02	-13.3	-13.3	-13.4	77	-16.5	10.4	ENE	0.17	11.3	ENE	-21.8	-13.4	-21.9	742.8	0.022	0.000	21.2	4	-22.6	17.9	1.05	 .0731	23	1	100.0	1
09/01/24	16:03	-13.3	-13.3	-13.3	77	-16.5	10.4	NE	0.17	11.3	NE	-21.8	-13.4	-21.9	742.8	0.022	0.000	21.2	4	-22.6	17.9	1.05	 .0731	24	1	100.0	1
09/01/24	16:04	-13.2	-13.2	-13.2	77	-16.3	11.3	ENE	0.19	13.0	ENE	-21.9	-13.3	-22.1	742.8	0.022	0.000	21.2	4	-22.6	17.9	1.05	 .0731	23	1	100.0	1
09/01/24	16:05	-13.2	-13.2	-13.2	77	-16.4	10.4	ENE	0.17	12.2	ENE	-21.7	-13.3	-21.8	742.8	0.022	0.000	21.3	4	-22.5	18.1	1.04	 .0731	23	1	100.0	1
09/01/24	16:06	-13.2	-13.2	-13.2	77	-16.4	11.3	ENE	0.19	13.0	ENE	-22.1	-13.3	-22.2	742.8	0.022	0.000	21.3	4	-22.5	18.1	1.04	 .0731	24	1	100.0	1
09/01/24	16:07	-13.2	-13.2	-13.2	77	-16.4	9.6	ENE	0.16	10.4	ENE	-21.3	-13.3	-21.4	742.8	0.022	0.000	21.3	4	-22.5	18.1	1.04	 .0731	23	1	100.0	1
09/01/24	16:08	-13.2	-13.2	-13.2	77	-16.3	8.7	ENE	0.14	10.4	NE	-20.8	-13.3	-20.9	742.9	0.022	0.000	21.3	4	-22.5	18.1	1.04	 .0731	24	1	100.0	1
09/01/24	16:09	-13.2	-13.2	-13.2	77	-16.3	11.3	ENE	0.19	13.9	NE	-21.9	-13.3	-22.1	742.8	0.022	0.000	21.3	4	-22.5	18.1	1.04	 .0731	23	1	100.0	1
09/01/24	16:10	-13.1	-13.1	-13.2	77	-16.2	12.2	NE	0.20	13.9	ENE	-22.2	-13.2	-22.3	742.8	0.022	0.000	21.3	4	-22.5	18.1	1.04	 .0731	23	1	100.0	1
09/01/24	16:11	-12.9	-12.9	-13.1	77	-16.1	12.2	NE	0.20	13.0	ENE	-21.9	-13.0	-22.1	742.8	0.022	0.000	21.3	4	-22.5	18.1	1.04	 .0731	24	1	100.0	1
09/01/24	16:12	-12.7	-12.7	-12.8	77	-15.9	12.2	ENE	0.20	13.9	ENE	-21.7	-12.8	-21.8	742.8	0.022	0.000	21.3	4	-22.5	18.1	1.04	 .0731	23	1	100.0	1
09/01/24	16:13	-12.6	-12.6	-12.7	77	-15.8	12.2	NE	0.20	13.9	NE	-21.6	-12.7	-21.7	742.8	0.021	0.000	21.3	4	-22.5	18.1	1.04	 .0731	24	1	100.0	1
09/01/24	16:14	-12.6	-12.6	-12.6	77	-15.8	9.6	ENE	0.16	10.4	ENE	-20.5	-12.7	-20.6	742.9	0.021	0.000	21.3	4	-22.5	18.1	1.04	 .0731	23	1	100.0	1
09/01/24	16:15	-12.6	-12.6	-12.6	77	-15.8	10.4	NE	0.17	11.3	ENE	-20.9	-12.7	-21.1	742.9	0.021	0.000	21.3	4	-22.5	18.1	1.04	 .0731	24	1	100.0	1
09/01/24	16:16	-12.6	-12.6	-12.6	77	-15.8	10.4	NE	0.17	11.3	ENE	-20.9	-12.7	-21.1	742.9	0.021	0.000	21.3	4	-22.5	18.1	1.04	 .0731	23	1	100.0	1
09/01/24	16:17	-12.6	-12.6	-12.6	77	-15.8	8.7	ENE	0.14	10.4	NE	-20.1	-12.7	-20.2	742.9	0.021	0.000	21.3	4	-22.5	18.1	1.04	 .0731	23	1	100.0	1
09/01/24	16:18	-12.6	-12.6	-12.6	77	-15.8	7.0	NE	0.12	8.7	NE	-19.2	-12.7	-19.3	742.9	0.021	0.000	21.3	4	-22.5	18.1	1.04	 .0731	24	1	100.0	1
09/01/24	16:19	-12.5	-12.5	-12.6	77	-15.7	6.1	NE	0.10	7.8	NE	-18.6	-12.6	-18.7	742.9	0.021	0.000	21.3	4	-22.5	18.1	1.04	 .0731	23	1	100.0	1
09/01/24	16:20	-12.5	-12.5	-12.5	77	-15.7	7.8	ENE	0.13	9.6	ENE	-19.6	-12.6	-19.7	742.9	0.021	0.000	21.3	4	-22.5	18.1	1.04	 .0731	24	1	100.0	1
09/01/24	16:21	-12.6	-12.6	-12.6	77	-15.8	8.7	E	0.14	10.4	E	-20.1	-12.7	-20.2	743.0	0.021	0.000	21.3	4	-22.5	18.1	1.04	 .0731	23	1	100.0	1
09/01/24	16:22	-12.6	-12.6	-12.6	77	-15.8	7.8	E	0.13	9.6	E	-19.7	-12.7	-19.8	743.0	0.021	0.000	21.3	4	-22.5	18.1	1.04	 .0731	23	1	100.0	1
09/01/24	16:23	-12.6	-12.6	-12.6	77	-15.8	7.8	ENE	0.13	8.7	ENE	-19.7	-12.7	-19.8	743.0	0.021	0.000	21.3	4	-22.5	18.1	1.04	 .0731	24	1	100.0	1
09/01/24	16:24	-12.6	-12.6	-12.6	77	-15.8	7.8	ENE	0.13	8.7	E	-19.7	-12.7	-19.8	743.0	0.021	0.000	21.3	4	-22.5	18.1	1.04	 .0731	23	1	100.0	1
09/01/24	16:25	-12.5	-12.5	-12.6	77	-15.7	7.8	ENE	0.13	8.7	ENE	-19.6	-12.6	-19.7	743.0	0.021	0.000	21.3	4	-22.5	18.1	1.04	 .0731	24	1	100.0	1
09/01/24	16:26	-12.5	-12.5	-12.5	77	-15.7	7.8	ENE	0.13	8.7	ENE	-19.6	-12.6	-19.7	743.0	0.021	0.000	21.3	4	-22.5	18.1	1.04	 .0731	23	1	100.0	1
09/01/24	16:27	-12.6	-12.5	-12.6	77	-15.8	8.7	ENE	0.14	10.4	ENE	-20.1	-12.7	-20.2	743.0	0.021	0.000	21.3	4	-22.5	18.1	1.04	 .0731	24	1	100.0	1
09/01/24	16:28	-12.6	-12.6	-12.6	77	-15.8	10.4	ENE	0.17	11.3	ENE	-20.8	-12.7	-20.9	743.0	0.021	0.000	21.3	4	-22.5	18.1	1.04	 .0731	23	1	100.0	1
09/01/24	16:29	-12.6	-12.6	-12.7	77	-15.8	11.3	ENE	0.19	13.0	ENE	-21.3	-12.7	-21.4	743.0	0.021	0.000	21.3	4	-22.5	18.1	1.04	 .0731	23	1	100.0	1
09/01/24	16:30	-12.6	-12.6	-12.6	77	-15.8	10.4	ENE	0.17	12.2	ENE	-20.9	-12.7	-21.1	743.0	0.021	0.000	21.3	4	-22.5	18.1	1.04	 .0731	24	1	100.0	1
09/01/24	16:31	-12.6	-12.6	-12.6	77	-15.8	10.4	NE	0.17	11.3	ENE	-20.8	-12.7	-20.9	743.0	0.021	0.000	21.2	4	-22.6	17.9	1.05	 .0731	23	1	100.0	1
09/01/24	16:32	-12.6	-12.6	-12.6	77	-15.8	9.6	ENE	0.16	10.4	ENE	-20.5	-12.7	-20.6	743.0	0.021	0.000	21.2	4	-22.6	17.9	1.05	 .0731	24	1	100.0	1
09/01/24	16:33	-12.6	-12.6	-12.6	77	-15.8	9.6	ENE	0.16	10.4	ENE	-20.5	-12.7	-20.6	743.0	0.021	0.000	21.2	4	-22.6	17.9	1.05	 .0731	23	1	100.0	1
09/01/24	16:34	-12.6	-12.6	-12.6	77	-15.8	9.6	ENE	0.16	9.6	ENE	-20.5	-12.7	-20.6	743.1	0.021	0.000	21.2	4	-22.6	17.9	1.05	 .0732	23	1	100.0	1
09/01/24	16:35	-12.5	-12.5	-12.6	77	-15.7	9.6	ENE	0.16	10.4	ENE	-20.4	-12.6	-20.6	743.1	0.021	0.000	21.2	4	-22.6	17.9	1.05	 .0732	24	1	100.0	1
09/01/24	16:36	-12.4	-12.4	-12.5	77	-15.6	7.8	ENE	0.13	9.6	ENE	-19.6	-12.6	-19.7	743.1	0.021	0.000	21.2	4	-22.6	17.9	1.05	 .0732	23	1	100.0	1
09/01/24	16:37	-12.4	-12.4	-12.4	77	-15.6	9.6	ENE	0.16	13.0	E	-20.3	-12.6	-20.4	743.1	0.021	0.000	21.2	4	-22.6	17.9	1.05	 .0732	24	1	100.0	1
09/01/24	16:38	-12.4	-12.4	-12.4	77	-15.6	7.8	ENE	0.13	10.4	E	-19.4	-12.5	-19.6	743.1	0.021	0.000	21.2	4	-22.6	17.8	1.05	 .0732	23	1	100.0	1
09/01/24	16:39	-12.3	-12.3	-12.4	77	-15.5	7.0	ENE	0.12	8.7	ENE	-18.9	-12.4	-19.1	743.1	0.021	0.000	21.2	4	-22.6	17.8	1.05	 .0732	24	1	100.0	1
09/01/24	16:40	-12.3	-12.3	-12.3	77	-15.5	7.8	ENE	0.13	8.7	ENE	-19.4	-12.4	-19.5	743.1	0.021	0.000	21.2	4	-22.6	17.9	1.05	 .0732	23	1	100.0	1
09/01/24	16:41	-12.4	-12.3	-12.4	77	-15.6	6.1	ENE	0.10	9.6	ENE	-18.5	-12.5	-18.6	743.1	0.021	0.000	21.2	4	-22.6	17.9	1.05	 .0732	23	1	100.0	1
09/01/24	16:42	-12.3	-12.3	-12.4	77	-15.5	8.7	ENE	0.14	10.4	ENE	-19.8	-12.4	-19.9	743.1	0.021	0.000	21.2	4	-22.6	17.9	1.05	 .0732	24	1	100.0	1
09/01/24	16:43	-12.3	-12.3	-12.3	77	-15.5	9.6	ENE	0.16	11.3	ENE	-20.2	-12.4	-20.3	743.1	0.021	0.000	21.2	4	-22.6	17.9	1.05	 .0732	23	1	100.0	1
09/01/24	16:44	-12.1	-12.1	-12.2	77	-15.3	10.4	ENE	0.17	13.0	ENE	-20.3	-12.2	-20.4	743.0	0.021	0.000	21.2	4	-22.6	17.9	1.05	 .0731	24	1	100.0	1
09/01/24	16:45	-12.0	-12.0	-12.1	77	-15.2	6.1	ENE	0.10	8.7	ENE	-18.0	-12.1	-18.1	743.1	0.021	0.000	21.2	4	-22.6	17.9	1.05	 .0732	23	1	100.0	1
09/01/24	16:46	-12.0	-12.0	-12.0	77	-15.2	7.8	ENE	0.13	7.8	ENE	-19.0	-12.1	-19.1	743.1	0.021	0.000	21.2	4	-22.6	17.9	1.05	 .0732	23	1	100.0	1
09/01/24	16:47	-12.0	-12.0	-12.0	77	-15.2	6.1	ENE	0.10	7.8	ENE	-18.0	-12.1	-18.1	743.2	0.021	0.000	21.2	4	-22.6	17.9	1.05	 .0732	24	1	100.0	1
09/01/24	16:48	-12.0	-12.0	-12.0	77	-15.2	3.5	ENE	0.06	6.1	ENE	-16.1	-12.1	-16.2	743.2	0.021	0.000	21.2	4	-22.6	17.9	1.05	 .0732	23	1	100.0	1
09/01/24	16:49	-12.1	-12.0	-12.1	77	-15.3	7.0	ENE	0.12	8.7	ENE	-18.6	-12.2	-18.7	743.1	0.021	0.000	21.3	4	-22.5	18.1	1.04	 .0731	24	1	100.0	1
09/01/24	16:50	-12.0	-12.0	-12.1	77	-15.2	6.1	ENE	0.10	7.8	ENE	-18.0	-12.1	-18.1	743.1	0.021	0.000	21.3	4	-22.5	18.1	1.04	 .0731	23	1	100.0	1
09/01/24	16:51	-12.0	-12.0	-12.0	77	-15.2	5.2	ENE	0.09	7.8	ENE	-17.5	-12.1	-17.6	743.1	0.021	0.000	21.3	4	-22.5	18.1	1.04	 .0731	23	1	100.0	1
09/01/24	16:52	-12.0	-12.0	-12.0	77	-15.2	6.1	ENE	0.10	7.8	ENE	-18.0	-12.1	-18.1	743.1	0.021	0.000	21.3	4	-22.5	18.1	1.04	 .0731	24	1	100.0	1
09/01/24	16:53	-11.9	-11.9	-12.0	77	-15.2	7.0	ENE	0.12	7.8	ENE	-18.4	-12.1	-18.6	743.1	0.021	0.000	21.3	4	-22.5	18.1	1.04	 .0731	23	1	100.0	1
09/01/24	16:54	-12.0	-11.9	-12.0	77	-15.2	7.0	ENE	0.12	8.7	ENE	-18.6	-12.1	-18.7	743.1	0.021	0.000	21.3	4	-22.5	18.1	1.04	 .0731	24	1	100.0	1
09/01/24	16:55	-12.1	-12.0	-12.1	77	-15.3	6.1	E	0.10	7.0	E	-18.1	-12.2	-18.2	743.1	0.021	0.000	21.3	4	-22.5	18.1	1.04	 .0731	23	1	100.0	1
09/01/24	16:56	-12.1	-12.1	-12.1	77	-15.3	5.2	E	0.09	6.1	E	-17.6	-12.2	-17.7	743.1	0.021	0.000	21.3	4	-22.5	18.1	1.04	 .0731	24	1	100.0	1
09/01/24	16:57	-12.2	-12.2	-12.2	77	-15.4	5.2	E	0.09	7.0	ENE	-17.8	-12.3	-17.9	743.1	0.021	0.000	21.3	4	-22.5	18.1	1.04	 .0731	23	1	100.0	1
09/01/24	16:58	-12.3	-12.2	-12.3	77	-15.5	9.6	E	0.16	13.9	E	-20.2	-12.4	-20.3	743.2	0.021	0.000	21.3	4	-22.5	18.1	1.04	 .0731	23	1	100.0	1
09/01/24	16:59	-12.3	-12.3	-12.3	77	-15.5	9.6	ENE	0.16	11.3	E	-20.2	-12.4	-20.3	743.1	0.021	0.000	21.3	4	-22.5	18.1	1.04	 .0731	24	1	100.0	1
09/01/24	17:00	-12.2	-12.2	-12.2	77	-15.4	11.3	ENE	0.19	14.8	ENE	-20.7	-12.3	-20.8	743.1	0.021	0.000	21.3	4	-22.5	18.1	1.04	 .0731	23	1	100.0	1
09/01/24	17:01	-12.1	-12.1	-12.2	77	-15.3	11.3	E	0.19	12.2	E	-20.6	-12.2	-20.7	743.1	0.021	0.000	21.3	4	-22.5	18.1	1.04	 .0731	24	1	100.0	1
09/01/24	17:02	-12.1	-12.1	-12.1	77	-15.3	10.4	E	0.17	13.0	E	-20.2	-12.2	-20.3	743.0	0.021	0.000	21.3	4	-22.5	18.1	1.04	 .0731	23	1	100.0	1
09/01/24	17:03	-12.1	-12.1	-12.1	77	-15.3	12.2	E	0.20	13.9	E	-20.9	-12.2	-21.0	743.0	0.021	0.000	21.3	4	-22.5	18.1	1.04	 .0731	23	1	100.0	1
09/01/24	17:04	-12.1	-12.1	-12.1	77	-15.3	11.3	E	0.19	12.2	E	-20.6	-12.2	-20.7	743.0	0.021	0.000	21.3	4	-22.5	18.1	1.04	 .0731	24	1	100.0	1
09/01/24	17:05	-12.1	-12.1	-12.1	77	-15.3	10.4	E	0.17	12.2	ENE	-20.3	-12.2	-20.4	743.0	0.021	0.000	21.3	4	-22.5	18.1	1.04	 .0731	23	1	100.0	1
09/01/24	17:06	-12.2	-12.1	-12.2	76	-15.5	11.3	ENE	0.19	12.2	ENE	-20.7	-12.3	-20.8	743.0	0.021	0.000	21.3	4	-22.5	18.1	1.04	 .0731	24	1	100.0	1
09/01/24	17:07	-12.2	-12.2	-12.2	76	-15.5	11.3	E	0.19	13.0	E	-20.7	-12.3	-20.8	743.0	0.021	0.000	21.3	4	-22.5	18.1	1.04	 .0731	23	1	100.0	1
09/01/24	17:08	-12.2	-12.2	-12.2	76	-15.5	9.6	SE	0.16	14.8	E	-20.0	-12.3	-20.1	743.0	0.021	0.000	21.3	4	-22.5	18.1	1.04	 .0731	24	1	100.0	1
09/01/24	17:09	-12.1	-12.1	-12.2	76	-15.5	6.1	SE	0.10	9.6	E	-18.2	-12.2	-18.3	743.0	0.021	0.000	21.3	4	-22.5	18.1	1.04	 .0731	23	1	100.0	1
09/01/24	17:10	-12.1	-12.1	-12.1	76	-15.4	7.0	E	0.12	9.6	E	-18.6	-12.2	-18.7	743.1	0.021	0.000	21.3	4	-22.5	18.1	1.04	 .0731	23	1	100.0	1
09/01/24	17:11	-12.0	-12.0	-12.1	77	-15.2	7.0	ESE	0.12	10.4	ENE	-18.6	-12.1	-18.7	743.0	0.021	0.000	21.3	4	-22.5	18.1	1.04	 .0731	24	1	100.0	1
09/01/24	17:12	-12.1	-12.1	-12.1	77	-15.3	9.6	ENE	0.16	13.9	ENE	-19.9	-12.2	-20.0	743.0	0.021	0.000	21.3	4	-22.5	18.1	1.04	 .0731	23	1	100.0	1
09/01/24	17:13	-12.1	-12.1	-12.1	77	-15.3	10.4	E	0.17	12.2	E	-20.2	-12.2	-20.3	743.0	0.021	0.000	21.2	4	-22.6	17.9	1.05	 .0731	24	1	100.0	1
09/01/24	17:14	-12.1	-12.1	-12.1	77	-15.3	12.2	E	0.20	14.8	ENE	-20.9	-12.2	-21.0	742.9	0.021	0.000	21.2	4	-22.6	17.9	1.05	 .0731	23	1	100.0	1
09/01/24	17:15	-12.1	-12.1	-12.1	77	-15.3	13.0	E	0.22	13.9	E	-21.2	-12.2	-21.3	743.0	0.021	0.000	21.2	4	-22.6	17.9	1.05	 .0731	23	1	100.0	1
09/01/24	17:16	-12.0	-12.0	-12.1	77	-15.2	12.2	ESE	0.20	13.9	ESE	-20.8	-12.1	-20.9	743.0	0.021	0.000	21.2	4	-22.6	17.9	1.05	 .0731	24	1	100.0	1
09/01/24	17:17	-12.0	-12.0	-12.0	77	-15.2	12.2	ENE	0.20	13.9	E	-20.8	-12.1	-20.9	743.0	0.021	0.000	21.2	4	-22.6	17.8	1.05	 .0732	23	1	100.0	1
09/01/24	17:18	-12.0	-12.0	-12.0	77	-15.2	13.0	E	0.22	16.5	E	-21.1	-12.1	-21.2	743.0	0.021	0.000	21.2	4	-22.6	17.8	1.05	 .0732	24	1	100.0	1
09/01/24	17:19	-12.0	-12.0	-12.0	76	-15.4	12.2	E	0.20	13.9	E	-20.8	-12.1	-20.9	742.9	0.021	0.000	21.2	4	-22.6	17.8	1.05	 .0732	23	1	100.0	1
09/01/24	17:20	-12.2	-12.1	-12.2	77	-15.4	11.3	E	0.19	12.2	E	-20.7	-12.3	-20.8	743.0	0.021	0.000	21.2	4	-22.6	17.8	1.05	 .0732	23	1	100.0	1
09/01/24	17:21	-12.3	-12.2	-12.3	76	-15.7	10.4	E	0.17	11.3	E	-20.6	-12.4	-20.7	743.0	0.021	0.000	21.2	4	-22.6	17.8	1.05	 .0732	24	1	100.0	1
09/01/24	17:22	-12.4	-12.3	-12.4	77	-15.6	10.4	ESE	0.17	12.2	SE	-20.7	-12.6	-20.8	743.0	0.021	0.000	21.2	4	-22.6	17.8	1.05	 .0732	23	1	100.0	1
09/01/24	17:23	-12.5	-12.4	-12.5	76	-15.9	7.8	ENE	0.13	9.6	SE	-19.6	-12.6	-19.7	743.1	0.021	0.000	21.2	4	-22.6	17.8	1.05	 .0732	24	1	100.0	1
09/01/24	17:24	-12.5	-12.5	-12.5	76	-15.9	9.6	ESE	0.16	12.2	SE	-20.4	-12.6	-20.6	743.0	0.021	0.000	21.2	4	-22.6	17.8	1.05	 .0732	23	1	100.0	1
09/01/24	17:25	-12.5	-12.5	-12.5	76	-15.9	13.0	ESE	0.22	15.7	ESE	-21.7	-12.6	-21.8	743.0	0.021	0.000	21.2	4	-22.6	17.8	1.05	 .0732	24	1	100.0	1
09/01/24	17:26	-12.5	-12.5	-12.5	76	-15.9	11.3	ESE	0.19	13.0	ESE	-21.1	-12.6	-21.2	743.0	0.021	0.000	21.1	4	-22.7	17.8	1.05	 .0732	23	1	100.0	1
09/01/24	17:27	-12.6	-12.5	-12.6	77	-15.8	13.0	E	0.22	13.9	E	-21.9	-12.7	-22.0	743.0	0.021	0.000	21.2	4	-22.6	17.8	1.05	 .0732	23	1	100.0	1
09/01/24	17:28	-12.6	-12.6	-12.6	76	-15.9	15.7	E	0.26	20.0	E	-22.6	-12.7	-22.7	743.0	0.021	0.000	21.1	4	-22.7	17.8	1.05	 .0732	24	1	100.0	1
09/01/24	17:29	-12.5	-12.5	-12.6	76	-15.9	14.8	E	0.25	20.0	ESE	-22.3	-12.6	-22.4	742.9	0.021	0.000	21.2	4	-22.6	17.8	1.05	 .0731	23	1	100.0	1
09/01/24	17:30	-12.3	-12.3	-12.5	76	-15.7	13.9	ESE	0.23	16.5	ESE	-21.8	-12.4	-21.9	743.0	0.021	0.000	21.2	4	-22.6	17.8	1.05	 .0732	24	1	100.0	1
09/01/24	17:31	-12.3	-12.3	-12.3	77	-15.5	11.3	ESE	0.19	15.7	ESE	-20.8	-12.4	-20.9	743.1	0.021	0.000	21.2	4	-22.6	17.8	1.05	 .0732	23	1	100.0	1
09/01/24	17:32	-12.2	-12.2	-12.3	76	-15.5	12.2	ESE	0.20	16.5	ENE	-21.0	-12.3	-21.1	743.1	0.021	0.000	21.2	4	-22.6	17.8	1.05	 .0732	23	1	100.0	1
09/01/24	17:33	-12.1	-12.1	-12.2	76	-15.4	12.2	E	0.20	14.8	E	-20.9	-12.2	-21.0	743.1	0.021	0.000	21.2	4	-22.6	17.8	1.05	 .0732	24	1	100.0	1
09/01/24	17:34	-12.1	-12.0	-12.1	76	-15.4	10.4	E	0.17	13.0	E	-20.2	-12.2	-20.3	743.2	0.021	0.000	21.2	4	-22.6	17.8	1.05	 .0732	23	1	100.0	1
09/01/24	17:35	-11.9	-11.9	-12.0	76	-15.3	13.0	E	0.22	14.8	E	-21.0	-12.1	-21.1	743.1	0.021	0.000	21.2	4	-22.6	17.8	1.05	 .0732	24	1	100.0	1
09/01/24	17:36	-11.9	-11.9	-11.9	76	-15.3	11.3	ESE	0.19	13.9	ESE	-20.4	-12.1	-20.6	743.1	0.021	0.000	21.2	4	-22.6	17.8	1.05	 .0732	23	1	100.0	1
09/01/24	17:37	-11.8	-11.8	-11.9	76	-15.2	6.1	E	0.10	8.7	ESE	-17.8	-11.9	-17.9	743.2	0.021	0.000	21.2	4	-22.6	17.8	1.05	 .0732	24	1	100.0	1
09/01/24	17:38	-11.8	-11.8	-11.8	76	-15.2	9.6	E	0.16	11.3	E	-19.5	-11.9	-19.6	743.1	0.021	0.000	21.2	4	-22.6	17.8	1.05	 .0732	23	1	100.0	1
09/01/24	17:39	-11.8	-11.8	-11.8	76	-15.2	10.4	E	0.17	12.2	E	-19.9	-11.9	-20.0	743.1	0.021	0.000	21.2	4	-22.6	17.8	1.05	 .0732	23	1	100.0	1
09/01/24	17:40	-11.7	-11.7	-11.8	77	-14.9	10.4	ESE	0.17	12.2	ESE	-19.8	-11.8	-19.9	743.2	0.021	0.000	21.2	4	-22.6	17.9	1.05	 .0732	24	1	100.0	1
09/01/24	17:41	-11.8	-11.8	-11.8	77	-15.0	13.0	ESE	0.22	16.5	E	-20.8	-11.9	-20.9	743.2	0.021	0.000	21.2	4	-22.6	17.9	1.05	 .0732	23	1	100.0	1
09/01/24	17:42	-11.8	-11.8	-11.8	77	-15.0	17.4	ESE	0.29	21.7	ESE	-22.1	-11.9	-22.2	743.2	0.021	0.000	21.2	4	-22.6	17.9	1.05	 .0732	24	1	100.0	1
09/01/24	17:43	-11.7	-11.7	-11.7	76	-15.0	13.0	ESE	0.22	16.5	ESE	-20.7	-11.8	-20.8	743.2	0.021	0.000	21.2	4	-22.6	17.9	1.05	 .0732	23	1	100.0	1
09/01/24	17:44	-11.7	-11.7	-11.7	76	-15.0	13.0	E	0.22	15.7	E	-20.7	-11.8	-20.8	743.1	0.021	0.000	21.3	4	-22.5	18.1	1.04	 .0731	23	1	100.0	1
09/01/24	17:45	-11.6	-11.6	-11.7	76	-14.9	11.3	E	0.19	14.8	E	-19.9	-11.7	-20.1	743.2	0.021	0.000	21.3	4	-22.5	18.1	1.04	 .0731	24	1	100.0	1
09/01/24	17:46	-11.6	-11.6	-11.6	76	-14.9	11.3	E	0.19	13.0	E	-19.9	-11.7	-20.1	743.1	0.021	0.000	21.3	4	-22.5	18.1	1.04	 .0731	23	1	100.0	1
09/01/24	17:47	-11.6	-11.6	-11.6	76	-15.0	11.3	ESE	0.19	12.2	E	-20.0	-11.7	-20.1	743.2	0.021	0.000	21.3	4	-22.5	18.1	1.04	 .0732	24	1	100.0	1
09/01/24	17:48	-11.8	-11.7	-11.8	76	-15.2	12.2	ESE	0.20	13.9	ESE	-20.5	-11.9	-20.6	743.2	0.021	0.000	21.3	4	-22.5	18.1	1.04	 .0732	23	1	100.0	1
09/01/24	17:49	-12.1	-11.8	-12.1	76	-15.4	12.2	ESE	0.20	13.9	ESE	-20.9	-12.2	-21.0	743.2	0.021	0.000	21.3	4	-22.5	18.1	1.04	 .0731	24	1	100.0	1
09/01/24	17:50	-12.2	-12.1	-12.2	76	-15.6	14.8	ESE	0.25	16.5	ESE	-21.9	-12.3	-22.1	743.1	0.021	0.000	21.3	4	-22.5	18.1	1.04	 .0731	23	1	100.0	1
09/01/24	17:51	-12.3	-12.2	-12.3	76	-15.7	13.0	ESE	0.22	14.8	ESE	-21.5	-12.4	-21.6	743.0	0.021	0.000	21.3	4	-22.5	18.1	1.04	 .0731	23	1	100.0	1
09/01/24	17:52	-12.6	-12.4	-12.6	76	-15.9	13.0	ESE	0.22	13.9	ESE	-21.8	-12.7	-21.9	743.1	0.021	0.000	21.3	4	-22.5	18.1	1.04	 .0731	24	1	100.0	1
09/01/24	17:53	-12.7	-12.6	-12.7	76	-16.1	13.0	ESE	0.22	14.8	ESE	-22.0	-12.8	-22.1	743.1	0.022	0.000	21.3	4	-22.5	18.1	1.04	 .0731	23	1	100.0	1
09/01/24	17:54	-12.8	-12.7	-12.8	76	-16.2	13.0	ESE	0.22	13.9	ESE	-22.2	-12.9	-22.3	743.2	0.022	0.000	21.3	4	-22.5	18.1	1.04	 .0731	24	1	100.0	1
09/01/24	17:55	-12.9	-12.8	-12.9	76	-16.3	13.9	ESE	0.23	15.7	E	-22.6	-13.1	-22.7	743.2	0.022	0.000	21.3	4	-22.5	18.1	1.04	 .0731	23	1	100.0	1
09/01/24	17:56	-13.0	-12.9	-13.0	76	-16.3	15.7	ESE	0.26	16.5	ESE	-23.2	-13.1	-23.3	743.1	0.022	0.000	21.3	4	-22.5	18.1	1.04	 .0731	23	1	100.0	1
09/01/24	17:57	-13.0	-13.0	-13.0	76	-16.3	13.9	ESE	0.23	14.8	E	-22.7	-13.1	-22.8	743.1	0.022	0.000	21.3	4	-22.5	18.1	1.04	 .0731	24	1	100.0	1
09/01/24	17:58	-13.0	-13.0	-13.0	76	-16.3	14.8	E	0.25	15.7	ESE	-22.9	-13.1	-23.1	743.1	0.022	0.000	21.3	4	-22.5	18.1	1.04	 .0731	23	1	100.0	1
09/01/24	17:59	-13.1	-13.0	-13.1	76	-16.4	14.8	E	0.25	19.1	ESE	-23.0	-13.2	-23.1	743.2	0.022	0.000	21.3	4	-22.5	18.1	1.04	 .0731	24	1	100.0	1
09/01/24	18:00	-13.1	-13.1	-13.1	77	-16.3	19.1	ESE	0.32	22.6	ESE	-24.3	-13.2	-24.4	743.1	0.022	0.000	21.3	4	-22.5	18.1	1.04	 .0731	23	1	100.0	1
09/01/24	18:01	-12.7	-12.7	-13.1	76	-16.1	16.5	ESE	0.28	21.7	ESE	-23.1	-12.8	-23.2	743.1	0.022	0.000	21.3	4	-22.5	18.1	1.04	 .0731	24	1	100.0	1
09/01/24	18:02	-12.6	-12.6	-12.7	76	-15.9	16.5	ESE	0.28	19.1	ESE	-22.8	-12.7	-22.9	743.1	0.021	0.000	21.3	4	-22.5	18.1	1.04	 .0731	23	1	100.0	1
09/01/24	18:03	-12.6	-12.6	-12.6	77	-15.8	16.5	ESE	0.28	18.3	ESE	-22.8	-12.7	-22.9	743.2	0.021	0.000	21.3	4	-22.5	18.1	1.04	 .0731	23	1	100.0	1
09/01/24	18:04	-12.6	-12.6	-12.6	76	-15.9	15.7	E	0.26	17.4	ESE	-22.6	-12.7	-22.7	743.2	0.021	0.000	21.3	4	-22.5	18.1	1.04	 .0731	24	1	100.0	1
09/01/24	18:05	-12.6	-12.6	-12.6	76	-16.0	15.7	ESE	0.26	17.4	ESE	-22.7	-12.7	-22.8	743.1	0.021	0.000	21.3	4	-22.5	18.1	1.04	 .0731	23	1	100.0	1
09/01/24	18:06	-12.6	-12.6	-12.6	76	-16.0	16.5	ESE	0.28	18.3	ESE	-22.9	-12.7	-23.1	743.1	0.021	0.000	21.3	4	-22.5	18.1	1.04	 .0731	24	1	100.0	1
09/01/24	18:07	-12.6	-12.6	-12.6	76	-15.9	15.7	ESE	0.26	19.1	ESE	-22.6	-12.7	-22.7	743.1	0.021	0.000	21.3	4	-22.5	18.1	1.04	 .0731	23	1	100.0	1
09/01/24	18:08	-12.6	-12.6	-12.6	76	-16.0	15.7	ESE	0.26	18.3	ESE	-22.7	-12.7	-22.8	743.1	0.021	0.000	21.3	4	-22.5	18.1	1.04	 .0731	23	1	100.0	1
09/01/24	18:09	-12.5	-12.5	-12.7	76	-15.9	15.7	ESE	0.26	20.0	ESE	-22.6	-12.6	-22.7	743.2	0.021	0.000	21.3	4	-22.5	18.1	1.04	 .0732	24	1	100.0	1
09/01/24	18:10	-12.5	-12.5	-12.5	76	-15.9	12.2	ESE	0.20	13.9	ESE	-21.4	-12.6	-21.6	743.3	0.021	0.000	21.3	4	-22.5	18.1	1.04	 .0732	23	1	100.0	1
09/01/24	18:11	-12.5	-12.5	-12.5	76	-15.9	12.2	ESE	0.20	13.9	ESE	-21.4	-12.6	-21.6	743.4	0.021	0.000	21.3	4	-22.5	18.1	1.04	 .0732	24	1	100.0	1
09/01/24	18:12	-12.6	-12.6	-12.6	76	-16.0	13.9	ESE	0.23	15.7	ESE	-22.2	-12.7	-22.3	743.4	0.021	0.000	21.3	4	-22.5	18.1	1.04	 .0732	23	1	100.0	1
09/01/24	18:13	-12.8	-12.7	-12.8	76	-16.1	13.9	ESE	0.23	15.7	ESE	-22.4	-12.9	-22.5	743.4	0.022	0.000	21.2	4	-22.6	17.9	1.05	 .0732	23	1	100.0	1
09/01/24	18:14	-12.9	-12.8	-12.9	76	-16.2	15.7	ESE	0.26	17.4	ESE	-23.1	-13.0	-23.2	743.4	0.022	0.000	21.2	4	-22.6	17.9	1.05	 .0732	24	1	100.0	1
09/01/24	18:15	-13.1	-12.9	-13.1	76	-16.4	14.8	ESE	0.25	16.5	ESE	-23.0	-13.2	-23.1	743.3	0.022	0.000	21.2	4	-22.6	17.9	1.05	 .0732	23	1	100.0	1
09/01/24	18:16	-13.5	-13.1	-13.5	76	-16.8	13.9	ESE	0.23	14.8	ESE	-23.3	-13.6	-23.4	743.4	0.022	0.000	21.2	4	-22.6	17.9	1.05	 .0732	24	1	100.0	1
09/01/24	18:17	-13.7	-13.6	-13.7	76	-17.0	14.8	ESE	0.25	15.7	ESE	-23.9	-13.8	-24.0	743.4	0.022	0.000	21.2	4	-22.6	17.9	1.05	 .0732	23	1	100.0	1
09/01/24	18:18	-13.9	-13.8	-13.9	76	-17.3	17.4	ESE	0.29	20.0	ESE	-24.9	-14.1	-25.0	743.5	0.022	0.000	21.2	4	-22.6	17.9	1.05	 .0732	24	1	100.0	1
09/01/24	18:19	-13.9	-13.9	-13.9	76	-17.3	20.9	ESE	0.35	22.6	E	-25.8	-14.1	-25.9	743.4	0.022	0.000	21.2	4	-22.6	17.9	1.05	 .0732	23	1	100.0	1
09/01/24	18:20	-13.8	-13.8	-13.9	76	-17.2	18.3	ESE	0.30	21.7	ESE	-25.0	-13.9	-25.1	743.3	0.022	0.000	21.2	4	-22.6	17.9	1.05	 .0732	23	1	100.0	1
09/01/24	18:21	-13.7	-13.7	-13.8	76	-17.0	18.3	ESE	0.30	20.0	ESE	-24.8	-13.8	-24.9	743.4	0.022	0.000	21.3	4	-22.5	18.1	1.04	 .0732	24	1	100.0	1
09/01/24	18:22	-13.4	-13.4	-13.7	76	-16.8	17.4	ESE	0.29	24.3	E	-24.3	-13.6	-24.4	743.3	0.022	0.000	21.3	4	-22.5	18.1	1.04	 .0732	23	1	100.0	1
09/01/24	18:23	-13.3	-13.3	-13.4	76	-16.6	16.5	ESE	0.28	17.4	ESE	-23.8	-13.4	-23.9	743.4	0.022	0.000	21.3	4	-22.5	18.1	1.04	 .0732	24	1	100.0	1
09/01/24	18:24	-13.4	-13.3	-13.4	77	-16.6	16.5	ESE	0.28	17.4	ESE	-23.9	-13.5	-24.1	743.5	0.022	0.000	21.3	4	-22.5	18.1	1.04	 .0732	23	1	100.0	1
09/01/24	18:25	-13.6	-13.4	-13.6	77	-16.8	17.4	ESE	0.29	20.0	ESE	-24.5	-13.7	-24.6	743.5	0.022	0.000	21.3	4	-22.5	18.1	1.04	 .0732	23	1	100.0	1
09/01/24	18:26	-13.7	-13.6	-13.7	76	-17.0	17.4	ESE	0.29	20.0	ESE	-24.6	-13.8	-24.7	743.4	0.022	0.000	21.3	4	-22.5	18.1	1.04	 .0732	24	1	100.0	1
09/01/24	18:27	-13.8	-13.7	-13.8	76	-17.1	19.1	ESE	0.32	23.5	ESE	-25.2	-13.9	-25.3	743.5	0.022	0.000	21.3	4	-22.5	18.1	1.04	 .0732	23	1	100.0	1
09/01/24	18:28	-13.7	-13.7	-13.8	76	-17.0	20.9	ESE	0.35	22.6	ESE	-25.5	-13.8	-25.6	743.5	0.022	0.000	21.3	4	-22.5	18.1	1.04	 .0732	24	1	100.0	1
09/01/24	18:29	-13.7	-13.7	-13.7	76	-17.0	22.6	ESE	0.38	24.3	ESE	-25.8	-13.8	-25.9	743.3	0.022	0.000	21.3	4	-22.5	18.1	1.04	 .0732	23	1	100.0	1
09/01/24	18:30	-13.6	-13.6	-13.7	76	-16.9	21.7	ESE	0.36	24.3	ESE	-25.6	-13.7	-25.7	743.2	0.022	0.000	21.3	4	-22.5	18.1	1.04	 .0731	24	1	100.0	1
09/01/24	18:31	-13.6	-13.6	-13.6	77	-16.7	22.6	ESE	0.38	24.3	ESE	-25.7	-13.7	-25.8	743.3	0.022	0.000	21.3	4	-22.5	18.1	1.04	 .0732	23	1	100.0	1
09/01/24	18:32	-13.5	-13.5	-13.6	77	-16.7	22.6	ESE	0.38	24.3	ESE	-25.6	-13.6	-25.7	743.3	0.022	0.000	21.3	4	-22.5	18.1	1.04	 .0731	23	1	100.0	1
09/01/24	18:33	-13.5	-13.5	-13.5	76	-16.8	22.6	ESE	0.38	25.2	ESE	-25.6	-13.6	-25.7	743.3	0.022	0.000	21.3	4	-22.5	18.1	1.04	 .0732	24	1	100.0	1
09/01/24	18:34	-13.1	-13.1	-13.4	76	-16.4	22.6	SE	0.38	24.3	SE	-25.0	-13.2	-25.1	743.3	0.022	0.000	21.3	4	-22.5	18.1	1.04	 .0731	23	1	100.0	1
09/01/24	18:35	-12.6	-12.6	-12.9	76	-15.9	21.7	SE	0.36	24.3	SE	-24.1	-12.7	-24.2	743.3	0.021	0.000	21.3	4	-22.5	18.1	1.04	 .0731	24	1	100.0	1
09/01/24	18:36	-12.5	-12.5	-12.6	77	-15.7	20.0	SE	0.33	21.7	SE	-23.7	-12.6	-23.8	743.4	0.021	0.000	21.4	4	-22.5	18.2	1.04	 .0731	23	1	100.0	1
09/01/24	18:37	-12.6	-12.5	-12.6	77	-15.8	18.3	SE	0.30	20.0	SE	-23.4	-12.7	-23.5	743.5	0.021	0.000	21.4	4	-22.5	18.2	1.04	 .0732	23	1	100.0	1
09/01/24	18:38	-12.8	-12.7	-12.8	76	-16.2	17.4	ESE	0.29	20.0	ESE	-23.4	-12.9	-23.6	743.6	0.022	0.000	21.4	4	-22.5	18.2	1.04	 .0732	24	1	100.0	1
09/01/24	18:39	-13.1	-12.8	-13.1	75	-16.6	18.3	ESE	0.30	20.0	ESE	-24.0	-13.2	-24.1	743.5	0.022	0.000	21.4	4	-22.5	18.2	1.04	 .0732	23	1	100.0	1
09/01/24	18:40	-13.3	-13.1	-13.3	76	-16.6	16.5	ESE	0.28	20.0	ESE	-23.8	-13.4	-23.9	743.6	0.022	0.000	21.4	4	-22.5	18.2	1.04	 .0732	24	1	100.0	1
09/01/24	18:41	-13.5	-13.3	-13.5	76	-16.8	20.9	ESE	0.35	23.5	ESE	-25.2	-13.6	-25.3	743.6	0.022	0.000	21.4	4	-22.5	18.2	1.04	 .0732	23	1	100.0	1
09/01/24	18:42	-13.6	-13.5	-13.6	75	-17.1	19.1	ESE	0.32	21.7	ESE	-24.9	-13.7	-25.1	743.6	0.022	0.000	21.4	4	-22.5	18.2	1.04	 .0732	24	1	100.0	1
09/01/24	18:43	-13.4	-13.4	-13.6	76	-16.8	22.6	ESE	0.38	28.7	SE	-25.5	-13.6	-25.6	743.5	0.022	0.000	21.4	4	-22.5	18.2	1.04	 .0732	23	1	100.0	1
09/01/24	18:44	-13.4	-13.4	-13.4	76	-16.7	22.6	ESE	0.38	24.3	ESE	-25.4	-13.5	-25.6	743.4	0.022	0.000	21.4	4	-22.5	18.2	1.04	 .0731	23	1	100.0	1
09/01/24	18:45	-13.5	-13.4	-13.5	76	-16.8	20.9	ESE	0.35	24.3	ESE	-25.2	-13.6	-25.3	743.5	0.022	0.000	21.4	4	-22.5	18.2	1.04	 .0732	24	1	100.0	1
09/01/24	18:46	-13.6	-13.5	-13.6	76	-16.9	22.6	ESE	0.38	24.3	ESE	-25.7	-13.7	-25.8	743.5	0.022	0.000	21.4	4	-22.5	18.2	1.04	 .0732	23	1	100.0	1
09/01/24	18:47	-13.7	-13.6	-13.7	76	-17.0	22.6	ESE	0.38	23.5	ESE	-25.9	-13.8	-26.0	743.5	0.022	0.000	21.4	4	-22.5	18.2	1.04	 .0732	24	1	100.0	1
09/01/24	18:48	-13.8	-13.7	-13.8	76	-17.1	23.5	ESE	0.39	25.2	SE	-26.1	-13.9	-26.2	743.5	0.022	0.000	21.4	4	-22.5	18.2	1.04	 .0732	23	1	100.0	1
09/01/24	18:49	-13.7	-13.7	-13.8	76	-17.0	23.5	ESE	0.39	26.1	ESE	-26.1	-13.8	-26.2	743.5	0.022	0.000	21.4	4	-22.5	18.2	1.04	 .0732	23	1	100.0	1
09/01/24	18:50	-13.7	-13.7	-13.7	76	-17.0	23.5	ESE	0.39	25.2	ESE	-26.0	-13.8	-26.1	743.5	0.022	0.000	21.4	4	-22.5	18.2	1.04	 .0732	24	1	100.0	1
09/01/24	18:51	-13.6	-13.6	-13.7	77	-16.8	21.7	ESE	0.36	23.5	ESE	-25.6	-13.7	-25.7	743.6	0.022	0.000	21.3	4	-22.5	18.1	1.04	 .0732	23	1	100.0	1
09/01/24	18:52	-13.7	-13.7	-13.7	77	-16.9	21.7	ESE	0.36	25.2	ESE	-25.7	-13.8	-25.8	743.7	0.022	0.000	21.3	4	-22.5	18.1	1.04	 .0732	24	1	100.0	1
09/01/24	18:53	-13.7	-13.7	-13.8	76	-17.0	27.0	ESE	0.45	32.2	ESE	-26.7	-13.8	-26.8	743.6	0.022	0.000	21.3	4	-22.5	18.1	1.04	 .0732	23	1	100.0	1
09/01/24	18:54	-13.5	-13.5	-13.7	76	-16.8	25.2	SE	0.42	27.8	SE	-26.1	-13.6	-26.2	743.6	0.022	0.000	21.3	4	-22.5	18.1	1.04	 .0732	23	1	100.0	1
09/01/24	18:55	-13.3	-13.3	-13.5	76	-16.6	26.1	SE	0.43	28.7	SE	-26.0	-13.4	-26.1	743.6	0.022	0.000	21.3	4	-22.5	18.1	1.04	 .0732	24	1	100.0	1
09/01/24	18:56	-13.1	-13.1	-13.2	77	-16.2	25.2	SE	0.42	27.8	SE	-25.5	-13.2	-25.6	743.6	0.022	0.000	21.3	4	-22.5	18.1	1.04	 .0732	23	1	100.0	1
09/01/24	18:57	-13.0	-13.0	-13.1	77	-16.2	26.1	SE	0.43	27.8	SE	-25.6	-13.1	-25.7	743.6	0.022	0.000	21.3	4	-22.5	18.1	1.04	 .0732	24	1	100.0	1
09/01/24	18:58	-13.0	-13.0	-13.0	77	-16.2	25.2	SE	0.42	27.8	SE	-25.4	-13.1	-25.6	743.6	0.022	0.000	21.3	4	-22.5	18.1	1.04	 .0732	23	1	100.0	1
09/01/24	18:59	-13.1	-13.1	-13.1	76	-16.5	25.2	SE	0.42	27.0	SE	-25.6	-13.2	-25.7	743.6	0.022	0.000	21.3	4	-22.5	18.1	1.04	 .0732	24	1	100.0	1
09/01/24	19:00	-13.2	-13.1	-13.2	76	-16.6	21.7	SE	0.36	22.6	SE	-25.0	-13.3	-25.1	743.7	0.022	0.000	21.3	4	-22.5	18.1	1.04	 .0732	23	1	100.0	1
09/01/24	19:01	-13.3	-13.3	-13.3	76	-16.6	20.9	SE	0.35	23.5	SE	-24.9	-13.4	-25.0	743.8	0.022	0.000	21.2	4	-22.6	17.9	1.05	 .0732	23	1	100.0	1
09/01/24	19:02	-13.9	-13.3	-13.9	76	-17.2	20.9	ESE	0.35	21.7	ESE	-25.7	-14.0	-25.8	743.9	0.022	0.000	21.2	4	-22.6	17.9	1.05	 .0732	24	1	100.0	1
09/01/24	19:03	-14.4	-14.0	-14.4	76	-17.7	20.0	ESE	0.33	22.6	ESE	-26.2	-14.6	-26.3	743.9	0.023	0.000	21.2	4	-22.6	17.9	1.05	 .0732	23	1	100.0	1
09/01/24	19:04	-14.7	-14.6	-14.7	76	-18.0	20.9	ESE	0.35	22.6	ESE	-26.7	-14.8	-26.8	743.9	0.023	0.000	21.2	4	-22.6	17.9	1.05	 .0732	24	1	100.0	1
09/01/24	19:05	-14.7	-14.7	-14.7	76	-18.0	20.0	ESE	0.33	20.9	ESE	-26.6	-14.8	-26.7	743.9	0.023	0.000	21.2	4	-22.6	17.9	1.05	 .0732	23	1	100.0	1
09/01/24	19:06	-14.9	-14.7	-14.9	76	-18.2	20.0	ESE	0.33	21.7	ESE	-26.8	-15.0	-26.9	743.9	0.023	0.000	21.2	4	-22.6	17.9	1.05	 .0732	23	1	100.0	1
09/01/24	19:07	-15.1	-14.9	-15.1	77	-18.2	19.1	ESE	0.32	20.0	ESE	-26.8	-15.2	-26.9	744.0	0.023	0.000	21.2	4	-22.6	17.9	1.05	 .0732	24	1	100.0	1
09/01/24	19:08	-15.2	-15.1	-15.2	77	-18.3	20.0	ESE	0.33	20.9	ESE	-27.3	-15.3	-27.3	744.0	0.023	0.000	21.2	4	-22.6	17.9	1.05	 .0732	23	1	100.0	1
09/01/24	19:09	-15.3	-15.3	-15.3	77	-18.4	20.9	ESE	0.35	21.7	SE	-27.6	-15.3	-27.6	744.0	0.023	0.000	21.2	4	-22.6	17.9	1.05	 .0732	24	1	100.0	1
09/01/24	19:10	-15.3	-15.3	-15.3	77	-18.4	20.9	ESE	0.35	23.5	ESE	-27.6	-15.3	-27.6	744.0	0.023	0.000	21.2	4	-22.6	17.9	1.05	 .0732	23	1	100.0	1
09/01/24	19:11	-15.4	-15.3	-15.4	77	-18.5	22.6	ESE	0.38	25.2	ESE	-28.1	-15.4	-28.2	744.0	0.023	0.000	21.2	4	-22.6	17.9	1.05	 .0732	24	1	100.0	1
09/01/24	19:12	-15.5	-15.4	-15.5	77	-18.6	21.7	ESE	0.36	23.5	ESE	-28.1	-15.6	-28.1	743.9	0.023	0.000	21.2	4	-22.6	17.9	1.05	 .0732	23	1	100.0	1
09/01/24	19:13	-15.7	-15.6	-15.7	77	-18.8	22.6	ESE	0.38	25.2	ESE	-28.5	-15.7	-28.6	744.0	0.024	0.000	21.2	4	-22.6	17.9	1.05	 .0732	23	1	100.0	1
09/01/24	19:14	-15.5	-15.5	-15.7	77	-18.6	24.3	ESE	0.41	27.8	ESE	-28.7	-15.6	-28.7	743.9	0.023	0.000	21.3	4	-22.5	18.1	1.04	 .0732	24	1	100.0	1
09/01/24	19:15	-15.2	-15.2	-15.4	78	-18.2	22.6	ESE	0.38	24.3	ESE	-27.9	-15.3	-27.9	744.0	0.023	0.000	21.3	4	-22.5	18.1	1.04	 .0732	23	1	100.0	1
09/01/24	19:16	-15.4	-15.3	-15.4	78	-18.4	22.6	ESE	0.38	24.3	ESE	-28.1	-15.4	-28.2	744.0	0.023	0.000	21.3	4	-22.5	18.1	1.04	 .0732	24	1	100.0	1
09/01/24	19:17	-15.6	-15.4	-15.6	78	-18.6	23.5	ESE	0.39	25.2	ESE	-28.6	-15.7	-28.7	744.0	0.024	0.000	21.3	4	-22.5	18.1	1.04	 .0732	23	1	100.0	1
09/01/24	19:18	-15.7	-15.7	-15.7	78	-18.7	23.5	ESE	0.39	26.1	E	-28.8	-15.8	-28.8	744.0	0.024	0.000	21.3	4	-22.5	18.1	1.04	 .0732	23	1	100.0	1
09/01/24	19:19	-15.8	-15.7	-15.8	78	-18.7	25.2	ESE	0.42	27.0	ESE	-29.2	-15.8	-29.3	744.0	0.024	0.000	21.3	4	-22.5	18.1	1.04	 .0732	24	1	100.0	1
09/01/24	19:20	-15.9	-15.8	-15.9	78	-18.8	26.1	ESE	0.43	28.7	ESE	-29.5	-15.9	-29.6	744.0	0.024	0.000	21.3	4	-22.5	18.1	1.04	 .0732	23	1	100.0	1
09/01/24	19:21	-16.1	-15.9	-16.1	78	-19.1	25.2	ESE	0.42	27.0	ESE	-29.7	-16.2	-29.7	743.9	0.024	0.000	21.3	4	-22.5	18.1	1.04	 .0732	24	1	100.0	1
09/01/24	19:22	-16.3	-16.2	-16.3	78	-19.3	26.1	ESE	0.43	30.4	ESE	-30.1	-16.4	-30.2	743.9	0.024	0.000	21.3	4	-22.5	18.1	1.04	 .0732	23	1	100.0	1
09/01/24	19:23	-16.3	-16.3	-16.4	78	-19.3	27.0	ESE	0.45	29.6	ESE	-30.3	-16.4	-30.3	743.9	0.024	0.000	21.3	4	-22.5	18.1	1.04	 .0732	24	1	100.0	1
09/01/24	19:24	-16.6	-16.4	-16.6	78	-19.5	28.7	ESE	0.48	30.4	ESE	-30.9	-16.6	-31.0	743.9	0.024	0.000	21.3	4	-22.5	18.1	1.04	 .0732	23	1	100.0	1
09/01/24	19:25	-16.7	-16.6	-16.7	78	-19.6	27.8	ESE	0.46	29.6	ESE	-30.9	-16.7	-31.0	743.9	0.024	0.000	21.4	4	-22.5	18.2	1.04	 .0732	23	1	100.0	1
09/01/24	19:26	-16.8	-16.7	-16.8	78	-19.8	27.8	ESE	0.46	30.4	ESE	-31.2	-16.9	-31.2	743.9	0.024	0.000	21.4	4	-22.5	18.2	1.04	 .0732	24	1	100.0	1
09/01/24	19:27	-16.8	-16.8	-16.8	78	-19.8	27.0	ESE	0.45	31.3	ESE	-31.0	-16.9	-31.1	744.0	0.024	0.000	21.4	4	-22.5	18.2	1.04	 .0732	23	1	100.0	1
09/01/24	19:28	-16.8	-16.8	-16.8	78	-19.7	28.7	ESE	0.48	31.3	ESE	-31.2	-16.8	-31.3	744.0	0.024	0.000	21.4	4	-22.5	18.2	1.04	 .0732	24	1	100.0	1
09/01/24	19:29	-16.9	-16.8	-16.9	78	-19.8	28.7	ESE	0.48	30.4	ESE	-31.4	-16.9	-31.4	744.1	0.024	0.000	21.4	4	-22.5	18.2	1.04	 .0732	23	1	100.0	1
09/01/24	19:30	-17.0	-16.9	-17.0	79	-19.8	28.7	ESE	0.48	30.4	ESE	-31.6	-17.1	-31.6	744.1	0.025	0.000	21.4	4	-22.5	18.2	1.04	 .0732	23	1	100.0	1
09/01/24	19:31	-17.0	-17.0	-17.0	79	-19.8	30.4	ESE	0.51	33.9	ESE	-31.9	-17.1	-31.9	744.0	0.025	0.000	21.4	4	-22.4	18.3	1.04	 .0732	24	1	100.0	1
09/01/24	19:32	-17.1	-17.0	-17.1	79	-19.9	27.0	ESE	0.45	32.2	ESE	-31.4	-17.2	-31.4	744.1	0.025	0.000	21.4	4	-22.4	18.3	1.04	 .0732	23	1	100.0	1
09/01/24	19:33	-17.1	-17.1	-17.1	79	-19.8	29.6	ESE	0.49	31.3	ESE	-31.8	-17.1	-31.8	744.1	0.025	0.000	21.4	4	-22.4	18.3	1.04	 .0732	24	1	100.0	1
09/01/24	19:34	-17.0	-17.0	-17.1	79	-19.8	28.7	ESE	0.48	30.4	ESE	-31.6	-17.1	-31.6	744.1	0.025	0.000	21.4	4	-22.4	18.3	1.04	 .0732	23	1	100.0	1
09/01/24	19:35	-17.1	-17.0	-17.1	79	-19.8	27.0	ESE	0.45	29.6	ESE	-31.3	-17.1	-31.3	744.2	0.025	0.000	21.4	4	-22.4	18.3	1.04	 .0732	23	1	100.0	1
09/01/24	19:36	-17.1	-17.1	-17.1	79	-19.8	30.4	ESE	0.51	33.9	ESE	-31.9	-17.1	-32.0	744.2	0.025	0.000	21.4	4	-22.4	18.3	1.04	 .0732	24	1	100.0	1
09/01/24	19:37	-17.0	-17.0	-17.1	79	-19.8	30.4	ESE	0.51	32.2	ESE	-31.9	-17.1	-31.9	744.2	0.025	0.000	21.4	4	-22.4	18.3	1.04	 .0732	23	1	100.0	1
09/01/24	19:38	-17.1	-17.0	-17.1	79	-19.8	27.8	ESE	0.46	30.4	ESE	-31.4	-17.1	-31.5	744.2	0.025	0.000	21.4	4	-22.4	18.3	1.04	 .0732	24	1	100.0	1
09/01/24	19:39	-17.1	-17.1	-17.1	79	-19.8	29.6	ESE	0.49	31.3	SE	-31.8	-17.1	-31.8	744.2	0.025	0.000	21.4	4	-22.4	18.3	1.04	 .0732	23	1	100.0	1
09/01/24	19:40	-17.0	-17.0	-17.1	79	-19.8	26.1	ESE	0.43	27.8	ESE	-31.1	-17.1	-31.1	744.3	0.025	0.000	21.4	4	-22.4	18.3	1.04	 .0732	24	1	100.0	1
09/01/24	19:41	-17.0	-16.9	-17.0	79	-19.8	27.0	ESE	0.45	29.6	ESE	-31.2	-17.1	-31.3	744.3	0.025	0.000	21.4	4	-22.4	18.3	1.04	 .0732	23	1	100.0	1
09/01/24	19:42	-17.1	-17.0	-17.1	79	-19.8	27.8	ESE	0.46	29.6	ESE	-31.4	-17.1	-31.5	744.3	0.025	0.000	21.4	4	-22.4	18.3	1.04	 .0732	23	1	100.0	1
09/01/24	19:43	-17.1	-17.1	-17.1	79	-19.8	26.1	ESE	0.43	28.7	ESE	-31.1	-17.1	-31.2	744.2	0.025	0.000	21.4	4	-22.4	18.3	1.04	 .0732	24	1	100.0	1
09/01/24	19:44	-17.2	-17.1	-17.2	79	-19.9	25.2	ESE	0.42	27.0	ESE	-31.1	-17.2	-31.1	744.3	0.025	0.000	21.4	4	-22.5	18.2	1.04	 .0732	23	1	100.0	1
09/01/24	19:45	-17.2	-17.2	-17.2	79	-19.9	27.0	ESE	0.45	28.7	ESE	-31.4	-17.2	-31.5	744.3	0.025	0.000	21.4	4	-22.5	18.2	1.04	 .0732	24	1	100.0	1
09/01/24	19:46	-17.1	-17.1	-17.2	79	-19.9	25.2	ESE	0.42	27.0	ESE	-31.0	-17.2	-31.1	744.4	0.025	0.000	21.4	4	-22.5	18.2	1.04	 .0732	23	1	100.0	1
09/01/24	19:47	-17.1	-17.1	-17.1	79	-19.9	27.0	ESE	0.45	27.8	ESE	-31.4	-17.2	-31.4	744.4	0.025	0.000	21.4	4	-22.5	18.2	1.04	 .0732	23	1	100.0	1
09/01/24	19:48	-17.1	-17.1	-17.1	79	-19.9	26.1	ESE	0.43	27.0	ESE	-31.2	-17.2	-31.2	744.4	0.025	0.000	21.4	4	-22.5	18.2	1.04	 .0732	24	1	100.0	1
09/01/24	19:49	-17.2	-17.1	-17.2	79	-20.0	27.0	ESE	0.45	27.8	ESE	-31.5	-17.3	-31.6	744.5	0.025	0.000	21.4	4	-22.5	18.2	1.04	 .0732	23	1	100.0	1
09/01/24	19:50	-17.3	-17.2	-17.3	79	-20.1	27.0	ESE	0.45	29.6	ESE	-31.7	-17.4	-31.7	744.4	0.025	0.000	21.4	4	-22.5	18.2	1.04	 .0732	24	1	100.0	1
09/01/24	19:51	-17.3	-17.3	-17.3	79	-20.0	26.1	ESE	0.43	27.0	ESE	-31.4	-17.3	-31.4	744.4	0.025	0.000	21.4	4	-22.5	18.2	1.04	 .0732	23	1	100.0	1
09/01/24	19:52	-17.3	-17.3	-17.3	79	-20.1	26.1	ESE	0.43	27.0	ESE	-31.5	-17.4	-31.6	744.5	0.025	0.000	21.3	4	-22.5	18.1	1.04	 .0733	24	1	100.0	1
09/01/24	19:53	-17.4	-17.3	-17.4	79	-20.2	27.8	ESE	0.46	29.6	ESE	-31.9	-17.4	-31.9	744.5	0.025	0.000	21.3	4	-22.5	18.1	1.04	 .0733	23	1	100.0	1
09/01/24	19:54	-17.3	-17.3	-17.4	79	-20.1	26.1	ESE	0.43	27.8	ESE	-31.5	-17.4	-31.6	744.5	0.025	0.000	21.3	4	-22.5	18.1	1.04	 .0733	23	1	100.0	1
09/01/24	19:55	-17.2	-17.2	-17.3	79	-20.0	29.6	ESE	0.49	31.3	ESE	-32.0	-17.3	-32.1	744.4	0.025	0.000	21.3	4	-22.5	18.1	1.04	 .0733	24	1	100.0	1
09/01/24	19:56	-17.2	-17.2	-17.2	79	-19.9	27.8	ESE	0.46	29.6	ESE	-31.6	-17.2	-31.7	744.4	0.025	0.000	21.3	4	-22.5	18.1	1.04	 .0733	23	1	100.0	1
09/01/24	19:57	-17.2	-17.1	-17.2	79	-19.9	28.7	ESE	0.48	30.4	ESE	-31.8	-17.2	-31.8	744.4	0.025	0.000	21.3	4	-22.5	18.1	1.04	 .0733	24	1	100.0	1
09/01/24	19:58	-17.3	-17.2	-17.3	79	-20.0	29.6	ESE	0.49	31.3	ESE	-32.1	-17.3	-32.2	744.5	0.025	0.000	21.3	4	-22.5	18.1	1.04	 .0733	23	1	100.0	1
09/01/24	19:59	-17.4	-17.3	-17.4	79	-20.2	28.7	ESE	0.48	30.4	ESE	-32.1	-17.4	-32.2	744.4	0.025	0.000	21.3	4	-22.5	18.1	1.04	 .0733	23	1	100.0	1
09/01/24	20:00	-17.4	-17.3	-17.4	79	-20.2	27.8	ESE	0.46	29.6	ESE	-31.9	-17.4	-31.9	744.5	0.025	0.000	21.3	4	-22.5	18.1	1.04	 .0733	24	1	100.0	1
09/01/24	20:01	-17.4	-17.4	-17.5	79	-20.2	28.7	ESE	0.48	29.6	ESE	-32.2	-17.5	-32.2	744.5	0.025	0.000	21.3	4	-22.5	18.1	1.04	 .0733	23	1	100.0	1
09/01/24	20:02	-17.4	-17.4	-17.4	79	-20.2	27.8	ESE	0.46	28.7	ESE	-32.0	-17.5	-32.1	744.5	0.025	0.000	21.3	4	-22.5	18.1	1.04	 .0733	24	1	100.0	1
09/01/24	20:03	-17.3	-17.3	-17.4	79	-20.1	27.8	ESE	0.46	28.7	ESE	-31.8	-17.4	-31.9	744.5	0.025	0.000	21.3	4	-22.5	18.1	1.04	 .0733	23	1	100.0	1
09/01/24	20:04	-17.2	-17.2	-17.3	79	-20.0	27.8	ESE	0.46	29.6	ESE	-31.7	-17.3	-31.7	744.5	0.025	0.000	21.3	4	-22.5	18.1	1.04	 .0733	24	1	100.0	1
09/01/24	20:05	-17.2	-17.2	-17.2	79	-20.0	27.8	ESE	0.46	29.6	ESE	-31.7	-17.3	-31.7	744.6	0.025	0.000	21.3	4	-22.5	18.1	1.04	 .0733	23	1	100.0	1
09/01/24	20:06	-17.2	-17.2	-17.2	79	-20.0	28.7	ESE	0.48	30.4	ESE	-31.8	-17.3	-31.9	744.5	0.025	0.000	21.3	4	-22.5	18.1	1.04	 .0733	23	1	100.0	1
09/01/24	20:07	-17.3	-17.3	-17.3	79	-20.0	29.6	ESE	0.49	30.4	ESE	-32.1	-17.3	-32.2	744.5	0.025	0.000	21.3	4	-22.5	18.1	1.04	 .0733	24	1	100.0	1
09/01/24	20:08	-17.3	-17.3	-17.3	79	-20.0	29.6	ESE	0.49	30.4	ESE	-32.1	-17.3	-32.2	744.5	0.025	0.000	21.4	4	-22.5	18.2	1.04	 .0733	23	1	100.0	1
09/01/24	20:09	-17.3	-17.3	-17.3	79	-20.0	28.7	ESE	0.48	30.4	ESE	-31.9	-17.3	-32.0	744.6	0.025	0.000	21.4	4	-22.5	18.2	1.04	 .0733	24	1	100.0	1
09/01/24	20:10	-17.4	-17.3	-17.4	79	-20.2	27.0	ESE	0.45	27.8	ESE	-31.8	-17.5	-31.9	744.6	0.025	0.000	21.4	4	-22.5	18.2	1.04	 .0733	23	1	100.0	1
09/01/24	20:11	-17.5	-17.4	-17.5	79	-20.3	27.8	ESE	0.46	28.7	ESE	-32.1	-17.6	-32.1	744.6	0.025	0.000	21.4	4	-22.5	18.2	1.04	 .0733	23	1	100.0	1
09/01/24	20:12	-17.5	-17.5	-17.6	79	-20.3	27.8	ESE	0.46	29.6	ESE	-32.1	-17.6	-32.1	744.7	0.025	0.000	21.4	4	-22.5	18.2	1.04	 .0733	24	1	100.0	1
09/01/24	20:13	-17.6	-17.5	-17.6	79	-20.3	27.0	ESE	0.45	27.8	ESE	-31.9	-17.6	-32.0	744.7	0.025	0.000	21.4	4	-22.5	18.2	1.04	 .0733	23	1	100.0	1
09/01/24	20:14	-17.6	-17.5	-17.6	79	-20.3	26.1	ESE	0.43	27.0	ESE	-31.8	-17.6	-31.8	744.8	0.025	0.000	21.4	4	-22.5	18.2	1.04	 .0733	24	1	100.0	1
09/01/24	20:15	-17.6	-17.6	-17.6	79	-20.4	27.0	ESE	0.45	27.8	ESE	-32.1	-17.7	-32.1	744.7	0.025	0.000	21.4	4	-22.5	18.2	1.04	 .0733	23	1	100.0	1
09/01/24	20:16	-17.7	-17.6	-17.7	79	-20.4	27.0	ESE	0.45	27.8	ESE	-32.1	-17.7	-32.2	744.7	0.025	0.000	21.4	4	-22.5	18.2	1.04	 .0733	23	1	100.0	1
09/01/24	20:17	-17.7	-17.6	-17.7	79	-20.4	27.0	ESE	0.45	28.7	ESE	-32.1	-17.7	-32.2	744.7	0.025	0.000	21.4	4	-22.4	18.3	1.04	 .0733	24	1	100.0	1
09/01/24	20:18	-17.7	-17.7	-17.7	79	-20.4	27.8	ESE	0.46	29.6	ESE	-32.3	-17.7	-32.3	744.7	0.025	0.000	21.4	4	-22.4	18.3	1.04	 .0733	23	1	100.0	1
09/01/24	20:19	-17.6	-17.6	-17.7	79	-20.4	27.8	ESE	0.46	29.6	ESE	-32.2	-17.7	-32.3	744.8	0.025	0.000	21.4	4	-22.4	18.3	1.04	 .0733	24	1	100.0	1
09/01/24	20:20	-17.6	-17.6	-17.6	79	-20.4	27.0	ESE	0.45	28.7	ESE	-32.1	-17.7	-32.1	744.8	0.025	0.000	21.4	4	-22.4	18.3	1.04	 .0733	23	1	100.0	1
09/01/24	20:21	-17.7	-17.6	-17.7	79	-20.4	27.0	ESE	0.45	28.7	ESE	-32.1	-17.7	-32.2	744.8	0.025	0.000	21.4	4	-22.4	18.3	1.04	 .0733	24	1	100.0	1
09/01/24	20:22	-17.7	-17.7	-17.7	79	-20.5	26.1	ESE	0.43	27.0	E	-32.0	-17.8	-32.1	744.8	0.025	0.000	21.5	4	-22.4	18.4	1.04	 .0733	23	1	100.0	1
09/01/24	20:23	-17.9	-17.7	-17.9	79	-20.6	26.1	ESE	0.43	27.0	E	-32.2	-17.9	-32.3	744.9	0.025	0.000	21.5	4	-22.4	18.4	1.04	 .0733	23	1	100.0	1
09/01/24	20:24	-18.0	-17.9	-18.0	79	-20.8	24.3	E	0.41	25.2	ESE	-32.0	-18.1	-32.1	744.9	0.025	0.000	21.5	4	-22.4	18.4	1.04	 .0733	24	1	100.0	1
09/01/24	20:25	-18.2	-18.1	-18.2	79	-20.9	23.5	ESE	0.39	25.2	ESE	-32.1	-18.2	-32.1	744.9	0.025	0.000	21.5	4	-22.4	18.4	1.04	 .0733	23	1	100.0	1
09/01/24	20:26	-18.2	-18.2	-18.2	79	-21.0	25.2	ESE	0.42	26.1	ESE	-32.5	-18.3	-32.6	745.0	0.025	0.000	21.4	4	-22.4	18.3	1.04	 .0733	24	1	100.0	1
09/01/24	20:27	-18.3	-18.2	-18.3	79	-21.0	24.3	ESE	0.41	26.1	ESE	-32.4	-18.3	-32.4	745.1	0.025	0.000	21.4	4	-22.4	18.3	1.04	 .0733	23	1	100.0	1
09/01/24	20:28	-18.4	-18.3	-18.4	79	-21.1	25.2	ESE	0.42	27.0	E	-32.7	-18.4	-32.8	745.0	0.026	0.000	21.4	4	-22.4	18.3	1.04	 .0733	23	1	100.0	1
09/01/24	20:29	-18.4	-18.4	-18.4	79	-21.2	24.3	ESE	0.41	25.2	ESE	-32.6	-18.5	-32.7	745.1	0.026	0.000	21.4	4	-22.4	18.3	1.04	 .0733	24	1	100.0	1
09/01/24	20:30	-18.4	-18.4	-18.4	79	-21.2	24.3	ESE	0.41	26.1	ESE	-32.6	-18.5	-32.7	745.1	0.026	0.000	21.4	4	-22.4	18.3	1.04	 .0733	23	1	100.0	1
09/01/24	20:31	-18.5	-18.4	-18.5	79	-21.2	24.3	ESE	0.41	25.2	ESE	-32.7	-18.6	-32.7	745.1	0.026	0.000	21.4	4	-22.5	18.2	1.04	 .0733	24	1	100.0	1
09/01/24	20:32	-18.6	-18.5	-18.6	79	-21.3	24.3	ESE	0.41	26.1	ESE	-32.8	-18.6	-32.8	745.1	0.026	0.000	21.4	4	-22.5	18.2	1.04	 .0733	23	1	100.0	1
09/01/24	20:33	-18.7	-18.6	-18.7	79	-21.4	24.3	ESE	0.41	26.1	ESE	-32.9	-18.7	-32.9	745.1	0.026	0.000	21.4	4	-22.5	18.2	1.04	 .0733	24	1	100.0	1
09/01/24	20:34	-18.7	-18.7	-18.7	79	-21.5	25.2	ESE	0.42	27.0	ESE	-33.2	-18.8	-33.2	745.1	0.026	0.000	21.4	4	-22.5	18.2	1.04	 .0733	23	1	100.0	1
09/01/24	20:35	-18.8	-18.7	-18.8	79	-21.5	25.2	ESE	0.42	26.1	ESE	-33.3	-18.8	-33.3	745.2	0.026	0.000	21.4	4	-22.5	18.2	1.04	 .0733	23	1	100.0	1
09/01/24	20:36	-18.7	-18.7	-18.8	79	-21.5	24.3	ESE	0.41	26.1	ESE	-33.0	-18.8	-33.1	745.2	0.026	0.000	21.3	4	-22.5	18.1	1.04	 .0733	24	1	100.0	1
09/01/24	20:37	-18.8	-18.7	-18.8	79	-21.5	24.3	ESE	0.41	26.1	ESE	-33.1	-18.8	-33.1	745.1	0.026	0.000	21.3	4	-22.5	18.1	1.04	 .0733	23	1	100.0	1
09/01/24	20:38	-18.8	-18.8	-18.8	79	-21.6	25.2	ESE	0.42	27.0	ESE	-33.3	-18.9	-33.4	745.2	0.026	0.000	21.3	4	-22.5	18.1	1.04	 .0733	24	1	100.0	1
09/01/24	20:39	-18.8	-18.8	-18.8	79	-21.6	25.2	ESE	0.42	27.0	ESE	-33.3	-18.9	-33.4	745.1	0.026	0.000	21.3	4	-22.5	18.1	1.04	 .0733	23	1	100.0	1
09/01/24	20:40	-18.8	-18.8	-18.8	79	-21.5	25.2	ESE	0.42	26.1	ESE	-33.3	-18.8	-33.3	745.1	0.026	0.000	21.3	4	-22.5	18.1	1.04	 .0733	23	1	100.0	1
09/01/24	20:41	-18.8	-18.8	-18.8	79	-21.5	25.2	ESE	0.42	27.8	ESE	-33.3	-18.8	-33.3	745.1	0.026	0.000	21.3	4	-22.5	18.1	1.04	 .0733	24	1	100.0	1
09/01/24	20:42	-18.7	-18.7	-18.7	79	-21.4	26.1	ESE	0.43	27.0	ESE	-33.3	-18.7	-33.3	745.1	0.026	0.000	21.3	4	-22.5	18.1	1.04	 .0733	23	1	100.0	1
09/01/24	20:43	-18.7	-18.7	-18.7	79	-21.4	25.2	ESE	0.42	27.0	ESE	-33.1	-18.7	-33.2	745.1	0.026	0.000	21.3	4	-22.5	18.1	1.04	 .0733	24	1	100.0	1
09/01/24	20:44	-18.7	-18.7	-18.7	79	-21.5	26.1	ESE	0.43	27.8	ESE	-33.4	-18.8	-33.4	745.1	0.026	0.000	21.3	4	-22.5	18.1	1.04	 .0733	23	1	100.0	1
09/01/24	20:45	-18.7	-18.7	-18.7	79	-21.4	25.2	ESE	0.42	27.0	ESE	-33.1	-18.7	-33.2	745.0	0.026	0.000	21.3	4	-22.5	18.1	1.04	 .0733	24	1	100.0	1
09/01/24	20:46	-18.7	-18.7	-18.7	79	-21.5	26.1	ESE	0.43	29.6	ESE	-33.4	-18.8	-33.4	745.0	0.026	0.000	21.3	4	-22.5	18.1	1.04	 .0733	23	1	100.0	1
09/01/24	20:47	-18.7	-18.7	-18.7	79	-21.4	27.0	ESE	0.45	28.7	ESE	-33.5	-18.7	-33.6	745.0	0.026	0.000	21.3	4	-22.5	18.1	1.04	 .0733	23	1	100.0	1
09/01/24	20:48	-18.6	-18.6	-18.7	79	-21.4	27.0	ESE	0.45	27.8	ESE	-33.4	-18.7	-33.4	745.0	0.026	0.000	21.3	4	-22.5	18.1	1.04	 .0733	24	1	100.0	1
09/01/24	20:49	-18.6	-18.6	-18.6	79	-21.4	26.1	ESE	0.43	27.8	E	-33.2	-18.7	-33.3	745.0	0.026	0.000	21.3	4	-22.5	18.1	1.04	 .0733	23	1	100.0	1
09/01/24	20:50	-18.6	-18.6	-18.6	79	-21.4	26.1	ESE	0.43	27.8	E	-33.2	-18.7	-33.3	745.0	0.026	0.000	21.3	4	-22.5	18.1	1.04	 .0733	24	1	100.0	1
09/01/24	20:51	-18.7	-18.6	-18.7	79	-21.4	27.0	ESE	0.45	28.7	E	-33.5	-18.7	-33.6	745.0	0.026	0.000	21.3	4	-22.5	18.1	1.04	 .0733	23	1	100.0	1
09/01/24	20:52	-18.7	-18.7	-18.7	79	-21.4	26.1	ESE	0.43	28.7	ESE	-33.3	-18.7	-33.3	745.0	0.026	0.000	21.3	4	-22.5	18.1	1.04	 .0733	23	1	100.0	1
09/01/24	20:53	-18.6	-18.6	-18.7	79	-21.3	27.8	ESE	0.46	29.6	ESE	-33.5	-18.6	-33.6	745.0	0.026	0.000	21.3	4	-22.5	18.1	1.04	 .0733	24	1	100.0	1
09/01/24	20:54	-18.5	-18.5	-18.6	79	-21.2	28.7	ESE	0.48	29.6	E	-33.6	-18.6	-33.7	745.0	0.026	0.000	21.3	4	-22.5	18.1	1.04	 .0733	23	1	100.0	1
09/01/24	20:55	-18.4	-18.4	-18.4	79	-21.2	27.8	ESE	0.46	29.6	ESE	-33.3	-18.5	-33.4	745.0	0.026	0.000	21.3	4	-22.5	18.1	1.04	 .0733	24	1	100.0	1
09/01/24	20:56	-18.5	-18.4	-18.5	79	-21.2	28.7	ESE	0.48	30.4	ESE	-33.6	-18.6	-33.7	745.0	0.026	0.000	21.3	4	-22.5	18.1	1.04	 .0733	23	1	100.0	1
09/01/24	20:57	-18.6	-18.5	-18.6	79	-21.3	30.4	ESE	0.51	31.3	ESE	-34.0	-18.6	-34.1	744.9	0.026	0.000	21.3	4	-22.5	18.1	1.04	 .0733	23	1	100.0	1
09/01/24	20:58	-18.6	-18.6	-18.6	79	-21.3	30.4	ESE	0.51	32.2	ESE	-34.0	-18.6	-34.1	744.9	0.026	0.000	21.3	4	-22.5	18.1	1.04	 .0733	24	1	100.0	1
09/01/24	20:59	-18.6	-18.5	-18.6	79	-21.3	28.7	ESE	0.48	31.3	ESE	-33.7	-18.6	-33.7	744.9	0.026	0.000	21.3	4	-22.5	18.1	1.04	 .0733	23	1	100.0	1
09/01/24	21:00	-18.5	-18.5	-18.6	79	-21.2	28.7	ESE	0.48	30.4	ESE	-33.6	-18.6	-33.7	745.0	0.026	0.000	21.3	4	-22.5	18.1	1.04	 .0733	24	1	100.0	1
09/01/24	21:01	-18.4	-18.4	-18.5	79	-21.2	28.7	ESE	0.48	32.2	ESE	-33.6	-18.5	-33.6	745.0	0.026	0.000	21.3	4	-22.5	18.1	1.04	 .0733	23	1	100.0	1
09/01/24	21:02	-18.4	-18.4	-18.4	79	-21.1	29.6	ESE	0.49	31.3	ESE	-33.6	-18.4	-33.7	745.0	0.026	0.000	21.4	4	-22.5	18.2	1.04	 .0733	24	1	100.0	1
09/01/24	21:03	-18.4	-18.4	-18.4	79	-21.1	28.7	ESE	0.48	30.4	ESE	-33.4	-18.4	-33.5	745.0	0.026	0.000	21.4	4	-22.5	18.2	1.04	 .0733	23	1	100.0	1
09/01/24	21:04	-18.4	-18.4	-18.4	79	-21.2	28.7	ESE	0.48	31.3	ESE	-33.6	-18.5	-33.6	745.1	0.026	0.000	21.4	4	-22.5	18.2	1.04	 .0733	23	1	100.0	1
09/01/24	21:05	-18.5	-18.4	-18.5	79	-21.2	27.8	ESE	0.46	29.6	ESE	-33.4	-18.6	-33.5	745.1	0.026	0.000	21.4	4	-22.5	18.2	1.04	 .0733	24	1	100.0	1
09/01/24	21:06	-18.6	-18.6	-18.6	79	-21.3	27.8	ESE	0.46	30.4	E	-33.5	-18.6	-33.6	745.2	0.026	0.000	21.4	4	-22.5	18.2	1.04	 .0733	23	1	100.0	1
09/01/24	21:07	-18.7	-18.6	-18.7	79	-21.5	27.0	ESE	0.45	28.7	ESE	-33.6	-18.8	-33.6	745.2	0.026	0.000	21.4	4	-22.5	18.2	1.04	 .0733	24	1	100.0	1
09/01/24	21:08	-18.8	-18.7	-18.8	79	-21.5	27.0	ESE	0.45	27.8	ESE	-33.6	-18.8	-33.7	745.3	0.026	0.000	21.4	4	-22.5	18.2	1.04	 .0733	23	1	100.0	1
09/01/24	21:09	-18.8	-18.8	-18.8	79	-21.5	27.8	ESE	0.46	29.6	E	-33.8	-18.8	-33.9	745.2	0.026	0.000	21.4	4	-22.4	18.3	1.04	 .0733	23	1	100.0	1
09/01/24	21:10	-18.8	-18.8	-18.8	79	-21.5	26.1	E	0.43	28.7	E	-33.4	-18.8	-33.5	745.3	0.026	0.000	21.4	4	-22.4	18.3	1.04	 .0733	24	1	100.0	1
09/01/24	21:11	-18.8	-18.8	-18.8	79	-21.6	27.0	ESE	0.45	28.7	ESE	-33.7	-18.9	-33.8	745.3	0.026	0.000	21.4	4	-22.4	18.3	1.04	 .0733	23	1	100.0	1
09/01/24	21:12	-18.8	-18.8	-18.8	79	-21.6	27.0	E	0.45	27.8	E	-33.7	-18.9	-33.8	745.2	0.026	0.000	21.4	4	-22.4	18.3	1.04	 .0733	24	1	100.0	1
09/01/24	21:13	-18.8	-18.8	-18.8	79	-21.6	27.8	E	0.46	29.6	E	-33.9	-18.9	-33.9	745.2	0.026	0.000	21.4	4	-22.4	18.3	1.04	 .0733	23	1	100.0	1
09/01/24	21:14	-19.0	-18.9	-19.0	79	-21.7	27.0	ESE	0.45	28.7	ESE	-33.9	-19.1	-34.0	745.2	0.026	0.000	21.4	4	-22.4	18.3	1.04	 .0733	24	1	100.0	1
09/01/24	21:15	-19.1	-19.0	-19.1	79	-21.8	26.1	ESE	0.43	27.8	ESE	-33.9	-19.2	-33.9	745.2	0.026	0.000	21.4	4	-22.4	18.3	1.04	 .0733	23	1	100.0	1
09/01/24	21:16	-19.1	-19.1	-19.1	79	-21.8	27.0	ESE	0.45	29.6	ESE	-34.0	-19.1	-34.1	745.3	0.026	0.000	21.4	4	-22.4	18.3	1.04	 .0733	23	1	100.0	1
09/01/24	21:17	-19.1	-19.1	-19.1	79	-21.8	27.8	ESE	0.46	29.6	ESE	-34.2	-19.1	-34.2	745.2	0.026	0.000	21.4	4	-22.4	18.3	1.04	 .0733	24	1	100.0	1
09/01/24	21:18	-19.1	-19.1	-19.1	79	-21.8	26.1	E	0.43	28.7	ESE	-33.8	-19.1	-33.9	745.2	0.026	0.000	21.4	4	-22.4	18.3	1.04	 .0733	23	1	100.0	1
09/01/24	21:19	-19.1	-19.1	-19.1	79	-21.8	27.0	E	0.45	29.6	E	-34.1	-19.2	-34.2	745.2	0.026	0.000	21.4	4	-22.4	18.3	1.04	 .0733	24	1	100.0	1
09/01/24	21:20	-19.2	-19.2	-19.2	79	-21.9	27.8	ESE	0.46	29.6	ESE	-34.3	-19.2	-34.4	745.2	0.026	0.000	21.4	4	-22.5	18.2	1.04	 .0733	23	1	100.0	1
09/01/24	21:21	-19.1	-19.1	-19.2	79	-21.8	28.7	ESE	0.48	29.6	E	-34.4	-19.2	-34.5	745.2	0.026	0.000	21.4	4	-22.5	18.2	1.04	 .0733	23	1	100.0	1
09/01/24	21:22	-19.0	-19.0	-19.1	79	-21.7	28.7	ESE	0.48	31.3	ESE	-34.3	-19.1	-34.3	745.2	0.026	0.000	21.4	4	-22.5	18.2	1.04	 .0733	24	1	100.0	1
09/01/24	21:23	-19.0	-19.0	-19.0	79	-21.7	26.1	ESE	0.43	28.7	E	-33.8	-19.1	-33.8	745.3	0.026	0.000	21.4	4	-22.5	18.2	1.04	 .0733	23	1	100.0	1
09/01/24	21:24	-19.2	-19.1	-19.2	79	-21.9	28.7	E	0.48	32.2	E	-34.5	-19.2	-34.6	745.2	0.026	0.000	21.4	4	-22.5	18.2	1.04	 .0733	24	1	100.0	1
09/01/24	21:25	-19.2	-19.2	-19.2	79	-21.9	29.6	ESE	0.49	31.3	ESE	-34.8	-19.3	-34.8	745.2	0.026	0.000	21.3	4	-22.5	18.1	1.04	 .0733	23	1	100.0	1
09/01/24	21:26	-19.3	-19.2	-19.3	79	-22.1	28.7	ESE	0.48	32.2	E	-34.7	-19.4	-34.8	745.2	0.026	0.000	21.3	4	-22.5	18.1	1.04	 .0733	24	1	100.0	1
09/01/24	21:27	-19.5	-19.3	-19.5	79	-22.2	29.6	ESE	0.49	30.4	ESE	-35.2	-19.6	-35.2	745.3	0.026	0.000	21.3	4	-22.5	18.1	1.04	 .0733	23	1	100.0	1
09/01/24	21:28	-19.6	-19.5	-19.6	79	-22.3	28.7	ESE	0.48	30.4	ESE	-35.1	-19.6	-35.1	745.3	0.026	0.000	21.3	4	-22.5	18.1	1.04	 .0733	23	1	100.0	1
09/01/24	21:29	-19.7	-19.6	-19.7	79	-22.4	30.4	ESE	0.51	33.0	ESE	-35.6	-19.7	-35.6	745.3	0.026	0.000	21.3	4	-22.5	18.1	1.04	 .0733	24	1	100.0	1
09/01/24	21:30	-19.7	-19.7	-19.7	79	-22.4	29.6	E	0.49	30.4	ESE	-35.4	-19.8	-35.5	745.4	0.026	0.000	21.3	4	-22.5	18.1	1.04	 .0734	23	1	100.0	1
09/01/24	21:31	-19.8	-19.7	-19.8	79	-22.5	30.4	E	0.51	33.0	ESE	-35.7	-19.8	-35.8	745.4	0.026	0.000	21.3	4	-22.5	18.1	1.04	 .0734	24	1	100.0	1
09/01/24	21:32	-19.9	-19.8	-19.9	79	-22.6	30.4	ESE	0.51	32.2	ESE	-35.8	-19.9	-35.9	745.4	0.027	0.000	21.3	4	-22.5	18.1	1.04	 .0734	23	1	100.0	1
09/01/24	21:33	-19.8	-19.8	-19.8	79	-22.5	29.6	ESE	0.49	32.2	ESE	-35.6	-19.9	-35.7	745.4	0.027	0.000	21.3	4	-22.5	18.1	1.04	 .0734	23	1	100.0	1
09/01/24	21:34	-19.8	-19.8	-19.8	79	-22.5	30.4	ESE	0.51	31.3	ESE	-35.7	-19.8	-35.8	745.4	0.026	0.000	21.3	4	-22.5	18.1	1.04	 .0734	24	1	100.0	1
09/01/24	21:35	-19.8	-19.8	-19.8	79	-22.5	29.6	ESE	0.49	32.2	ESE	-35.6	-19.8	-35.6	745.4	0.026	0.000	21.3	4	-22.5	18.1	1.04	 .0734	23	1	100.0	1
09/01/24	21:36	-19.9	-19.8	-19.9	79	-22.6	29.6	E	0.49	30.4	E	-35.7	-19.9	-35.7	745.4	0.027	0.000	21.3	4	-22.5	18.1	1.04	 .0734	24	1	100.0	1
09/01/24	21:37	-20.2	-19.9	-20.2	79	-22.9	29.6	E	0.49	30.4	E	-36.2	-20.3	-36.2	745.4	0.027	0.000	21.3	4	-22.5	18.1	1.04	 .0734	23	1	100.0	1
09/01/24	21:38	-20.4	-20.2	-20.4	79	-23.1	29.6	E	0.49	30.4	E	-36.4	-20.4	-36.4	745.4	0.027	0.000	21.3	4	-22.5	18.1	1.04	 .0734	23	1	100.0	1
09/01/24	21:39	-20.6	-20.4	-20.6	79	-23.3	30.4	E	0.51	31.3	ESE	-36.8	-20.7	-36.9	745.4	0.027	0.000	21.3	4	-22.5	18.1	1.04	 .0734	24	1	100.0	1
09/01/24	21:40	-20.8	-20.7	-20.8	79	-23.5	29.6	ESE	0.49	31.3	E	-37.0	-20.9	-37.1	745.3	0.027	0.000	21.3	4	-22.5	18.1	1.04	 .0734	23	1	100.0	1
09/01/24	21:41	-21.0	-20.8	-21.0	79	-23.7	30.4	E	0.51	32.2	ESE	-37.4	-21.1	-37.4	745.4	0.027	0.000	21.3	4	-22.5	18.1	1.04	 .0734	24	1	100.0	1
09/01/24	21:42	-21.2	-21.1	-21.2	79	-23.8	31.3	E	0.52	33.0	ESE	-37.8	-21.2	-37.8	745.3	0.027	0.000	21.3	4	-22.5	18.1	1.04	 .0734	23	1	100.0	1
09/01/24	21:43	-21.3	-21.2	-21.3	79	-24.0	31.3	E	0.52	32.2	E	-38.0	-21.4	-38.1	745.4	0.028	0.000	21.3	4	-22.5	18.1	1.04	 .0734	24	1	100.0	1
09/01/24	21:44	-21.4	-21.3	-21.4	79	-24.1	31.3	ESE	0.52	33.0	E	-38.1	-21.4	-38.2	745.3	0.028	0.000	21.3	4	-22.5	18.1	1.04	 .0733	23	1	100.0	1
09/01/24	21:45	-21.4	-21.4	-21.4	79	-24.1	30.4	E	0.51	32.2	E	-38.0	-21.5	-38.1	745.4	0.028	0.000	21.3	4	-22.5	18.1	1.04	 .0734	23	1	100.0	1
09/01/24	21:46	-21.4	-21.4	-21.4	79	-24.1	30.4	E	0.51	31.3	E	-37.9	-21.4	-38.0	745.4	0.028	0.000	21.3	4	-22.5	18.1	1.04	 .0734	24	1	100.0	1
09/01/24	21:47	-21.3	-21.3	-21.4	79	-24.0	31.3	ESE	0.52	32.2	ESE	-37.9	-21.3	-38.0	745.4	0.028	0.000	21.4	4	-22.5	18.2	1.04	 .0733	23	1	100.0	1
09/01/24	21:48	-21.1	-21.1	-21.3	79	-23.7	29.6	ESE	0.49	32.2	E	-37.3	-21.1	-37.3	745.4	0.027	0.000	21.4	4	-22.5	18.2	1.04	 .0733	24	1	100.0	1
09/01/24	21:49	-20.9	-20.9	-21.1	79	-23.6	28.7	ESE	0.48	30.4	ESE	-36.9	-20.9	-36.9	745.5	0.027	0.000	21.4	4	-22.5	18.2	1.04	 .0733	23	1	100.0	1
09/01/24	21:50	-20.7	-20.7	-20.8	79	-23.4	27.0	ESE	0.45	28.7	E	-36.2	-20.7	-36.3	745.5	0.027	0.000	21.4	4	-22.5	18.2	1.04	 .0734	23	1	100.0	1
09/01/24	21:51	-20.6	-20.6	-20.7	79	-23.2	27.8	ESE	0.46	29.6	ESE	-36.2	-20.6	-36.3	745.6	0.027	0.000	21.4	4	-22.5	18.2	1.04	 .0734	24	1	100.0	1
09/01/24	21:52	-20.4	-20.4	-20.6	79	-23.1	27.0	E	0.45	28.7	ESE	-35.9	-20.5	-35.9	745.6	0.027	0.000	21.4	4	-22.5	18.2	1.04	 .0734	23	1	100.0	1
09/01/24	21:53	-20.4	-20.4	-20.4	79	-23.1	27.0	E	0.45	28.7	E	-35.9	-20.5	-35.9	745.6	0.027	0.000	21.4	4	-22.5	18.2	1.04	 .0734	24	1	100.0	1
09/01/24	21:54	-20.5	-20.4	-20.5	79	-23.2	27.0	E	0.45	27.8	E	-36.0	-20.6	-36.1	745.7	0.027	0.000	21.4	4	-22.4	18.3	1.04	 .0734	23	1	100.0	1
09/01/24	21:55	-20.4	-20.4	-20.5	79	-23.1	27.8	E	0.46	28.7	E	-36.1	-20.5	-36.2	745.7	0.027	0.000	21.4	4	-22.4	18.3	1.04	 .0734	24	1	100.0	1
09/01/24	21:56	-20.3	-20.3	-20.4	79	-23.0	27.0	ESE	0.45	27.8	E	-35.7	-20.3	-35.7	745.7	0.027	0.000	21.4	4	-22.4	18.3	1.04	 .0734	23	1	100.0	1
09/01/24	21:57	-20.1	-20.1	-20.2	79	-22.8	27.0	ESE	0.45	28.7	ESE	-35.4	-20.1	-35.4	745.7	0.027	0.000	21.4	4	-22.4	18.3	1.04	 .0734	23	1	100.0	1
09/01/24	21:58	-19.8	-19.8	-20.0	79	-22.5	26.1	ESE	0.43	28.7	E	-34.8	-19.8	-34.9	745.7	0.026	0.000	21.4	4	-22.4	18.3	1.04	 .0734	24	1	100.0	1
09/01/24	21:59	-19.6	-19.6	-19.8	79	-22.3	26.1	E	0.43	28.7	E	-34.5	-19.6	-34.6	745.8	0.026	0.000	21.5	4	-22.4	18.4	1.04	 .0733	23	1	100.0	1
09/01/24	22:00	-19.5	-19.5	-19.6	79	-22.2	26.1	E	0.43	27.0	ESE	-34.4	-19.6	-34.5	745.8	0.026	0.000	21.4	4	-22.4	18.3	1.04	 .0734	24	1	100.0	1
09/01/24	22:01	-19.6	-19.5	-19.6	79	-22.3	26.1	E	0.43	27.8	E	-34.5	-19.6	-34.6	745.8	0.026	0.000	21.5	4	-22.4	18.4	1.04	 .0733	23	1	100.0	1
09/01/24	22:02	-19.7	-19.6	-19.7	79	-22.4	25.2	E	0.42	27.8	ESE	-34.4	-19.7	-34.5	745.8	0.026	0.000	21.5	4	-22.4	18.4	1.04	 .0733	23	1	100.0	1
09/01/24	22:03	-19.8	-19.7	-19.8	79	-22.5	25.2	ESE	0.42	26.1	E	-34.7	-19.9	-34.7	745.8	0.027	0.000	21.5	4	-22.4	18.4	1.04	 .0734	24	1	100.0	1
09/01/24	22:04	-19.8	-19.8	-19.8	79	-22.5	25.2	E	0.42	26.1	E	-34.7	-19.9	-34.7	745.8	0.027	0.000	21.5	4	-22.4	18.4	1.04	 .0734	23	1	100.0	1
09/01/24	22:05	-19.9	-19.8	-19.9	79	-22.7	25.2	E	0.42	27.0	ESE	-34.8	-20.0	-34.9	745.8	0.027	0.000	21.5	4	-22.4	18.4	1.04	 .0733	24	1	100.0	1
09/01/24	22:06	-20.0	-19.9	-20.0	79	-22.7	25.2	ESE	0.42	26.1	ESE	-34.9	-20.1	-34.9	745.8	0.027	0.000	21.5	4	-22.4	18.4	1.04	 .0734	23	1	100.0	1
09/01/24	22:07	-20.0	-20.0	-20.0	79	-22.7	24.3	ESE	0.41	26.1	ESE	-34.7	-20.1	-34.8	745.9	0.027	0.000	21.4	4	-22.4	18.3	1.04	 .0734	23	1	100.0	1
09/01/24	22:08	-19.9	-19.9	-20.0	79	-22.7	25.2	E	0.42	27.0	E	-34.8	-20.0	-34.9	745.9	0.027	0.000	21.4	4	-22.4	18.3	1.04	 .0734	24	1	100.0	1
09/01/24	22:09	-19.9	-19.9	-19.9	79	-22.6	24.3	E	0.41	26.1	ESE	-34.6	-19.9	-34.6	745.9	0.027	0.000	21.4	4	-22.4	18.3	1.04	 .0734	23	1	100.0	1
09/01/24	22:10	-19.9	-19.9	-19.9	79	-22.6	23.5	E	0.39	25.2	E	-34.3	-19.9	-34.4	745.9	0.027	0.000	21.4	4	-22.4	18.3	1.04	 .0734	24	1	100.0	1
09/01/24	22:11	-20.0	-19.9	-20.0	79	-22.7	24.3	ESE	0.41	26.1	ESE	-34.7	-20.1	-34.8	745.9	0.027	0.000	21.4	4	-22.4	18.3	1.04	 .0734	23	1	100.0	1
09/01/24	22:12	-20.0	-20.0	-20.0	79	-22.7	23.5	E	0.39	25.2	E	-34.5	-20.1	-34.6	746.0	0.027	0.000	21.4	4	-22.4	18.3	1.04	 .0734	24	1	100.0	1
09/01/24	22:13	-20.0	-20.0	-20.1	79	-22.7	24.3	ESE	0.41	26.1	E	-34.7	-20.1	-34.8	746.0	0.027	0.000	21.4	4	-22.5	18.2	1.04	 .0734	23	1	100.0	1
09/01/24	22:14	-19.9	-19.9	-19.9	79	-22.6	23.5	ESE	0.39	25.2	ESE	-34.3	-19.9	-34.4	746.0	0.027	0.000	21.4	4	-22.5	18.2	1.04	 .0734	23	1	100.0	1
09/01/24	22:15	-19.8	-19.8	-19.9	79	-22.5	23.5	ESE	0.39	25.2	ESE	-34.3	-19.9	-34.3	746.0	0.027	0.000	21.3	4	-22.5	18.1	1.04	 .0734	24	1	100.0	1
09/01/24	22:16	-19.7	-19.7	-19.8	79	-22.4	23.5	ESE	0.39	25.2	ESE	-34.1	-19.8	-34.2	746.0	0.026	0.000	21.3	4	-22.5	18.1	1.04	 .0734	23	1	100.0	1
09/01/24	22:17	-19.7	-19.7	-19.7	79	-22.4	22.6	ESE	0.38	24.3	ESE	-33.8	-19.7	-33.9	746.0	0.026	0.000	21.3	4	-22.5	18.1	1.04	 .0734	24	1	100.0	1
09/01/24	22:18	-19.7	-19.7	-19.7	79	-22.4	21.7	E	0.36	23.5	E	-33.7	-19.8	-33.8	746.0	0.026	0.000	21.3	4	-22.5	18.1	1.04	 .0734	23	1	100.0	1
09/01/24	22:19	-19.8	-19.7	-19.8	79	-22.5	21.7	E	0.36	22.6	E	-33.8	-19.8	-33.8	746.1	0.026	0.000	21.3	4	-22.5	18.1	1.04	 .0734	23	1	100.0	1
09/01/24	22:20	-19.9	-19.8	-19.9	79	-22.6	21.7	E	0.36	22.6	E	-33.9	-19.9	-34.0	746.1	0.027	0.000	21.3	4	-22.5	18.1	1.04	 .0734	24	1	100.0	1
09/01/24	22:21	-20.0	-19.9	-20.0	79	-22.7	21.7	E	0.36	23.5	E	-34.1	-20.1	-34.1	746.0	0.027	0.000	21.3	4	-22.5	18.1	1.04	 .0734	23	1	100.0	1
09/01/24	22:22	-20.1	-20.0	-20.1	79	-22.8	21.7	E	0.36	22.6	E	-34.2	-20.1	-34.2	746.0	0.027	0.000	21.3	4	-22.5	18.1	1.04	 .0734	24	1	100.0	1
09/01/24	22:23	-20.1	-20.1	-20.2	79	-22.8	21.7	E	0.36	23.5	E	-34.2	-20.2	-34.3	746.1	0.027	0.000	21.3	4	-22.5	18.1	1.04	 .0734	23	1	100.0	1
09/01/24	22:24	-20.1	-20.1	-20.2	79	-22.8	22.6	E	0.38	23.5	E	-34.4	-20.2	-34.5	746.0	0.027	0.000	21.3	4	-22.5	18.1	1.04	 .0734	24	1	100.0	1
09/01/24	22:25	-20.1	-20.1	-20.1	79	-22.8	22.6	E	0.38	23.5	E	-34.4	-20.1	-34.4	746.1	0.027	0.000	21.3	4	-22.5	18.1	1.04	 .0734	23	1	100.0	1
09/01/24	22:26	-20.0	-20.0	-20.1	79	-22.7	22.6	E	0.38	23.5	E	-34.3	-20.1	-34.3	746.0	0.027	0.000	21.3	4	-22.5	18.1	1.04	 .0734	23	1	100.0	1
09/01/24	22:27	-20.0	-20.0	-20.0	79	-22.7	23.5	E	0.39	23.5	E	-34.5	-20.1	-34.6	746.0	0.027	0.000	21.3	4	-22.5	18.1	1.04	 .0734	24	1	100.0	1
09/01/24	22:28	-20.1	-20.1	-20.1	79	-22.8	23.5	E	0.39	24.3	E	-34.7	-20.2	-34.7	746.0	0.027	0.000	21.3	4	-22.5	18.1	1.04	 .0734	23	1	100.0	1
09/01/24	22:29	-20.1	-20.1	-20.1	79	-22.8	22.6	E	0.38	23.5	E	-34.4	-20.2	-34.5	746.0	0.027	0.000	21.3	4	-22.5	18.1	1.04	 .0734	24	1	100.0	1
09/01/24	22:30	-20.2	-20.1	-20.2	79	-22.9	22.6	E	0.38	24.3	E	-34.5	-20.2	-34.6	746.0	0.027	0.000	21.3	4	-22.5	18.1	1.04	 .0734	23	1	100.0	1
09/01/24	22:31	-20.1	-20.1	-20.2	79	-22.8	23.5	E	0.39	26.1	E	-34.6	-20.1	-34.7	746.0	0.027	0.000	21.3	4	-22.5	18.1	1.04	 .0734	23	1	100.0	1
09/01/24	22:32	-19.8	-19.8	-20.0	79	-22.5	22.6	E	0.38	24.3	E	-34.0	-19.8	-34.1	745.9	0.026	0.000	21.3	4	-22.5	18.1	1.04	 .0734	24	1	100.0	1
09/01/24	22:33	-19.5	-19.5	-19.7	79	-22.2	22.6	E	0.38	27.0	E	-33.6	-19.6	-33.7	745.9	0.026	0.000	21.3	4	-22.5	18.1	1.04	 .0734	23	1	100.0	1
09/01/24	22:34	-19.3	-19.3	-19.4	79	-22.1	24.3	E	0.41	26.1	E	-33.8	-19.4	-33.9	746.0	0.026	0.000	21.3	4	-22.5	18.1	1.04	 .0734	24	1	100.0	1
09/01/24	22:35	-19.3	-19.3	-19.3	79	-22.0	23.5	E	0.39	25.2	E	-33.6	-19.3	-33.6	745.9	0.026	0.000	21.3	4	-22.5	18.1	1.04	 .0734	23	1	100.0	1
09/01/24	22:36	-19.3	-19.3	-19.3	79	-22.0	22.6	E	0.38	23.5	E	-33.3	-19.3	-33.4	746.0	0.026	0.000	21.3	4	-22.5	18.1	1.04	 .0734	24	1	100.0	1
09/01/24	22:37	-19.2	-19.2	-19.3	79	-21.9	22.6	E	0.38	24.3	ESE	-33.3	-19.3	-33.3	745.9	0.026	0.000	21.3	4	-22.5	18.1	1.04	 .0734	23	1	100.0	1
09/01/24	22:38	-19.0	-19.0	-19.2	79	-21.7	22.6	E	0.38	24.3	E	-32.9	-19.1	-33.0	745.9	0.026	0.000	21.3	4	-22.5	18.1	1.04	 .0734	23	1	100.0	1
09/01/24	22:39	-18.8	-18.8	-19.0	79	-21.5	22.6	E	0.38	25.2	E	-32.7	-18.8	-32.7	745.9	0.026	0.000	21.3	4	-22.5	18.1	1.04	 .0734	24	1	100.0	1
09/01/24	22:40	-18.7	-18.7	-18.8	79	-21.4	21.7	E	0.36	23.5	E	-32.3	-18.7	-32.3	746.0	0.026	0.000	21.3	4	-22.5	18.1	1.04	 .0734	23	1	100.0	1
09/01/24	22:41	-18.7	-18.7	-18.7	79	-21.4	22.6	E	0.38	24.3	E	-32.5	-18.7	-32.6	746.0	0.026	0.000	21.3	4	-22.5	18.1	1.04	 .0734	24	1	100.0	1
09/01/24	22:42	-18.8	-18.7	-18.8	79	-21.5	23.5	E	0.39	24.3	E	-32.9	-18.8	-32.9	746.0	0.026	0.000	21.3	4	-22.5	18.1	1.04	 .0734	23	1	100.0	1
09/01/24	22:43	-18.8	-18.8	-18.8	79	-21.5	23.5	E	0.39	25.2	E	-32.9	-18.8	-32.9	746.0	0.026	0.000	21.4	4	-22.5	18.2	1.04	 .0734	23	1	100.0	1
09/01/24	22:44	-18.8	-18.7	-18.8	78	-21.7	22.6	E	0.38	24.3	E	-32.7	-18.8	-32.7	745.9	0.026	0.000	21.3	4	-22.5	18.1	1.04	 .0734	24	1	100.0	1
09/01/24	22:45	-18.9	-18.8	-18.9	79	-21.6	23.5	E	0.39	24.3	E	-33.0	-18.9	-33.1	746.0	0.026	0.000	21.4	4	-22.5	18.2	1.04	 .0734	23	1	100.0	1
09/01/24	22:46	-19.1	-18.9	-19.1	78	-21.9	23.5	E	0.39	25.2	E	-33.2	-19.1	-33.3	745.9	0.026	0.000	21.4	4	-22.5	18.2	1.04	 .0734	24	1	100.0	1
09/01/24	22:47	-19.2	-19.1	-19.2	78	-22.1	24.3	E	0.41	25.2	E	-33.7	-19.3	-33.7	745.9	0.026	0.000	21.4	4	-22.5	18.2	1.04	 .0734	23	1	100.0	1
09/01/24	22:48	-19.4	-19.2	-19.4	78	-22.3	23.5	E	0.39	25.2	E	-33.7	-19.4	-33.7	745.9	0.026	0.000	21.4	4	-22.5	18.2	1.04	 .0734	23	1	100.0	1
09/01/24	22:49	-19.4	-19.4	-19.4	78	-22.3	24.3	E	0.41	25.2	E	-33.9	-19.5	-34.0	745.9	0.026	0.000	21.4	4	-22.5	18.2	1.04	 .0734	24	1	100.0	1
09/01/24	22:50	-19.4	-19.4	-19.4	78	-22.3	24.3	E	0.41	25.2	E	-33.9	-19.4	-33.9	745.9	0.026	0.000	21.4	4	-22.5	18.2	1.04	 .0734	23	1	100.0	1
09/01/24	22:51	-19.3	-19.3	-19.4	78	-22.2	23.5	E	0.39	25.2	E	-33.6	-19.4	-33.7	745.9	0.026	0.000	21.4	4	-22.5	18.2	1.04	 .0734	24	1	100.0	1
09/01/24	22:52	-19.4	-19.3	-19.4	78	-22.3	24.3	E	0.41	25.2	E	-33.9	-19.5	-34.0	745.9	0.026	0.000	21.4	4	-22.5	18.2	1.04	 .0734	23	1	100.0	1
09/01/24	22:53	-19.6	-19.4	-19.6	78	-22.4	23.5	E	0.39	24.3	E	-33.9	-19.6	-33.9	745.9	0.026	0.000	21.4	4	-22.5	18.2	1.04	 .0734	24	1	100.0	1
09/01/24	22:54	-19.7	-19.6	-19.7	78	-22.6	24.3	E	0.41	25.2	E	-34.3	-19.8	-34.4	745.9	0.026	0.000	21.4	4	-22.5	18.2	1.04	 .0734	23	1	100.0	1
09/01/24	22:55	-19.7	-19.7	-19.7	78	-22.5	23.5	E	0.39	25.2	E	-34.1	-19.7	-34.1	745.9	0.026	0.000	21.4	4	-22.5	18.2	1.04	 .0734	23	1	100.0	1
09/01/24	22:56	-19.6	-19.6	-19.7	78	-22.4	22.6	E	0.38	23.5	E	-33.7	-19.6	-33.8	745.9	0.026	0.000	21.3	4	-22.5	18.1	1.04	 .0734	24	1	100.0	1
09/01/24	22:57	-19.4	-19.4	-19.5	78	-22.3	22.6	E	0.38	24.3	E	-33.6	-19.5	-33.6	745.9	0.026	0.000	21.3	4	-22.5	18.1	1.04	 .0734	23	1	100.0	1
09/01/24	22:58	-19.3	-19.3	-19.4	78	-22.2	23.5	E	0.39	25.2	E	-33.6	-19.4	-33.7	745.9	0.026	0.000	21.3	4	-22.5	18.1	1.04	 .0734	24	1	100.0	1
09/01/24	22:59	-19.2	-19.2	-19.3	78	-22.0	22.6	E	0.38	24.3	E	-33.2	-19.2	-33.2	745.9	0.026	0.000	21.3	4	-22.5	18.1	1.04	 .0734	23	1	100.0	1
09/01/24	23:00	-19.1	-19.1	-19.2	78	-21.9	24.3	E	0.41	25.2	E	-33.4	-19.1	-33.5	745.9	0.026	0.000	21.3	4	-22.5	18.1	1.04	 .0734	23	1	100.0	1
09/01/24	23:01	-19.0	-19.0	-19.1	78	-21.9	24.3	E	0.41	26.1	E	-33.4	-19.1	-33.4	745.9	0.026	0.000	21.3	4	-22.5	18.1	1.04	 .0734	24	1	100.0	1
09/01/24	23:02	-18.9	-18.9	-19.0	78	-21.8	23.5	E	0.39	25.2	E	-33.0	-18.9	-33.1	745.9	0.026	0.000	21.3	4	-22.5	18.1	1.04	 .0734	23	1	100.0	1
09/01/24	23:03	-18.9	-18.9	-18.9	78	-21.8	23.5	E	0.39	24.3	E	-33.0	-18.9	-33.1	745.9	0.026	0.000	21.3	4	-22.5	18.1	1.04	 .0734	24	1	100.0	1
09/01/24	23:04	-18.9	-18.9	-18.9	78	-21.8	23.5	E	0.39	24.3	E	-33.0	-18.9	-33.1	745.9	0.026	0.000	21.3	4	-22.5	18.1	1.04	 .0734	23	1	100.0	1
09/01/24	23:05	-18.8	-18.8	-18.9	78	-21.7	24.3	E	0.41	25.2	E	-33.2	-18.9	-33.2	745.9	0.026	0.000	21.3	4	-22.5	18.1	1.04	 .0734	24	1	100.0	1
09/01/24	23:06	-19.0	-18.8	-19.0	78	-21.9	23.5	E	0.39	24.3	E	-33.2	-19.1	-33.2	745.9	0.026	0.000	21.2	4	-22.6	17.9	1.05	 .0734	23	1	100.0	1
09/01/24	23:07	-19.1	-19.0	-19.1	78	-22.0	23.5	E	0.39	24.3	E	-33.3	-19.2	-33.4	745.9	0.026	0.000	21.2	4	-22.6	17.9	1.05	 .0734	23	1	100.0	1
09/01/24	23:08	-19.1	-19.1	-19.2	78	-22.0	23.5	E	0.39	24.3	E	-33.3	-19.2	-33.4	745.9	0.026	0.000	21.2	4	-22.6	17.9	1.05	 .0734	24	1	100.0	1
09/01/24	23:09	-19.2	-19.1	-19.2	78	-22.0	23.5	E	0.39	25.2	E	-33.4	-19.2	-33.4	745.9	0.026	0.000	21.2	4	-22.6	17.9	1.05	 .0734	23	1	100.0	1
09/01/24	23:10	-19.1	-19.1	-19.1	78	-21.9	23.5	E	0.39	24.3	E	-33.2	-19.1	-33.3	745.9	0.026	0.000	21.2	4	-22.6	17.9	1.05	 .0734	24	1	100.0	1
09/01/24	23:11	-18.9	-18.9	-19.0	78	-21.8	23.5	E	0.39	24.3	E	-33.1	-19.0	-33.2	745.9	0.026	0.000	21.2	4	-22.6	17.9	1.05	 .0734	23	1	100.0	1
09/01/24	23:12	-18.9	-18.9	-18.9	78	-21.8	22.6	E	0.38	24.3	E	-32.8	-18.9	-32.9	745.9	0.026	0.000	21.2	4	-22.6	17.8	1.05	 .0735	23	1	100.0	1
09/01/24	23:13	-18.8	-18.8	-18.9	78	-21.7	23.5	E	0.39	24.3	E	-32.9	-18.8	-32.9	745.9	0.026	0.000	21.2	4	-22.6	17.8	1.05	 .0734	24	1	100.0	1
09/01/24	23:14	-18.7	-18.7	-18.8	77	-21.7	22.6	E	0.38	23.5	E	-32.5	-18.7	-32.6	745.9	0.026	0.000	21.2	4	-22.6	17.9	1.05	 .0734	23	1	100.0	1
09/01/24	23:15	-18.7	-18.7	-18.7	77	-21.7	22.6	E	0.38	24.3	E	-32.5	-18.7	-32.6	745.9	0.026	0.000	21.2	4	-22.6	17.9	1.05	 .0734	24	1	100.0	1
09/01/24	23:16	-18.7	-18.7	-18.7	77	-21.7	22.6	E	0.38	23.5	E	-32.5	-18.7	-32.6	746.0	0.026	0.000	21.2	4	-22.6	17.8	1.05	 .0735	23	1	100.0	1
09/01/24	23:17	-18.6	-18.6	-18.7	77	-21.6	21.7	E	0.36	23.5	E	-32.2	-18.6	-32.2	746.0	0.026	0.000	21.2	4	-22.6	17.9	1.05	 .0734	23	1	100.0	1
09/01/24	23:18	-18.3	-18.3	-18.6	77	-21.3	23.5	E	0.39	25.2	ESE	-32.2	-18.3	-32.2	745.9	0.025	0.000	21.2	4	-22.6	17.9	1.05	 .0734	24	1	100.0	1
09/01/24	23:19	-18.1	-18.1	-18.2	77	-21.1	21.7	E	0.36	24.3	E	-31.5	-18.1	-31.6	746.0	0.025	0.000	21.2	4	-22.6	17.9	1.05	 .0734	23	1	100.0	1
09/01/24	23:20	-17.9	-17.9	-18.1	77	-21.0	21.7	E	0.36	23.5	E	-31.3	-18.0	-31.4	746.0	0.025	0.000	21.2	4	-22.6	17.9	1.05	 .0734	24	1	100.0	1
09/01/24	23:21	-17.8	-17.8	-17.9	77	-20.8	22.6	E	0.38	24.3	E	-31.3	-17.8	-31.4	746.0	0.025	0.000	21.2	4	-22.6	17.9	1.05	 .0734	23	1	100.0	1
09/01/24	23:22	-17.7	-17.7	-17.8	77	-20.7	23.5	E	0.39	26.1	E	-31.4	-17.7	-31.4	746.0	0.025	0.000	21.3	4	-22.5	18.1	1.04	 .0734	24	1	100.0	1
09/01/24	23:23	-17.7	-17.6	-17.7	77	-20.7	20.9	E	0.35	23.5	E	-30.7	-17.7	-30.8	746.0	0.025	0.000	21.3	4	-22.5	18.1	1.04	 .0734	23	1	100.0	1
09/01/24	23:24	-17.7	-17.7	-17.7	77	-20.8	22.6	E	0.38	24.3	E	-31.2	-17.8	-31.3	746.0	0.025	0.000	21.3	4	-22.5	18.1	1.04	 .0734	23	1	100.0	1
09/01/24	23:25	-17.6	-17.6	-17.7	76	-20.8	21.7	E	0.36	24.3	E	-30.9	-17.7	-30.9	746.0	0.025	0.000	21.3	4	-22.5	18.1	1.04	 .0734	24	1	100.0	1
09/01/24	23:26	-17.4	-17.4	-17.6	76	-20.7	21.7	E	0.36	24.3	E	-30.7	-17.5	-30.7	746.0	0.025	0.000	21.3	4	-22.5	18.1	1.04	 .0734	23	1	100.0	1
09/01/24	23:27	-17.5	-17.4	-17.5	76	-20.7	20.0	E	0.33	21.7	E	-30.3	-17.6	-30.3	746.0	0.025	0.000	21.3	4	-22.5	18.1	1.04	 .0734	24	1	100.0	1
09/01/24	23:28	-17.7	-17.6	-17.7	76	-20.9	20.9	E	0.35	23.5	E	-30.8	-17.8	-30.9	746.0	0.025	0.000	21.3	4	-22.5	18.1	1.04	 .0734	23	1	100.0	1
09/01/24	23:29	-17.7	-17.7	-17.8	76	-20.9	21.7	E	0.36	22.6	E	-31.1	-17.8	-31.1	745.9	0.025	0.000	21.3	4	-22.5	18.1	1.04	 .0734	24	1	100.0	1
09/01/24	23:30	-17.6	-17.6	-17.7	76	-20.8	20.0	E	0.33	26.1	ESE	-30.4	-17.6	-30.4	746.0	0.025	0.000	21.3	4	-22.5	18.1	1.04	 .0734	23	1	100.0	1
09/01/24	23:31	-17.3	-17.3	-17.5	76	-20.5	20.9	E	0.35	23.5	E	-30.2	-17.3	-30.3	745.9	0.025	0.000	21.3	4	-22.5	18.1	1.04	 .0734	23	1	100.0	1
09/01/24	23:32	-17.3	-17.2	-17.3	76	-20.5	18.3	E	0.30	22.6	E	-29.6	-17.3	-29.6	746.0	0.025	0.000	21.3	4	-22.5	18.1	1.04	 .0734	24	1	100.0	1
09/01/24	23:33	-17.4	-17.3	-17.4	76	-20.6	21.7	E	0.36	24.3	E	-30.6	-17.4	-30.7	746.0	0.025	0.000	21.3	4	-22.5	18.1	1.04	 .0734	23	1	100.0	1
09/01/24	23:34	-17.3	-17.3	-17.3	76	-20.6	23.5	E	0.39	25.2	E	-30.9	-17.4	-31.0	745.9	0.025	0.000	21.3	4	-22.5	18.1	1.04	 .0734	24	1	100.0	1
09/01/24	23:35	-17.1	-17.1	-17.3	76	-20.3	22.6	E	0.38	25.2	E	-30.4	-17.2	-30.5	745.8	0.025	0.000	21.3	4	-22.5	18.1	1.04	 .0734	23	1	100.0	1
09/01/24	23:36	-17.0	-17.0	-17.1	75	-20.4	20.0	E	0.33	20.9	E	-29.6	-17.1	-29.7	745.9	0.025	0.000	21.4	4	-22.5	18.2	1.04	 .0734	23	1	100.0	1
09/01/24	23:37	-16.9	-16.9	-17.0	75	-20.3	19.1	ESE	0.32	20.9	E	-29.3	-17.0	-29.4	746.0	0.024	0.000	21.4	4	-22.5	18.2	1.04	 .0734	24	1	100.0	1
09/01/24	23:38	-17.0	-16.9	-17.0	75	-20.4	19.1	ESE	0.32	22.6	ESE	-29.4	-17.1	-29.4	746.0	0.025	0.000	21.4	4	-22.5	18.2	1.04	 .0734	23	1	100.0	1
09/01/24	23:39	-17.0	-17.0	-17.1	75	-20.4	22.6	ESE	0.38	27.8	ESE	-30.3	-17.1	-30.3	746.0	0.025	0.000	21.4	4	-22.5	18.2	1.04	 .0734	24	1	100.0	1
09/01/24	23:40	-16.6	-16.6	-16.9	75	-20.0	20.9	E	0.35	23.5	E	-29.3	-16.7	-29.4	746.0	0.024	0.000	21.4	4	-22.5	18.2	1.04	 .0734	23	1	100.0	1
09/01/24	23:41	-16.4	-16.4	-16.6	75	-19.8	21.7	ESE	0.36	24.3	E	-29.3	-16.4	-29.3	746.0	0.024	0.000	21.4	4	-22.5	18.2	1.04	 .0734	23	1	100.0	1
09/01/24	23:42	-15.7	-15.7	-16.3	75	-19.1	20.9	ESE	0.35	26.1	ESE	-28.2	-15.8	-28.2	746.0	0.024	0.000	21.4	4	-22.5	18.2	1.04	 .0734	24	1	100.0	1
09/01/24	23:43	-15.2	-15.2	-15.6	74	-18.8	20.9	ESE	0.35	24.3	ESE	-27.5	-15.3	-27.6	746.0	0.023	0.000	21.4	4	-22.5	18.2	1.04	 .0734	23	1	100.0	1
09/01/24	23:44	-15.2	-15.2	-15.3	73	-19.0	20.0	ESE	0.33	23.5	ESE	-27.3	-15.3	-27.4	746.0	0.023	0.000	21.4	4	-22.5	18.2	1.04	 .0734	24	1	100.0	1
09/01/24	23:45	-15.2	-15.2	-15.2	73	-19.0	20.9	ESE	0.35	23.5	ESE	-27.5	-15.3	-27.6	746.0	0.023	0.000	21.4	4	-22.5	18.2	1.04	 .0734	23	1	100.0	1
09/01/24	23:46	-15.3	-15.2	-15.3	72	-19.2	23.5	E	0.39	28.7	ESE	-28.2	-15.4	-28.3	746.0	0.023	0.000	21.4	4	-22.5	18.2	1.04	 .0734	24	1	100.0	1
09/01/24	23:47	-15.2	-15.2	-15.3	72	-19.1	20.9	ESE	0.35	24.3	ESE	-27.4	-15.3	-27.5	745.9	0.023	0.000	21.3	4	-22.5	18.1	1.04	 .0734	23	1	100.0	1
09/01/24	23:48	-15.3	-15.2	-15.3	72	-19.2	20.0	ESE	0.33	23.5	ESE	-27.3	-15.4	-27.4	746.0	0.023	0.000	21.4	4	-22.5	18.2	1.04	 .0734	23	1	100.0	1
09/01/24	23:49	-15.3	-15.3	-15.3	72	-19.2	21.7	ESE	0.36	26.1	ESE	-27.8	-15.4	-27.9	746.0	0.023	0.000	21.4	4	-22.5	18.2	1.04	 .0734	24	1	100.0	1
09/01/24	23:50	-15.2	-15.2	-15.3	72	-19.1	22.6	ESE	0.38	26.1	ESE	-27.9	-15.3	-28.0	746.0	0.023	0.000	21.3	4	-22.5	18.1	1.04	 .0734	23	1	100.0	1
09/01/24	23:51	-15.2	-15.2	-15.2	72	-19.1	20.9	ESE	0.35	23.5	ESE	-27.4	-15.3	-27.5	745.9	0.023	0.000	21.3	4	-22.5	18.1	1.04	 .0734	24	1	100.0	1
09/01/24	23:52	-15.1	-15.1	-15.2	72	-19.0	22.6	ESE	0.38	25.2	ESE	-27.7	-15.2	-27.8	745.9	0.023	0.000	21.3	4	-22.5	18.1	1.04	 .0734	23	1	100.0	1
09/01/24	23:53	-15.2	-15.1	-15.2	72	-19.1	22.6	ESE	0.38	23.5	ESE	-27.9	-15.3	-28.0	746.0	0.023	0.000	21.3	4	-22.5	18.1	1.04	 .0734	23	1	100.0	1
09/01/24	23:54	-15.3	-15.3	-15.3	72	-19.2	22.6	ESE	0.38	25.2	ESE	-28.1	-15.4	-28.2	746.0	0.023	0.000	21.3	4	-22.5	18.1	1.04	 .0734	24	1	100.0	1
09/01/24	23:55	-15.2	-15.2	-15.3	70	-19.5	21.7	ESE	0.36	24.3	ESE	-27.7	-15.3	-27.8	746.0	0.023	0.000	21.3	4	-22.5	18.1	1.04	 .0734	23	1	100.0	1
09/01/24	23:56	-15.3	-15.2	-15.3	71	-19.4	21.7	ESE	0.36	24.3	E	-27.8	-15.4	-27.9	746.0	0.023	0.000	21.3	4	-22.5	18.1	1.04	 .0734	24	1	100.0	1
09/01/24	23:57	-15.4	-15.3	-15.4	71	-19.5	22.6	ESE	0.38	25.2	ESE	-28.2	-15.6	-28.3	746.0	0.023	0.000	21.3	4	-22.5	18.1	1.04	 .0734	23	1	100.0	1
09/01/24	23:58	-15.6	-15.5	-15.6	70	-19.8	21.7	ESE	0.36	25.2	E	-28.2	-15.7	-28.3	746.0	0.024	0.000	21.2	4	-22.6	17.9	1.05	 .0734	23	1	100.0	1
09/01/24	23:59	-15.8	-15.7	-15.8	70	-20.0	22.6	ESE	0.38	27.8	ESE	-28.6	-15.9	-28.7	746.1	0.024	0.000	21.2	4	-22.6	17.9	1.05	 .0735	24	1	100.0	1
09/02/24	00:00	-15.7	-15.7	-15.7	70	-19.9	21.7	ESE	0.36	23.5	ESE	-28.3	-15.8	-28.4	746.0	0.024	0.000	21.2	4	-22.6	17.9	1.05	 .0734	23	1	100.0	1
09/02/24	0:01	-15.6	-15.6	-15.6	70	-19.8	21.7	ESE	0.36	23.5	E	-28.1	-15.7	-28.2	746.0	0.024	0.000	21.2	4	-22.6	17.9	1.05	 .0734	21	1	91.3	1
09/02/24	0:02	-15.6	-15.6	-15.6	70	-19.8	20.9	ESE	0.35	22.6	ESE	-27.9	-15.7	-28.1	746.1	0.024	0.000	21.2	4	-22.6	17.9	1.05	 .0735	23	1	100.0	1
09/02/24	0:03	-15.4	-15.4	-15.6	70	-19.6	21.7	ESE	0.36	24.3	ESE	-27.9	-15.5	-28.0	746.1	0.023	0.000	21.2	4	-22.6	17.9	1.05	 .0734	24	1	100.0	1
09/02/24	0:04	-15.4	-15.3	-15.4	70	-19.6	21.7	ESE	0.36	23.5	E	-27.9	-15.5	-28.0	746.1	0.023	0.000	21.2	4	-22.6	17.9	1.05	 .0735	23	1	100.0	1
09/02/24	0:05	-15.6	-15.4	-15.6	70	-19.8	21.7	ESE	0.36	24.3	ESE	-28.1	-15.7	-28.2	746.1	0.024	0.000	21.2	4	-22.6	17.9	1.05	 .0734	24	1	100.0	1
09/02/24	0:06	-15.8	-15.6	-15.8	70	-20.0	21.7	ESE	0.36	21.7	E	-28.4	-15.9	-28.6	746.1	0.024	0.000	21.2	4	-22.6	17.9	1.05	 .0735	23	1	100.0	1
09/02/24	0:07	-15.9	-15.8	-15.9	69	-20.3	22.6	ESE	0.38	23.5	ESE	-28.8	-16.0	-28.9	746.1	0.024	0.000	21.2	4	-22.6	17.9	1.05	 .0735	24	1	100.0	1
09/02/24	0:08	-16.1	-15.9	-16.1	69	-20.4	20.9	ESE	0.35	21.7	ESE	-28.6	-16.2	-28.7	746.1	0.024	0.000	21.3	4	-22.5	18.1	1.04	 .0734	23	1	100.0	1
09/02/24	0:09	-16.3	-16.1	-16.3	69	-20.6	20.9	ESE	0.35	24.3	ESE	-28.9	-16.4	-29.0	746.2	0.024	0.000	21.3	4	-22.5	18.1	1.04	 .0734	23	1	100.0	1
09/02/24	0:10	-16.5	-16.3	-16.5	68	-21.0	19.1	ESE	0.32	21.7	E	-28.7	-16.6	-28.8	746.2	0.024	0.000	21.3	4	-22.5	18.1	1.04	 .0734	24	1	100.0	1
09/02/24	0:11	-16.4	-16.4	-16.5	69	-20.8	21.7	E	0.36	25.2	ESE	-29.3	-16.6	-29.4	746.2	0.024	0.000	21.3	4	-22.5	18.1	1.04	 .0734	23	1	100.0	1
09/02/24	0:12	-16.3	-16.3	-16.4	69	-20.7	21.7	ESE	0.36	23.5	ESE	-29.2	-16.4	-29.3	746.2	0.024	0.000	21.3	4	-22.5	18.1	1.04	 .0734	24	1	100.0	1
09/02/24	0:13	-16.1	-16.1	-16.3	70	-20.3	22.6	ESE	0.38	23.5	ESE	-29.1	-16.2	-29.2	746.1	0.024	0.000	21.3	4	-22.5	18.1	1.04	 .0734	23	1	100.0	1
09/02/24	0:14	-15.9	-15.9	-16.1	69	-20.3	21.7	ESE	0.36	25.2	ESE	-28.6	-16.0	-28.7	746.1	0.024	0.000	21.3	4	-22.5	18.1	1.04	 .0734	23	1	100.0	1
09/02/24	0:15	-15.5	-15.5	-15.8	69	-19.9	21.7	ESE	0.36	25.2	ESE	-28.1	-15.6	-28.2	746.1	0.023	0.000	21.3	4	-22.5	18.1	1.04	 .0734	24	1	100.0	1
09/02/24	0:16	-15.3	-15.3	-15.4	68	-19.9	21.7	ESE	0.36	26.1	ESE	-27.8	-15.4	-27.9	746.1	0.023	0.000	21.3	4	-22.5	18.1	1.04	 .0734	23	1	100.0	1
09/02/24	0:17	-15.2	-15.2	-15.3	67	-20.0	20.9	ESE	0.35	23.5	ESE	-27.5	-15.3	-27.6	746.1	0.023	0.000	21.3	4	-22.5	18.1	1.04	 .0734	24	1	100.0	1
09/02/24	0:18	-15.1	-15.1	-15.2	67	-19.9	22.6	ESE	0.38	25.2	ESE	-27.7	-15.2	-27.8	746.1	0.023	0.000	21.3	4	-22.5	18.1	1.04	 .0734	23	1	100.0	1
09/02/24	0:19	-14.7	-14.7	-15.0	65	-19.8	23.5	ESE	0.39	28.7	ESE	-27.3	-14.8	-27.4	746.1	0.023	0.000	21.4	4	-22.5	18.2	1.04	 .0734	24	1	100.0	1
09/02/24	0:20	-14.3	-14.3	-14.7	63	-19.8	23.5	ESE	0.39	27.0	ESE	-26.8	-14.4	-26.9	746.0	0.023	0.000	21.3	4	-22.5	18.1	1.04	 .0734	23	1	100.0	1
09/02/24	0:21	-14.3	-14.2	-14.3	63	-19.8	23.5	ESE	0.39	28.7	ESE	-26.8	-14.4	-26.9	746.1	0.023	0.000	21.4	4	-22.5	18.2	1.04	 .0734	23	1	100.0	1
09/02/24	0:22	-14.4	-14.3	-14.4	64	-19.8	21.7	ESE	0.36	24.3	ESE	-26.7	-14.6	-26.8	746.1	0.023	0.000	21.4	4	-22.5	18.2	1.04	 .0734	24	1	100.0	1
09/02/24	0:23	-14.7	-14.5	-14.7	64	-20.0	22.6	ESE	0.38	24.3	ESE	-27.2	-14.8	-27.3	746.2	0.023	0.000	21.4	4	-22.5	18.2	1.04	 .0734	23	1	100.0	1
09/02/24	0:24	-14.8	-14.8	-14.8	64	-20.1	23.5	ESE	0.39	27.0	ESE	-27.6	-14.9	-27.7	746.1	0.023	0.000	21.4	4	-22.5	18.2	1.04	 .0734	24	1	100.0	1
09/02/24	0:25	-14.8	-14.8	-14.8	65	-20.0	21.7	ESE	0.36	24.3	E	-27.2	-14.9	-27.3	746.1	0.023	0.000	21.4	4	-22.5	18.2	1.04	 .0734	23	1	100.0	1
09/02/24	0:26	-14.9	-14.8	-14.9	66	-19.8	20.9	ESE	0.35	25.2	ESE	-27.1	-15.0	-27.2	746.1	0.023	0.000	21.4	4	-22.5	18.2	1.04	 .0734	23	1	100.0	1
09/02/24	0:27	-15.0	-14.9	-15.0	65	-20.1	20.9	ESE	0.35	24.3	ESE	-27.2	-15.1	-27.3	746.2	0.023	0.000	21.4	4	-22.5	18.2	1.04	 .0734	24	1	100.0	1
09/02/24	0:28	-15.0	-15.0	-15.1	65	-20.1	22.6	ESE	0.38	25.2	ESE	-27.6	-15.1	-27.7	746.1	0.023	0.000	21.4	4	-22.5	18.2	1.04	 .0734	23	1	100.0	1
09/02/24	0:29	-14.9	-14.9	-15.0	65	-20.0	23.5	ESE	0.39	26.1	ESE	-27.6	-15.0	-27.7	746.1	0.023	0.000	21.4	4	-22.5	18.2	1.04	 .0734	24	1	100.0	1
09/02/24	0:30	-14.8	-14.8	-14.8	65	-19.9	22.6	ESE	0.38	27.8	ESE	-27.3	-14.9	-27.4	746.1	0.023	0.000	21.4	4	-22.5	18.2	1.04	 .0734	23	1	100.0	1
09/02/24	0:31	-14.7	-14.7	-14.8	65	-19.8	20.9	ESE	0.35	26.1	E	-26.7	-14.8	-26.8	746.1	0.023	0.000	21.4	4	-22.5	18.2	1.04	 .0734	24	1	100.0	1
09/02/24	0:32	-14.4	-14.4	-14.6	64	-19.8	21.7	ESE	0.36	24.3	ESE	-26.7	-14.6	-26.8	746.1	0.023	0.000	21.4	4	-22.5	18.2	1.04	 .0734	23	1	100.0	1
09/02/24	0:33	-14.6	-14.4	-14.6	65	-19.7	20.9	E	0.35	23.5	E	-26.7	-14.7	-26.8	746.2	0.023	0.000	21.4	4	-22.5	18.2	1.04	 .0734	23	1	100.0	1
09/02/24	0:34	-14.8	-14.7	-14.8	64	-20.1	21.7	E	0.36	24.3	ESE	-27.1	-14.9	-27.2	746.2	0.023	0.000	21.4	4	-22.5	18.2	1.04	 .0734	24	1	100.0	1
09/02/24	0:35	-14.9	-14.8	-14.9	64	-20.2	21.7	E	0.36	27.0	ESE	-27.2	-15.0	-27.3	746.1	0.023	0.000	21.4	4	-22.5	18.2	1.04	 .0734	23	1	100.0	1
09/02/24	0:36	-14.9	-14.8	-14.9	65	-20.0	21.7	E	0.36	24.3	E	-27.2	-15.0	-27.3	746.2	0.023	0.000	21.4	4	-22.5	18.2	1.04	 .0734	24	1	100.0	1
09/02/24	0:37	-14.9	-14.9	-14.9	65	-20.1	21.7	E	0.36	22.6	ESE	-27.3	-15.1	-27.4	746.2	0.023	0.000	21.4	4	-22.5	18.2	1.04	 .0734	23	1	100.0	1
09/02/24	0:38	-15.0	-15.0	-15.0	65	-20.1	22.6	ESE	0.38	25.2	E	-27.6	-15.1	-27.7	746.1	0.023	0.000	21.3	4	-22.5	18.1	1.04	 .0734	23	1	100.0	1
09/02/24	0:39	-14.9	-14.9	-15.0	64	-20.2	20.9	ESE	0.35	24.3	ESE	-27.1	-15.0	-27.2	746.2	0.023	0.000	21.3	4	-22.5	18.1	1.04	 .0734	24	1	100.0	1
09/02/24	0:40	-14.8	-14.8	-14.8	64	-20.1	21.7	E	0.36	23.5	ESE	-27.2	-14.9	-27.3	746.2	0.023	0.000	21.3	4	-22.5	18.1	1.04	 .0734	23	1	100.0	1
09/02/24	0:41	-14.9	-14.8	-14.9	65	-20.1	20.0	E	0.33	23.5	ESE	-26.9	-15.1	-27.0	746.2	0.023	0.000	21.3	4	-22.5	18.1	1.04	 .0734	24	1	100.0	1
09/02/24	0:42	-14.9	-14.9	-14.9	65	-20.1	21.7	E	0.36	23.5	E	-27.3	-15.1	-27.4	746.3	0.023	0.000	21.3	4	-22.5	18.1	1.04	 .0735	23	1	100.0	1
09/02/24	0:43	-14.7	-14.7	-14.9	65	-19.9	21.7	E	0.36	24.3	ESE	-27.0	-14.8	-27.1	746.1	0.023	0.000	21.3	4	-22.5	18.1	1.04	 .0734	24	1	100.0	1
09/02/24	0:44	-14.4	-14.4	-14.7	65	-19.6	21.7	ESE	0.36	26.1	E	-26.7	-14.6	-26.8	746.1	0.023	0.000	21.3	4	-22.5	18.1	1.04	 .0734	23	1	100.0	1
09/02/24	0:45	-14.2	-14.2	-14.3	64	-19.5	19.1	ESE	0.32	22.6	E	-25.7	-14.3	-25.8	746.1	0.023	0.000	21.3	4	-22.5	18.1	1.04	 .0734	23	1	100.0	1
09/02/24	0:46	-14.0	-14.0	-14.1	64	-19.3	19.1	ESE	0.32	23.5	ESE	-25.4	-14.1	-25.6	746.2	0.022	0.000	21.2	4	-22.6	17.9	1.05	 .0735	24	1	100.0	1
09/02/24	0:47	-13.9	-13.9	-14.0	63	-19.5	22.6	ESE	0.38	24.3	ESE	-26.2	-14.1	-26.3	746.1	0.022	0.000	21.3	4	-22.5	18.1	1.04	 .0734	23	1	100.0	1
09/02/24	0:48	-13.7	-13.7	-13.9	61	-19.6	20.9	ESE	0.35	22.6	ESE	-25.5	-13.9	-25.7	746.1	0.022	0.000	21.2	4	-22.6	17.9	1.05	 .0734	24	1	100.0	1
09/02/24	0:49	-13.6	-13.6	-13.7	61	-19.5	20.0	ESE	0.33	21.7	ESE	-25.1	-13.8	-25.3	746.0	0.022	0.000	21.2	4	-22.6	17.9	1.05	 .0734	23	1	100.0	1
09/02/24	0:50	-13.6	-13.6	-13.6	61	-19.5	20.0	ESE	0.33	22.6	ESE	-25.1	-13.7	-25.2	746.0	0.022	0.000	21.2	4	-22.6	17.9	1.05	 .0734	23	1	100.0	1
09/02/24	0:51	-13.6	-13.6	-13.6	61	-19.5	19.1	ESE	0.32	24.3	ESE	-24.8	-13.7	-25.0	746.1	0.022	0.000	21.2	4	-22.6	17.9	1.05	 .0735	24	1	100.0	1
09/02/24	0:52	-13.7	-13.6	-13.7	61	-19.6	20.0	ESE	0.33	22.6	ESE	-25.2	-13.8	-25.4	746.1	0.022	0.000	21.2	4	-22.6	17.9	1.05	 .0734	23	1	100.0	1
09/02/24	0:53	-13.7	-13.7	-13.7	61	-19.6	20.9	ESE	0.35	25.2	ESE	-25.5	-13.9	-25.7	746.0	0.022	0.000	21.2	4	-22.6	17.9	1.05	 .0734	24	1	100.0	1
09/02/24	0:54	-13.6	-13.6	-13.7	60	-19.7	19.1	ESE	0.32	24.3	ESE	-24.8	-13.7	-25.0	746.1	0.022	0.000	21.2	4	-22.6	17.9	1.05	 .0735	23	1	100.0	1
09/02/24	0:55	-13.4	-13.4	-13.5	59	-19.7	20.0	ESE	0.33	21.7	ESE	-24.8	-13.6	-25.0	746.1	0.022	0.000	21.2	4	-22.6	17.9	1.05	 .0735	24	1	100.0	1
09/02/24	0:56	-13.4	-13.3	-13.4	59	-19.7	19.1	ESE	0.32	24.3	ESE	-24.6	-13.6	-24.8	746.1	0.022	0.000	21.2	4	-22.6	17.9	1.05	 .0735	23	1	100.0	1
09/02/24	0:57	-13.6	-13.4	-13.6	60	-19.7	18.3	E	0.30	20.9	ESE	-24.7	-13.8	-24.9	746.2	0.022	0.000	21.2	4	-22.6	17.8	1.05	 .0735	23	1	100.0	1
09/02/24	0:58	-13.9	-13.7	-13.9	60	-20.0	19.1	E	0.32	21.7	E	-25.3	-14.1	-25.4	746.1	0.022	0.000	21.2	4	-22.6	17.9	1.05	 .0735	24	1	100.0	1
09/02/24	0:59	-14.1	-13.9	-14.1	61	-20.0	17.4	ESE	0.29	20.0	ESE	-25.1	-14.2	-25.2	746.2	0.022	0.000	21.2	4	-22.6	17.9	1.05	 .0735	23	1	100.0	1
09/02/24	1:00	-13.9	-13.9	-14.1	61	-19.8	18.3	ESE	0.30	25.2	ESE	-25.2	-14.1	-25.3	746.2	0.022	0.000	21.2	4	-22.6	17.9	1.05	 .0735	24	1	100.0	1
09/02/24	1:01	-13.9	-13.9	-13.9	61	-19.8	15.7	ESE	0.26	17.4	ESE	-24.4	-14.1	-24.6	746.2	0.022	0.000	21.2	4	-22.6	17.9	1.05	 .0735	23	1	100.0	1
09/02/24	1:02	-14.0	-14.0	-14.0	61	-19.9	16.5	E	0.28	20.0	E	-24.7	-14.2	-24.9	746.2	0.022	0.000	21.2	4	-22.6	17.9	1.05	 .0735	23	1	100.0	1
09/02/24	1:03	-14.0	-14.0	-14.0	61	-19.9	17.4	E	0.29	20.0	E	-25.0	-14.2	-25.2	746.2	0.022	0.000	21.3	4	-22.5	18.1	1.04	 .0734	24	1	100.0	1
09/02/24	1:04	-14.0	-14.0	-14.0	61	-19.9	15.7	E	0.26	17.4	E	-24.5	-14.2	-24.7	746.2	0.022	0.000	21.3	4	-22.5	18.1	1.04	 .0734	23	1	100.0	1
09/02/24	1:05	-13.9	-13.9	-13.9	60	-20.0	17.4	E	0.29	20.9	E	-24.8	-14.1	-25.0	746.2	0.022	0.000	21.3	4	-22.5	18.1	1.04	 .0734	24	1	100.0	1
09/02/24	1:06	-13.8	-13.8	-13.8	59	-20.1	19.1	E	0.32	22.6	E	-25.2	-13.9	-25.3	746.2	0.022	0.000	21.3	4	-22.5	18.1	1.04	 .0734	23	1	100.0	1
09/02/24	1:07	-13.8	-13.8	-13.8	59	-20.1	17.4	E	0.29	20.0	ESE	-24.8	-14.0	-24.9	746.3	0.022	0.000	21.3	4	-22.5	18.1	1.04	 .0735	23	1	100.0	1
09/02/24	1:08	-14.1	-13.9	-14.1	60	-20.1	19.1	E	0.32	22.6	ESE	-25.5	-14.2	-25.7	746.2	0.022	0.000	21.3	4	-22.5	18.1	1.04	 .0734	24	1	100.0	1
09/02/24	1:09	-14.2	-14.1	-14.2	60	-20.3	17.4	E	0.29	20.0	ESE	-25.3	-14.4	-25.4	746.2	0.023	0.000	21.3	4	-22.5	18.1	1.04	 .0735	23	1	100.0	1
09/02/24	1:10	-14.4	-14.3	-14.4	61	-20.3	16.5	E	0.28	21.7	E	-25.3	-14.6	-25.5	746.3	0.023	0.000	21.3	4	-22.5	18.1	1.04	 .0734	24	1	100.0	1
09/02/24	1:11	-14.5	-14.5	-14.5	61	-20.4	18.3	E	0.30	20.9	E	-25.9	-14.7	-26.1	746.3	0.023	0.000	21.3	4	-22.5	18.1	1.04	 .0734	23	1	100.0	1
09/02/24	1:12	-14.6	-14.5	-14.6	62	-20.2	16.5	E	0.28	18.3	E	-25.4	-14.7	-25.6	746.2	0.023	0.000	21.3	4	-22.5	18.1	1.04	 .0734	24	1	100.0	1
09/02/24	1:13	-14.6	-14.6	-14.6	61	-20.5	18.3	E	0.30	20.0	ESE	-26.0	-14.8	-26.2	746.2	0.023	0.000	21.3	4	-22.5	18.1	1.04	 .0734	23	1	100.0	1
09/02/24	1:14	-14.7	-14.6	-14.7	61	-20.6	17.4	E	0.29	20.9	E	-25.9	-14.8	-26.1	746.2	0.023	0.000	21.3	4	-22.5	18.1	1.04	 .0734	23	1	100.0	1
09/02/24	1:15	-14.9	-14.8	-14.9	61	-20.8	17.4	E	0.29	20.0	E	-26.2	-15.1	-26.3	746.2	0.023	0.000	21.3	4	-22.5	18.1	1.04	 .0734	24	1	100.0	1
09/02/24	1:16	-15.2	-15.0	-15.2	61	-21.0	17.4	E	0.29	18.3	E	-26.5	-15.3	-26.6	746.2	0.023	0.000	21.4	4	-22.5	18.2	1.04	 .0734	23	1	100.0	1
09/02/24	1:17	-15.4	-15.2	-15.4	61	-21.2	17.4	E	0.29	20.9	ESE	-26.8	-15.5	-26.9	746.2	0.023	0.000	21.4	4	-22.5	18.2	1.04	 .0734	24	1	100.0	1
09/02/24	1:18	-15.5	-15.4	-15.5	61	-21.3	18.3	E	0.30	20.0	E	-27.2	-15.6	-27.3	746.1	0.023	0.000	21.4	4	-22.5	18.2	1.04	 .0734	23	1	100.0	1
09/02/24	1:19	-15.4	-15.4	-15.5	62	-21.0	18.3	E	0.30	20.0	E	-27.1	-15.5	-27.2	746.2	0.023	0.000	21.4	4	-22.5	18.2	1.04	 .0734	23	1	100.0	1
09/02/24	1:20	-15.3	-15.3	-15.4	62	-21.0	17.4	E	0.29	18.3	E	-26.7	-15.4	-26.8	746.2	0.023	0.000	21.4	4	-22.5	18.2	1.04	 .0734	24	1	100.0	1
09/02/24	1:21	-15.4	-15.4	-15.4	62	-21.0	17.4	E	0.29	20.0	ESE	-26.8	-15.5	-26.9	746.1	0.023	0.000	21.4	4	-22.4	18.3	1.04	 .0734	23	1	100.0	1
09/02/24	1:22	-15.4	-15.4	-15.4	62	-21.1	18.3	E	0.30	20.0	E	-27.1	-15.6	-27.2	746.1	0.023	0.000	21.4	4	-22.5	18.2	1.04	 .0734	24	1	100.0	1
09/02/24	1:23	-15.3	-15.3	-15.4	62	-20.9	16.5	E	0.28	20.9	ESE	-26.4	-15.4	-26.5	746.0	0.023	0.000	21.4	5	-19.9	18.3	1.25	 .0734	23	1	100.0	1
09/02/24	1:24	-15.2	-15.2	-15.3	62	-20.8	17.4	ESE	0.29	19.1	ESE	-26.5	-15.3	-26.6	746.1	0.023	0.000	21.4	5	-19.9	18.3	1.25	 .0734	24	1	100.0	1
09/02/24	1:25	-15.0	-15.0	-15.2	62	-20.7	16.5	ESE	0.28	20.0	ESE	-26.1	-15.1	-26.2	746.2	0.023	0.000	21.4	5	-19.9	18.3	1.25	 .0734	23	1	100.0	1
09/02/24	1:26	-14.7	-14.7	-14.9	63	-20.2	18.3	ESE	0.30	20.9	ESE	-26.2	-14.8	-26.3	746.2	0.023	0.000	21.4	5	-19.9	18.3	1.25	 .0734	23	1	100.0	1
09/02/24	1:27	-14.7	-14.6	-14.7	62	-20.3	16.5	E	0.28	18.3	E	-25.6	-14.8	-25.7	746.2	0.023	0.000	21.4	5	-19.9	18.3	1.25	 .0734	24	1	100.0	1
09/02/24	1:28	-14.8	-14.7	-14.8	61	-20.6	18.3	E	0.30	20.9	E	-26.2	-14.9	-26.3	746.2	0.023	0.000	21.5	5	-19.8	18.4	1.25	 .0734	23	1	100.0	1
09/02/24	1:29	-14.7	-14.7	-14.8	61	-20.6	17.4	E	0.29	20.9	E	-25.9	-14.8	-26.1	746.1	0.023	0.000	21.5	5	-19.8	18.4	1.25	 .0734	24	1	100.0	1
09/02/24	1:30	-14.9	-14.7	-14.9	61	-20.8	17.4	E	0.29	19.1	ESE	-26.2	-15.1	-26.3	746.2	0.023	0.000	21.5	5	-19.8	18.4	1.25	 .0734	23	1	100.0	1
09/02/24	1:31	-15.2	-15.0	-15.2	60	-21.2	20.0	E	0.33	20.9	E	-27.2	-15.3	-27.3	746.2	0.023	0.000	21.5	5	-19.8	18.4	1.25	 .0734	23	1	100.0	1
09/02/24	1:32	-15.4	-15.2	-15.4	60	-21.4	19.1	E	0.32	22.6	E	-27.3	-15.5	-27.4	746.1	0.023	0.000	21.5	5	-19.8	18.4	1.25	 .0734	24	1	100.0	1
09/02/24	1:33	-15.4	-15.4	-15.5	59	-21.7	19.1	E	0.32	21.7	E	-27.3	-15.6	-27.4	746.1	0.023	0.000	21.4	5	-19.9	18.3	1.25	 .0734	23	1	100.0	1
09/02/24	1:34	-15.4	-15.4	-15.4	59	-21.7	16.5	ESE	0.28	20.0	E	-26.6	-15.6	-26.7	746.2	0.023	0.000	21.4	5	-19.9	18.3	1.25	 .0734	24	1	100.0	1
09/02/24	1:35	-15.6	-15.4	-15.6	60	-21.6	18.3	E	0.30	20.9	E	-27.3	-15.7	-27.4	746.2	0.024	0.000	21.5	5	-19.8	18.4	1.25	 .0734	23	1	100.0	1
09/02/24	1:36	-15.7	-15.6	-15.7	60	-21.7	18.3	E	0.30	20.9	ESE	-27.4	-15.8	-27.5	746.2	0.024	0.000	21.5	5	-19.8	18.4	1.25	 .0734	23	1	100.0	1
09/02/24	1:37	-15.7	-15.7	-15.7	60	-21.7	19.1	E	0.32	20.9	ESE	-27.7	-15.8	-27.8	746.1	0.024	0.000	21.5	5	-19.8	18.4	1.25	 .0734	24	1	100.0	1
09/02/24	1:38	-15.7	-15.7	-15.7	60	-21.7	20.0	ESE	0.33	21.7	E	-27.9	-15.8	-28.0	746.2	0.024	0.000	21.5	5	-19.8	18.4	1.25	 .0734	23	1	100.0	1
09/02/24	1:39	-15.5	-15.5	-15.7	60	-21.5	18.3	E	0.30	21.7	ESE	-27.2	-15.6	-27.3	746.2	0.023	0.000	21.5	5	-19.8	18.4	1.25	 .0734	24	1	100.0	1
09/02/24	1:40	-15.3	-15.3	-15.4	61	-21.1	20.0	ESE	0.33	22.6	ESE	-27.3	-15.4	-27.4	746.2	0.023	0.000	21.4	5	-19.9	18.3	1.25	 .0734	23	1	100.0	1
09/02/24	1:41	-14.9	-14.9	-15.2	62	-20.6	19.1	ESE	0.32	23.5	ESE	-26.7	-15.1	-26.8	746.3	0.023	0.000	21.5	5	-19.8	18.4	1.25	 .0734	24	1	100.0	1
09/02/24	1:42	-14.7	-14.7	-14.8	61	-20.5	20.0	ESE	0.33	20.9	ESE	-26.6	-14.8	-26.7	746.3	0.023	0.000	21.4	5	-19.9	18.3	1.25	 .0734	23	1	100.0	1
09/02/24	1:43	-14.7	-14.6	-14.7	60	-20.7	19.1	E	0.32	20.0	ESE	-26.3	-14.8	-26.5	746.3	0.023	0.000	21.4	5	-19.9	18.3	1.25	 .0734	23	1	100.0	1
09/02/24	1:44	-14.8	-14.7	-14.8	59	-21.1	18.3	ESE	0.30	20.0	E	-26.3	-14.9	-26.4	746.3	0.023	0.000	21.5	5	-19.8	18.4	1.25	 .0734	24	1	100.0	1
09/02/24	1:45	-15.2	-14.9	-15.2	59	-21.4	18.3	E	0.30	20.9	ESE	-26.8	-15.3	-26.9	746.3	0.023	0.000	21.4	5	-19.9	18.3	1.25	 .0734	23	1	100.0	1
09/02/24	1:46	-15.4	-15.2	-15.4	58	-21.9	18.3	E	0.30	21.7	E	-27.1	-15.6	-27.2	746.3	0.023	0.000	21.4	5	-19.9	18.3	1.25	 .0734	24	1	100.0	1
09/02/24	1:47	-15.6	-15.5	-15.6	59	-21.8	20.9	E	0.35	21.7	E	-27.9	-15.7	-28.1	746.3	0.024	0.000	21.5	5	-19.8	18.4	1.25	 .0734	23	1	100.0	1
09/02/24	1:48	-15.7	-15.6	-15.7	60	-21.7	19.1	E	0.32	20.9	ESE	-27.7	-15.8	-27.8	746.3	0.024	0.000	21.4	5	-19.9	18.3	1.25	 .0734	23	1	100.0	1
09/02/24	1:49	-15.8	-15.7	-15.8	59	-22.0	20.9	E	0.35	22.6	E	-28.3	-15.9	-28.4	746.3	0.024	0.000	21.5	5	-19.8	18.4	1.25	 .0734	24	1	100.0	1
09/02/24	1:50	-15.8	-15.8	-15.8	60	-21.8	21.7	ESE	0.36	22.6	E	-28.4	-15.9	-28.6	746.3	0.024	0.000	21.5	5	-19.8	18.4	1.25	 .0734	23	1	100.0	1
09/02/24	1:51	-15.6	-15.6	-15.7	60	-21.6	20.9	E	0.35	22.6	ESE	-28.0	-15.7	-28.1	746.3	0.024	0.000	21.5	5	-19.8	18.4	1.25	 .0734	24	1	100.0	1
09/02/24	1:52	-15.4	-15.4	-15.6	61	-21.2	20.9	ESE	0.35	22.6	ESE	-27.7	-15.5	-27.8	746.3	0.023	0.000	21.5	5	-19.8	18.4	1.25	 .0734	23	1	100.0	1
09/02/24	1:53	-15.2	-15.2	-15.3	61	-21.0	20.0	ESE	0.33	21.7	ESE	-27.2	-15.3	-27.3	746.3	0.023	0.000	21.5	5	-19.8	18.4	1.25	 .0734	24	1	100.0	1
09/02/24	1:54	-15.1	-15.1	-15.2	60	-21.1	20.9	E	0.35	21.7	ESE	-27.3	-15.2	-27.4	746.3	0.023	0.000	21.5	5	-19.8	18.4	1.25	 .0734	23	1	100.0	1
09/02/24	1:55	-15.1	-15.1	-15.1	60	-21.1	20.0	E	0.33	21.7	E	-27.1	-15.2	-27.2	746.3	0.023	0.000	21.5	5	-19.8	18.4	1.25	 .0734	23	1	100.0	1
09/02/24	1:56	-15.2	-15.2	-15.2	59	-21.4	21.7	E	0.36	22.6	ESE	-27.7	-15.3	-27.8	746.3	0.023	0.000	21.5	5	-19.8	18.4	1.25	 .0734	24	1	100.0	1
09/02/24	1:57	-15.2	-15.2	-15.3	59	-21.4	20.9	E	0.35	21.7	E	-27.5	-15.3	-27.6	746.2	0.023	0.000	21.5	5	-19.8	18.4	1.25	 .0734	23	1	100.0	1
09/02/24	1:58	-15.3	-15.3	-15.3	59	-21.5	22.6	ESE	0.38	23.5	ESE	-27.9	-15.4	-28.1	746.2	0.023	0.000	21.6	5	-19.8	18.6	1.25	 .0734	24	1	100.0	1
09/02/24	1:59	-15.2	-15.2	-15.3	59	-21.4	22.6	ESE	0.38	23.5	ESE	-27.8	-15.3	-27.9	746.2	0.023	0.000	21.6	5	-19.8	18.6	1.25	 .0734	23	1	100.0	1
09/02/24	2:00	-15.2	-15.2	-15.2	59	-21.4	22.6	ESE	0.38	23.5	ESE	-27.9	-15.3	-28.0	746.2	0.023	0.000	21.6	5	-19.8	18.6	1.25	 .0734	23	1	100.0	1
09/02/24	2:01	-15.2	-15.2	-15.2	59	-21.4	21.7	E	0.36	22.6	E	-27.6	-15.3	-27.7	746.2	0.023	0.000	21.6	5	-19.8	18.6	1.25	 .0734	24	1	100.0	1
09/02/24	2:02	-15.1	-15.1	-15.2	59	-21.3	21.7	E	0.36	22.6	E	-27.4	-15.2	-27.6	746.2	0.023	0.000	21.6	5	-19.8	18.6	1.25	 .0734	23	1	100.0	1
09/02/24	2:03	-15.2	-15.1	-15.2	59	-21.4	21.7	E	0.36	23.5	E	-27.7	-15.3	-27.8	746.2	0.023	0.000	21.6	5	-19.7	18.6	1.25	 .0733	24	1	100.0	1
09/02/24	2:04	-15.4	-15.3	-15.4	58	-21.9	20.9	E	0.35	23.5	E	-27.8	-15.6	-27.9	746.2	0.023	0.000	21.6	5	-19.7	18.6	1.25	 .0733	23	1	100.0	1
09/02/24	2:05	-15.5	-15.4	-15.5	58	-21.9	22.6	E	0.38	23.5	E	-28.3	-15.6	-28.4	746.2	0.023	0.000	21.6	5	-19.7	18.6	1.25	 .0733	24	1	100.0	1
09/02/24	2:06	-15.6	-15.5	-15.6	59	-21.8	23.5	E	0.39	25.2	E	-28.6	-15.7	-28.7	746.2	0.024	0.000	21.6	5	-19.7	18.6	1.25	 .0733	23	1	100.0	1
09/02/24	2:07	-15.5	-15.5	-15.6	59	-21.7	23.5	E	0.39	24.3	E	-28.4	-15.6	-28.6	746.3	0.023	0.000	21.6	5	-19.7	18.6	1.25	 .0733	23	1	100.0	1
09/02/24	2:08	-15.4	-15.4	-15.5	60	-21.5	23.5	E	0.39	25.2	ESE	-28.4	-15.6	-28.5	746.2	0.023	0.000	21.6	5	-19.7	18.6	1.25	 .0733	24	1	100.0	1
09/02/24	2:09	-15.4	-15.4	-15.4	60	-21.4	24.3	E	0.41	26.1	ESE	-28.5	-15.5	-28.6	746.2	0.023	0.000	21.6	5	-19.7	18.6	1.25	 .0733	23	1	100.0	1
09/02/24	2:10	-15.3	-15.3	-15.3	60	-21.3	22.6	E	0.38	23.5	E	-27.9	-15.4	-28.1	746.2	0.023	0.000	21.6	5	-19.7	18.6	1.25	 .0733	24	1	100.0	1
09/02/24	2:11	-15.3	-15.3	-15.3	60	-21.3	21.7	ESE	0.36	22.6	ESE	-27.8	-15.4	-27.9	746.2	0.023	0.000	21.6	5	-19.7	18.6	1.25	 .0733	23	1	100.0	1
09/02/24	2:12	-15.3	-15.3	-15.3	60	-21.3	21.7	E	0.36	23.5	E	-27.8	-15.4	-27.9	746.2	0.023	0.000	21.6	5	-19.7	18.6	1.25	 .0733	23	1	100.0	1
09/02/24	2:13	-15.3	-15.3	-15.3	60	-21.3	21.7	E	0.36	23.5	ESE	-27.8	-15.4	-27.9	746.2	0.023	0.000	21.6	5	-19.7	18.6	1.25	 .0733	24	1	100.0	1
09/02/24	2:14	-15.3	-15.3	-15.3	59	-21.5	21.7	ESE	0.36	23.5	ESE	-27.8	-15.4	-27.9	746.3	0.023	0.000	21.6	5	-19.7	18.6	1.25	 .0734	23	1	100.0	1
09/02/24	2:15	-15.3	-15.3	-15.3	59	-21.5	20.9	E	0.35	22.6	E	-27.6	-15.4	-27.7	746.2	0.023	0.000	21.6	5	-19.7	18.6	1.25	 .0733	24	1	100.0	1
09/02/24	2:16	-15.3	-15.3	-15.4	60	-21.3	22.6	E	0.38	23.5	E	-27.9	-15.4	-28.1	746.2	0.023	0.000	21.6	5	-19.8	18.6	1.25	 .0734	23	1	100.0	1
09/02/24	2:17	-15.2	-15.2	-15.3	60	-21.2	22.6	E	0.38	24.3	E	-27.8	-15.3	-27.9	746.2	0.023	0.000	21.6	5	-19.8	18.6	1.25	 .0734	23	1	100.0	1
09/02/24	2:18	-15.1	-15.1	-15.2	60	-21.1	21.7	ESE	0.36	22.6	ESE	-27.4	-15.2	-27.6	746.2	0.023	0.000	21.6	5	-19.8	18.6	1.25	 .0734	24	1	100.0	1
09/02/24	2:19	-15.1	-15.1	-15.1	59	-21.3	21.7	ESE	0.36	22.6	E	-27.4	-15.2	-27.6	746.2	0.023	0.000	21.5	5	-19.8	18.4	1.25	 .0734	23	1	100.0	1
09/02/24	2:20	-15.1	-15.1	-15.1	59	-21.3	20.9	ESE	0.35	22.6	ESE	-27.3	-15.2	-27.4	746.3	0.023	0.000	21.5	5	-19.8	18.4	1.25	 .0734	24	1	100.0	1
09/02/24	2:21	-14.9	-14.9	-15.0	59	-21.2	22.6	ESE	0.38	23.5	E	-27.5	-15.1	-27.6	746.2	0.023	0.000	21.5	5	-19.8	18.4	1.25	 .0734	23	1	100.0	1
09/02/24	2:22	-15.0	-14.9	-15.0	58	-21.4	22.6	ESE	0.38	24.3	ESE	-27.6	-15.1	-27.7	746.2	0.023	0.000	21.5	5	-19.8	18.4	1.25	 .0734	24	1	100.0	1
09/02/24	2:23	-14.9	-14.9	-15.0	58	-21.4	22.6	E	0.38	23.5	ESE	-27.5	-15.1	-27.6	746.2	0.023	0.000	21.5	5	-19.8	18.4	1.25	 .0734	23	1	100.0	1
09/02/24	2:24	-14.9	-14.9	-14.9	59	-21.1	22.6	ESE	0.38	24.3	ESE	-27.4	-15.0	-27.6	746.2	0.023	0.000	21.4	5	-19.9	18.3	1.25	 .0734	23	1	100.0	1
09/02/24	2:25	-14.9	-14.9	-14.9	59	-21.1	21.7	ESE	0.36	23.5	ESE	-27.2	-15.0	-27.3	746.2	0.023	0.000	21.4	5	-19.9	18.3	1.25	 .0734	24	1	100.0	1
09/02/24	2:26	-15.0	-14.9	-15.0	59	-21.2	21.7	ESE	0.36	24.3	ESE	-27.4	-15.1	-27.5	746.2	0.023	0.000	21.4	5	-19.9	18.3	1.25	 .0734	23	1	100.0	1
09/02/24	2:27	-15.0	-15.0	-15.1	59	-21.2	22.6	ESE	0.38	25.2	ESE	-27.6	-15.1	-27.7	746.2	0.023	0.000	21.4	5	-19.9	18.3	1.25	 .0734	24	1	100.0	1
09/02/24	2:28	-15.0	-15.0	-15.0	59	-21.2	23.5	E	0.39	24.3	ESE	-27.8	-15.1	-27.9	746.2	0.023	0.000	21.4	5	-19.9	18.3	1.25	 .0734	23	1	100.0	1
09/02/24	2:29	-14.9	-14.9	-15.0	59	-21.2	23.5	ESE	0.39	25.2	ESE	-27.7	-15.1	-27.8	746.2	0.023	0.000	21.4	5	-19.9	18.3	1.25	 .0734	23	1	100.0	1
09/02/24	2:30	-14.9	-14.9	-14.9	59	-21.2	23.5	E	0.39	25.2	ESE	-27.7	-15.1	-27.8	746.2	0.023	0.000	21.4	5	-19.9	18.3	1.25	 .0734	24	1	100.0	1
09/02/24	2:31	-14.9	-14.9	-14.9	59	-21.2	22.6	E	0.38	24.3	E	-27.5	-15.1	-27.6	746.2	0.023	0.000	21.4	5	-19.9	18.3	1.25	 .0734	23	1	100.0	1
09/02/24	2:32	-14.9	-14.9	-14.9	59	-21.2	23.5	ESE	0.39	25.2	E	-27.7	-15.1	-27.8	746.2	0.023	0.000	21.4	5	-19.9	18.3	1.25	 .0734	24	1	100.0	1
09/02/24	2:33	-15.1	-14.9	-15.1	58	-21.5	24.3	ESE	0.41	26.1	ESE	-28.1	-15.2	-28.2	746.2	0.023	0.000	21.4	5	-19.9	18.3	1.25	 .0734	23	1	100.0	1
09/02/24	2:34	-15.2	-15.1	-15.2	58	-21.6	24.3	ESE	0.41	25.2	ESE	-28.2	-15.3	-28.3	746.2	0.023	0.000	21.4	5	-19.9	18.3	1.25	 .0734	24	1	100.0	1
09/02/24	2:35	-15.2	-15.2	-15.2	58	-21.6	24.3	ESE	0.41	25.2	ESE	-28.3	-15.3	-28.4	746.2	0.023	0.000	21.4	5	-19.9	18.3	1.25	 .0734	23	1	100.0	1
09/02/24	2:36	-15.2	-15.2	-15.3	59	-21.4	24.3	ESE	0.41	25.2	ESE	-28.3	-15.3	-28.4	746.2	0.023	0.000	21.4	5	-19.9	18.3	1.25	 .0734	23	1	100.0	1
09/02/24	2:37	-15.1	-15.1	-15.2	59	-21.3	24.3	ESE	0.41	25.2	ESE	-28.1	-15.2	-28.2	746.1	0.023	0.000	21.4	5	-19.9	18.3	1.25	 .0734	24	1	100.0	1
09/02/24	2:38	-15.2	-15.1	-15.2	60	-21.2	24.3	ESE	0.41	26.1	ESE	-28.2	-15.3	-28.3	746.2	0.023	0.000	21.4	5	-19.9	18.3	1.25	 .0734	23	1	100.0	1
09/02/24	2:39	-15.4	-15.2	-15.4	59	-21.6	24.3	ESE	0.41	25.2	ESE	-28.5	-15.5	-28.6	746.2	0.023	0.000	21.5	5	-19.8	18.4	1.25	 .0734	24	1	100.0	1
09/02/24	2:40	-15.5	-15.4	-15.5	59	-21.7	24.3	ESE	0.41	26.1	ESE	-28.7	-15.6	-28.8	746.2	0.023	0.000	21.5	5	-19.8	18.4	1.25	 .0734	23	1	100.0	1
09/02/24	2:41	-15.5	-15.5	-15.6	59	-21.7	25.2	ESE	0.42	26.1	ESE	-28.8	-15.6	-28.9	746.2	0.023	0.000	21.5	5	-19.8	18.4	1.25	 .0734	23	1	100.0	1
09/02/24	2:42	-15.6	-15.6	-15.6	60	-21.6	24.3	ESE	0.41	26.1	ESE	-28.7	-15.7	-28.8	746.2	0.024	0.000	21.5	5	-19.8	18.4	1.25	 .0734	24	1	100.0	1
09/02/24	2:43	-15.6	-15.6	-15.6	60	-21.6	25.2	ESE	0.42	26.1	ESE	-29.0	-15.7	-29.1	746.3	0.024	0.000	21.5	5	-19.8	18.4	1.25	 .0734	23	1	100.0	1
09/02/24	2:44	-15.6	-15.6	-15.6	60	-21.6	24.3	ESE	0.41	26.1	ESE	-28.7	-15.7	-28.8	746.2	0.024	0.000	21.5	5	-19.8	18.4	1.25	 .0734	24	1	100.0	1
09/02/24	2:45	-15.4	-15.4	-15.6	61	-21.3	24.3	ESE	0.41	25.2	ESE	-28.6	-15.6	-28.7	746.3	0.023	0.000	21.6	5	-19.8	18.6	1.25	 .0734	23	1	100.0	1
09/02/24	2:46	-15.4	-15.4	-15.4	61	-21.2	25.2	ESE	0.42	26.1	ESE	-28.7	-15.5	-28.8	746.3	0.023	0.000	21.6	5	-19.8	18.6	1.25	 .0734	24	1	100.0	1
09/02/24	2:47	-15.4	-15.4	-15.4	61	-21.2	24.3	ESE	0.41	26.1	ESE	-28.5	-15.5	-28.6	746.2	0.023	0.000	21.6	5	-19.8	18.6	1.25	 .0734	23	1	100.0	1
09/02/24	2:48	-15.3	-15.3	-15.3	61	-21.2	23.5	ESE	0.39	26.1	ESE	-28.2	-15.4	-28.3	746.2	0.023	0.000	21.6	5	-19.7	18.6	1.25	 .0733	23	1	100.0	1
09/02/24	2:49	-15.3	-15.3	-15.4	61	-21.2	25.2	ESE	0.42	26.1	ESE	-28.6	-15.4	-28.7	746.2	0.023	0.000	21.6	5	-19.7	18.6	1.25	 .0733	24	1	100.0	1
09/02/24	2:50	-15.3	-15.3	-15.3	61	-21.1	25.2	ESE	0.42	27.0	ESE	-28.5	-15.4	-28.6	746.6	0.023	0.000	21.6	5	-19.7	18.6	1.25	 .0734	23	1	100.0	1
09/02/24	2:51	-15.1	-15.1	-15.2	61	-20.9	23.5	ESE	0.39	25.2	ESE	-27.8	-15.2	-27.9	746.2	0.023	0.000	21.6	5	-19.7	18.6	1.25	 .0733	24	1	100.0	1
09/02/24	2:52	-15.2	-15.1	-15.2	60	-21.2	23.5	ESE	0.39	24.3	ESE	-28.0	-15.3	-28.1	746.3	0.023	0.000	21.7	5	-19.7	18.7	1.25	 .0733	23	1	100.0	1
09/02/24	2:53	-15.2	-15.2	-15.2	60	-21.2	22.6	ESE	0.38	25.2	ESE	-27.8	-15.3	-27.9	746.3	0.023	0.000	21.7	5	-19.7	18.7	1.25	 .0733	23	1	100.0	1
09/02/24	2:54	-14.9	-14.9	-15.1	60	-21.0	25.2	E	0.42	29.6	ESE	-28.1	-15.1	-28.2	746.2	0.023	0.000	21.7	5	-19.7	18.7	1.25	 .0733	24	1	100.0	1
09/02/24	2:55	-14.8	-14.8	-14.9	61	-20.6	22.6	ESE	0.38	29.6	ESE	-27.3	-14.9	-27.4	746.3	0.023	0.000	21.7	5	-19.7	18.7	1.25	 .0733	23	1	100.0	1
09/02/24	2:56	-14.7	-14.7	-14.8	60	-20.7	24.3	E	0.41	27.0	ESE	-27.5	-14.8	-27.7	746.2	0.023	0.000	21.7	5	-19.7	18.7	1.25	 .0733	24	1	100.0	1
09/02/24	2:57	-14.6	-14.6	-14.7	59	-20.8	23.5	E	0.39	25.2	ESE	-27.2	-14.7	-27.3	746.2	0.023	0.000	21.7	5	-19.7	18.7	1.25	 .0733	23	1	100.0	1
09/02/24	2:58	-14.4	-14.4	-14.6	59	-20.7	23.5	ESE	0.39	25.2	E	-27.1	-14.6	-27.2	746.2	0.023	0.000	21.7	5	-19.7	18.7	1.25	 .0733	24	1	100.0	1
09/02/24	2:59	-14.2	-14.2	-14.4	59	-20.5	24.3	ESE	0.41	27.0	ESE	-26.9	-14.4	-27.1	746.3	0.023	0.000	21.7	5	-19.7	18.7	1.25	 .0733	23	1	100.0	1
09/02/24	3:00	-14.2	-14.2	-14.2	58	-20.6	23.5	E	0.39	26.1	E	-26.7	-14.3	-26.8	746.2	0.023	0.000	21.7	5	-19.7	18.7	1.25	 .0733	23	1	100.0	1
09/02/24	3:01	-14.0	-14.0	-14.1	58	-20.5	25.2	ESE	0.42	27.0	ESE	-26.8	-14.2	-26.9	746.3	0.022	0.000	21.7	5	-19.7	18.7	1.25	 .0733	24	1	100.0	1
09/02/24	3:02	-14.0	-13.9	-14.0	58	-20.5	25.2	E	0.42	26.1	E	-26.8	-14.2	-26.9	746.2	0.022	0.000	21.6	5	-19.7	18.6	1.25	 .0733	23	1	100.0	1
09/02/24	3:03	-14.1	-14.0	-14.1	57	-20.7	24.3	E	0.41	26.1	ESE	-26.7	-14.2	-26.8	746.2	0.022	0.000	21.6	5	-19.7	18.6	1.25	 .0733	24	1	100.0	1
09/02/24	3:04	-14.3	-14.1	-14.3	57	-20.9	24.3	ESE	0.41	25.2	ESE	-27.0	-14.4	-27.2	746.3	0.023	0.000	21.6	5	-19.7	18.6	1.25	 .0734	23	1	100.0	1
09/02/24	3:05	-14.4	-14.3	-14.4	57	-21.1	23.5	ESE	0.39	25.2	ESE	-26.9	-14.6	-27.1	746.3	0.023	0.000	21.6	5	-19.7	18.6	1.25	 .0734	23	1	100.0	1
09/02/24	3:06	-14.5	-14.4	-14.5	56	-21.4	24.3	ESE	0.41	26.1	ESE	-27.3	-14.7	-27.4	746.3	0.023	0.000	21.6	5	-19.7	18.6	1.25	 .0734	24	1	100.0	1
09/02/24	3:07	-14.4	-14.4	-14.5	57	-21.1	25.2	ESE	0.42	26.1	ESE	-27.4	-14.6	-27.6	746.3	0.023	0.000	21.6	5	-19.7	18.6	1.25	 .0734	23	1	100.0	1
09/02/24	3:08	-14.4	-14.4	-14.4	57	-21.1	22.6	ESE	0.38	24.3	ESE	-26.8	-14.6	-26.9	746.3	0.023	0.000	21.6	5	-19.8	18.6	1.25	 .0734	24	1	100.0	1
09/02/24	3:09	-14.3	-14.3	-14.4	57	-21.0	25.2	ESE	0.42	27.0	ESE	-27.2	-14.5	-27.4	746.3	0.023	0.000	21.6	5	-19.8	18.6	1.25	 .0734	23	1	100.0	1
09/02/24	3:10	-14.4	-14.3	-14.4	57	-21.1	24.3	ESE	0.41	25.2	ESE	-27.2	-14.6	-27.3	746.2	0.023	0.000	21.6	5	-19.8	18.6	1.25	 .0734	23	1	100.0	1
09/02/24	3:11	-14.4	-14.4	-14.4	56	-21.3	23.5	ESE	0.39	24.3	ESE	-27.1	-14.6	-27.2	746.3	0.023	0.000	21.5	5	-19.8	18.4	1.25	 .0734	24	1	100.0	1
09/02/24	3:12	-14.6	-14.4	-14.6	56	-21.4	23.5	ESE	0.39	24.3	ESE	-27.2	-14.7	-27.3	746.3	0.023	0.000	21.5	5	-19.8	18.4	1.25	 .0734	23	1	100.0	1
09/02/24	3:13	-14.8	-14.6	-14.8	56	-21.6	22.6	ESE	0.38	24.3	ESE	-27.3	-14.9	-27.4	746.4	0.023	0.000	21.5	5	-19.8	18.4	1.25	 .0734	24	1	100.0	1
09/02/24	3:14	-14.8	-14.8	-14.8	56	-21.7	23.5	ESE	0.39	24.3	ESE	-27.6	-15.0	-27.7	746.3	0.023	0.000	21.5	5	-19.8	18.4	1.25	 .0734	23	1	100.0	1
09/02/24	3:15	-14.9	-14.8	-14.9	57	-21.6	22.6	ESE	0.38	23.5	ESE	-27.5	-15.1	-27.7	746.3	0.023	0.000	21.4	5	-19.9	18.3	1.25	 .0734	24	1	100.0	1
09/02/24	3:16	-15.2	-15.0	-15.2	56	-22.0	23.5	ESE	0.39	24.3	ESE	-28.0	-15.3	-28.2	746.3	0.023	0.000	21.4	5	-19.9	18.3	1.25	 .0734	23	1	100.0	1
09/02/24	3:17	-15.2	-15.2	-15.2	57	-21.8	23.5	E	0.39	26.1	E	-28.1	-15.4	-28.2	746.3	0.023	0.000	21.4	5	-19.9	18.3	1.25	 .0734	23	1	100.0	1
09/02/24	3:18	-15.0	-15.0	-15.2	57	-21.6	24.3	ESE	0.41	26.1	ESE	-27.9	-15.2	-28.1	746.3	0.023	0.000	21.4	5	-19.9	18.2	1.25	 .0734	24	1	100.0	1
09/02/24	3:19	-14.8	-14.8	-15.0	58	-21.3	24.3	ESE	0.41	24.3	ESE	-27.7	-15.0	-27.9	746.3	0.023	0.000	21.4	5	-19.9	18.2	1.25	 .0734	23	1	100.0	1
09/02/24	3:20	-14.7	-14.7	-14.8	58	-21.2	24.3	ESE	0.41	25.2	ESE	-27.6	-14.9	-27.8	746.3	0.023	0.000	21.4	5	-19.9	18.2	1.25	 .0734	24	1	100.0	1
09/02/24	3:21	-14.6	-14.6	-14.7	58	-21.0	24.3	ESE	0.41	25.2	ESE	-27.4	-14.7	-27.6	746.3	0.023	0.000	21.4	5	-19.9	18.2	1.25	 .0734	23	1	100.0	1
09/02/24	3:22	-14.4	-14.4	-14.5	58	-20.9	23.5	E	0.39	24.3	ESE	-27.1	-14.6	-27.2	746.3	0.023	0.000	21.4	5	-19.9	18.2	1.25	 .0734	23	1	100.0	1
09/02/24	3:23	-14.4	-14.4	-14.4	57	-21.1	24.3	E	0.41	25.2	E	-27.2	-14.6	-27.4	746.3	0.023	0.000	21.4	5	-19.9	18.2	1.25	 .0734	24	1	100.0	1
09/02/24	3:24	-14.4	-14.4	-14.4	57	-21.1	25.2	E	0.42	26.1	E	-27.4	-14.6	-27.6	746.3	0.023	0.000	21.4	5	-19.9	18.2	1.25	 .0734	23	1	100.0	1
09/02/24	3:25	-14.4	-14.4	-14.4	57	-21.1	23.5	E	0.39	26.1	E	-26.9	-14.6	-27.1	746.3	0.023	0.000	21.4	5	-19.9	18.2	1.25	 .0734	24	1	100.0	1
09/02/24	3:26	-14.3	-14.3	-14.3	57	-20.9	21.7	E	0.36	23.5	E	-26.4	-14.4	-26.6	746.3	0.023	0.000	21.4	5	-19.9	18.2	1.25	 .0734	23	1	100.0	1
09/02/24	3:27	-14.2	-14.2	-14.3	57	-20.8	20.9	E	0.35	23.5	E	-26.1	-14.3	-26.2	746.3	0.023	0.000	21.4	5	-19.9	18.2	1.25	 .0734	24	1	100.0	1
09/02/24	3:28	-14.2	-14.2	-14.2	57	-20.9	17.4	E	0.29	18.3	E	-25.3	-14.4	-25.4	746.4	0.023	0.000	21.4	5	-19.9	18.2	1.25	 .0734	23	1	100.0	1
09/02/24	3:29	-14.5	-14.3	-14.5	56	-21.4	15.7	ESE	0.26	16.5	ESE	-25.2	-14.7	-25.3	746.5	0.023	0.000	21.4	5	-19.9	18.2	1.25	 .0734	23	1	100.0	1
09/02/24	3:30	-14.9	-14.6	-14.9	55	-22.0	16.5	ESE	0.28	18.3	ESE	-26.0	-15.1	-26.2	746.5	0.023	0.000	21.4	5	-19.9	18.2	1.25	 .0734	24	1	100.0	1
09/02/24	3:31	-14.8	-14.8	-15.0	55	-21.9	16.5	SE	0.28	18.3	SE	-25.8	-15.0	-26.0	746.5	0.023	0.000	21.4	5	-19.9	18.2	1.25	 .0734	23	1	100.0	1
09/02/24	3:32	-14.7	-14.7	-14.8	56	-21.5	15.7	SE	0.26	17.4	SE	-25.3	-14.8	-25.5	746.5	0.023	0.000	21.4	5	-19.9	18.2	1.25	 .0734	24	1	100.0	1
09/02/24	3:33	-14.2	-14.2	-14.6	57	-20.9	16.5	SE	0.28	17.4	SE	-25.1	-14.4	-25.2	746.6	0.023	0.000	21.4	5	-19.9	18.2	1.25	 .0734	23	1	100.0	1
09/02/24	3:34	-13.7	-13.7	-14.1	57	-20.4	17.4	SE	0.29	18.3	SE	-24.6	-13.8	-24.7	746.5	0.022	0.000	21.4	5	-19.9	18.2	1.25	 .0734	23	1	100.0	1
09/02/24	3:35	-13.6	-13.5	-13.6	55	-20.7	17.4	ESE	0.29	18.3	ESE	-24.4	-13.7	-24.6	746.5	0.022	0.000	21.4	5	-19.9	18.3	1.25	 .0734	24	1	100.0	1
09/02/24	3:36	-13.6	-13.6	-13.6	54	-20.9	16.5	ESE	0.28	18.3	ESE	-24.2	-13.7	-24.3	746.5	0.022	0.000	21.4	5	-19.9	18.2	1.25	 .0734	23	1	100.0	1
09/02/24	3:37	-13.7	-13.6	-13.7	54	-21.0	16.5	ESE	0.28	17.4	ESE	-24.3	-13.8	-24.5	746.6	0.022	0.000	21.4	5	-19.9	18.3	1.25	 .0734	24	1	100.0	1
09/02/24	3:38	-13.9	-13.7	-13.9	54	-21.2	17.4	E	0.29	18.3	E	-24.8	-14.1	-25.0	746.5	0.022	0.000	21.4	5	-19.9	18.3	1.25	 .0734	23	1	100.0	1
09/02/24	3:39	-14.0	-13.9	-14.0	54	-21.3	18.3	E	0.30	20.0	E	-25.2	-14.2	-25.4	746.4	0.022	0.000	21.4	5	-19.9	18.3	1.25	 .0734	23	1	100.0	1
09/02/24	3:40	-14.0	-14.0	-14.0	55	-21.1	20.9	E	0.35	22.6	E	-25.8	-14.2	-26.0	746.4	0.022	0.000	21.5	5	-19.8	18.4	1.25	 .0734	24	1	100.0	1
09/02/24	3:41	-13.9	-13.9	-13.9	56	-20.8	21.7	E	0.36	23.5	E	-26.0	-14.1	-26.2	746.4	0.022	0.000	21.5	5	-19.8	18.4	1.25	 .0734	23	1	100.0	1
09/02/24	3:42	-13.9	-13.9	-13.9	56	-20.8	20.9	E	0.35	22.6	E	-25.8	-14.1	-25.9	746.4	0.022	0.000	21.5	5	-19.8	18.4	1.25	 .0734	24	1	100.0	1
09/02/24	3:43	-14.1	-13.9	-14.1	55	-21.2	20.9	E	0.35	22.6	E	-25.9	-14.2	-26.1	746.4	0.022	0.000	21.5	5	-19.8	18.4	1.25	 .0734	23	1	100.0	1
09/02/24	3:44	-14.0	-14.0	-14.1	56	-20.9	19.1	E	0.32	20.9	E	-25.4	-14.2	-25.6	746.4	0.022	0.000	21.5	5	-19.8	18.4	1.25	 .0734	24	1	100.0	1
09/02/24	3:45	-14.1	-14.0	-14.1	55	-21.2	19.1	E	0.32	20.0	E	-25.5	-14.2	-25.7	746.4	0.022	0.000	21.5	5	-19.8	18.4	1.25	 .0734	23	1	100.0	1
09/02/24	3:46	-13.8	-13.8	-14.0	56	-20.7	17.4	E	0.29	19.1	E	-24.7	-13.9	-24.8	746.4	0.022	0.000	21.5	5	-19.8	18.4	1.25	 .0734	23	1	100.0	1
09/02/24	3:47	-13.7	-13.7	-13.8	55	-20.8	18.3	E	0.30	19.1	E	-24.8	-13.9	-25.0	746.5	0.022	0.000	21.5	5	-19.8	18.4	1.25	 .0734	24	1	100.0	1
09/02/24	3:48	-13.8	-13.7	-13.8	54	-21.2	17.4	E	0.29	19.1	E	-24.8	-14.0	-24.9	746.5	0.022	0.000	21.6	5	-19.8	18.6	1.25	 .0734	23	1	100.0	1
09/02/24	3:49	-13.9	-13.8	-13.9	54	-21.3	17.4	E	0.29	20.0	E	-24.9	-14.1	-25.1	746.4	0.022	0.000	21.6	5	-19.8	18.6	1.25	 .0734	24	1	100.0	1
09/02/24	3:50	-14.1	-13.9	-14.1	54	-21.4	17.4	E	0.29	18.3	E	-25.1	-14.2	-25.2	746.4	0.022	0.000	21.6	5	-19.8	18.6	1.25	 .0734	23	1	100.0	1
09/02/24	3:51	-14.3	-14.1	-14.3	54	-21.6	17.4	E	0.29	18.3	E	-25.4	-14.5	-25.6	746.4	0.023	0.000	21.5	5	-19.8	18.4	1.25	 .0734	23	1	100.0	1
09/02/24	3:52	-14.4	-14.3	-14.4	53	-21.9	19.1	E	0.32	20.0	E	-26.0	-14.6	-26.2	746.4	0.023	0.000	21.5	5	-19.8	18.4	1.25	 .0734	24	1	100.0	1
09/02/24	3:53	-14.4	-14.4	-14.4	54	-21.7	18.3	E	0.30	19.1	E	-25.7	-14.6	-25.9	746.4	0.023	0.000	21.5	5	-19.8	18.4	1.25	 .0734	23	1	100.0	1
09/02/24	3:54	-14.3	-14.3	-14.4	54	-21.6	19.1	E	0.32	20.9	E	-25.9	-14.5	-26.1	746.3	0.023	0.000	21.5	5	-19.8	18.4	1.25	 .0734	24	1	100.0	1
09/02/24	3:55	-14.3	-14.3	-14.3	54	-21.6	18.3	E	0.30	20.0	E	-25.7	-14.5	-25.8	746.3	0.023	0.000	21.5	5	-19.8	18.4	1.25	 .0734	23	1	100.0	1
09/02/24	3:56	-14.3	-14.3	-14.3	54	-21.6	18.3	E	0.30	18.3	E	-25.7	-14.5	-25.8	746.3	0.023	0.000	21.5	5	-19.8	18.4	1.25	 .0734	24	1	100.0	1
09/02/24	3:57	-14.3	-14.3	-14.3	54	-21.6	17.4	E	0.29	18.3	E	-25.4	-14.5	-25.6	746.3	0.023	0.000	21.5	5	-19.8	18.4	1.25	 .0734	23	1	100.0	1
09/02/24	3:58	-14.3	-14.3	-14.3	54	-21.6	18.3	E	0.30	19.1	E	-25.6	-14.4	-25.7	746.3	0.023	0.000	21.4	5	-19.9	18.3	1.25	 .0734	23	1	100.0	1
09/02/24	3:59	-14.2	-14.2	-14.2	54	-21.5	18.3	E	0.30	19.1	E	-25.4	-14.3	-25.6	746.3	0.023	0.000	21.4	5	-19.9	18.3	1.25	 .0734	24	1	100.0	1
09/02/24	4:00	-14.2	-14.2	-14.2	54	-21.5	17.4	E	0.29	19.1	E	-25.3	-14.4	-25.4	746.3	0.023	0.000	21.4	5	-19.9	18.3	1.25	 .0734	23	1	100.0	1
09/02/24	4:01	-14.3	-14.2	-14.3	54	-21.6	18.3	E	0.30	20.0	E	-25.6	-14.4	-25.7	746.3	0.023	0.000	21.4	5	-19.9	18.2	1.25	 .0734	24	1	100.0	1
09/02/24	4:02	-14.2	-14.2	-14.3	54	-21.5	17.4	E	0.29	18.3	E	-25.3	-14.4	-25.4	746.3	0.023	0.000	21.4	5	-19.9	18.2	1.25	 .0734	23	1	100.0	1
09/02/24	4:03	-14.3	-14.2	-14.3	54	-21.6	17.4	E	0.29	18.3	E	-25.3	-14.4	-25.5	746.3	0.023	0.000	21.4	5	-19.9	18.2	1.25	 .0734	23	1	100.0	1
09/02/24	4:04	-14.6	-14.3	-14.6	54	-21.9	16.5	E	0.28	18.3	E	-25.6	-14.8	-25.7	746.3	0.023	0.000	21.4	5	-19.9	18.2	1.25	 .0734	24	1	100.0	1
09/02/24	4:05	-15.3	-14.7	-15.3	53	-22.8	17.4	E	0.29	18.3	E	-26.7	-15.5	-26.9	746.3	0.023	0.000	21.4	5	-19.9	18.2	1.25	 .0734	23	1	100.0	1
09/02/24	4:06	-15.8	-15.4	-15.8	53	-23.2	19.1	E	0.32	20.9	E	-27.9	-16.0	-28.1	746.3	0.024	0.000	21.3	5	-19.9	18.2	1.25	 .0734	24	1	100.0	1
09/02/24	4:07	-16.1	-15.9	-16.1	55	-23.0	20.9	E	0.35	22.6	E	-28.6	-16.2	-28.8	746.3	0.024	0.000	21.3	5	-19.9	18.2	1.25	 .0734	23	1	100.0	1
09/02/24	4:08	-16.0	-16.0	-16.1	56	-22.8	18.3	E	0.30	19.1	E	-27.8	-16.2	-28.0	746.3	0.024	0.000	21.3	5	-19.9	18.2	1.25	 .0734	24	1	100.0	1
09/02/24	4:09	-15.8	-15.8	-16.0	57	-22.4	19.1	E	0.32	20.9	E	-27.9	-16.0	-28.1	746.3	0.024	0.000	21.3	5	-19.9	18.2	1.25	 .0734	23	1	100.0	1
09/02/24	4:10	-15.3	-15.3	-15.8	58	-21.7	19.1	E	0.32	20.9	E	-27.2	-15.4	-27.3	746.3	0.023	0.000	21.3	5	-20.0	18.1	1.25	 .0734	23	1	100.0	1
09/02/24	4:11	-14.9	-14.9	-15.2	57	-21.6	20.9	E	0.35	21.7	E	-27.1	-15.1	-27.3	746.2	0.023	0.000	21.3	5	-20.0	18.1	1.25	 .0734	24	1	100.0	1
09/02/24	4:12	-15.1	-14.9	-15.1	56	-21.9	20.9	E	0.35	21.7	E	-27.3	-15.2	-27.4	746.2	0.023	0.000	21.3	5	-19.9	18.2	1.25	 .0734	23	1	100.0	1
09/02/24	4:13	-15.2	-15.1	-15.2	55	-22.2	20.9	E	0.35	21.7	E	-27.4	-15.3	-27.6	746.2	0.023	0.000	21.3	5	-19.9	18.2	1.25	 .0734	24	1	100.0	1
09/02/24	4:14	-15.1	-15.1	-15.2	56	-21.9	20.9	E	0.35	21.7	E	-27.3	-15.2	-27.4	746.2	0.023	0.000	21.3	5	-19.9	18.2	1.25	 .0734	23	1	100.0	1
09/02/24	4:15	-15.0	-15.0	-15.1	56	-21.8	20.9	E	0.35	21.7	E	-27.2	-15.2	-27.3	746.2	0.023	0.000	21.3	5	-19.9	18.2	1.25	 .0734	23	1	100.0	1
09/02/24	4:16	-14.9	-14.9	-14.9	56	-21.8	21.7	E	0.36	23.5	E	-27.3	-15.1	-27.5	746.2	0.023	0.000	21.3	5	-19.9	18.2	1.25	 .0734	24	1	100.0	1
09/02/24	4:17	-14.8	-14.8	-14.9	56	-21.7	20.9	E	0.35	22.6	E	-26.9	-15.0	-27.1	746.2	0.023	0.000	21.4	5	-19.9	18.2	1.25	 .0734	23	1	100.0	1
09/02/24	4:18	-14.7	-14.7	-14.8	56	-21.6	20.9	E	0.35	21.7	E	-26.8	-14.9	-27.0	746.2	0.023	0.000	21.4	5	-19.9	18.2	1.25	 .0734	24	1	100.0	1
09/02/24	4:19	-14.7	-14.7	-14.7	56	-21.5	21.7	E	0.36	22.6	E	-26.9	-14.8	-27.1	746.2	0.023	0.000	21.4	5	-19.9	18.2	1.25	 .0734	23	1	100.0	1
09/02/24	4:20	-14.7	-14.7	-14.7	55	-21.8	20.0	E	0.33	21.7	E	-26.6	-14.9	-26.8	746.2	0.023	0.000	21.4	5	-19.9	18.2	1.25	 .0734	23	1	100.0	1
09/02/24	4:21	-14.9	-14.8	-14.9	55	-21.9	20.9	E	0.35	21.7	E	-27.1	-15.1	-27.2	746.2	0.023	0.000	21.4	5	-19.9	18.2	1.25	 .0734	24	1	100.0	1
09/02/24	4:22	-14.9	-14.9	-14.9	55	-21.9	20.0	E	0.33	20.9	E	-26.8	-15.1	-27.0	746.2	0.023	0.000	21.4	5	-19.9	18.2	1.25	 .0734	23	1	100.0	1
09/02/24	4:23	-14.7	-14.7	-14.9	55	-21.7	20.9	E	0.35	21.7	E	-26.7	-14.8	-26.9	746.2	0.023	0.000	21.4	5	-19.9	18.3	1.25	 .0734	24	1	100.0	1
09/02/24	4:24	-14.6	-14.6	-14.7	56	-21.4	21.7	E	0.36	23.5	E	-26.8	-14.7	-26.9	746.2	0.023	0.000	21.4	5	-19.9	18.3	1.25	 .0734	23	1	100.0	1
09/02/24	4:25	-14.3	-14.3	-14.5	55	-21.4	20.9	E	0.35	21.7	E	-26.3	-14.5	-26.4	746.2	0.023	0.000	21.4	5	-19.9	18.3	1.25	 .0734	24	1	100.0	1
09/02/24	4:26	-14.2	-14.2	-14.3	55	-21.3	20.9	E	0.35	21.7	E	-26.2	-14.4	-26.3	746.2	0.023	0.000	21.4	5	-19.9	18.3	1.25	 .0734	23	1	100.0	1
09/02/24	4:27	-14.2	-14.2	-14.3	54	-21.5	20.9	E	0.35	23.5	E	-26.2	-14.4	-26.3	746.2	0.023	0.000	21.4	5	-19.9	18.3	1.25	 .0734	23	1	100.0	1
09/02/24	4:28	-14.2	-14.2	-14.2	55	-21.3	20.9	E	0.35	22.6	E	-26.2	-14.4	-26.3	746.2	0.023	0.000	21.4	5	-19.9	18.3	1.25	 .0734	24	1	100.0	1
09/02/24	4:29	-14.4	-14.3	-14.4	54	-21.7	20.9	E	0.35	22.6	E	-26.4	-14.6	-26.6	746.2	0.023	0.000	21.4	5	-19.9	18.3	1.25	 .0734	23	1	100.0	1
09/02/24	4:30	-14.7	-14.4	-14.7	55	-21.7	20.9	E	0.35	21.7	E	-26.7	-14.8	-26.9	746.2	0.023	0.000	21.4	5	-19.9	18.3	1.25	 .0734	24	1	100.0	1
09/02/24	4:31	-14.9	-14.7	-14.9	55	-21.9	21.7	E	0.36	23.5	E	-27.2	-15.1	-27.4	746.2	0.023	0.000	21.4	5	-19.9	18.3	1.25	 .0734	23	1	100.0	1
09/02/24	4:32	-14.8	-14.8	-14.9	57	-21.4	21.7	E	0.36	23.5	E	-27.1	-14.9	-27.3	746.2	0.023	0.000	21.4	5	-19.9	18.3	1.25	 .0734	23	1	100.0	1
09/02/24	4:33	-14.5	-14.5	-14.7	57	-21.2	21.7	E	0.36	22.6	E	-26.7	-14.7	-26.9	746.2	0.023	0.000	21.4	5	-19.9	18.3	1.25	 .0734	24	1	100.0	1
09/02/24	4:34	-14.3	-14.3	-14.4	58	-20.7	21.7	E	0.36	22.6	E	-26.4	-14.4	-26.6	746.2	0.023	0.000	21.4	5	-19.9	18.2	1.25	 .0734	23	1	100.0	1
09/02/24	4:35	-14.1	-14.1	-14.3	58	-20.6	21.7	E	0.36	23.5	E	-26.2	-14.3	-26.4	746.3	0.023	0.000	21.4	5	-19.9	18.2	1.25	 .0734	24	1	100.0	1
09/02/24	4:36	-14.1	-14.1	-14.1	57	-20.7	21.7	E	0.36	23.5	E	-26.1	-14.2	-26.3	746.3	0.022	0.000	21.4	5	-19.9	18.2	1.25	 .0734	23	1	100.0	1
09/02/24	4:37	-13.9	-13.9	-14.0	57	-20.6	20.9	E	0.35	22.6	E	-25.8	-14.1	-25.9	746.3	0.022	0.000	21.4	5	-19.9	18.2	1.25	 .0734	24	1	100.0	1
09/02/24	4:38	-13.8	-13.8	-13.9	57	-20.5	20.9	E	0.35	21.7	E	-25.6	-13.9	-25.7	746.3	0.022	0.000	21.3	5	-19.9	18.2	1.25	 .0734	23	1	100.0	1
09/02/24	4:39	-13.7	-13.7	-13.8	57	-20.4	19.1	E	0.32	20.9	E	-25.1	-13.9	-25.2	746.3	0.022	0.000	21.3	6	-17.8	18.2	1.54	 .0734	23	1	100.0	1
09/02/24	4:40	-13.8	-13.7	-13.8	56	-20.7	18.3	E	0.30	20.0	E	-24.9	-13.9	-25.1	746.3	0.022	0.000	21.3	6	-17.8	18.2	1.54	 .0734	24	1	100.0	1
09/02/24	4:41	-14.3	-13.8	-14.3	56	-21.2	17.4	E	0.29	18.3	E	-25.3	-14.4	-25.5	746.3	0.023	0.000	21.3	6	-17.8	18.2	1.54	 .0734	23	1	100.0	1
09/02/24	4:42	-14.4	-14.3	-14.5	56	-21.3	20.9	ENE	0.35	21.7	ENE	-26.4	-14.6	-26.6	746.3	0.023	0.000	21.3	6	-17.8	18.2	1.54	 .0734	24	1	100.0	1
09/02/24	4:43	-14.1	-14.1	-14.4	58	-20.5	21.7	ENE	0.36	22.6	ENE	-26.1	-14.2	-26.3	746.3	0.022	0.000	21.3	6	-17.8	18.1	1.54	 .0734	23	1	100.0	1
09/02/24	4:44	-13.7	-13.7	-14.0	58	-20.2	21.7	ENE	0.36	23.5	ENE	-25.6	-13.8	-25.8	746.3	0.022	0.000	21.3	6	-17.8	18.1	1.54	 .0734	23	1	100.0	1
09/02/24	4:45	-13.3	-13.3	-13.6	57	-20.0	21.7	ENE	0.36	22.6	ENE	-25.1	-13.4	-25.3	746.3	0.022	0.000	21.3	6	-17.8	18.1	1.54	 .0734	24	1	100.0	1
09/02/24	4:46	-13.1	-13.1	-13.2	57	-19.8	20.0	ENE	0.33	21.7	ENE	-24.4	-13.3	-24.6	746.3	0.022	0.000	21.3	6	-17.8	18.1	1.54	 .0734	23	1	100.0	1
09/02/24	4:47	-13.0	-13.0	-13.1	56	-20.0	20.9	ENE	0.35	23.5	ENE	-24.5	-13.2	-24.7	746.3	0.022	0.000	21.3	6	-17.8	18.1	1.54	 .0734	24	1	100.0	1
09/02/24	4:48	-12.8	-12.8	-12.9	55	-20.0	20.9	ENE	0.35	22.6	ENE	-24.3	-13.0	-24.4	746.3	0.022	0.000	21.3	6	-17.8	18.1	1.54	 .0734	23	1	100.0	1
09/02/24	4:49	-12.8	-12.8	-12.8	55	-20.0	22.6	ENE	0.38	25.2	ENE	-24.6	-12.9	-24.8	746.3	0.022	0.000	21.3	6	-17.8	18.1	1.54	 .0734	24	1	100.0	1
09/02/24	4:50	-12.7	-12.7	-12.8	54	-20.1	22.6	ENE	0.38	23.5	ENE	-24.6	-12.9	-24.7	746.3	0.022	0.000	21.3	6	-17.8	18.1	1.54	 .0734	23	1	100.0	1
09/02/24	4:51	-12.8	-12.7	-12.8	54	-20.2	20.9	ENE	0.35	22.6	ENE	-24.3	-13.0	-24.4	746.3	0.022	0.000	21.3	6	-17.8	18.1	1.54	 .0734	23	1	100.0	1
09/02/24	4:52	-13.4	-12.9	-13.4	54	-20.8	20.0	ENE	0.33	20.9	ENE	-24.9	-13.6	-25.1	746.3	0.022	0.000	21.3	6	-17.8	18.2	1.54	 .0734	24	1	100.0	1
09/02/24	4:53	-14.1	-13.6	-14.1	53	-21.6	20.0	ENE	0.33	20.9	ENE	-25.7	-14.2	-25.9	746.3	0.022	0.000	21.3	6	-17.8	18.2	1.54	 .0734	23	1	100.0	1
09/02/24	4:54	-14.6	-14.2	-14.6	55	-21.6	20.9	E	0.35	21.7	E	-26.6	-14.7	-26.8	746.3	0.023	0.000	21.4	6	-17.8	18.3	1.54	 .0734	24	1	100.0	1
09/02/24	4:55	-14.8	-14.6	-14.8	57	-21.4	20.9	E	0.35	21.7	E	-26.9	-14.9	-27.1	746.3	0.023	0.000	21.4	6	-17.8	18.3	1.54	 .0734	23	1	100.0	1
09/02/24	4:56	-14.8	-14.8	-14.8	58	-21.3	20.9	E	0.35	21.7	E	-26.9	-15.0	-27.1	746.3	0.023	0.000	21.4	6	-17.7	18.4	1.54	 .0734	23	1	100.0	1
09/02/24	4:57	-14.8	-14.8	-14.8	59	-21.1	21.7	ENE	0.36	22.6	ENE	-27.2	-14.9	-27.3	746.2	0.023	0.000	21.5	6	-17.7	18.5	1.54	 .0734	24	1	100.0	1
09/02/24	4:58	-14.8	-14.8	-14.8	59	-21.1	21.7	E	0.36	22.6	E	-27.2	-14.9	-27.3	746.2	0.023	0.000	21.5	6	-17.7	18.5	1.54	 .0734	23	1	100.0	1
09/02/24	4:59	-14.7	-14.7	-14.8	60	-20.8	20.9	E	0.35	21.7	E	-26.8	-14.8	-26.9	746.2	0.023	0.000	21.6	6	-17.6	18.6	1.53	 .0733	24	1	100.0	1
09/02/24	5:00	-14.8	-14.7	-14.8	60	-20.8	19.1	E	0.32	20.0	E	-26.4	-14.9	-26.6	746.2	0.023	0.000	21.6	6	-17.6	18.7	1.53	 .0733	23	1	100.0	1
09/02/24	5:01	-14.9	-14.8	-14.9	60	-21.0	19.1	ENE	0.32	23.5	ENE	-26.7	-15.1	-26.8	746.2	0.023	0.000	21.6	6	-17.6	18.7	1.53	 .0733	23	1	100.0	1
09/02/24	5:02	-14.4	-14.4	-14.9	61	-20.3	22.6	ENE	0.38	25.2	ENE	-26.8	-14.6	-27.0	746.2	0.023	0.000	21.7	6	-17.6	18.8	1.53	 .0733	24	1	100.0	1
09/02/24	5:03	-13.9	-13.9	-14.3	61	-19.8	22.6	ENE	0.38	24.3	ENE	-26.2	-14.1	-26.3	746.2	0.022	0.000	21.7	6	-17.6	18.8	1.53	 .0733	23	1	100.0	1
09/02/24	5:04	-13.5	-13.5	-13.8	60	-19.6	23.5	ENE	0.39	24.3	ENE	-25.8	-13.7	-25.9	746.2	0.022	0.000	21.7	6	-17.5	18.8	1.53	 .0733	24	1	100.0	1
09/02/24	5:05	-13.2	-13.2	-13.4	58	-19.8	23.5	ENE	0.39	25.2	ENE	-25.4	-13.4	-25.6	746.2	0.022	0.000	21.7	6	-17.5	18.8	1.53	 .0733	23	1	100.0	1
09/02/24	5:06	-12.9	-12.9	-13.2	56	-19.8	22.6	ENE	0.38	23.5	ENE	-24.8	-13.1	-24.9	746.2	0.022	0.000	21.7	6	-17.5	18.8	1.53	 .0733	24	1	100.0	1
09/02/24	5:07	-12.8	-12.8	-12.9	56	-19.7	23.5	ENE	0.39	23.5	ENE	-24.8	-12.9	-24.9	746.2	0.022	0.000	21.8	6	-17.5	18.9	1.53	 .0733	23	1	100.0	1
09/02/24	5:08	-12.7	-12.7	-12.8	55	-19.9	23.5	ENE	0.39	24.3	ENE	-24.7	-12.9	-24.9	746.2	0.022	0.000	21.8	6	-17.5	18.9	1.53	 .0733	23	1	100.0	1
09/02/24	5:09	-12.7	-12.7	-12.7	55	-19.8	23.5	ENE	0.39	24.3	ENE	-24.7	-12.8	-24.8	746.2	0.022	0.000	21.8	6	-17.5	18.9	1.53	 .0733	24	1	100.0	1
09/02/24	5:10	-12.6	-12.6	-12.7	55	-19.7	22.6	ENE	0.38	24.3	ENE	-24.3	-12.7	-24.5	746.3	0.021	0.000	21.8	6	-17.5	18.9	1.53	 .0733	23	1	100.0	1
09/02/24	5:11	-12.4	-12.4	-12.5	55	-19.6	23.5	ENE	0.39	24.3	ENE	-24.3	-12.6	-24.5	746.2	0.021	0.000	21.8	6	-17.5	18.9	1.53	 .0733	24	1	100.0	1
09/02/24	5:12	-12.4	-12.4	-12.4	55	-19.6	23.5	ENE	0.39	24.3	ENE	-24.3	-12.6	-24.4	746.3	0.021	0.000	21.8	6	-17.5	18.9	1.53	 .0733	23	1	100.0	1
09/02/24	5:13	-12.3	-12.3	-12.4	55	-19.5	22.6	ENE	0.38	23.5	ENE	-24.0	-12.5	-24.2	746.3	0.021	0.000	21.8	6	-17.5	18.9	1.53	 .0733	23	1	100.0	1
09/02/24	5:14	-12.4	-12.3	-12.4	54	-19.8	21.7	ENE	0.36	22.6	ENE	-23.9	-12.6	-24.1	746.3	0.021	0.000	21.8	6	-17.5	18.9	1.53	 .0733	24	1	100.0	1
09/02/24	5:15	-12.4	-12.4	-12.4	54	-19.8	22.6	ENE	0.38	23.5	ENE	-24.1	-12.6	-24.3	746.3	0.021	0.000	21.8	6	-17.5	18.9	1.53	 .0733	23	1	100.0	1
09/02/24	5:16	-12.3	-12.3	-12.4	55	-19.5	21.7	ENE	0.36	22.6	ENE	-23.8	-12.5	-24.0	746.3	0.021	0.000	21.8	6	-17.5	18.9	1.53	 .0733	24	1	100.0	1
09/02/24	5:17	-12.3	-12.3	-12.3	55	-19.5	21.7	ENE	0.36	23.5	ENE	-23.8	-12.4	-23.9	746.3	0.021	0.000	21.7	6	-17.5	18.8	1.53	 .0733	23	1	100.0	1
09/02/24	5:18	-12.2	-12.2	-12.3	54	-19.6	20.9	ENE	0.35	22.6	ENE	-23.5	-12.4	-23.7	746.2	0.021	0.000	21.7	6	-17.5	18.8	1.53	 .0733	24	1	100.0	1
09/02/24	5:19	-12.2	-12.2	-12.3	54	-19.6	22.6	ENE	0.38	24.3	ENE	-23.9	-12.4	-24.1	746.2	0.021	0.000	21.7	6	-17.5	18.8	1.53	 .0733	23	1	100.0	1
09/02/24	5:20	-12.2	-12.2	-12.3	54	-19.6	22.6	ENE	0.38	23.5	ENE	-23.9	-12.4	-24.1	746.2	0.021	0.000	21.7	6	-17.5	18.8	1.53	 .0733	23	1	100.0	1
09/02/24	5:21	-12.3	-12.2	-12.3	54	-19.7	21.7	ENE	0.36	23.5	ENE	-23.8	-12.4	-23.9	746.2	0.021	0.000	21.7	6	-17.6	18.8	1.53	 .0733	24	1	100.0	1
09/02/24	5:22	-12.3	-12.3	-12.3	55	-19.5	22.6	ENE	0.38	24.3	ENE	-23.9	-12.4	-24.1	746.2	0.021	0.000	21.7	6	-17.6	18.8	1.53	 .0733	23	1	100.0	1
09/02/24	5:23	-12.3	-12.3	-12.3	55	-19.5	22.6	ENE	0.38	24.3	ENE	-24.0	-12.5	-24.2	746.2	0.021	0.000	21.7	6	-17.6	18.8	1.53	 .0733	24	1	100.0	1
09/02/24	5:24	-12.3	-12.3	-12.3	55	-19.5	22.6	ENE	0.38	23.5	ENE	-24.0	-12.5	-24.2	746.2	0.021	0.000	21.7	6	-17.6	18.8	1.53	 .0733	23	1	100.0	1
09/02/24	5:25	-12.3	-12.3	-12.3	55	-19.5	22.6	ENE	0.38	23.5	ENE	-24.0	-12.5	-24.2	746.1	0.021	0.000	21.6	6	-17.6	18.7	1.53	 .0733	23	1	100.0	1
09/02/24	5:26	-12.3	-12.3	-12.3	55	-19.5	22.6	ENE	0.38	24.3	ENE	-24.0	-12.5	-24.2	746.2	0.021	0.000	21.6	6	-17.6	18.7	1.53	 .0733	24	1	100.0	1
09/02/24	5:27	-12.3	-12.3	-12.3	55	-19.5	23.5	ENE	0.39	25.2	ENE	-24.2	-12.5	-24.3	746.1	0.021	0.000	21.6	6	-17.6	18.7	1.53	 .0733	23	1	100.0	1
09/02/24	5:28	-12.4	-12.3	-12.4	55	-19.6	22.6	ENE	0.38	24.3	ENE	-24.1	-12.6	-24.3	746.1	0.021	0.000	21.6	6	-17.6	18.6	1.53	 .0733	24	1	100.0	1
09/02/24	5:29	-12.3	-12.3	-12.4	55	-19.5	23.5	ENE	0.39	25.2	ENE	-24.2	-12.5	-24.3	746.1	0.021	0.000	21.6	6	-17.6	18.6	1.53	 .0733	23	1	100.0	1
09/02/24	5:30	-12.4	-12.4	-12.4	56	-19.4	23.5	ENE	0.39	25.2	ENE	-24.3	-12.6	-24.4	746.1	0.021	0.000	21.6	6	-17.6	18.6	1.53	 .0733	24	1	100.0	1
09/02/24	5:31	-12.4	-12.4	-12.4	56	-19.4	23.5	ENE	0.39	24.3	ENE	-24.3	-12.6	-24.5	746.1	0.021	0.000	21.6	6	-17.6	18.6	1.53	 .0733	23	1	100.0	1
09/02/24	5:32	-12.5	-12.5	-12.5	56	-19.5	24.3	ENE	0.41	25.2	ENE	-24.6	-12.7	-24.8	746.1	0.021	0.000	21.5	6	-17.7	18.5	1.54	 .0733	23	1	100.0	1
09/02/24	5:33	-12.6	-12.5	-12.6	56	-19.5	24.3	ENE	0.41	26.1	ENE	-24.7	-12.7	-24.8	746.0	0.021	0.000	21.5	6	-17.7	18.5	1.54	 .0733	24	1	100.0	1
09/02/24	5:34	-12.4	-12.4	-12.5	57	-19.2	23.5	ENE	0.39	26.1	ENE	-24.3	-12.6	-24.5	746.0	0.021	0.000	21.5	6	-17.7	18.5	1.54	 .0733	23	1	100.0	1
09/02/24	5:35	-12.5	-12.4	-12.5	57	-19.3	24.3	ENE	0.41	26.1	ENE	-24.6	-12.7	-24.8	746.0	0.021	0.000	21.4	6	-17.7	18.4	1.54	 .0734	24	1	100.0	1
09/02/24	5:36	-12.4	-12.4	-12.5	57	-19.2	24.3	ENE	0.41	26.1	ENE	-24.4	-12.6	-24.6	746.0	0.021	0.000	21.4	6	-17.7	18.4	1.54	 .0733	23	1	100.0	1
09/02/24	5:37	-12.4	-12.4	-12.4	57	-19.2	24.3	ENE	0.41	26.1	ENE	-24.4	-12.6	-24.6	746.0	0.021	0.000	21.4	6	-17.7	18.4	1.54	 .0733	23	1	100.0	1
09/02/24	5:38	-12.3	-12.3	-12.4	57	-19.1	24.3	ENE	0.41	26.1	ENE	-24.4	-12.5	-24.6	746.0	0.021	0.000	21.4	6	-17.7	18.4	1.54	 .0733	24	1	100.0	1
09/02/24	5:39	-12.3	-12.3	-12.3	57	-19.1	24.3	ENE	0.41	25.2	ENE	-24.4	-12.5	-24.6	745.9	0.021	0.000	21.4	6	-17.7	18.4	1.54	 .0733	23	1	100.0	1
09/02/24	5:40	-12.2	-12.2	-12.3	57	-19.0	24.3	ENE	0.41	26.1	ENE	-24.2	-12.4	-24.4	746.0	0.021	0.000	21.4	6	-17.7	18.4	1.54	 .0733	24	1	100.0	1
09/02/24	5:41	-12.2	-12.2	-12.2	56	-19.2	23.5	ENE	0.39	25.2	ENE	-23.9	-12.3	-24.1	745.9	0.021	0.000	21.4	6	-17.7	18.4	1.54	 .0733	23	1	100.0	1
09/02/24	5:42	-12.1	-12.1	-12.2	56	-19.1	24.3	ENE	0.41	26.1	ENE	-24.1	-12.3	-24.2	745.9	0.021	0.000	21.4	6	-17.7	18.4	1.54	 .0733	24	1	100.0	1
09/02/24	5:43	-12.1	-12.1	-12.1	57	-18.9	25.2	ENE	0.42	27.0	ENE	-24.2	-12.2	-24.3	745.9	0.021	0.000	21.4	6	-17.7	18.4	1.54	 .0733	23	1	100.0	1
09/02/24	5:44	-12.1	-12.0	-12.1	57	-18.9	23.5	ENE	0.39	25.2	ENE	-23.8	-12.2	-24.0	745.8	0.021	0.000	21.4	6	-17.7	18.4	1.54	 .0733	23	1	100.0	1
09/02/24	5:45	-12.1	-12.1	-12.1	57	-18.9	23.5	ENE	0.39	25.2	ENE	-23.8	-12.2	-24.0	745.8	0.021	0.000	21.4	6	-17.7	18.4	1.54	 .0733	24	1	100.0	1
09/02/24	5:46	-12.1	-12.1	-12.1	57	-18.9	24.3	ENE	0.41	26.1	ENE	-24.0	-12.2	-24.2	745.8	0.021	0.000	21.4	6	-17.7	18.4	1.54	 .0733	23	1	100.0	1
09/02/24	5:47	-12.1	-12.1	-12.1	57	-18.9	24.3	ENE	0.41	25.2	ENE	-24.0	-12.2	-24.2	745.8	0.021	0.000	21.4	6	-17.7	18.4	1.54	 .0733	24	1	100.0	1
09/02/24	5:48	-12.1	-12.1	-12.1	57	-18.9	24.3	ENE	0.41	26.1	ENE	-24.0	-12.2	-24.2	745.8	0.021	0.000	21.4	6	-17.7	18.4	1.54	 .0733	23	1	100.0	1
09/02/24	5:49	-12.1	-12.1	-12.1	57	-18.9	24.3	ENE	0.41	26.1	ENE	-24.0	-12.2	-24.2	745.8	0.021	0.000	21.4	6	-17.7	18.4	1.54	 .0733	23	1	100.0	1
09/02/24	5:50	-11.9	-11.9	-12.1	58	-18.5	23.5	ENE	0.39	26.1	ENE	-23.7	-12.1	-23.8	745.8	0.021	0.000	21.5	6	-17.7	18.5	1.54	 .0733	24	1	100.0	1
09/02/24	5:51	-11.9	-11.9	-11.9	58	-18.5	24.3	ENE	0.41	25.2	ENE	-23.8	-12.1	-23.9	745.8	0.021	0.000	21.5	6	-17.7	18.5	1.54	 .0733	23	1	100.0	1
09/02/24	5:52	-11.8	-11.8	-11.8	58	-18.4	23.5	ENE	0.39	25.2	ENE	-23.5	-12.0	-23.7	745.8	0.021	0.000	21.5	6	-17.7	18.5	1.54	 .0733	24	1	100.0	1
09/02/24	5:53	-11.8	-11.8	-11.8	57	-18.6	22.6	ENE	0.38	24.3	ENE	-23.3	-11.9	-23.4	745.8	0.021	0.000	21.5	6	-17.7	18.5	1.54	 .0733	23	1	100.0	1
09/02/24	5:54	-11.7	-11.7	-11.8	57	-18.5	22.6	ENE	0.38	23.5	ENE	-23.2	-11.9	-23.3	745.8	0.021	0.000	21.5	6	-17.7	18.5	1.54	 .0733	23	1	100.0	1
09/02/24	5:55	-11.7	-11.7	-11.7	57	-18.5	23.5	ENE	0.39	24.3	ENE	-23.3	-11.8	-23.4	745.8	0.021	0.000	21.5	6	-17.7	18.5	1.54	 .0733	24	1	100.0	1
09/02/24	5:56	-11.6	-11.6	-11.6	57	-18.4	22.6	ENE	0.38	24.3	ENE	-23.1	-11.8	-23.2	745.8	0.021	0.000	21.5	6	-17.7	18.5	1.54	 .0733	23	1	100.0	1
09/02/24	5:57	-11.6	-11.6	-11.6	57	-18.4	22.6	ENE	0.38	24.3	ENE	-22.9	-11.7	-23.1	745.8	0.021	0.000	21.5	6	-17.7	18.5	1.54	 .0733	24	1	100.0	1
09/02/24	5:58	-11.6	-11.6	-11.6	58	-18.2	21.7	ENE	0.36	24.3	ENE	-22.8	-11.7	-22.9	745.8	0.021	0.000	21.5	6	-17.7	18.5	1.54	 .0733	23	1	100.0	1
09/02/24	5:59	-11.6	-11.6	-11.6	58	-18.2	21.7	ENE	0.36	23.5	ENE	-22.8	-11.7	-22.9	745.8	0.021	0.000	21.6	6	-17.6	18.6	1.53	 .0733	24	1	100.0	1
09/02/24	6:00	-11.6	-11.6	-11.6	58	-18.2	22.6	ENE	0.38	23.5	ENE	-22.9	-11.7	-23.1	745.7	0.021	0.000	21.6	6	-17.6	18.6	1.53	 .0733	23	1	100.0	1
09/02/24	6:01	-11.6	-11.6	-11.6	58	-18.2	21.7	ENE	0.36	23.5	ENE	-22.8	-11.7	-22.9	745.7	0.021	0.000	21.6	6	-17.6	18.6	1.53	 .0733	23	1	100.0	1
09/02/24	6:02	-11.5	-11.5	-11.6	58	-18.1	21.7	ENE	0.36	22.6	ENE	-22.7	-11.7	-22.9	745.8	0.021	0.000	21.6	6	-17.6	18.6	1.53	 .0733	24	1	100.0	1
09/02/24	6:03	-11.4	-11.4	-11.5	58	-18.1	21.7	ENE	0.36	22.6	ENE	-22.7	-11.6	-22.8	745.8	0.021	0.000	21.6	6	-17.6	18.6	1.53	 .0733	23	1	100.0	1
09/02/24	6:04	-11.3	-11.3	-11.4	58	-18.0	21.7	ENE	0.36	24.3	ENE	-22.5	-11.5	-22.7	745.8	0.021	0.000	21.6	6	-17.6	18.6	1.53	 .0733	24	1	100.0	1
09/02/24	6:05	-11.3	-11.3	-11.3	57	-18.1	21.7	ENE	0.36	22.6	ENE	-22.4	-11.4	-22.6	745.8	0.021	0.000	21.5	6	-17.7	18.5	1.54	 .0733	23	1	100.0	1
09/02/24	6:06	-11.2	-11.2	-11.2	57	-18.0	20.9	ENE	0.35	21.7	ENE	-22.1	-11.4	-22.3	745.8	0.020	0.000	21.6	6	-17.6	18.6	1.53	 .0733	23	1	100.0	1
09/02/24	6:07	-11.2	-11.2	-11.2	57	-18.0	20.9	ENE	0.35	21.7	ENE	-22.1	-11.4	-22.3	745.8	0.020	0.000	21.5	6	-17.7	18.5	1.54	 .0733	24	1	100.0	1
09/02/24	6:08	-11.1	-11.1	-11.2	57	-17.9	20.0	ENE	0.33	20.9	ENE	-21.7	-11.3	-21.9	745.8	0.020	0.000	21.5	6	-17.7	18.5	1.54	 .0733	23	1	100.0	1
09/02/24	6:09	-10.9	-10.9	-11.1	57	-17.8	20.0	ENE	0.33	21.7	ENE	-21.6	-11.2	-21.8	745.8	0.020	0.000	21.5	6	-17.7	18.5	1.54	 .0733	24	1	100.0	1
09/02/24	6:10	-10.8	-10.8	-10.9	57	-17.7	20.0	ENE	0.33	20.9	ENE	-21.4	-11.1	-21.7	745.7	0.020	0.000	21.4	6	-17.7	18.4	1.54	 .0733	23	1	100.0	1
09/02/24	6:11	-10.7	-10.7	-10.8	56	-17.8	20.0	ENE	0.33	21.7	ENE	-21.2	-10.9	-21.4	745.7	0.020	0.000	21.4	6	-17.7	18.4	1.54	 .0733	24	1	100.0	1
09/02/24	6:12	-10.6	-10.6	-10.7	56	-17.7	20.0	ENE	0.33	21.7	ENE	-21.2	-10.8	-21.4	745.7	0.020	0.000	21.4	6	-17.7	18.4	1.54	 .0733	23	1	100.0	1
09/02/24	6:13	-10.3	-10.3	-10.6	56	-17.4	19.1	ENE	0.32	20.0	ENE	-20.6	-10.6	-20.8	745.7	0.020	0.000	21.4	6	-17.7	18.4	1.54	 .0733	23	1	100.0	1
09/02/24	6:14	-10.3	-10.3	-10.3	55	-17.6	19.1	ENE	0.32	20.0	ENE	-20.5	-10.5	-20.7	745.7	0.020	0.000	21.4	6	-17.8	18.3	1.54	 .0733	24	1	100.0	1
09/02/24	6:15	-10.2	-10.2	-10.3	54	-17.8	18.3	ENE	0.30	20.0	ENE	-20.2	-10.4	-20.4	745.7	0.020	0.000	21.4	6	-17.8	18.3	1.54	 .0733	23	1	100.0	1
09/02/24	6:16	-10.2	-10.2	-10.2	54	-17.8	17.4	ENE	0.29	19.1	ENE	-20.1	-10.4	-20.3	745.7	0.020	0.000	21.4	6	-17.8	18.3	1.54	 .0733	24	1	100.0	1
09/02/24	6:17	-10.4	-10.3	-10.4	54	-17.9	18.3	ENE	0.30	19.1	ENE	-20.4	-10.6	-20.7	745.7	0.020	0.000	21.3	6	-17.8	18.2	1.54	 .0733	23	1	100.0	1
09/02/24	6:18	-10.4	-10.4	-10.4	55	-17.8	19.1	ENE	0.32	20.0	ENE	-20.7	-10.7	-20.9	745.7	0.020	0.000	21.3	6	-17.8	18.2	1.54	 .0733	23	1	100.0	1
09/02/24	6:19	-10.4	-10.4	-10.4	55	-17.8	18.3	ENE	0.30	19.1	ENE	-20.6	-10.7	-20.8	745.7	0.020	0.000	21.3	6	-17.8	18.2	1.54	 .0733	24	1	100.0	1
09/02/24	6:20	-10.4	-10.4	-10.4	55	-17.8	18.3	ENE	0.30	20.0	ENE	-20.6	-10.7	-20.8	745.7	0.020	0.000	21.3	6	-17.8	18.2	1.54	 .0733	23	1	100.0	1
09/02/24	6:21	-10.4	-10.4	-10.4	54	-18.0	20.0	ENE	0.33	20.9	ENE	-20.9	-10.7	-21.2	745.6	0.020	0.000	21.3	6	-17.8	18.1	1.54	 .0734	24	1	100.0	1
09/02/24	6:22	-10.2	-10.2	-10.4	54	-17.7	19.1	ENE	0.32	21.7	ENE	-20.4	-10.4	-20.6	745.6	0.020	0.000	21.3	6	-17.8	18.1	1.54	 .0734	23	1	100.0	1
09/02/24	6:23	-9.9	-9.9	-10.1	54	-17.5	18.3	ENE	0.30	19.1	ENE	-19.8	-10.1	-20.0	745.7	0.020	0.000	21.3	6	-17.8	18.1	1.54	 .0734	24	1	100.0	1
09/02/24	6:24	-9.9	-9.8	-9.9	53	-17.7	16.5	ENE	0.28	18.3	ENE	-19.4	-10.1	-19.6	745.7	0.020	0.000	21.3	6	-17.8	18.1	1.54	 .0734	23	1	100.0	1
09/02/24	6:25	-9.9	-9.9	-9.9	53	-17.7	16.5	ENE	0.28	18.3	ENE	-19.4	-10.2	-19.7	745.7	0.020	0.000	21.3	6	-17.8	18.1	1.54	 .0734	23	1	100.0	1
09/02/24	6:26	-10.0	-10.0	-10.0	52	-18.0	15.7	ENE	0.26	18.3	ENE	-19.3	-10.2	-19.5	745.7	0.020	0.000	21.3	6	-17.8	18.1	1.54	 .0734	24	1	100.0	1
09/02/24	6:27	-10.1	-10.0	-10.1	52	-18.1	15.7	ENE	0.26	18.3	ENE	-19.4	-10.3	-19.6	745.8	0.020	0.000	21.3	6	-17.8	18.1	1.54	 .0734	23	1	100.0	1
09/02/24	6:28	-10.1	-10.1	-10.1	52	-18.1	17.4	ENE	0.29	18.3	ENE	-19.8	-10.3	-20.1	745.7	0.020	0.000	21.3	6	-17.8	18.1	1.54	 .0734	24	1	100.0	1
09/02/24	6:29	-10.2	-10.1	-10.2	52	-18.2	16.5	ENE	0.28	17.4	ENE	-19.7	-10.4	-19.9	745.7	0.020	0.000	21.3	6	-17.8	18.1	1.54	 .0734	23	1	100.0	1
09/02/24	6:30	-10.2	-10.2	-10.2	52	-18.2	16.5	ENE	0.28	18.3	ENE	-19.8	-10.4	-20.1	745.7	0.020	0.000	21.3	6	-17.8	18.1	1.54	 .0734	23	1	100.0	1
09/02/24	6:31	-10.3	-10.2	-10.3	52	-18.3	15.7	ENE	0.26	20.9	ENE	-19.7	-10.5	-19.9	745.7	0.020	0.000	21.3	6	-17.8	18.1	1.54	 .0734	24	1	100.0	1
09/02/24	6:32	-10.1	-10.1	-10.3	52	-18.1	18.3	ENE	0.30	21.7	ENE	-20.0	-10.3	-20.2	745.5	0.020	0.000	21.3	6	-17.8	18.1	1.54	 .0733	23	1	100.0	1
09/02/24	6:33	-9.9	-9.9	-10.1	52	-17.9	17.4	ENE	0.29	19.1	ENE	-19.6	-10.1	-19.8	745.6	0.020	0.000	21.3	6	-17.8	18.1	1.54	 .0734	24	1	100.0	1
09/02/24	6:34	-9.8	-9.8	-9.9	51	-18.1	17.4	ENE	0.29	19.1	ENE	-19.5	-10.1	-19.7	745.6	0.020	0.000	21.3	6	-17.8	18.2	1.54	 .0733	23	1	100.0	1
09/02/24	6:35	-9.7	-9.7	-9.8	50	-18.2	16.5	ENE	0.28	18.3	ENE	-19.2	-9.9	-19.4	745.6	0.019	0.000	21.3	6	-17.8	18.2	1.54	 .0733	23	1	100.0	1
09/02/24	6:36	-9.7	-9.6	-9.7	50	-18.2	15.7	ENE	0.26	18.3	ENE	-18.8	-9.9	-19.1	745.6	0.019	0.000	21.3	6	-17.8	18.2	1.54	 .0733	24	1	100.0	1
09/02/24	6:37	-9.7	-9.7	-9.7	50	-18.2	15.7	ENE	0.26	16.5	ENE	-18.8	-9.9	-19.1	745.6	0.019	0.000	21.4	6	-17.8	18.3	1.54	 .0733	23	1	100.0	1
09/02/24	6:38	-9.7	-9.7	-9.7	50	-18.2	15.7	ENE	0.26	18.3	ENE	-18.9	-9.9	-19.2	745.6	0.019	0.000	21.3	6	-17.8	18.2	1.54	 .0733	24	1	100.0	1
09/02/24	6:39	-9.8	-9.8	-9.8	50	-18.3	13.9	ENE	0.23	17.4	ENE	-18.6	-10.1	-18.8	745.6	0.020	0.000	21.3	6	-17.8	18.2	1.54	 .0733	23	1	100.0	1
09/02/24	6:40	-9.7	-9.7	-9.8	50	-18.2	13.9	ENE	0.23	16.5	ENE	-18.4	-9.9	-18.7	745.6	0.019	0.000	21.4	6	-17.8	18.3	1.54	 .0733	24	1	100.0	1
09/02/24	6:41	-9.7	-9.7	-9.7	50	-18.2	11.3	E	0.19	16.5	E	-17.6	-9.9	-17.9	745.6	0.019	0.000	21.4	6	-17.8	18.3	1.54	 .0733	23	1	100.0	1
09/02/24	6:42	-9.6	-9.6	-9.7	50	-18.1	12.2	ENE	0.20	13.9	ENE	-17.8	-9.9	-18.1	745.6	0.019	0.000	21.4	6	-17.8	18.3	1.54	 .0733	23	1	100.0	1
09/02/24	6:43	-9.7	-9.7	-9.7	49	-18.5	14.8	ENE	0.25	17.4	ENE	-18.7	-10.0	-18.9	745.6	0.019	0.000	21.4	6	-17.8	18.3	1.54	 .0733	24	1	100.0	1
09/02/24	6:44	-9.7	-9.7	-9.7	49	-18.4	14.8	ENE	0.25	15.7	ENE	-18.6	-9.9	-18.9	745.6	0.019	0.000	21.4	6	-17.8	18.3	1.54	 .0733	23	1	100.0	1
09/02/24	6:45	-9.5	-9.5	-9.7	50	-18.0	14.8	ENE	0.25	15.7	ENE	-18.4	-9.8	-18.7	745.7	0.019	0.000	21.4	6	-17.8	18.3	1.54	 .0733	24	1	100.0	1
09/02/24	6:46	-9.4	-9.4	-9.5	49	-18.1	14.8	ENE	0.25	16.5	ENE	-18.3	-9.7	-18.6	745.7	0.019	0.000	21.4	6	-17.7	18.4	1.54	 .0733	23	1	100.0	1
09/02/24	6:47	-9.3	-9.3	-9.4	49	-18.1	13.9	ENE	0.23	14.8	ENE	-17.9	-9.6	-18.2	745.7	0.019	0.000	21.4	6	-17.7	18.4	1.54	 .0733	24	1	100.0	1
09/02/24	6:48	-9.4	-9.3	-9.4	49	-18.1	13.9	ENE	0.23	14.8	ENE	-18.0	-9.7	-18.3	745.7	0.019	0.000	21.4	6	-17.7	18.4	1.54	 .0733	23	1	100.0	1
09/02/24	6:49	-9.4	-9.3	-9.4	49	-18.1	13.0	ENE	0.22	13.9	ENE	-17.8	-9.7	-18.1	745.7	0.019	0.000	21.4	6	-17.7	18.4	1.54	 .0733	23	1	100.0	1
09/02/24	6:50	-9.3	-9.3	-9.4	49	-18.1	13.0	ENE	0.22	16.5	ENE	-17.7	-9.6	-18.0	745.7	0.019	0.000	21.4	6	-17.7	18.4	1.54	 .0733	24	1	100.0	1
09/02/24	6:51	-9.2	-9.2	-9.3	48	-18.2	11.3	ENE	0.19	13.0	ENE	-17.1	-9.5	-17.3	745.7	0.019	0.000	21.4	6	-17.7	18.4	1.54	 .0733	23	1	100.0	1
09/02/24	6:52	-9.3	-9.2	-9.3	48	-18.3	13.0	ENE	0.22	14.8	ENE	-17.7	-9.6	-17.9	745.7	0.019	0.000	21.4	6	-17.7	18.4	1.54	 .0733	24	1	100.0	1
09/02/24	6:53	-9.3	-9.3	-9.3	48	-18.3	13.0	ENE	0.22	14.8	ENE	-17.7	-9.6	-18.0	745.6	0.019	0.000	21.4	6	-17.7	18.4	1.54	 .0733	23	1	100.0	1
09/02/24	6:54	-9.3	-9.3	-9.3	48	-18.3	12.2	ENE	0.20	13.0	ENE	-17.4	-9.6	-17.7	745.7	0.019	0.000	21.4	6	-17.7	18.4	1.54	 .0733	23	1	100.0	1
09/02/24	6:55	-9.2	-9.2	-9.3	48	-18.2	12.2	ENE	0.20	13.9	ENE	-17.3	-9.5	-17.6	745.7	0.019	0.000	21.4	6	-17.7	18.4	1.54	 .0733	24	1	100.0	1
09/02/24	6:56	-9.2	-9.2	-9.2	48	-18.2	13.0	ENE	0.22	14.8	ENE	-17.5	-9.4	-17.8	745.7	0.019	0.000	21.4	6	-17.7	18.4	1.54	 .0733	23	1	100.0	1
09/02/24	6:57	-9.1	-9.1	-9.2	48	-18.1	12.2	ENE	0.20	13.0	ENE	-17.1	-9.3	-17.4	745.7	0.019	0.000	21.4	6	-17.7	18.4	1.54	 .0733	24	1	100.0	1
09/02/24	6:58	-9.1	-9.1	-9.1	48	-18.1	10.4	ENE	0.17	12.2	ENE	-16.5	-9.3	-16.8	745.7	0.019	0.000	21.4	6	-17.7	18.4	1.54	 .0733	23	1	100.0	1
09/02/24	6:59	-9.0	-9.0	-9.0	48	-18.0	11.3	ENE	0.19	13.0	NE	-16.7	-9.3	-17.0	745.7	0.019	0.000	21.4	6	-17.8	18.3	1.54	 .0733	23	1	100.0	1
09/02/24	7:00	-9.0	-9.0	-9.0	47	-18.3	10.4	ENE	0.17	11.3	ENE	-16.4	-9.3	-16.7	745.7	0.019	0.000	21.4	6	-17.8	18.3	1.54	 .0733	24	1	100.0	1
09/02/24	7:01	-8.9	-8.9	-9.0	47	-18.2	11.3	ENE	0.19	13.0	ENE	-16.7	-9.2	-16.9	745.7	0.019	0.000	21.4	6	-17.8	18.3	1.54	 .0733	23	1	100.0	1
09/02/24	7:02	-8.7	-8.7	-8.9	47	-18.0	9.6	ENE	0.16	11.3	ENE	-15.8	-9.0	-16.1	745.7	0.019	0.000	21.4	6	-17.8	18.3	1.54	 .0733	24	1	100.0	1
09/02/24	7:03	-8.6	-8.6	-8.7	47	-17.9	10.4	ENE	0.17	12.2	ENE	-15.9	-8.9	-16.2	745.7	0.019	0.000	21.4	6	-17.8	18.3	1.54	 .0733	23	1	100.0	1
09/02/24	7:04	-8.6	-8.6	-8.6	46	-18.1	10.4	ENE	0.17	11.3	ENE	-15.9	-8.8	-16.2	745.6	0.019	0.000	21.4	6	-17.8	18.3	1.54	 .0733	24	1	100.0	1
09/02/24	7:05	-8.5	-8.5	-8.6	46	-18.1	10.4	ENE	0.17	11.3	NE	-15.8	-8.8	-16.1	745.7	0.019	0.000	21.3	6	-17.8	18.2	1.54	 .0733	23	1	100.0	1
09/02/24	7:06	-8.4	-8.4	-8.5	46	-18.0	10.4	ENE	0.17	11.3	ENE	-15.7	-8.7	-16.0	745.7	0.019	0.000	21.3	6	-17.8	18.2	1.54	 .0733	23	1	100.0	1
09/02/24	7:07	-8.4	-8.4	-8.4	46	-18.0	9.6	ENE	0.16	10.4	NE	-15.3	-8.7	-15.6	745.7	0.019	0.000	21.3	6	-17.8	18.2	1.54	 .0733	24	1	100.0	1
09/02/24	7:08	-8.3	-8.3	-8.4	46	-17.9	8.7	ENE	0.14	10.4	ENE	-14.9	-8.6	-15.2	745.7	0.019	0.000	21.3	6	-17.8	18.2	1.54	 .0733	23	1	100.0	1
09/02/24	7:09	-8.3	-8.3	-8.3	46	-17.9	7.8	ENE	0.13	8.7	ENE	-14.5	-8.6	-14.8	745.7	0.018	0.000	21.3	6	-17.8	18.2	1.54	 .0734	24	1	100.0	1
09/02/24	7:10	-8.2	-8.2	-8.2	45	-18.0	7.8	ENE	0.13	8.7	ENE	-14.3	-8.4	-14.6	745.7	0.018	0.000	21.3	5	-19.9	18.2	1.25	 .0734	23	1	100.0	1
09/02/24	7:11	-8.2	-8.2	-8.2	45	-18.1	8.7	ENE	0.14	9.6	ENE	-14.8	-8.5	-15.1	745.7	0.018	0.000	21.3	6	-17.8	18.2	1.54	 .0734	23	1	100.0	1
09/02/24	7:12	-8.2	-8.2	-8.2	45	-18.0	8.7	ENE	0.14	9.6	ENE	-14.7	-8.4	-15.0	745.7	0.018	0.000	21.3	6	-17.8	18.2	1.54	 .0733	24	1	100.0	1
09/02/24	7:13	-8.2	-8.2	-8.2	45	-18.0	7.8	ENE	0.13	9.6	ENE	-14.3	-8.4	-14.6	745.7	0.018	0.000	21.3	5	-19.9	18.2	1.25	 .0734	23	1	100.0	1
09/02/24	7:14	-8.2	-8.2	-8.2	45	-18.0	7.8	NE	0.13	8.7	NE	-14.3	-8.4	-14.6	745.8	0.018	0.000	21.3	5	-19.9	18.2	1.25	 .0734	24	1	100.0	1
09/02/24	7:15	-8.2	-8.2	-8.2	45	-18.1	8.7	ENE	0.14	9.6	ENE	-14.8	-8.5	-15.1	745.7	0.018	0.000	21.3	5	-19.9	18.2	1.25	 .0734	23	1	100.0	1
09/02/24	7:16	-8.2	-8.2	-8.2	45	-18.1	7.8	NE	0.13	9.6	NE	-14.4	-8.5	-14.7	745.7	0.018	0.000	21.3	5	-19.9	18.2	1.25	 .0734	24	1	100.0	1
09/02/24	7:17	-8.2	-8.2	-8.2	45	-18.1	8.7	NE	0.14	9.6	NE	-14.8	-8.5	-15.1	745.7	0.018	0.000	21.3	5	-19.9	18.2	1.25	 .0734	23	1	100.0	1
09/02/24	7:18	-8.3	-8.2	-8.3	45	-18.2	8.7	ENE	0.14	9.6	ENE	-14.9	-8.6	-15.2	745.6	0.019	0.000	21.3	5	-19.9	18.2	1.25	 .0734	23	1	100.0	1
09/02/24	7:19	-8.4	-8.3	-8.4	44	-18.5	7.8	ENE	0.13	10.4	ENE	-14.7	-8.7	-14.9	745.7	0.019	0.000	21.4	5	-19.9	18.2	1.25	 .0734	24	1	100.0	1
09/02/24	7:20	-8.7	-8.4	-8.7	43	-19.1	6.1	SE	0.10	7.8	SE	-14.1	-9.0	-14.4	745.7	0.019	0.000	21.4	5	-19.9	18.2	1.25	 .0734	23	1	100.0	1
09/02/24	7:21	-9.2	-8.8	-9.2	44	-19.2	4.3	SE	0.07	7.0	SE	-13.5	-9.4	-13.8	745.7	0.019	0.000	21.4	5	-19.9	18.2	1.25	 .0734	24	1	100.0	1
09/02/24	7:22	-9.6	-9.3	-9.6	45	-19.3	4.3	SE	0.07	6.1	SE	-13.9	-9.8	-14.2	745.7	0.019	0.000	21.4	5	-19.9	18.2	1.25	 .0734	23	1	100.0	1
09/02/24	7:23	-9.9	-9.6	-9.9	45	-19.7	7.8	SE	0.13	8.7	SE	-16.5	-10.2	-16.8	745.7	0.020	0.000	21.4	5	-19.9	18.2	1.25	 .0734	23	1	100.0	1
09/02/24	7:24	-10.5	-10.1	-10.5	45	-20.2	7.0	SE	0.12	7.8	SE	-16.8	-10.8	-17.1	745.7	0.020	0.000	21.4	5	-19.9	18.2	1.25	 .0734	24	1	100.0	1
09/02/24	7:25	-11.2	-10.6	-11.2	45	-20.8	5.2	SE	0.09	7.0	SE	-16.6	-11.4	-16.8	745.7	0.021	0.000	21.4	5	-19.9	18.2	1.25	 .0734	23	1	100.0	1
09/02/24	7:26	-11.8	-11.3	-11.8	46	-21.1	3.5	SE	0.06	6.1	SE	-15.8	-12.1	-16.1	745.7	0.021	0.000	21.4	5	-19.9	18.2	1.25	 .0734	24	1	100.0	1
09/02/24	7:27	-12.1	-11.9	-12.1	49	-20.6	3.5	SE	0.06	4.3	SE	-16.1	-12.3	-16.3	745.7	0.021	0.000	21.4	5	-19.9	18.3	1.25	 .0733	23	1	100.0	1
09/02/24	7:28	-12.0	-12.0	-12.1	51	-20.1	3.5	SE	0.06	6.1	SE	-16.1	-12.2	-16.3	745.7	0.021	0.000	21.4	5	-19.9	18.3	1.25	 .0733	23	1	100.0	1
09/02/24	7:29	-11.9	-11.9	-12.0	53	-19.6	2.6	SE	0.04	3.5	SE	-14.9	-12.1	-15.1	745.7	0.021	0.000	21.4	5	-19.9	18.3	1.25	 .0733	24	1	100.0	1
09/02/24	7:30	-11.8	-11.8	-11.9	54	-19.2	2.6	SE	0.04	2.6	SE	-14.8	-11.9	-15.0	745.7	0.021	0.000	21.4	5	-19.9	18.3	1.25	 .0733	23	1	100.0	1
09/02/24	7:31	-11.7	-11.7	-11.8	54	-19.1	1.7	SE	0.03	3.5	SE	-13.4	-11.8	-13.6	745.6	0.021	0.000	21.4	5	-19.9	18.3	1.25	 .0733	24	1	100.0	1
09/02/24	7:32	-11.5	-11.5	-11.7	55	-18.8	2.6	SE	0.04	2.6	SE	-14.5	-11.7	-14.7	745.6	0.021	0.000	21.5	5	-19.8	18.4	1.25	 .0733	23	1	100.0	1
09/02/24	7:33	-11.3	-11.3	-11.5	55	-18.6	2.6	SE	0.04	2.6	SE	-14.3	-11.6	-14.6	745.6	0.021	0.000	21.5	5	-19.8	18.4	1.25	 .0733	24	1	100.0	1
09/02/24	7:34	-11.2	-11.2	-11.3	55	-18.4	2.6	SE	0.04	3.5	SE	-14.1	-11.4	-14.3	745.6	0.020	0.000	21.5	5	-19.8	18.4	1.25	 .0733	23	1	100.0	1
09/02/24	7:35	-10.9	-10.9	-11.1	55	-18.2	1.7	SE	0.03	2.6	SE	-12.6	-11.2	-12.8	745.6	0.020	0.000	21.5	5	-19.8	18.4	1.25	 .0733	23	1	100.0	1
09/02/24	7:36	-10.7	-10.7	-10.9	55	-18.0	1.7	SE	0.03	2.6	SE	-12.3	-10.9	-12.6	745.6	0.020	0.000	21.5	5	-19.8	18.4	1.25	 .0733	24	1	100.0	1
09/02/24	7:37	-10.6	-10.6	-10.7	54	-18.1	1.7	SE	0.03	2.6	SE	-12.2	-10.8	-12.4	745.6	0.020	0.000	21.5	5	-19.8	18.4	1.25	 .0733	23	1	100.0	1
09/02/24	7:38	-10.3	-10.3	-10.5	53	-18.0	2.6	SE	0.04	3.5	SE	-13.1	-10.5	-13.3	745.6	0.020	0.000	21.4	5	-19.9	18.3	1.25	 .0733	24	1	100.0	1
09/02/24	7:39	-10.0	-10.0	-10.3	52	-18.0	2.6	SE	0.04	3.5	SE	-12.8	-10.2	-13.0	745.6	0.020	0.000	21.4	5	-19.9	18.3	1.25	 .0733	23	1	100.0	1
09/02/24	7:40	-9.8	-9.8	-10.0	52	-17.9	2.6	SE	0.04	3.5	SE	-12.6	-10.1	-12.8	745.6	0.020	0.000	21.4	5	-19.9	18.3	1.25	 .0733	23	1	100.0	1
09/02/24	7:41	-9.6	-9.6	-9.8	51	-17.8	2.6	SE	0.04	2.6	SE	-12.3	-9.8	-12.6	745.6	0.019	0.000	21.4	5	-19.9	18.3	1.25	 .0733	24	1	100.0	1
09/02/24	7:42	-9.3	-9.3	-9.6	51	-17.6	1.7	SE	0.03	2.6	SE	-10.8	-9.6	-11.1	745.6	0.019	0.000	21.4	5	-19.9	18.3	1.25	 .0733	23	1	100.0	1
09/02/24	7:43	-9.2	-9.2	-9.3	50	-17.7	1.7	SE	0.03	1.7	SE	-10.7	-9.4	-10.9	745.6	0.019	0.000	21.4	5	-19.9	18.3	1.25	 .0733	24	1	100.0	1
09/02/24	7:44	-8.9	-8.9	-9.1	49	-17.7	0.9	SE	0.01	1.7	SE	-8.9	-9.2	-9.2	745.6	0.019	0.000	21.4	5	-19.9	18.3	1.25	 .0733	23	1	100.0	1
09/02/24	7:45	-8.8	-8.8	-8.9	48	-17.8	0.9	SE	0.01	1.7	SE	-8.8	-9.1	-9.1	745.6	0.019	0.000	21.4	5	-19.9	18.2	1.25	 .0733	24	1	100.0	1
09/02/24	7:46	-8.7	-8.7	-8.8	48	-17.7	1.7	SE	0.03	2.6	SE	-10.1	-8.9	-10.4	745.6	0.019	0.000	21.4	5	-19.9	18.2	1.25	 .0733	23	1	100.0	1
09/02/24	7:47	-8.6	-8.6	-8.6	48	-17.6	1.7	SE	0.03	2.6	SE	-10.0	-8.8	-10.3	745.6	0.019	0.000	21.4	5	-19.9	18.2	1.25	 .0733	23	1	100.0	1
09/02/24	7:48	-8.4	-8.4	-8.5	47	-17.7	1.7	SE	0.03	2.6	SE	-9.8	-8.7	-10.1	745.6	0.019	0.000	21.4	5	-19.9	18.2	1.25	 .0733	24	1	100.0	1
09/02/24	7:49	-8.3	-8.3	-8.4	47	-17.6	1.7	SE	0.03	1.7	SE	-9.7	-8.6	-9.9	745.6	0.018	0.000	21.3	5	-19.9	18.2	1.25	 .0734	23	1	100.0	1
09/02/24	7:50	-8.2	-8.2	-8.3	47	-17.6	0.9	SE	0.01	1.7	SE	-8.2	-8.5	-8.5	745.6	0.018	0.000	21.3	5	-19.9	18.2	1.25	 .0734	24	1	100.0	1
09/02/24	7:51	-8.2	-8.2	-8.2	46	-17.8	0.0	SE	0.00	0.9	SE	-8.2	-8.5	-8.5	745.6	0.018	0.000	21.3	5	-19.9	18.2	1.25	 .0734	23	1	100.0	1
09/02/24	7:52	-8.2	-8.2	-8.2	46	-17.8	0.0	SE	0.00	0.9	SE	-8.2	-8.5	-8.5	745.6	0.018	0.000	21.3	5	-19.9	18.2	1.25	 .0734	23	1	100.0	1
09/02/24	7:53	-8.2	-8.2	-8.2	46	-17.8	0.0	SE	0.00	0.9	SE	-8.2	-8.5	-8.5	745.6	0.018	0.000	21.3	5	-20.0	18.1	1.25	 .0734	24	1	100.0	1
09/02/24	7:54	-8.2	-8.2	-8.2	46	-17.8	0.0	---	0.00	0.0	---	-8.2	-8.5	-8.5	745.6	0.018	0.000	21.3	5	-20.0	18.1	1.25	 .0734	23	1	100.0	1
09/02/24	7:55	-8.2	-8.2	-8.2	47	-17.6	0.0	---	0.00	0.0	---	-8.2	-8.5	-8.5	745.6	0.018	0.000	21.3	5	-20.0	18.1	1.25	 .0734	24	1	100.0	1
09/02/24	7:56	-8.2	-8.2	-8.3	47	-17.6	0.0	SE	0.00	0.9	SE	-8.2	-8.5	-8.5	745.6	0.018	0.000	21.3	5	-20.0	18.1	1.25	 .0734	23	1	100.0	1
09/02/24	7:57	-8.2	-8.2	-8.3	47	-17.6	0.0	SE	0.00	0.9	SE	-8.2	-8.5	-8.5	745.6	0.018	0.000	21.3	5	-20.0	18.1	1.25	 .0734	24	1	100.0	1
09/02/24	7:58	-8.3	-8.3	-8.3	47	-17.6	0.0	---	0.00	0.0	---	-8.3	-8.6	-8.6	745.6	0.018	0.000	21.3	5	-20.0	18.1	1.25	 .0734	23	1	100.0	1
09/02/24	7:59	-8.3	-8.3	-8.3	47	-17.6	0.0	---	0.00	0.0	---	-8.3	-8.6	-8.6	745.6	0.018	0.000	21.3	5	-20.0	18.1	1.25	 .0734	23	1	100.0	1
09/02/24	8:00	-8.3	-8.3	-8.3	47	-17.7	0.9	SE	0.01	1.7	SE	-8.3	-8.6	-8.6	745.6	0.019	0.000	21.3	5	-20.0	18.1	1.25	 .0734	24	1	100.0	1
09/02/24	8:01	-8.3	-8.3	-8.3	46	-17.9	0.0	SE	0.00	0.9	SE	-8.3	-8.6	-8.6	745.6	0.019	0.000	21.3	5	-20.0	18.1	1.25	 .0734	23	1	100.0	1
09/02/24	8:02	-8.4	-8.3	-8.4	46	-18.0	0.0	SE	0.00	0.9	SE	-8.4	-8.7	-8.7	745.6	0.019	0.000	21.3	5	-20.0	18.1	1.25	 .0734	24	1	100.0	1
09/02/24	8:03	-8.4	-8.4	-8.4	46	-18.0	0.0	SE	0.00	0.9	SE	-8.4	-8.7	-8.7	745.6	0.019	0.000	21.3	5	-20.0	18.1	1.25	 .0734	23	1	100.0	1
09/02/24	8:04	-8.4	-8.4	-8.4	46	-18.0	0.9	SE	0.01	1.7	SE	-8.4	-8.7	-8.7	745.6	0.019	0.000	21.3	5	-20.0	18.1	1.25	 .0734	23	1	100.0	1
09/02/24	8:05	-8.5	-8.4	-8.5	46	-18.1	0.9	SE	0.01	0.9	SE	-8.5	-8.8	-8.8	745.5	0.019	0.000	21.3	5	-20.0	18.1	1.25	 .0734	24	1	100.0	1
09/02/24	8:06	-8.6	-8.5	-8.6	46	-18.2	3.5	SE	0.06	4.3	SE	-12.1	-8.9	-12.4	745.5	0.019	0.000	21.3	5	-19.9	18.2	1.25	 .0734	23	1	100.0	1
09/02/24	8:07	-9.1	-8.7	-9.1	43	-19.4	2.6	SE	0.04	4.3	SE	-11.7	-9.3	-12.0	745.5	0.019	0.000	21.3	5	-19.9	18.2	1.25	 .0733	24	1	100.0	1
09/02/24	8:08	-9.4	-9.1	-9.4	44	-19.5	1.7	SE	0.03	2.6	SE	-10.9	-9.7	-11.2	745.5	0.019	0.000	21.3	5	-19.9	18.2	1.25	 .0733	23	1	100.0	1
09/02/24	8:09	-9.8	-9.5	-9.8	44	-19.8	1.7	SE	0.03	2.6	SE	-11.4	-10.1	-11.7	745.5	0.020	0.000	21.3	5	-19.9	18.2	1.25	 .0733	24	1	100.0	1
09/02/24	8:10	-10.2	-9.9	-10.2	45	-19.9	0.0	SE	0.00	0.9	SE	-10.2	-10.4	-10.4	745.5	0.020	0.000	21.4	5	-19.9	18.2	1.25	 .0733	23	1	100.0	1
09/02/24	8:11	-10.3	-10.2	-10.3	46	-19.8	0.0	---	0.00	0.0	---	-10.3	-10.6	-10.6	745.5	0.020	0.000	21.4	5	-19.9	18.2	1.25	 .0733	23	1	100.0	1
09/02/24	8:12	-10.5	-10.4	-10.5	48	-19.4	0.0	---	0.00	0.0	---	-10.5	-10.7	-10.7	745.5	0.020	0.000	21.4	5	-19.9	18.2	1.25	 .0733	24	1	100.0	1
09/02/24	8:13	-10.6	-10.5	-10.6	49	-19.2	0.0	---	0.00	0.0	---	-10.6	-10.8	-10.8	745.5	0.020	0.000	21.4	5	-19.9	18.2	1.25	 .0733	23	1	100.0	1
09/02/24	8:14	-10.7	-10.6	-10.7	50	-19.1	0.0	---	0.00	0.0	---	-10.7	-10.9	-10.9	745.5	0.020	0.000	21.4	5	-19.9	18.3	1.25	 .0733	24	1	100.0	1
09/02/24	8:15	-10.7	-10.7	-10.7	50	-19.1	0.0	SE	0.00	0.9	SE	-10.7	-10.9	-10.9	745.5	0.020	0.000	21.4	5	-19.9	18.2	1.25	 .0733	23	1	100.0	1
09/02/24	8:16	-10.7	-10.7	-10.7	51	-18.9	1.7	SE	0.03	2.6	SE	-12.3	-10.9	-12.5	745.4	0.020	0.000	21.4	5	-19.9	18.3	1.25	 .0733	23	1	100.0	1
09/02/24	8:17	-10.5	-10.5	-10.7	52	-18.5	1.7	SE	0.03	2.6	SE	-12.1	-10.7	-12.3	745.5	0.020	0.000	21.4	5	-19.9	18.3	1.25	 .0733	24	1	100.0	1
09/02/24	8:18	-10.3	-10.3	-10.4	52	-18.3	1.7	SE	0.03	2.6	SE	-11.9	-10.5	-12.1	745.4	0.020	0.000	21.4	5	-19.9	18.3	1.25	 .0733	23	1	100.0	1
09/02/24	8:19	-10.0	-10.0	-10.2	52	-18.0	2.6	SSE	0.04	3.5	SSE	-12.8	-10.2	-13.0	745.4	0.020	0.000	21.4	5	-19.9	18.3	1.25	 .0733	24	1	100.0	1
09/02/24	8:20	-9.7	-9.7	-9.9	51	-18.0	2.6	SSE	0.04	4.3	SSE	-12.5	-9.9	-12.7	745.4	0.019	0.000	21.4	5	-19.9	18.3	1.25	 .0733	23	1	100.0	1
09/02/24	8:21	-9.5	-9.5	-9.7	51	-17.8	3.5	SSE	0.06	4.3	SSE	-13.2	-9.8	-13.4	745.4	0.019	0.000	21.5	5	-19.8	18.4	1.25	 .0733	23	1	100.0	1
09/02/24	8:22	-9.3	-9.3	-9.4	50	-17.8	3.5	SSE	0.06	4.3	SSE	-12.9	-9.6	-13.2	745.4	0.019	0.000	21.5	5	-19.8	18.4	1.25	 .0733	24	1	100.0	1
09/02/24	8:23	-9.1	-9.1	-9.2	49	-17.8	3.5	SSE	0.06	4.3	SSE	-12.7	-9.3	-12.9	745.4	0.019	0.000	21.5	5	-19.8	18.4	1.25	 .0733	23	1	100.0	1
09/02/24	8:24	-8.9	-8.9	-9.0	48	-17.9	1.7	SSE	0.03	3.5	SSE	-10.3	-9.2	-10.6	745.4	0.019	0.000	21.5	5	-19.8	18.4	1.25	 .0733	24	1	100.0	1
09/02/24	8:25	-8.8	-8.8	-8.9	47	-18.1	1.7	SSE	0.03	3.5	SSE	-10.3	-9.1	-10.6	745.5	0.019	0.000	21.5	5	-19.8	18.4	1.25	 .0733	23	1	100.0	1
09/02/24	8:26	-8.8	-8.8	-8.8	46	-18.3	2.6	SSE	0.04	3.5	SSE	-11.4	-9.1	-11.7	745.4	0.019	0.000	21.5	5	-19.8	18.4	1.25	 .0733	24	1	100.0	1
09/02/24	8:27	-8.8	-8.8	-8.8	46	-18.3	2.6	SSE	0.04	3.5	SSE	-11.4	-9.1	-11.7	745.4	0.019	0.000	21.5	5	-19.8	18.4	1.25	 .0733	23	1	100.0	1
09/02/24	8:28	-8.7	-8.7	-8.8	46	-18.3	3.5	SSE	0.06	3.5	SSE	-12.3	-9.0	-12.6	745.4	0.019	0.000	21.5	5	-19.8	18.4	1.25	 .0733	23	1	100.0	1
09/02/24	8:29	-8.7	-8.7	-8.7	46	-18.2	4.3	SSE	0.07	4.3	SSE	-12.9	-8.9	-13.2	745.4	0.019	0.000	21.4	5	-19.9	18.3	1.25	 .0733	24	1	100.0	1
09/02/24	8:30	-8.7	-8.7	-8.7	46	-18.2	3.5	SSE	0.06	4.3	SSE	-12.2	-8.9	-12.4	745.4	0.019	0.000	21.4	5	-19.9	18.3	1.25	 .0733	23	1	100.0	1
09/02/24	8:31	-8.6	-8.6	-8.7	46	-18.2	3.5	SSE	0.06	4.3	SSE	-12.1	-8.9	-12.4	745.4	0.019	0.000	21.4	5	-19.9	18.3	1.25	 .0733	24	1	100.0	1
09/02/24	8:32	-8.6	-8.6	-8.6	45	-18.4	3.5	S	0.06	3.5	S	-12.1	-8.9	-12.4	745.3	0.019	0.000	21.4	5	-19.9	18.3	1.25	 .0733	23	1	100.0	1
09/02/24	8:33	-8.6	-8.6	-8.6	45	-18.4	2.6	S	0.04	2.6	S	-11.2	-8.9	-11.5	745.4	0.019	0.000	21.4	5	-19.9	18.3	1.25	 .0733	23	1	100.0	1
09/02/24	8:34	-8.7	-8.6	-8.7	45	-18.5	1.7	S	0.03	2.6	S	-10.2	-9.0	-10.4	745.4	0.019	0.000	21.4	5	-19.9	18.2	1.25	 .0733	24	1	100.0	1
09/02/24	8:35	-8.8	-8.7	-8.8	44	-18.9	1.7	S	0.03	2.6	S	-10.3	-9.1	-10.6	745.4	0.019	0.000	21.4	5	-19.9	18.2	1.25	 .0733	23	1	100.0	1
09/02/24	8:36	-9.0	-8.8	-9.0	44	-19.1	2.6	S	0.04	3.5	S	-11.7	-9.3	-11.9	745.3	0.019	0.000	21.4	5	-19.9	18.2	1.25	 .0733	24	1	100.0	1
09/02/24	8:37	-9.3	-9.1	-9.3	44	-19.3	3.5	S	0.06	5.2	S	-12.9	-9.6	-13.2	745.4	0.019	0.000	21.4	5	-19.9	18.2	1.25	 .0733	23	1	100.0	1
09/02/24	8:38	-9.7	-9.3	-9.7	44	-19.7	6.1	S	0.10	7.0	S	-15.3	-10.0	-15.6	745.4	0.019	0.000	21.4	5	-19.9	18.2	1.25	 .0733	24	1	100.0	1
09/02/24	8:39	-10.4	-9.8	-10.4	44	-20.3	7.0	SSE	0.12	7.8	S	-16.6	-10.7	-16.9	745.4	0.020	0.000	21.4	5	-19.9	18.2	1.25	 .0733	23	1	100.0	1
09/02/24	8:40	-11.0	-10.5	-11.0	44	-20.9	5.2	SSE	0.09	6.1	SSE	-16.3	-11.2	-16.5	745.4	0.020	0.000	21.4	5	-19.9	18.2	1.25	 .0733	23	1	100.0	1
09/02/24	8:41	-11.6	-11.1	-11.6	45	-21.1	5.2	SSE	0.09	6.1	SSE	-16.9	-11.8	-17.2	745.4	0.021	0.000	21.4	5	-19.9	18.2	1.25	 .0733	24	1	100.0	1
09/02/24	8:42	-11.9	-11.6	-11.9	48	-20.7	5.2	SSE	0.09	6.1	SSE	-17.4	-12.1	-17.6	745.4	0.021	0.000	21.3	5	-19.9	18.2	1.25	 .0733	23	1	100.0	1
09/02/24	8:43	-12.3	-11.9	-12.3	49	-20.8	5.2	SE	0.09	6.1	SSE	-17.8	-12.5	-18.0	745.4	0.021	0.000	21.3	5	-19.9	18.2	1.25	 .0733	24	1	100.0	1
09/02/24	8:44	-12.6	-12.3	-12.6	50	-20.8	5.2	SE	0.09	6.1	SE	-18.1	-12.8	-18.3	745.4	0.021	0.000	21.3	5	-19.9	18.2	1.25	 .0733	23	1	100.0	1
09/02/24	8:45	-12.9	-12.6	-12.9	50	-21.2	6.1	SE	0.10	7.0	SE	-19.1	-13.1	-19.3	745.4	0.022	0.000	21.3	5	-19.9	18.2	1.25	 .0733	23	1	100.0	1
09/02/24	8:46	-13.2	-12.9	-13.2	51	-21.2	6.1	SE	0.10	7.0	SE	-19.4	-13.3	-19.6	745.4	0.022	0.000	21.3	5	-19.9	18.2	1.25	 .0733	24	1	100.0	1
09/02/24	8:47	-13.4	-13.2	-13.4	52	-21.2	6.1	ESE	0.10	7.0	ESE	-19.8	-13.6	-19.9	745.4	0.022	0.000	21.3	5	-19.9	18.2	1.25	 .0733	23	1	100.0	1
09/02/24	8:48	-13.7	-13.5	-13.7	54	-21.0	6.1	ESE	0.10	7.0	ESE	-20.0	-13.8	-20.2	745.4	0.022	0.000	21.3	5	-19.9	18.2	1.25	 .0733	24	1	100.0	1
09/02/24	8:49	-13.8	-13.7	-13.8	54	-21.2	6.1	ESE	0.10	7.0	ESE	-20.2	-14.0	-20.4	745.4	0.022	0.000	21.3	5	-19.9	18.2	1.25	 .0733	23	1	100.0	1
09/02/24	8:50	-14.1	-13.9	-14.1	54	-21.4	6.1	ESE	0.10	7.0	ESE	-20.5	-14.2	-20.7	745.4	0.022	0.000	21.4	5	-19.9	18.2	1.25	 .0733	24	1	100.0	1
09/02/24	8:51	-14.2	-14.1	-14.2	55	-21.3	7.0	ESE	0.12	7.8	ESE	-21.2	-14.4	-21.4	745.4	0.023	0.000	21.4	5	-19.9	18.2	1.25	 .0733	23	1	100.0	1
09/02/24	8:52	-14.3	-14.2	-14.3	56	-21.2	6.1	ESE	0.10	7.0	ESE	-20.8	-14.5	-21.0	745.4	0.023	0.000	21.4	5	-19.9	18.2	1.25	 .0733	23	1	100.0	1
09/02/24	8:53	-14.4	-14.3	-14.4	56	-21.3	6.1	ESE	0.10	7.0	ESE	-20.9	-14.6	-21.1	745.3	0.023	0.000	21.4	5	-19.9	18.2	1.25	 .0733	24	1	100.0	1
09/02/24	8:54	-14.4	-14.4	-14.4	58	-20.9	7.0	E	0.12	7.0	ESE	-21.4	-14.6	-21.6	745.3	0.023	0.000	21.4	5	-19.9	18.2	1.25	 .0733	23	1	100.0	1
09/02/24	8:55	-14.4	-14.4	-14.4	58	-20.9	6.1	ESE	0.10	7.0	ESE	-20.9	-14.6	-21.1	745.4	0.023	0.000	21.4	5	-19.9	18.2	1.25	 .0733	24	1	100.0	1
09/02/24	8:56	-14.3	-14.3	-14.4	58	-20.8	6.1	ESE	0.10	7.0	E	-20.8	-14.5	-21.0	745.3	0.023	0.000	21.4	5	-19.9	18.2	1.25	 .0733	23	1	100.0	1
09/02/24	8:57	-14.3	-14.3	-14.3	59	-20.6	6.1	E	0.10	7.0	E	-20.8	-14.4	-20.9	745.3	0.023	0.000	21.4	5	-19.9	18.3	1.25	 .0733	23	1	100.0	1
09/02/24	8:58	-14.2	-14.2	-14.2	59	-20.4	7.0	E	0.12	7.0	E	-21.2	-14.3	-21.3	745.3	0.023	0.000	21.4	5	-19.9	18.3	1.25	 .0733	24	1	100.0	1
09/02/24	8:59	-14.0	-14.0	-14.1	59	-20.3	6.1	E	0.10	7.0	E	-20.4	-14.2	-20.6	745.3	0.022	0.000	21.5	5	-19.8	18.4	1.25	 .0733	23	1	100.0	1
09/02/24	9:00	-13.9	-13.9	-14.0	59	-20.2	6.1	E	0.10	7.0	E	-20.3	-14.1	-20.4	745.4	0.022	0.000	21.5	5	-19.8	18.4	1.25	 .0733	24	1	100.0	1
09/02/24	9:01	-13.8	-13.8	-13.8	59	-20.1	6.1	E	0.10	7.0	E	-20.2	-13.9	-20.3	745.4	0.022	0.000	21.5	5	-19.8	18.4	1.25	 .0733	23	1	100.0	1
09/02/24	9:02	-13.7	-13.7	-13.7	59	-20.0	6.1	E	0.10	7.0	E	-20.0	-13.8	-20.2	745.3	0.022	0.000	21.5	5	-19.8	18.4	1.25	 .0733	24	1	100.0	1
09/02/24	9:03	-13.6	-13.6	-13.7	59	-19.9	5.2	E	0.09	6.1	E	-19.3	-13.7	-19.4	745.3	0.022	0.000	21.5	5	-19.8	18.4	1.25	 .0733	23	1	100.0	1
09/02/24	9:04	-13.3	-13.3	-13.5	59	-19.7	5.2	E	0.09	6.1	E	-19.1	-13.5	-19.2	745.3	0.022	0.000	21.6	5	-19.8	18.6	1.25	 .0733	23	1	100.0	1
09/02/24	9:05	-13.2	-13.2	-13.3	59	-19.5	4.3	E	0.07	6.1	E	-18.2	-13.3	-18.3	745.3	0.022	0.000	21.6	5	-19.8	18.6	1.25	 .0733	24	1	100.0	1
09/02/24	9:06	-13.0	-13.0	-13.2	58	-19.5	5.2	E	0.09	6.1	E	-18.6	-13.2	-18.8	745.3	0.022	0.000	21.6	5	-19.8	18.6	1.25	 .0733	23	1	100.0	1
09/02/24	9:07	-12.9	-12.9	-13.0	58	-19.4	5.2	E	0.09	6.1	E	-18.5	-13.1	-18.7	745.3	0.022	0.000	21.5	5	-19.8	18.4	1.25	 .0733	24	1	100.0	1
09/02/24	9:08	-12.7	-12.7	-12.9	58	-19.3	4.3	E	0.07	6.1	E	-17.7	-12.9	-17.8	745.3	0.022	0.000	21.5	5	-19.8	18.4	1.25	 .0733	23	1	100.0	1
09/02/24	9:09	-12.6	-12.6	-12.7	58	-19.2	5.2	E	0.09	6.1	E	-18.2	-12.8	-18.3	745.3	0.021	0.000	21.5	5	-19.8	18.4	1.25	 .0733	23	1	100.0	1
09/02/24	9:10	-12.5	-12.5	-12.6	58	-19.1	4.3	E	0.07	7.0	SE	-17.4	-12.7	-17.6	745.3	0.021	0.000	21.5	5	-19.8	18.4	1.25	 .0733	24	1	100.0	1
09/02/24	9:11	-12.4	-12.4	-12.5	57	-19.2	3.5	ESE	0.06	5.2	ESE	-16.5	-12.6	-16.7	745.3	0.021	0.000	21.5	5	-19.8	18.4	1.25	 .0733	23	1	100.0	1
09/02/24	9:12	-12.3	-12.3	-12.4	57	-19.1	2.6	ESE	0.04	5.2	ESE	-15.4	-12.4	-15.6	745.3	0.021	0.000	21.5	5	-19.8	18.4	1.25	 .0733	24	1	100.0	1
09/02/24	9:13	-12.2	-12.2	-12.3	57	-19.0	1.7	ESE	0.03	2.6	ESE	-13.9	-12.3	-14.1	745.3	0.021	0.000	21.5	5	-19.8	18.4	1.25	 .0733	23	1	100.0	1
09/02/24	9:14	-12.1	-12.1	-12.2	57	-18.9	1.7	ESE	0.03	2.6	ESE	-13.8	-12.2	-14.0	745.3	0.021	0.000	21.5	5	-19.8	18.4	1.25	 .0733	23	1	100.0	1
09/02/24	9:15	-11.8	-11.8	-12.0	57	-18.6	2.6	SE	0.04	3.5	ESE	-14.9	-12.0	-15.1	745.2	0.021	0.000	21.4	5	-19.9	18.3	1.25	 .0733	24	1	100.0	1
09/02/24	9:16	-11.7	-11.7	-11.8	56	-18.7	2.6	SE	0.04	4.3	SE	-14.8	-11.9	-14.9	745.3	0.021	0.000	21.4	5	-19.9	18.3	1.25	 .0733	23	1	100.0	1
09/02/24	9:17	-11.6	-11.6	-11.7	55	-18.8	2.6	SE	0.04	3.5	SE	-14.6	-11.7	-14.7	745.3	0.021	0.000	21.4	5	-19.9	18.2	1.25	 .0733	24	1	100.0	1
09/02/24	9:18	-11.4	-11.4	-11.6	55	-18.7	3.5	SE	0.06	4.3	SE	-15.4	-11.6	-15.6	745.2	0.021	0.000	21.4	5	-19.9	18.2	1.25	 .0733	23	1	100.0	1
09/02/24	9:19	-11.3	-11.3	-11.4	55	-18.6	5.2	SE	0.09	7.8	ESE	-16.7	-11.6	-16.9	745.2	0.021	0.000	21.4	5	-19.9	18.2	1.25	 .0733	24	1	100.0	1
09/02/24	9:20	-11.2	-11.2	-11.3	54	-18.7	5.2	E	0.09	7.0	E	-16.5	-11.4	-16.7	745.3	0.020	0.000	21.4	5	-19.9	18.2	1.25	 .0733	23	1	100.0	1
09/02/24	9:21	-10.9	-10.9	-11.1	54	-18.4	3.5	ENE	0.06	4.3	E	-14.8	-11.2	-15.1	745.2	0.020	0.000	21.4	5	-19.9	18.2	1.25	 .0733	23	1	100.0	1
09/02/24	9:22	-10.8	-10.8	-10.9	54	-18.3	2.6	ENE	0.04	3.5	ENE	-13.7	-11.0	-13.9	745.3	0.020	0.000	21.3	5	-19.9	18.2	1.25	 .0733	24	1	100.0	1
09/02/24	9:23	-10.6	-10.6	-10.7	53	-18.4	3.5	ENE	0.06	3.5	ENE	-14.4	-10.8	-14.7	745.3	0.020	0.000	21.3	5	-19.9	18.2	1.25	 .0733	23	1	100.0	1
09/02/24	9:24	-10.5	-10.5	-10.6	53	-18.3	2.6	ENE	0.04	2.6	ENE	-13.4	-10.7	-13.6	745.2	0.020	0.000	21.3	5	-19.9	18.2	1.25	 .0733	24	1	100.0	1
09/02/24	9:25	-10.4	-10.4	-10.5	53	-18.2	1.7	ENE	0.03	1.7	ENE	-12.1	-10.7	-12.3	745.2	0.020	0.000	21.3	5	-19.9	18.2	1.25	 .0733	23	1	100.0	1
09/02/24	9:26	-10.3	-10.3	-10.4	53	-18.1	1.7	ENE	0.03	2.6	ENE	-11.9	-10.6	-12.2	745.2	0.020	0.000	21.3	5	-19.9	18.2	1.25	 .0733	23	1	100.0	1
09/02/24	9:27	-10.3	-10.3	-10.3	53	-18.0	0.9	ENE	0.01	1.7	ENE	-10.3	-10.5	-10.5	745.2	0.020	0.000	21.3	5	-19.9	18.2	1.25	 .0733	24	1	100.0	1
09/02/24	9:28	-10.2	-10.2	-10.3	52	-18.2	0.0	---	0.00	0.0	---	-10.2	-10.4	-10.4	745.2	0.020	0.000	21.3	5	-19.9	18.2	1.25	 .0733	23	1	100.0	1
09/02/24	9:29	-10.1	-10.1	-10.2	52	-18.1	0.0	---	0.00	0.0	---	-10.1	-10.3	-10.3	745.2	0.020	0.000	21.3	5	-20.0	18.1	1.25	 .0733	24	1	100.0	1
09/02/24	9:30	-10.1	-10.1	-10.1	51	-18.3	3.5	NNW	0.06	9.6	NNW	-13.8	-10.3	-14.0	745.2	0.020	0.000	21.3	5	-19.9	18.2	1.25	 .0733	23	1	100.0	1
09/02/24	9:31	-10.1	-10.0	-10.1	50	-18.5	9.6	N	0.16	12.2	NNW	-17.4	-10.3	-17.7	745.2	0.020	0.000	21.3	5	-20.0	18.1	1.25	 .0733	24	1	100.0	1
09/02/24	9:32	-10.2	-10.1	-10.2	49	-18.9	8.7	NW	0.14	10.4	NW	-17.2	-10.4	-17.4	745.2	0.020	0.000	21.3	5	-19.9	18.2	1.25	 .0733	23	1	100.0	1
09/02/24	9:33	-10.3	-10.2	-10.3	49	-19.0	7.8	NW	0.13	9.6	NW	-17.0	-10.6	-17.2	745.2	0.020	0.000	21.3	5	-19.9	18.2	1.25	 .0733	23	1	100.0	1
09/02/24	9:34	-10.4	-10.3	-10.4	49	-19.1	7.0	WNW	0.12	8.7	WNW	-16.7	-10.7	-16.9	745.2	0.020	0.000	21.3	5	-19.9	18.2	1.25	 .0733	24	1	100.0	1
09/02/24	9:35	-10.6	-10.4	-10.6	50	-19.0	7.0	NW	0.12	7.8	WNW	-16.8	-10.8	-17.1	745.1	0.020	0.000	21.3	5	-19.9	18.2	1.25	 .0733	23	1	100.0	1
09/02/24	9:36	-10.7	-10.6	-10.7	50	-19.1	6.1	NW	0.10	7.8	NW	-16.4	-10.9	-16.7	745.1	0.020	0.000	21.3	5	-19.9	18.2	1.25	 .0733	24	1	100.0	1
09/02/24	9:37	-10.8	-10.7	-10.8	50	-19.2	7.0	WNW	0.12	9.6	NW	-17.1	-11.0	-17.3	745.1	0.020	0.000	21.3	5	-19.9	18.2	1.25	 .0733	23	1	100.0	1
09/02/24	9:38	-10.8	-10.8	-10.8	50	-19.2	6.1	NW	0.10	7.0	WNW	-16.7	-11.1	-16.9	745.0	0.020	0.000	21.4	5	-19.9	18.2	1.25	 .0733	23	1	100.0	1
09/02/24	9:39	-10.9	-10.8	-10.9	51	-19.1	6.1	WNW	0.10	7.8	NW	-16.8	-11.2	-17.0	745.0	0.020	0.000	21.4	5	-19.9	18.2	1.25	 .0733	24	1	100.0	1
09/02/24	9:40	-11.1	-10.9	-11.1	51	-19.2	6.1	NW	0.10	7.8	NW	-16.9	-11.3	-17.2	745.0	0.020	0.000	21.4	5	-19.9	18.2	1.25	 .0733	23	1	100.0	1
09/02/24	9:41	-11.2	-11.1	-11.2	51	-19.4	7.8	NW	0.13	8.7	NW	-18.1	-11.4	-18.3	745.0	0.021	0.000	21.4	5	-19.9	18.2	1.25	 .0733	24	1	100.0	1
09/02/24	9:42	-11.3	-11.2	-11.3	51	-19.5	7.0	NW	0.12	8.7	NW	-17.8	-11.6	-18.0	745.0	0.021	0.000	21.4	5	-19.9	18.2	1.25	 .0733	23	1	100.0	1
09/02/24	9:43	-11.4	-11.3	-11.4	51	-19.5	6.1	NW	0.10	7.8	NW	-17.3	-11.6	-17.6	744.9	0.021	0.000	21.4	5	-19.9	18.2	1.25	 .0733	24	1	100.0	1
09/02/24	9:44	-11.4	-11.4	-11.4	51	-19.6	5.2	NW	0.09	7.8	WNW	-16.8	-11.7	-17.1	744.9	0.021	0.000	21.4	5	-19.9	18.3	1.25	 .0733	23	1	100.0	1
09/02/24	9:45	-11.4	-11.4	-11.4	52	-19.4	4.3	NW	0.07	6.1	WNW	-16.2	-11.7	-16.4	744.9	0.021	0.000	21.4	5	-19.9	18.3	1.25	 .0733	23	1	100.0	1
09/02/24	9:46	-11.4	-11.4	-11.4	52	-19.4	5.2	NW	0.09	7.0	NW	-16.8	-11.7	-17.1	744.9	0.021	0.000	21.4	5	-19.9	18.3	1.25	 .0733	24	1	100.0	1
09/02/24	9:47	-11.4	-11.4	-11.4	52	-19.4	6.1	NW	0.10	7.8	NW	-17.4	-11.7	-17.6	744.9	0.021	0.000	21.4	5	-19.9	18.3	1.25	 .0733	23	1	100.0	1
09/02/24	9:48	-11.4	-11.4	-11.5	52	-19.4	7.0	WNW	0.12	7.8	WNW	-17.8	-11.7	-18.1	744.9	0.021	0.000	21.4	5	-19.9	18.3	1.25	 .0733	24	1	100.0	1
09/02/24	9:49	-11.4	-11.4	-11.4	52	-19.4	6.1	NW	0.10	7.0	NW	-17.4	-11.7	-17.6	744.9	0.021	0.000	21.4	5	-19.9	18.3	1.25	 .0733	23	1	100.0	1
09/02/24	9:50	-11.4	-11.4	-11.4	52	-19.4	6.1	NW	0.10	7.0	NW	-17.4	-11.7	-17.6	744.9	0.021	0.000	21.4	5	-19.9	18.3	1.25	 .0733	23	1	100.0	1
09/02/24	9:51	-11.4	-11.4	-11.4	52	-19.4	6.1	NW	0.10	7.8	NW	-17.4	-11.7	-17.6	744.9	0.021	0.000	21.4	5	-19.9	18.3	1.25	 .0733	24	1	100.0	1
09/02/24	9:52	-11.4	-11.4	-11.4	51	-19.6	6.1	NW	0.10	7.0	NW	-17.4	-11.7	-17.6	744.9	0.021	0.000	21.4	5	-19.9	18.3	1.25	 .0733	23	1	100.0	1
09/02/24	9:53	-11.4	-11.4	-11.4	51	-19.6	7.0	NW	0.12	7.8	NW	-17.8	-11.7	-18.1	744.9	0.021	0.000	21.4	5	-19.9	18.3	1.25	 .0733	24	1	100.0	1
09/02/24	9:54	-11.4	-11.4	-11.4	51	-19.5	6.1	NW	0.10	8.7	NW	-17.3	-11.6	-17.6	744.8	0.021	0.000	21.4	5	-19.9	18.3	1.25	 .0733	23	1	100.0	1
09/02/24	9:55	-11.4	-11.4	-11.4	51	-19.5	7.0	NW	0.12	8.7	WNW	-17.8	-11.6	-18.0	744.8	0.021	0.000	21.4	5	-19.9	18.3	1.25	 .0733	23	1	100.0	1
09/02/24	9:56	-11.3	-11.3	-11.4	51	-19.4	6.1	NW	0.10	7.8	NW	-17.2	-11.5	-17.4	744.8	0.021	0.000	21.4	5	-19.9	18.3	1.25	 .0733	24	1	100.0	1
09/02/24	9:57	-11.3	-11.3	-11.3	51	-19.4	6.1	NW	0.10	7.8	NW	-17.2	-11.5	-17.4	744.8	0.021	0.000	21.4	5	-19.9	18.3	1.25	 .0732	23	1	100.0	1
09/02/24	9:58	-11.2	-11.2	-11.2	51	-19.4	6.1	NW	0.10	7.8	NW	-17.1	-11.4	-17.3	744.8	0.021	0.000	21.4	5	-19.9	18.3	1.25	 .0732	24	1	100.0	1
09/02/24	9:59	-11.2	-11.2	-11.2	51	-19.3	7.0	NNW	0.12	8.7	NNW	-17.6	-11.4	-17.8	744.7	0.020	0.000	21.4	5	-19.9	18.3	1.25	 .0732	23	1	100.0	1
09/02/24	10:00	-11.1	-11.1	-11.2	51	-19.2	8.7	NW	0.14	10.4	NW	-18.2	-11.3	-18.4	744.7	0.020	0.000	21.4	5	-19.9	18.2	1.25	 .0733	24	1	100.0	1
09/02/24	10:01	-11.0	-11.0	-11.1	51	-19.2	7.0	NNW	0.12	9.6	NW	-17.4	-11.2	-17.6	744.7	0.020	0.000	21.4	5	-19.9	18.2	1.25	 .0733	23	1	100.0	1
09/02/24	10:02	-10.9	-10.9	-11.0	51	-19.1	5.2	NNW	0.09	7.8	NNW	-16.2	-11.1	-16.4	744.7	0.020	0.000	21.4	5	-19.9	18.2	1.25	 .0733	23	1	100.0	1
09/02/24	10:03	-10.8	-10.8	-10.8	51	-19.0	6.1	NNW	0.10	7.8	NNW	-16.7	-11.1	-16.9	744.7	0.020	0.000	21.4	5	-19.9	18.2	1.25	 .0733	24	1	100.0	1
09/02/24	10:04	-10.8	-10.8	-10.8	50	-19.2	6.1	NNW	0.10	7.8	NNW	-16.6	-11.0	-16.8	744.7	0.020	0.000	21.3	5	-19.9	18.2	1.25	 .0733	23	1	100.0	1
09/02/24	10:05	-10.8	-10.8	-10.8	50	-19.2	5.2	NNW	0.09	5.2	NNW	-16.1	-11.0	-16.3	744.7	0.020	0.000	21.3	5	-19.9	18.2	1.25	 .0733	24	1	100.0	1
09/02/24	10:06	-10.7	-10.7	-10.8	50	-19.1	4.3	NNW	0.07	5.2	NNW	-15.3	-10.9	-15.6	744.8	0.020	0.000	21.3	5	-19.9	18.2	1.25	 .0733	23	1	100.0	1
09/02/24	10:07	-10.7	-10.7	-10.8	50	-19.1	8.7	NW	0.14	10.4	NNW	-17.8	-10.9	-18.1	744.7	0.020	0.000	21.3	5	-19.9	18.2	1.25	 .0733	23	1	100.0	1
09/02/24	10:08	-10.6	-10.6	-10.7	50	-19.0	5.2	NNW	0.09	7.8	N	-15.8	-10.8	-16.0	744.8	0.020	0.000	21.3	5	-19.9	18.2	1.25	 .0733	24	1	100.0	1
09/02/24	10:09	-10.5	-10.5	-10.6	50	-18.9	5.2	NNW	0.09	7.8	N	-15.7	-10.7	-15.9	744.7	0.020	0.000	21.3	5	-19.9	18.2	1.25	 .0733	23	1	100.0	1
09/02/24	10:10	-10.4	-10.4	-10.5	50	-18.9	7.0	NNW	0.12	8.7	NNW	-16.7	-10.7	-16.9	744.7	0.020	0.000	21.3	5	-19.9	18.2	1.25	 .0733	24	1	100.0	1
09/02/24	10:11	-10.4	-10.4	-10.4	50	-18.8	7.8	NNW	0.13	8.7	NNW	-17.1	-10.6	-17.3	744.7	0.020	0.000	21.3	5	-19.9	18.2	1.25	 .0733	23	1	100.0	1
09/02/24	10:12	-10.3	-10.3	-10.4	50	-18.7	7.8	NNW	0.13	9.6	NNW	-16.9	-10.5	-17.2	744.7	0.020	0.000	21.3	5	-19.9	18.2	1.25	 .0733	24	1	100.0	1
09/02/24	10:13	-10.2	-10.2	-10.3	49	-18.9	7.8	NNW	0.13	8.7	NNW	-16.8	-10.4	-17.0	744.6	0.020	0.000	21.3	5	-19.9	18.2	1.25	 .0733	23	1	100.0	1
09/02/24	10:14	-10.2	-10.2	-10.2	49	-18.9	7.8	NNW	0.13	9.6	NNW	-16.8	-10.4	-17.0	744.6	0.020	0.000	21.3	5	-19.9	18.2	1.25	 .0733	23	1	100.0	1
09/02/24	10:15	-10.2	-10.2	-10.2	49	-18.9	7.8	NNW	0.13	8.7	NNW	-16.8	-10.4	-17.0	744.6	0.020	0.000	21.3	5	-19.9	18.2	1.25	 .0733	24	1	100.0	1
09/02/24	10:16	-10.2	-10.2	-10.2	49	-18.9	7.8	NNW	0.13	8.7	NNW	-16.8	-10.4	-17.0	744.5	0.020	0.000	21.3	5	-19.9	18.2	1.25	 .0732	23	1	100.0	1
09/02/24	10:17	-10.2	-10.2	-10.2	49	-18.9	8.7	NNW	0.14	9.6	NNW	-17.2	-10.4	-17.4	744.5	0.020	0.000	21.3	5	-19.9	18.2	1.25	 .0733	24	1	100.0	1
09/02/24	10:18	-10.1	-10.1	-10.2	49	-18.8	8.7	NNW	0.14	10.4	NNW	-17.1	-10.3	-17.3	744.5	0.020	0.000	21.3	5	-19.9	18.2	1.25	 .0732	23	1	100.0	1
09/02/24	10:19	-10.1	-10.1	-10.1	49	-18.8	8.7	NNW	0.14	10.4	NNW	-17.1	-10.3	-17.3	744.5	0.020	0.000	21.3	5	-19.9	18.2	1.25	 .0732	23	1	100.0	1
09/02/24	10:20	-10.1	-10.1	-10.1	49	-18.8	9.6	NNW	0.16	10.4	NNW	-17.4	-10.3	-17.7	744.5	0.020	0.000	21.3	5	-19.9	18.2	1.25	 .0732	24	1	100.0	1
09/02/24	10:21	-10.0	-10.0	-10.1	48	-19.0	8.7	NNW	0.14	9.6	NNW	-17.0	-10.2	-17.2	744.5	0.020	0.000	21.4	5	-19.9	18.2	1.25	 .0732	23	1	100.0	1
09/02/24	10:22	-10.1	-10.0	-10.1	48	-19.0	8.7	NNW	0.14	10.4	NNW	-17.1	-10.3	-17.3	744.4	0.020	0.000	21.4	5	-19.9	18.2	1.25	 .0732	24	1	100.0	1
09/02/24	10:23	-10.0	-10.0	-10.1	48	-19.0	8.7	NNW	0.14	10.4	NNW	-17.0	-10.2	-17.2	744.4	0.020	0.000	21.4	5	-19.9	18.2	1.25	 .0732	23	1	100.0	1
09/02/24	10:24	-9.9	-9.9	-10.0	48	-18.9	8.7	NNW	0.14	10.4	NNW	-16.9	-10.2	-17.2	744.4	0.020	0.000	21.4	5	-19.9	18.2	1.25	 .0732	24	1	100.0	1
09/02/24	10:25	-9.9	-9.9	-9.9	48	-18.9	9.6	NNW	0.16	10.4	NNW	-17.2	-10.2	-17.5	744.4	0.020	0.000	21.4	5	-19.9	18.2	1.25	 .0732	23	1	100.0	1
09/02/24	10:26	-9.8	-9.8	-9.8	48	-18.8	9.6	NNW	0.16	10.4	NNW	-17.2	-10.1	-17.4	744.4	0.020	0.000	21.4	5	-19.9	18.3	1.25	 .0732	23	1	100.0	1
09/02/24	10:27	-9.8	-9.8	-9.8	48	-18.7	9.6	NNW	0.16	10.4	NNW	-17.1	-10.1	-17.3	744.4	0.020	0.000	21.4	5	-19.9	18.3	1.25	 .0732	24	1	100.0	1
09/02/24	10:28	-9.8	-9.8	-9.8	48	-18.7	9.6	NNW	0.16	10.4	NNW	-17.1	-10.1	-17.3	744.4	0.020	0.000	21.4	5	-19.9	18.3	1.25	 .0732	23	1	100.0	1
09/02/24	10:29	-9.8	-9.8	-9.8	48	-18.8	9.6	NNW	0.16	10.4	N	-17.2	-10.1	-17.4	744.4	0.020	0.000	21.5	5	-19.8	18.4	1.25	 .0732	24	1	100.0	1
09/02/24	10:30	-9.8	-9.8	-9.8	48	-18.8	9.6	NNW	0.16	10.4	N	-17.2	-10.1	-17.4	744.4	0.020	0.000	21.5	5	-19.8	18.4	1.25	 .0732	23	1	100.0	1
09/02/24	10:31	-9.8	-9.8	-9.8	48	-18.8	10.4	N	0.17	11.3	N	-17.5	-10.1	-17.8	744.4	0.020	0.000	21.5	5	-19.8	18.4	1.25	 .0732	23	1	100.0	1
09/02/24	10:32	-9.8	-9.8	-9.8	48	-18.8	10.4	N	0.17	11.3	N	-17.5	-10.1	-17.8	744.4	0.020	0.000	21.5	5	-19.8	18.4	1.25	 .0732	24	1	100.0	1
09/02/24	10:33	-9.8	-9.8	-9.8	48	-18.7	10.4	N	0.17	11.3	N	-17.4	-10.1	-17.7	744.3	0.020	0.000	21.6	5	-19.8	18.6	1.25	 .0732	23	1	100.0	1
09/02/24	10:34	-9.8	-9.8	-9.8	48	-18.7	10.4	NNW	0.17	11.3	NNW	-17.4	-10.1	-17.7	744.3	0.020	0.000	21.6	5	-19.8	18.6	1.25	 .0732	24	1	100.0	1
09/02/24	10:35	-9.7	-9.7	-9.8	48	-18.7	10.4	NNW	0.17	11.3	NNW	-17.3	-10.0	-17.6	744.3	0.019	0.000	21.6	5	-19.8	18.6	1.25	 .0732	23	1	100.0	1
09/02/24	10:36	-9.6	-9.6	-9.7	48	-18.6	11.3	NNW	0.19	12.2	NNW	-17.5	-9.9	-17.8	744.3	0.019	0.000	21.6	5	-19.8	18.6	1.25	 .0732	23	1	100.0	1
09/02/24	10:37	-9.6	-9.6	-9.6	47	-18.8	9.6	NNW	0.16	11.3	N	-16.8	-9.8	-17.1	744.2	0.019	0.000	21.6	5	-19.8	18.6	1.25	 .0732	24	1	100.0	1
09/02/24	10:38	-9.5	-9.5	-9.6	47	-18.7	10.4	NNW	0.17	11.3	NNW	-17.1	-9.8	-17.3	744.3	0.019	0.000	21.6	5	-19.8	18.6	1.25	 .0732	23	1	100.0	1
09/02/24	10:39	-9.5	-9.5	-9.5	47	-18.7	9.6	NNW	0.16	11.3	NNW	-16.7	-9.8	-17.0	744.2	0.019	0.000	21.6	5	-19.8	18.6	1.25	 .0732	24	1	100.0	1
09/02/24	10:40	-9.4	-9.4	-9.5	47	-18.7	9.6	NNW	0.16	11.3	NNW	-16.7	-9.7	-16.9	744.2	0.019	0.000	21.6	5	-19.8	18.6	1.25	 .0732	23	1	100.0	1
09/02/24	10:41	-9.4	-9.4	-9.4	47	-18.6	10.4	NNW	0.17	12.2	NNW	-16.9	-9.7	-17.2	744.2	0.019	0.000	21.6	5	-19.8	18.6	1.25	 .0732	24	1	100.0	1
09/02/24	10:42	-9.3	-9.3	-9.4	47	-18.6	9.6	NNW	0.16	11.3	NNW	-16.5	-9.6	-16.8	744.1	0.019	0.000	21.6	5	-19.8	18.6	1.25	 .0732	23	1	100.0	1
09/02/24	10:43	-9.4	-9.3	-9.4	47	-18.6	9.6	NNW	0.16	10.4	NNW	-16.6	-9.7	-16.9	744.2	0.019	0.000	21.6	5	-19.8	18.6	1.25	 .0732	23	1	100.0	1
09/02/24	10:44	-9.4	-9.4	-9.4	46	-18.9	10.4	NNW	0.17	10.4	NNW	-17.0	-9.7	-17.3	744.2	0.019	0.000	21.6	5	-19.8	18.6	1.25	 .0732	24	1	100.0	1
09/02/24	10:45	-9.4	-9.4	-9.4	47	-18.7	9.6	NNW	0.16	11.3	N	-16.7	-9.7	-16.9	744.1	0.019	0.000	21.6	5	-19.8	18.6	1.25	 .0732	23	1	100.0	1
09/02/24	10:46	-9.4	-9.4	-9.4	46	-18.9	9.6	NNW	0.16	11.3	NNW	-16.7	-9.7	-16.9	744.1	0.019	0.000	21.5	5	-19.8	18.4	1.25	 .0732	24	1	100.0	1
09/02/24	10:47	-9.5	-9.5	-9.5	47	-18.7	10.4	N	0.17	11.3	N	-17.1	-9.8	-17.3	744.1	0.019	0.000	21.5	5	-19.8	18.4	1.25	 .0732	23	1	100.0	1
09/02/24	10:48	-9.4	-9.4	-9.5	47	-18.7	9.6	N	0.16	11.3	NNW	-16.7	-9.7	-16.9	744.1	0.019	0.000	21.5	5	-19.8	18.4	1.25	 .0732	23	1	100.0	1
09/02/24	10:49	-9.4	-9.4	-9.4	47	-18.7	10.4	N	0.17	11.3	NNW	-17.0	-9.7	-17.3	744.1	0.019	0.000	21.5	5	-19.8	18.4	1.25	 .0732	24	1	100.0	1
09/02/24	10:50	-9.4	-9.4	-9.4	46	-18.9	9.6	N	0.16	10.4	N	-16.7	-9.7	-16.9	744.1	0.019	0.000	21.5	5	-19.8	18.4	1.25	 .0732	23	1	100.0	1
09/02/24	10:51	-9.3	-9.3	-9.4	46	-18.8	10.4	NNW	0.17	12.2	NNW	-16.8	-9.6	-17.1	744.0	0.019	0.000	21.4	5	-19.9	18.3	1.25	 .0732	24	1	100.0	1
09/02/24	10:52	-9.3	-9.3	-9.3	47	-18.5	9.6	N	0.16	11.3	N	-16.4	-9.6	-16.7	744.1	0.019	0.000	21.4	5	-19.9	18.3	1.25	 .0732	23	1	100.0	1
09/02/24	10:53	-9.2	-9.2	-9.2	46	-18.7	10.4	N	0.17	11.3	NNW	-16.7	-9.5	-17.0	744.0	0.019	0.000	21.4	5	-19.9	18.3	1.25	 .0732	24	1	100.0	1
09/02/24	10:54	-9.2	-9.2	-9.2	46	-18.7	10.4	NNW	0.17	10.4	NNW	-16.7	-9.4	-16.9	744.0	0.019	0.000	21.4	5	-19.9	18.2	1.25	 .0732	23	1	100.0	1
09/02/24	10:55	-9.2	-9.2	-9.2	46	-18.7	9.6	NNW	0.16	10.4	NNW	-16.3	-9.4	-16.6	744.0	0.019	0.000	21.4	5	-19.9	18.2	1.25	 .0732	23	1	100.0	1
09/02/24	10:56	-9.2	-9.2	-9.2	46	-18.7	10.4	NNW	0.17	11.3	NNW	-16.7	-9.4	-16.9	744.0	0.019	0.000	21.4	5	-19.9	18.2	1.25	 .0732	24	1	100.0	1
09/02/24	10:57	-9.1	-9.1	-9.2	46	-18.6	11.3	NNW	0.19	12.2	NNW	-16.9	-9.4	-17.2	744.0	0.019	0.000	21.4	5	-19.9	18.2	1.25	 .0732	23	1	100.0	1
09/02/24	10:58	-9.1	-9.1	-9.1	46	-18.6	11.3	NNW	0.19	11.3	NNW	-16.8	-9.3	-17.1	744.0	0.019	0.000	21.3	5	-19.9	18.2	1.25	 .0732	24	1	100.0	1
09/02/24	10:59	-9.0	-9.0	-9.1	46	-18.5	11.3	NNW	0.19	11.3	NNW	-16.7	-9.3	-17.0	744.0	0.019	0.000	21.4	5	-19.9	18.2	1.25	 .0732	23	1	100.0	1
09/02/24	11:00	-9.0	-9.0	-9.0	45	-18.8	10.4	N	0.17	12.2	NNW	-16.4	-9.3	-16.7	744.0	0.019	0.000	21.3	5	-19.9	18.2	1.25	 .0732	24	1	100.0	1
09/02/24	11:01	-9.0	-9.0	-9.0	45	-18.8	10.4	NNW	0.17	11.3	N	-16.4	-9.3	-16.7	744.0	0.019	0.000	21.3	5	-19.9	18.2	1.25	 .0732	23	1	100.0	1
09/02/24	11:02	-9.0	-8.9	-9.0	45	-18.8	9.6	N	0.16	10.4	NNW	-16.1	-9.3	-16.4	744.0	0.019	0.000	21.3	5	-19.9	18.2	1.25	 .0732	23	1	100.0	1
09/02/24	11:03	-9.0	-8.9	-9.0	45	-18.8	10.4	N	0.17	11.3	N	-16.4	-9.3	-16.7	744.0	0.019	0.000	21.4	5	-19.9	18.2	1.25	 .0732	24	1	100.0	1
09/02/24	11:04	-9.0	-9.0	-9.0	45	-18.8	10.4	NNW	0.17	11.3	NNW	-16.4	-9.3	-16.7	744.0	0.019	0.000	21.4	5	-19.9	18.2	1.25	 .0732	23	1	100.0	1
09/02/24	11:05	-9.0	-9.0	-9.1	45	-18.8	10.4	N	0.17	11.3	NNW	-16.4	-9.3	-16.7	744.0	0.019	0.000	21.4	5	-19.9	18.2	1.25	 .0732	24	1	100.0	1
09/02/24	11:06	-8.9	-8.9	-9.0	46	-18.4	10.4	N	0.17	12.2	N	-16.3	-9.2	-16.6	744.0	0.019	0.000	21.4	5	-19.9	18.2	1.25	 .0732	23	1	100.0	1
09/02/24	11:07	-8.8	-8.8	-8.9	45	-18.6	9.6	NNW	0.16	12.2	N	-15.9	-9.1	-16.2	744.0	0.019	0.000	21.4	5	-19.9	18.2	1.25	 .0732	23	1	100.0	1
09/02/24	11:08	-8.8	-8.8	-8.8	45	-18.6	10.4	NNW	0.17	12.2	N	-16.2	-9.1	-16.4	744.0	0.019	0.000	21.4	5	-19.9	18.2	1.25	 .0732	24	1	100.0	1
09/02/24	11:09	-8.7	-8.7	-8.8	45	-18.5	9.6	NNW	0.16	10.4	NNW	-15.8	-9.0	-16.1	744.0	0.019	0.000	21.4	5	-19.9	18.2	1.25	 .0732	23	1	100.0	1
09/02/24	11:10	-8.6	-8.6	-8.7	45	-18.4	10.4	NNW	0.17	12.2	NNW	-15.9	-8.9	-16.2	743.9	0.019	0.000	21.4	5	-19.9	18.2	1.25	 .0732	24	1	100.0	1
09/02/24	11:11	-8.5	-8.5	-8.6	44	-18.6	11.3	NNW	0.19	12.2	NNW	-16.1	-8.8	-16.4	743.9	0.019	0.000	21.4	5	-19.9	18.2	1.25	 .0732	23	1	100.0	1
09/02/24	11:12	-8.4	-8.4	-8.4	44	-18.5	11.3	NNW	0.19	13.0	N	-16.1	-8.7	-16.3	743.9	0.019	0.000	21.4	5	-19.9	18.2	1.25	 .0732	23	1	100.0	1
09/02/24	11:13	-8.3	-8.3	-8.4	44	-18.4	11.3	N	0.19	13.0	NNW	-15.9	-8.6	-16.2	743.9	0.019	0.000	21.4	5	-19.9	18.2	1.25	 .0732	24	1	100.0	1
09/02/24	11:14	-8.3	-8.3	-8.3	44	-18.4	11.3	N	0.19	12.2	N	-15.8	-8.6	-16.1	743.9	0.018	0.000	21.4	5	-19.9	18.3	1.25	 .0732	23	1	100.0	1
09/02/24	11:15	-8.3	-8.3	-8.3	44	-18.4	10.4	N	0.17	11.3	N	-15.6	-8.6	-15.8	743.8	0.018	0.000	21.4	5	-19.9	18.3	1.25	 .0732	24	1	100.0	1
09/02/24	11:16	-8.3	-8.3	-8.3	44	-18.4	10.4	N	0.17	11.3	N	-15.6	-8.6	-15.8	743.9	0.018	0.000	21.4	5	-19.9	18.3	1.25	 .0732	23	1	100.0	1
09/02/24	11:17	-8.2	-8.2	-8.3	44	-18.3	10.4	N	0.17	10.4	N	-15.4	-8.5	-15.7	743.8	0.018	0.000	21.4	5	-19.9	18.3	1.25	 .0732	24	1	100.0	1
09/02/24	11:18	-8.2	-8.2	-8.2	43	-18.6	11.3	N	0.19	12.2	NNW	-15.8	-8.6	-16.1	743.8	0.018	0.000	21.5	5	-19.8	18.4	1.25	 .0731	23	1	100.0	1
09/02/24	11:19	-8.2	-8.2	-8.2	43	-18.6	11.3	NNW	0.19	12.2	NNW	-15.7	-8.5	-16.0	743.8	0.018	0.000	21.5	5	-19.8	18.4	1.25	 .0731	23	1	100.0	1
09/02/24	11:20	-8.1	-8.1	-8.2	43	-18.5	10.4	N	0.17	12.2	NNW	-15.3	-8.4	-15.7	743.7	0.018	0.000	21.5	5	-19.8	18.4	1.25	 .0731	24	1	100.0	1
09/02/24	11:21	-8.1	-8.1	-8.1	43	-18.5	12.2	NNW	0.20	14.8	NNW	-15.8	-8.4	-16.2	743.8	0.018	0.000	21.5	5	-19.8	18.4	1.25	 .0731	23	1	100.0	1
09/02/24	11:22	-8.0	-8.0	-8.1	43	-18.4	10.4	NNW	0.17	12.2	NNW	-15.2	-8.3	-15.5	743.7	0.018	0.000	21.5	5	-19.8	18.4	1.25	 .0731	24	1	100.0	1
09/02/24	11:23	-8.1	-8.0	-8.1	43	-18.5	11.3	NNW	0.19	13.9	NNW	-15.6	-8.4	-15.9	743.7	0.018	0.000	21.5	5	-19.8	18.4	1.25	 .0731	23	1	100.0	1
09/02/24	11:24	-8.1	-8.1	-8.1	43	-18.5	10.4	NNW	0.17	13.0	NNW	-15.3	-8.4	-15.6	743.7	0.018	0.000	21.6	5	-19.8	18.6	1.25	 .0731	23	1	100.0	1
09/02/24	11:25	-8.1	-8.1	-8.1	43	-18.5	12.2	NNW	0.20	13.9	NNW	-15.9	-8.4	-16.2	743.7	0.018	0.000	21.6	5	-19.8	18.6	1.25	 .0731	24	1	100.0	1
09/02/24	11:26	-8.2	-8.2	-8.2	43	-18.6	11.3	NNW	0.19	13.9	NNW	-15.8	-8.6	-16.1	743.7	0.018	0.000	21.6	5	-19.8	18.6	1.25	 .0731	23	1	100.0	1
09/02/24	11:27	-8.3	-8.3	-8.3	43	-18.7	12.2	NNW	0.20	13.9	NNW	-16.2	-8.6	-16.4	743.8	0.019	0.000	21.6	5	-19.8	18.6	1.25	 .0731	24	1	100.0	1
09/02/24	11:28	-8.4	-8.4	-8.4	43	-18.8	12.2	NNW	0.20	13.9	NNW	-16.3	-8.7	-16.6	743.8	0.019	0.000	21.6	5	-19.8	18.6	1.25	 .0731	23	1	100.0	1
09/02/24	11:29	-8.5	-8.4	-8.5	43	-18.9	11.3	NNW	0.19	12.2	NNW	-16.1	-8.8	-16.4	743.8	0.019	0.000	21.6	5	-19.8	18.6	1.25	 .0731	23	1	100.0	1
09/02/24	11:30	-8.7	-8.6	-8.7	43	-19.0	11.3	NNW	0.19	13.0	NNW	-16.3	-8.9	-16.6	743.8	0.019	0.000	21.6	5	-19.8	18.6	1.25	 .0731	24	1	100.0	1
09/02/24	11:31	-8.8	-8.7	-8.8	43	-19.2	10.4	NNW	0.17	11.3	NNW	-16.2	-9.1	-16.5	743.8	0.019	0.000	21.6	5	-19.8	18.6	1.25	 .0731	23	1	100.0	1
09/02/24	11:32	-9.0	-8.8	-9.0	44	-19.1	10.4	NNW	0.17	11.3	NNW	-16.4	-9.3	-16.7	743.8	0.019	0.000	21.6	5	-19.8	18.6	1.25	 .0731	24	1	100.0	1
09/02/24	11:33	-9.1	-9.1	-9.1	44	-19.2	11.3	N	0.19	12.2	N	-16.9	-9.4	-17.2	743.8	0.019	0.000	21.6	5	-19.8	18.6	1.25	 .0731	23	1	100.0	1
09/02/24	11:34	-9.3	-9.2	-9.3	45	-19.0	12.2	NNW	0.20	13.0	NNW	-17.4	-9.6	-17.7	743.8	0.019	0.000	21.5	5	-19.8	18.4	1.25	 .0731	24	1	100.0	1
09/02/24	11:35	-9.4	-9.3	-9.4	45	-19.1	12.2	N	0.20	13.0	NNW	-17.6	-9.7	-17.8	743.8	0.019	0.000	21.5	5	-19.8	18.4	1.25	 .0731	23	1	100.0	1
09/02/24	11:36	-9.5	-9.4	-9.5	45	-19.2	12.2	N	0.20	13.0	N	-17.7	-9.8	-17.9	743.7	0.019	0.000	21.5	5	-19.8	18.4	1.25	 .0731	23	1	100.0	1
09/02/24	11:37	-9.6	-9.6	-9.6	45	-19.4	12.2	N	0.20	13.0	NNW	-17.8	-9.9	-18.1	743.7	0.019	0.000	21.5	5	-19.8	18.4	1.25	 .0731	24	1	100.0	1
09/02/24	11:38	-9.8	-9.7	-9.8	46	-19.2	12.2	NNW	0.20	13.0	NNW	-18.0	-10.1	-18.3	743.8	0.020	0.000	21.4	5	-19.9	18.3	1.25	 .0731	23	1	100.0	1
09/02/24	11:39	-9.8	-9.8	-9.8	46	-19.3	13.0	N	0.22	13.9	NNW	-18.3	-10.1	-18.6	743.7	0.020	0.000	21.4	5	-19.9	18.3	1.25	 .0731	24	1	100.0	1
09/02/24	11:40	-9.9	-9.8	-9.9	46	-19.4	13.0	N	0.22	14.8	N	-18.4	-10.2	-18.7	743.7	0.020	0.000	21.4	5	-19.9	18.3	1.25	 .0731	23	1	100.0	1
09/02/24	11:41	-10.0	-9.9	-10.0	47	-19.2	13.9	N	0.23	14.8	N	-18.8	-10.3	-19.1	743.7	0.020	0.000	21.4	5	-19.9	18.3	1.25	 .0731	23	1	100.0	1
09/02/24	11:42	-10.1	-10.0	-10.1	47	-19.3	13.9	N	0.23	14.8	N	-18.9	-10.4	-19.2	743.7	0.020	0.000	21.4	5	-19.9	18.3	1.25	 .0731	24	1	100.0	1
09/02/24	11:43	-10.2	-10.1	-10.2	47	-19.4	13.9	N	0.23	15.7	N	-19.0	-10.4	-19.3	743.6	0.020	0.000	21.4	5	-19.9	18.3	1.25	 .0731	23	1	100.0	1
09/02/24	11:44	-10.2	-10.2	-10.2	47	-19.4	13.9	N	0.23	15.7	N	-19.1	-10.5	-19.4	743.6	0.020	0.000	21.4	5	-19.9	18.3	1.25	 .0731	24	1	100.0	1
09/02/24	11:45	-10.3	-10.2	-10.3	48	-19.2	13.9	N	0.23	15.7	N	-19.2	-10.5	-19.4	743.7	0.020	0.000	21.4	5	-19.9	18.2	1.25	 .0732	23	1	100.0	1
09/02/24	11:46	-10.3	-10.3	-10.3	48	-19.2	13.0	N	0.22	14.8	N	-18.9	-10.5	-19.1	743.6	0.020	0.000	21.4	5	-19.9	18.2	1.25	 .0731	24	1	100.0	1
09/02/24	11:47	-10.3	-10.3	-10.3	48	-19.2	13.9	N	0.23	14.8	N	-19.2	-10.5	-19.4	743.6	0.020	0.000	21.4	5	-19.9	18.2	1.25	 .0731	23	1	100.0	1
09/02/24	11:48	-10.2	-10.2	-10.3	48	-19.2	13.9	N	0.23	15.7	N	-19.1	-10.4	-19.3	743.6	0.020	0.000	21.4	5	-19.9	18.2	1.25	 .0731	23	1	100.0	1
09/02/24	11:49	-10.3	-10.2	-10.3	48	-19.2	14.8	NNW	0.25	14.8	N	-19.4	-10.5	-19.6	743.6	0.020	0.000	21.4	5	-19.9	18.2	1.25	 .0731	24	1	100.0	1
09/02/24	11:50	-10.3	-10.3	-10.3	48	-19.3	13.9	NNW	0.23	14.8	NNW	-19.2	-10.6	-19.4	743.6	0.020	0.000	21.4	5	-19.9	18.2	1.25	 .0731	23	1	100.0	1
09/02/24	11:51	-10.4	-10.4	-10.4	48	-19.4	13.9	N	0.23	14.8	N	-19.4	-10.7	-19.6	743.6	0.020	0.000	21.4	5	-19.9	18.2	1.25	 .0731	24	1	100.0	1
09/02/24	11:52	-10.5	-10.4	-10.5	48	-19.4	13.0	N	0.22	13.9	N	-19.2	-10.7	-19.4	743.6	0.020	0.000	21.4	5	-19.9	18.2	1.25	 .0731	23	1	100.0	1
09/02/24	11:53	-10.5	-10.5	-10.5	49	-19.2	13.0	N	0.22	13.9	N	-19.2	-10.7	-19.4	743.6	0.020	0.000	21.4	5	-19.9	18.2	1.25	 .0731	23	1	100.0	1
09/02/24	11:54	-10.4	-10.4	-10.5	49	-19.1	13.9	N	0.23	14.8	N	-19.4	-10.7	-19.6	743.6	0.020	0.000	21.4	5	-19.9	18.2	1.25	 .0731	24	1	100.0	1
09/02/24	11:55	-10.4	-10.4	-10.4	49	-19.1	14.8	N	0.25	15.7	N	-19.6	-10.6	-19.8	743.5	0.020	0.000	21.4	5	-19.9	18.2	1.25	 .0731	23	1	100.0	1
09/02/24	11:56	-10.4	-10.4	-10.4	48	-19.3	14.8	N	0.25	15.7	N	-19.6	-10.6	-19.8	743.5	0.020	0.000	21.4	5	-19.9	18.3	1.25	 .0731	24	1	100.0	1
09/02/24	11:57	-10.4	-10.4	-10.4	48	-19.3	14.8	N	0.25	14.8	N	-19.6	-10.6	-19.8	743.5	0.020	0.000	21.4	5	-19.9	18.2	1.25	 .0731	23	1	100.0	1
09/02/24	11:58	-10.4	-10.4	-10.4	48	-19.4	14.8	N	0.25	16.5	NNW	-19.6	-10.7	-19.8	743.4	0.020	0.000	21.4	5	-19.9	18.2	1.25	 .0731	24	1	100.0	1
09/02/24	11:59	-10.4	-10.4	-10.4	48	-19.3	15.7	N	0.26	16.5	N	-19.8	-10.6	-20.0	743.5	0.020	0.000	21.4	5	-19.9	18.3	1.25	 .0731	23	1	100.0	1
09/02/24	12:00	-10.3	-10.3	-10.4	48	-19.2	14.8	N	0.25	16.5	N	-19.4	-10.5	-19.6	743.4	0.020	0.000	21.4	5	-19.9	18.3	1.25	 .0731	23	1	100.0	1
09/02/24	12:01	-10.2	-10.2	-10.3	48	-19.1	13.9	N	0.23	14.8	NNW	-19.0	-10.4	-19.2	743.4	0.020	0.000	21.4	5	-19.9	18.3	1.25	 .0731	24	1	100.0	1
09/02/24	12:02	-10.1	-10.1	-10.1	48	-19.0	13.0	N	0.22	13.9	N	-18.6	-10.3	-18.8	743.5	0.020	0.000	21.4	5	-19.9	18.3	1.25	 .0731	23	1	100.0	1
09/02/24	12:03	-10.0	-10.0	-10.0	48	-19.0	13.0	N	0.22	13.9	N	-18.6	-10.2	-18.8	743.5	0.020	0.000	21.4	5	-19.9	18.3	1.25	 .0731	24	1	100.0	1
09/02/24	12:04	-10.0	-10.0	-10.0	48	-19.0	13.0	NNW	0.22	13.9	NNW	-18.6	-10.2	-18.8	743.5	0.020	0.000	21.5	5	-19.8	18.4	1.25	 .0731	23	1	100.0	1
09/02/24	12:05	-10.1	-10.1	-10.1	48	-19.1	13.9	NNW	0.23	14.8	N	-18.9	-10.3	-19.2	743.5	0.020	0.000	21.5	5	-19.8	18.4	1.25	 .0731	23	1	100.0	1
09/02/24	12:06	-10.2	-10.1	-10.2	48	-19.1	13.9	NNW	0.23	15.7	NNW	-19.0	-10.4	-19.2	743.5	0.020	0.000	21.5	5	-19.8	18.4	1.25	 .0731	24	1	100.0	1
09/02/24	12:07	-10.2	-10.2	-10.2	48	-19.1	14.8	NNW	0.25	16.5	NNW	-19.3	-10.4	-19.5	743.4	0.020	0.000	21.5	5	-19.8	18.4	1.25	 .0731	23	1	100.0	1
09/02/24	12:08	-10.1	-10.1	-10.1	48	-19.1	14.8	NNW	0.25	16.5	NNW	-19.2	-10.3	-19.4	743.4	0.020	0.000	21.5	5	-19.8	18.4	1.25	 .0731	24	1	100.0	1
09/02/24	12:09	-10.1	-10.1	-10.1	48	-19.0	14.8	NNW	0.25	16.5	NNW	-19.1	-10.3	-19.3	743.4	0.020	0.000	21.5	5	-19.8	18.4	1.25	 .0731	23	1	100.0	1
09/02/24	12:10	-10.0	-10.0	-10.1	48	-19.0	15.7	NNW	0.26	16.5	NNW	-19.3	-10.2	-19.5	743.3	0.020	0.000	21.5	5	-19.8	18.4	1.25	 .0731	24	1	100.0	1
09/02/24	12:11	-9.9	-9.9	-10.0	47	-19.1	14.8	NNW	0.25	15.7	NNW	-19.0	-10.2	-19.3	743.3	0.020	0.000	21.5	5	-19.8	18.4	1.25	 .0731	23	1	100.0	1
09/02/24	12:12	-9.9	-9.9	-9.9	47	-19.1	14.8	NNW	0.25	16.5	NNW	-19.0	-10.2	-19.3	743.3	0.020	0.000	21.5	5	-19.8	18.4	1.25	 .0731	23	1	100.0	1
09/02/24	12:13	-10.0	-9.9	-10.0	47	-19.2	16.5	NNW	0.28	17.4	NNW	-19.5	-10.3	-19.8	743.4	0.020	0.000	21.5	5	-19.8	18.4	1.25	 .0731	24	1	100.0	1
09/02/24	12:14	-10.1	-10.0	-10.1	47	-19.3	13.9	NNW	0.23	14.8	NNW	-18.9	-10.3	-19.2	743.4	0.020	0.000	21.5	5	-19.8	18.4	1.25	 .0731	23	1	100.0	1
09/02/24	12:15	-10.2	-10.1	-10.2	48	-19.2	13.9	NNW	0.23	15.7	NNW	-19.1	-10.4	-19.3	743.4	0.020	0.000	21.5	5	-19.8	18.4	1.25	 .0731	24	1	100.0	1
09/02/24	12:16	-10.3	-10.3	-10.3	48	-19.3	13.9	NNW	0.23	14.8	NNW	-19.2	-10.6	-19.4	743.4	0.020	0.000	21.5	5	-19.8	18.4	1.25	 .0731	23	1	100.0	1
09/02/24	12:17	-10.3	-10.3	-10.3	48	-19.3	13.0	NNW	0.22	14.8	NNW	-18.9	-10.6	-19.2	743.4	0.020	0.000	21.5	5	-19.8	18.4	1.25	 .0731	23	1	100.0	1
09/02/24	12:18	-10.3	-10.3	-10.3	48	-19.3	12.2	NNW	0.20	13.0	NNW	-18.7	-10.6	-18.9	743.5	0.020	0.000	21.5	5	-19.8	18.4	1.25	 .0731	24	1	100.0	1
09/02/24	12:19	-10.3	-10.3	-10.3	48	-19.3	10.4	NNW	0.17	11.3	NNW	-18.1	-10.6	-18.3	743.4	0.020	0.000	21.5	5	-19.8	18.4	1.25	 .0731	23	1	100.0	1
09/02/24	12:20	-10.4	-10.3	-10.4	48	-19.3	11.3	N	0.19	12.2	N	-18.4	-10.6	-18.7	743.5	0.020	0.000	21.5	5	-19.8	18.4	1.25	 .0731	24	1	100.0	1
09/02/24	12:21	-10.4	-10.4	-10.4	48	-19.3	12.2	NNW	0.20	13.9	NNW	-18.8	-10.6	-19.0	743.4	0.020	0.000	21.4	5	-19.9	18.3	1.25	 .0731	23	1	100.0	1
09/02/24	12:22	-10.4	-10.4	-10.4	48	-19.4	13.0	NNW	0.22	13.9	NNW	-19.1	-10.7	-19.3	743.4	0.020	0.000	21.4	5	-19.9	18.3	1.25	 .0731	23	1	100.0	1
09/02/24	12:23	-10.3	-10.3	-10.4	48	-19.3	13.0	NNW	0.22	14.8	NNW	-18.9	-10.6	-19.2	743.4	0.020	0.000	21.4	5	-19.9	18.3	1.25	 .0731	24	1	100.0	1
09/02/24	12:24	-10.2	-10.2	-10.3	47	-19.4	13.0	NNW	0.22	13.9	NNW	-18.8	-10.4	-19.1	743.4	0.020	0.000	21.4	5	-19.9	18.3	1.25	 .0731	23	1	100.0	1
09/02/24	12:25	-10.1	-10.1	-10.2	47	-19.3	13.9	NNW	0.23	15.7	NNW	-18.9	-10.4	-19.2	743.4	0.020	0.000	21.4	5	-19.9	18.2	1.25	 .0731	24	1	100.0	1
09/02/24	12:26	-10.1	-10.1	-10.1	46	-19.5	13.0	NNW	0.22	13.9	NNW	-18.6	-10.3	-18.9	743.4	0.020	0.000	21.4	5	-19.9	18.2	1.25	 .0731	23	1	100.0	1
09/02/24	12:27	-10.1	-10.1	-10.1	46	-19.5	11.3	NNW	0.19	13.0	NNW	-18.1	-10.3	-18.3	743.4	0.020	0.000	21.4	5	-19.9	18.2	1.25	 .0731	24	1	100.0	1
09/02/24	12:28	-10.0	-10.0	-10.1	46	-19.5	13.0	NNW	0.22	15.7	NNW	-18.6	-10.3	-18.8	743.4	0.020	0.000	21.3	5	-19.9	18.2	1.25	 .0731	23	1	100.0	1
09/02/24	12:29	-9.9	-9.9	-10.0	46	-19.3	15.7	NNW	0.26	18.3	NNW	-19.2	-10.2	-19.4	743.4	0.020	0.000	21.4	5	-19.9	18.2	1.25	 .0731	23	1	100.0	1
09/02/24	12:30	-9.7	-9.7	-9.8	46	-19.1	15.7	NNW	0.26	18.3	NNW	-18.8	-9.9	-19.1	743.4	0.019	0.000	21.3	5	-19.9	18.2	1.25	 .0731	24	1	100.0	1
09/02/24	12:31	-9.4	-9.4	-9.6	45	-19.2	14.8	NNW	0.25	15.7	NNW	-18.3	-9.7	-18.6	743.4	0.019	0.000	21.3	5	-19.9	18.2	1.25	 .0731	23	1	100.0	1
09/02/24	12:32	-9.3	-9.3	-9.4	45	-19.1	13.9	NNW	0.23	14.8	NNW	-17.9	-9.6	-18.2	743.4	0.019	0.000	21.3	5	-19.9	18.2	1.25	 .0731	24	1	100.0	1
09/02/24	12:33	-9.3	-9.3	-9.3	45	-19.0	13.9	NNW	0.23	14.8	NNW	-17.9	-9.6	-18.2	743.4	0.019	0.000	21.3	5	-19.9	18.2	1.25	 .0731	23	1	100.0	1
09/02/24	12:34	-9.3	-9.3	-9.3	45	-19.0	13.0	NNW	0.22	14.8	NNW	-17.7	-9.6	-17.9	743.4	0.019	0.000	21.3	5	-19.9	18.2	1.25	 .0731	23	1	100.0	1
09/02/24	12:35	-9.3	-9.3	-9.3	45	-19.1	14.8	NNW	0.25	15.7	NNW	-18.2	-9.6	-18.4	743.4	0.019	0.000	21.3	5	-20.0	18.1	1.25	 .0731	24	1	100.0	1
09/02/24	12:36	-9.2	-9.2	-9.3	45	-18.9	15.7	NNW	0.26	16.5	NNW	-18.2	-9.4	-18.5	743.3	0.019	0.000	21.3	5	-19.9	18.2	1.25	 .0731	23	1	100.0	1
09/02/24	12:37	-8.9	-8.9	-9.2	45	-18.7	13.9	NNW	0.23	15.7	NNW	-17.5	-9.2	-17.8	743.3	0.019	0.000	21.3	5	-19.9	18.2	1.25	 .0731	24	1	100.0	1
09/02/24	12:38	-8.8	-8.8	-8.9	44	-18.9	13.9	NNW	0.23	16.5	NNW	-17.3	-9.1	-17.6	743.3	0.019	0.000	21.3	5	-19.9	18.2	1.25	 .0731	23	1	100.0	1
09/02/24	12:39	-8.9	-8.8	-8.9	44	-19.0	12.2	NW	0.20	13.9	NW	-16.9	-9.2	-17.2	743.3	0.019	0.000	21.3	5	-19.9	18.2	1.25	 .0731	24	1	100.0	1
09/02/24	12:40	-9.1	-8.9	-9.1	44	-19.2	11.3	NNW	0.19	12.2	NNW	-16.9	-9.4	-17.2	743.3	0.019	0.000	21.3	5	-19.9	18.2	1.25	 .0731	23	1	100.0	1
09/02/24	12:41	-9.3	-9.1	-9.3	44	-19.3	11.3	NNW	0.19	13.0	NNW	-17.1	-9.6	-17.4	743.3	0.019	0.000	21.3	5	-19.9	18.2	1.25	 .0731	23	1	100.0	1
09/02/24	12:42	-9.4	-9.3	-9.4	45	-19.2	12.2	NNW	0.20	13.0	NNW	-17.6	-9.7	-17.9	743.3	0.019	0.000	21.3	5	-19.9	18.2	1.25	 .0731	24	1	100.0	1
09/02/24	12:43	-9.4	-9.4	-9.4	45	-19.2	12.2	NNW	0.20	13.0	NNW	-17.6	-9.7	-17.9	743.3	0.019	0.000	21.3	5	-19.9	18.2	1.25	 .0731	23	1	100.0	1
09/02/24	12:44	-9.4	-9.4	-9.4	45	-19.2	12.2	NNW	0.20	13.9	NNW	-17.6	-9.7	-17.9	743.3	0.019	0.000	21.3	5	-19.9	18.2	1.25	 .0731	24	1	100.0	1
09/02/24	12:45	-9.4	-9.4	-9.4	45	-19.2	13.0	NW	0.22	14.8	NNW	-17.8	-9.7	-18.1	743.3	0.019	0.000	21.3	5	-19.9	18.2	1.25	 .0731	23	1	100.0	1
09/02/24	12:46	-9.7	-9.5	-9.7	45	-19.5	8.7	NW	0.14	10.4	NW	-16.7	-10.0	-16.9	743.3	0.019	0.000	21.4	5	-19.9	18.2	1.25	 .0731	23	1	100.0	1
09/02/24	12:47	-10.1	-9.8	-10.1	45	-19.8	9.6	NNW	0.16	12.2	NNW	-17.4	-10.3	-17.7	743.3	0.020	0.000	21.4	5	-19.9	18.2	1.25	 .0731	24	1	100.0	1
09/02/24	12:48	-10.3	-10.1	-10.3	47	-19.5	11.3	NNW	0.19	13.9	NNW	-18.4	-10.6	-18.7	743.2	0.020	0.000	21.4	5	-19.9	18.2	1.25	 .0731	23	1	100.0	1
09/02/24	12:49	-10.5	-10.4	-10.5	47	-19.7	11.3	NNW	0.19	12.2	NNW	-18.6	-10.8	-18.9	743.2	0.020	0.000	21.4	5	-19.9	18.2	1.25	 .0731	24	1	100.0	1
09/02/24	12:50	-10.5	-10.4	-10.5	48	-19.4	10.4	NW	0.17	13.0	NNW	-18.3	-10.7	-18.5	743.2	0.020	0.000	21.4	5	-19.9	18.2	1.25	 .0731	23	1	100.0	1
09/02/24	12:51	-10.6	-10.5	-10.6	48	-19.5	9.6	NW	0.16	10.4	NW	-18.1	-10.8	-18.3	743.3	0.020	0.000	21.4	5	-19.9	18.2	1.25	 .0731	24	1	100.0	1
09/02/24	12:52	-10.8	-10.6	-10.8	48	-19.7	7.8	NW	0.13	9.6	NW	-17.6	-11.0	-17.8	743.2	0.020	0.000	21.4	5	-19.9	18.2	1.25	 .0731	23	1	100.0	1
09/02/24	12:53	-10.9	-10.8	-10.9	49	-19.5	8.7	NNW	0.14	10.4	NW	-18.1	-11.1	-18.3	743.2	0.020	0.000	21.4	5	-19.9	18.2	1.25	 .0731	23	1	100.0	1
09/02/24	12:54	-10.9	-10.9	-10.9	50	-19.4	10.4	NNW	0.17	11.3	NNW	-18.8	-11.2	-19.1	743.2	0.020	0.000	21.4	5	-19.9	18.3	1.25	 .0731	24	1	100.0	1
09/02/24	12:55	-10.8	-10.8	-10.9	50	-19.2	13.0	NNW	0.22	14.8	NNW	-19.6	-11.0	-19.8	743.2	0.020	0.000	21.4	5	-19.9	18.2	1.25	 .0731	23	1	100.0	1
09/02/24	12:56	-10.4	-10.4	-10.7	49	-19.1	13.9	NNW	0.23	14.8	NNW	-19.3	-10.6	-19.5	743.2	0.020	0.000	21.4	5	-19.9	18.2	1.25	 .0731	24	1	100.0	1
09/02/24	12:57	-10.1	-10.1	-10.3	49	-18.8	13.0	NNW	0.22	14.8	NNW	-18.6	-10.3	-18.8	743.1	0.020	0.000	21.4	5	-19.9	18.2	1.25	 .0731	23	1	100.0	1
09/02/24	12:58	-9.8	-9.8	-10.0	48	-18.7	13.9	NNW	0.23	15.7	NNW	-18.5	-10.1	-18.8	743.1	0.020	0.000	21.4	5	-19.9	18.2	1.25	 .0731	23	1	100.0	1
09/02/24	12:59	-9.6	-9.6	-9.7	47	-18.8	13.0	NNW	0.22	14.8	NNW	-17.9	-9.8	-18.2	743.1	0.019	0.000	21.4	5	-19.9	18.2	1.25	 .0731	24	1	100.0	1
09/02/24	13:00	-9.4	-9.4	-9.5	46	-18.9	13.9	NNW	0.23	15.7	NNW	-18.0	-9.7	-18.3	743.1	0.019	0.000	21.4	5	-19.9	18.2	1.25	 .0731	23	1	100.0	1
09/02/24	13:01	-9.2	-9.2	-9.3	45	-19.0	14.8	NNW	0.25	16.5	NNW	-18.1	-9.5	-18.3	743.1	0.019	0.000	21.4	5	-19.9	18.2	1.25	 .0731	24	1	100.0	1
09/02/24	13:02	-9.1	-9.1	-9.2	45	-18.9	13.9	NNW	0.23	15.7	NNW	-17.7	-9.4	-18.0	743.1	0.019	0.000	21.4	5	-19.9	18.2	1.25	 .0731	23	1	100.0	1
09/02/24	13:03	-9.0	-9.0	-9.1	45	-18.8	13.9	NNW	0.23	16.5	NNW	-17.6	-9.3	-17.8	743.1	0.019	0.000	21.4	5	-19.9	18.2	1.25	 .0731	23	1	100.0	1
09/02/24	13:04	-8.9	-8.9	-9.0	45	-18.7	13.9	NNW	0.23	15.7	N	-17.5	-9.2	-17.8	743.1	0.019	0.000	21.4	5	-19.9	18.2	1.25	 .0731	24	1	100.0	1
09/02/24	13:05	-8.9	-8.9	-8.9	45	-18.7	13.9	NNW	0.23	14.8	NNW	-17.5	-9.2	-17.8	743.1	0.019	0.000	21.4	5	-19.9	18.2	1.25	 .0731	23	1	100.0	1
09/02/24	13:06	-9.0	-8.9	-9.0	44	-19.1	13.9	NNW	0.23	16.5	NNW	-17.6	-9.3	-17.8	743.1	0.019	0.000	21.3	5	-19.9	18.2	1.25	 .0731	24	1	100.0	1
09/02/24	13:07	-9.0	-8.9	-9.0	44	-19.1	15.7	NNW	0.26	19.1	NNW	-18.0	-9.3	-18.3	743.1	0.019	0.000	21.3	5	-19.9	18.2	1.25	 .0731	23	1	100.0	1
09/02/24	13:08	-8.9	-8.9	-9.0	44	-19.0	15.7	NNW	0.26	19.1	NNW	-17.9	-9.2	-18.2	743.1	0.019	0.000	21.3	5	-19.9	18.2	1.25	 .0731	24	1	100.0	1
09/02/24	13:09	-8.9	-8.9	-8.9	44	-19.0	14.8	NW	0.25	15.7	NW	-17.7	-9.2	-18.0	743.1	0.019	0.000	21.3	5	-19.9	18.2	1.25	 .0731	23	1	100.0	1
09/02/24	13:10	-9.2	-8.9	-9.2	44	-19.2	13.0	NNW	0.22	15.7	NNW	-17.5	-9.4	-17.8	743.1	0.019	0.000	21.3	5	-19.9	18.2	1.25	 .0731	23	1	100.0	1
09/02/24	13:11	-9.3	-9.2	-9.3	44	-19.4	13.0	NW	0.22	15.7	NNW	-17.7	-9.6	-18.0	743.1	0.019	0.000	21.3	5	-19.9	18.2	1.25	 .0731	24	1	100.0	1
09/02/24	13:12	-9.7	-9.4	-9.7	46	-19.1	15.7	NNW	0.26	17.4	NNW	-18.8	-9.9	-19.1	743.1	0.019	0.000	21.3	5	-19.9	18.2	1.25	 .0731	23	1	100.0	1
09/02/24	13:13	-9.8	-9.7	-9.8	46	-19.2	15.7	NNW	0.26	18.3	NW	-19.0	-10.1	-19.3	743.1	0.020	0.000	21.3	5	-19.9	18.2	1.25	 .0731	24	1	100.0	1
09/02/24	13:14	-9.8	-9.8	-9.8	46	-19.3	17.4	NW	0.29	20.0	NW	-19.5	-10.1	-19.8	743.1	0.020	0.000	21.3	5	-20.0	18.1	1.25	 .0731	23	1	100.0	1
09/02/24	13:15	-9.8	-9.8	-9.8	47	-19.0	13.0	NNW	0.22	15.7	NNW	-18.3	-10.1	-18.6	743.1	0.020	0.000	21.3	5	-20.0	18.1	1.25	 .0731	24	1	100.0	1
09/02/24	13:16	-9.9	-9.8	-9.9	47	-19.1	13.0	NNW	0.22	14.8	NNW	-18.4	-10.2	-18.7	743.1	0.020	0.000	21.3	5	-20.0	18.1	1.25	 .0731	23	1	100.0	1
09/02/24	13:17	-10.0	-9.9	-10.0	47	-19.2	13.9	NNW	0.23	14.8	NNW	-18.8	-10.3	-19.1	743.1	0.020	0.000	21.3	5	-19.9	18.2	1.25	 .0731	23	1	100.0	1
09/02/24	13:18	-9.9	-9.9	-10.0	47	-19.1	14.8	NNW	0.25	17.4	NNW	-19.0	-10.2	-19.3	743.1	0.020	0.000	21.3	5	-19.9	18.2	1.25	 .0731	24	1	100.0	1
09/02/24	13:19	-9.8	-9.8	-9.9	46	-19.2	16.5	NNW	0.28	19.1	NNW	-19.2	-10.1	-19.5	743.0	0.020	0.000	21.3	5	-20.0	18.1	1.25	 .0731	23	1	100.0	1
09/02/24	13:20	-9.6	-9.6	-9.8	45	-19.3	18.3	NNW	0.30	20.0	NW	-19.4	-9.8	-19.7	743.0	0.019	0.000	21.3	5	-19.9	18.2	1.25	 .0731	24	1	100.0	1
09/02/24	13:21	-9.4	-9.4	-9.5	44	-19.4	17.4	NNW	0.29	20.0	NW	-18.9	-9.7	-19.2	743.0	0.019	0.000	21.3	5	-19.9	18.2	1.25	 .0731	23	1	100.0	1
09/02/24	13:22	-9.3	-9.3	-9.4	44	-19.4	17.4	NNW	0.29	20.0	NW	-18.9	-9.6	-19.2	743.0	0.019	0.000	21.3	5	-19.9	18.2	1.25	 .0731	23	1	100.0	1
09/02/24	13:23	-9.3	-9.3	-9.3	44	-19.4	17.4	NW	0.29	21.7	NNW	-18.9	-9.6	-19.2	743.0	0.019	0.000	21.3	5	-19.9	18.2	1.25	 .0731	24	1	100.0	1
09/02/24	13:24	-9.3	-9.3	-9.3	43	-19.6	17.4	NW	0.29	20.0	NW	-18.9	-9.6	-19.2	743.0	0.019	0.000	21.4	5	-19.9	18.2	1.25	 .0731	23	1	100.0	1
09/02/24	13:25	-9.3	-9.3	-9.3	43	-19.6	16.5	NNW	0.28	18.3	NW	-18.7	-9.6	-18.9	743.0	0.019	0.000	21.4	5	-19.9	18.2	1.25	 .0731	24	1	100.0	1
09/02/24	13:26	-9.3	-9.3	-9.3	43	-19.6	17.4	NNW	0.29	20.0	NNW	-18.9	-9.6	-19.2	743.0	0.019	0.000	21.4	5	-19.9	18.2	1.25	 .0731	23	1	100.0	1
09/02/24	13:27	-9.4	-9.3	-9.4	43	-19.7	14.8	NW	0.25	15.7	NW	-18.3	-9.7	-18.6	743.0	0.019	0.000	21.4	5	-19.9	18.2	1.25	 .0731	23	1	100.0	1
09/02/24	13:28	-9.5	-9.4	-9.5	44	-19.5	15.7	NW	0.26	18.3	NW	-18.7	-9.8	-18.9	743.0	0.019	0.000	21.4	5	-19.9	18.3	1.25	 .0731	24	1	100.0	1
09/02/24	13:29	-9.6	-9.6	-9.6	45	-19.4	13.9	NNW	0.23	16.5	NNW	-18.3	-9.9	-18.6	743.0	0.019	0.000	21.4	5	-19.9	18.3	1.25	 .0731	23	1	100.0	1
09/02/24	13:30	-9.7	-9.6	-9.7	45	-19.4	13.0	NNW	0.22	14.8	NNW	-18.1	-9.9	-18.4	743.0	0.019	0.000	21.4	5	-19.9	18.3	1.25	 .0731	24	1	100.0	1
09/02/24	13:31	-9.9	-9.7	-9.9	45	-19.6	12.2	NW	0.20	13.9	NW	-18.1	-10.2	-18.4	743.0	0.020	0.000	21.5	5	-19.8	18.4	1.25	 .0731	23	1	100.0	1
09/02/24	13:32	-10.2	-9.9	-10.2	46	-19.6	13.9	NNW	0.23	14.8	NW	-19.0	-10.4	-19.3	743.0	0.020	0.000	21.5	5	-19.8	18.4	1.25	 .0731	24	1	100.0	1
09/02/24	13:33	-10.3	-10.2	-10.3	46	-19.7	12.2	NW	0.20	13.0	NNW	-18.6	-10.6	-18.9	743.0	0.020	0.000	21.5	5	-19.8	18.4	1.25	 .0731	23	1	100.0	1
09/02/24	13:34	-10.3	-10.3	-10.4	47	-19.5	14.8	NNW	0.25	16.5	NNW	-19.5	-10.6	-19.8	742.9	0.020	0.000	21.6	5	-19.8	18.6	1.25	 .0730	23	1	100.0	1
09/02/24	13:35	-10.3	-10.3	-10.4	48	-19.3	14.8	NNW	0.25	16.5	NW	-19.5	-10.6	-19.7	742.9	0.020	0.000	21.6	5	-19.8	18.6	1.25	 .0730	24	1	100.0	1
09/02/24	13:36	-10.3	-10.3	-10.3	48	-19.3	15.7	NNW	0.26	16.5	N	-19.7	-10.6	-19.9	742.9	0.020	0.000	21.6	5	-19.8	18.6	1.25	 .0730	23	1	100.0	1
09/02/24	13:37	-10.3	-10.3	-10.3	48	-19.2	14.8	NNW	0.25	15.7	NNW	-19.4	-10.5	-19.6	742.9	0.020	0.000	21.6	5	-19.8	18.6	1.25	 .0730	24	1	100.0	1
09/02/24	13:38	-10.3	-10.3	-10.3	48	-19.2	14.8	NNW	0.25	17.4	NNW	-19.4	-10.5	-19.6	742.9	0.020	0.000	21.6	5	-19.8	18.6	1.25	 .0730	23	1	100.0	1
09/02/24	13:39	-10.3	-10.3	-10.3	48	-19.2	14.8	NNW	0.25	16.5	NNW	-19.4	-10.5	-19.6	742.9	0.020	0.000	21.6	5	-19.8	18.6	1.25	 .0730	23	1	100.0	1
09/02/24	13:40	-10.2	-10.2	-10.3	48	-19.2	14.8	NNW	0.25	17.4	NNW	-19.3	-10.4	-19.6	742.9	0.020	0.000	21.6	5	-19.8	18.6	1.25	 .0730	24	1	100.0	1
09/02/24	13:41	-10.2	-10.2	-10.2	48	-19.1	15.7	NNW	0.26	17.4	NNW	-19.5	-10.4	-19.7	743.0	0.020	0.000	21.6	5	-19.8	18.6	1.25	 .0730	23	1	100.0	1
09/02/24	13:42	-10.1	-10.1	-10.2	48	-19.1	17.4	NNW	0.29	20.9	NW	-19.9	-10.3	-20.1	742.9	0.020	0.000	21.6	5	-19.8	18.6	1.25	 .0730	24	1	100.0	1
09/02/24	13:43	-10.0	-10.0	-10.1	47	-19.2	16.5	NNW	0.28	20.0	NNW	-19.5	-10.3	-19.8	742.9	0.020	0.000	21.6	5	-19.8	18.6	1.25	 .0730	23	1	100.0	1
09/02/24	13:44	-9.9	-9.9	-10.0	47	-19.1	15.7	NNW	0.26	18.3	NW	-19.2	-10.2	-19.4	742.9	0.020	0.000	21.6	5	-19.8	18.6	1.25	 .0730	24	1	100.0	1
09/02/24	13:45	-9.9	-9.9	-9.9	47	-19.1	17.4	NNW	0.29	19.1	NNW	-19.6	-10.2	-19.9	742.9	0.020	0.000	21.6	5	-19.8	18.6	1.25	 .0730	23	1	100.0	1
09/02/24	13:46	-9.8	-9.8	-9.8	46	-19.2	14.8	NNW	0.25	17.4	NNW	-18.8	-10.1	-19.1	742.9	0.020	0.000	21.5	5	-19.8	18.4	1.25	 .0730	23	1	100.0	1
09/02/24	13:47	-9.8	-9.8	-9.8	46	-19.3	18.3	NNW	0.30	20.9	NNW	-19.7	-10.1	-20.0	742.8	0.020	0.000	21.6	5	-19.8	18.6	1.25	 .0730	24	1	100.0	1
09/02/24	13:48	-9.8	-9.8	-9.8	46	-19.2	20.0	NNW	0.33	22.6	NNW	-20.1	-10.1	-20.3	742.7	0.020	0.000	21.5	5	-19.8	18.4	1.25	 .0730	23	1	100.0	1
09/02/24	13:49	-9.7	-9.7	-9.8	46	-19.1	17.4	NNW	0.29	20.0	NNW	-19.3	-9.9	-19.6	742.7	0.019	0.000	21.5	5	-19.8	18.4	1.25	 .0730	24	1	100.0	1
09/02/24	13:50	-9.6	-9.6	-9.6	46	-19.0	17.4	NNW	0.29	20.0	NNW	-19.2	-9.8	-19.4	742.8	0.019	0.000	21.5	5	-19.8	18.4	1.25	 .0730	23	1	100.0	1
09/02/24	13:51	-9.6	-9.6	-9.6	46	-19.0	17.4	NNW	0.29	20.9	NNW	-19.2	-9.8	-19.4	742.8	0.019	0.000	21.5	5	-19.8	18.4	1.25	 .0730	23	1	100.0	1
09/02/24	13:52	-9.4	-9.4	-9.6	45	-19.2	17.4	NNW	0.29	20.9	NNW	-19.0	-9.7	-19.3	742.7	0.019	0.000	21.4	5	-19.9	18.3	1.25	 .0730	24	1	100.0	1
09/02/24	13:53	-9.4	-9.4	-9.4	45	-19.1	19.1	NW	0.32	20.9	NW	-19.3	-9.7	-19.6	742.7	0.019	0.000	21.4	5	-19.9	18.3	1.25	 .0730	23	1	100.0	1
09/02/24	13:54	-9.4	-9.3	-9.4	44	-19.4	15.7	NNW	0.26	17.4	NNW	-18.5	-9.7	-18.8	742.8	0.019	0.000	21.4	5	-19.9	18.3	1.25	 .0731	24	1	100.0	1
09/02/24	13:55	-9.5	-9.4	-9.5	45	-19.2	17.4	NNW	0.29	19.1	NW	-19.1	-9.8	-19.3	742.8	0.019	0.000	21.4	5	-19.9	18.3	1.25	 .0731	23	1	100.0	1
09/02/24	13:56	-9.6	-9.5	-9.6	45	-19.3	16.5	NW	0.28	18.3	NW	-18.9	-9.8	-19.2	742.8	0.019	0.000	21.4	5	-19.9	18.2	1.25	 .0731	23	1	100.0	1
09/02/24	13:57	-9.6	-9.6	-9.6	45	-19.4	16.5	NNW	0.28	20.0	NW	-19.0	-9.9	-19.3	742.8	0.019	0.000	21.4	5	-19.9	18.2	1.25	 .0731	24	1	100.0	1
09/02/24	13:58	-9.7	-9.6	-9.7	45	-19.4	14.8	NNW	0.25	16.5	NNW	-18.6	-9.9	-18.9	742.8	0.019	0.000	21.4	5	-19.9	18.2	1.25	 .0731	23	1	100.0	1
09/02/24	13:59	-9.7	-9.7	-9.7	45	-19.5	16.5	NNW	0.28	19.1	NW	-19.2	-10.0	-19.4	742.8	0.019	0.000	21.4	5	-19.9	18.2	1.25	 .0731	24	1	100.0	1
09/02/24	14:00	-9.8	-9.7	-9.8	45	-19.5	14.8	NW	0.25	16.5	NW	-18.8	-10.1	-19.1	742.8	0.020	0.000	21.4	5	-19.9	18.2	1.25	 .0731	23	1	100.0	1
09/02/24	14:01	-9.8	-9.8	-9.8	45	-19.6	14.8	NNW	0.25	15.7	NNW	-18.8	-10.1	-19.1	742.8	0.020	0.000	21.3	5	-19.9	18.2	1.25	 .0731	24	1	100.0	1
09/02/24	14:02	-9.9	-9.8	-9.9	45	-19.6	15.7	NW	0.26	16.5	NNW	-19.2	-10.2	-19.4	742.8	0.020	0.000	21.3	5	-19.9	18.2	1.25	 .0731	23	1	100.0	1
09/02/24	14:03	-10.0	-9.9	-10.0	45	-19.7	14.8	NNW	0.25	17.4	NNW	-19.1	-10.3	-19.3	742.9	0.020	0.000	21.4	5	-19.9	18.2	1.25	 .0731	23	1	100.0	1
09/02/24	14:04	-10.1	-10.0	-10.1	46	-19.5	15.7	NW	0.26	16.5	NNW	-19.4	-10.3	-19.7	742.8	0.020	0.000	21.3	5	-19.9	18.2	1.25	 .0731	24	1	100.0	1
09/02/24	14:05	-10.2	-10.1	-10.2	46	-19.6	14.8	NNW	0.25	15.7	NW	-19.3	-10.4	-19.6	742.8	0.020	0.000	21.3	5	-19.9	18.2	1.25	 .0731	23	1	100.0	1
09/02/24	14:06	-10.3	-10.2	-10.3	46	-19.8	13.9	NNW	0.23	15.7	NNW	-19.2	-10.6	-19.5	742.8	0.020	0.000	21.3	5	-19.9	18.2	1.25	 .0731	24	1	100.0	1
09/02/24	14:07	-10.3	-10.3	-10.3	46	-19.8	13.0	NNW	0.22	14.8	NNW	-18.9	-10.6	-19.2	742.8	0.020	0.000	21.4	5	-19.9	18.2	1.25	 .0731	23	1	100.0	1
09/02/24	14:08	-10.4	-10.3	-10.4	47	-19.6	13.0	NNW	0.22	14.8	NNW	-19.1	-10.7	-19.4	742.8	0.020	0.000	21.4	5	-19.9	18.2	1.25	 .0731	23	1	100.0	1
09/02/24	14:09	-10.4	-10.4	-10.4	47	-19.6	12.2	NNW	0.20	13.9	NNW	-18.8	-10.7	-19.1	742.8	0.020	0.000	21.4	5	-19.9	18.2	1.25	 .0731	24	1	100.0	1
09/02/24	14:10	-10.5	-10.4	-10.5	47	-19.7	13.0	NNW	0.22	14.8	NNW	-19.2	-10.8	-19.4	742.8	0.020	0.000	21.4	5	-19.9	18.2	1.25	 .0731	23	1	100.0	1
09/02/24	14:11	-10.7	-10.6	-10.7	47	-19.8	13.0	NNW	0.22	13.9	NNW	-19.4	-10.9	-19.6	742.8	0.020	0.000	21.4	5	-19.9	18.2	1.25	 .0731	24	1	100.0	1
09/02/24	14:12	-10.8	-10.7	-10.8	47	-19.9	13.9	NNW	0.23	16.5	NNW	-19.8	-11.0	-20.0	742.8	0.020	0.000	21.4	5	-19.9	18.2	1.25	 .0731	23	1	100.0	1
09/02/24	14:13	-10.7	-10.7	-10.8	47	-19.9	13.9	NW	0.23	15.7	NW	-19.7	-10.9	-19.9	742.8	0.020	0.000	21.4	5	-19.9	18.2	1.25	 .0731	24	1	100.0	1
09/02/24	14:14	-10.7	-10.7	-10.7	47	-19.8	12.2	NW	0.20	16.5	NW	-19.1	-10.9	-19.3	742.8	0.020	0.000	21.4	5	-19.9	18.2	1.25	 .0731	23	1	100.0	1
09/02/24	14:15	-10.7	-10.7	-10.7	47	-19.8	12.2	NNW	0.20	15.7	NNW	-19.1	-10.9	-19.3	742.8	0.020	0.000	21.4	5	-19.9	18.2	1.25	 .0731	23	1	100.0	1
09/02/24	14:16	-10.7	-10.7	-10.7	47	-19.9	13.9	NW	0.23	15.7	NW	-19.7	-10.9	-19.9	742.7	0.020	0.000	21.4	5	-19.9	18.2	1.25	 .0731	24	1	100.0	1
09/02/24	14:17	-10.8	-10.7	-10.8	47	-20.0	13.0	NW	0.22	14.8	NW	-19.6	-11.1	-19.8	742.7	0.020	0.000	21.4	5	-19.9	18.3	1.25	 .0730	23	1	100.0	1
09/02/24	14:18	-10.9	-10.8	-10.9	47	-20.0	13.0	NNW	0.22	14.8	NNW	-19.7	-11.1	-19.9	742.6	0.020	0.000	21.4	5	-19.9	18.3	1.25	 .0730	24	1	100.0	1
09/02/24	14:19	-10.9	-10.9	-10.9	48	-19.8	13.0	NNW	0.22	14.8	NNW	-19.7	-11.2	-19.9	742.6	0.020	0.000	21.4	5	-19.9	18.3	1.25	 .0730	23	1	100.0	1
09/02/24	14:20	-11.1	-10.9	-11.1	48	-19.9	13.9	NNW	0.23	15.7	NNW	-20.2	-11.3	-20.4	742.6	0.020	0.000	21.4	5	-19.9	18.3	1.25	 .0730	23	1	100.0	1
09/02/24	14:21	-11.1	-11.1	-11.1	48	-19.9	12.2	NNW	0.20	13.9	NNW	-19.6	-11.3	-19.8	742.7	0.020	0.000	21.4	5	-19.9	18.3	1.25	 .0730	24	1	100.0	1
09/02/24	14:22	-11.1	-11.1	-11.1	49	-19.7	11.3	NNW	0.19	13.9	NNW	-19.4	-11.3	-19.6	742.7	0.020	0.000	21.4	5	-19.9	18.3	1.25	 .0730	23	1	100.0	1
09/02/24	14:23	-11.1	-11.1	-11.1	49	-19.7	12.2	NNW	0.20	14.8	NNW	-19.6	-11.3	-19.8	742.8	0.020	0.000	21.5	5	-19.8	18.4	1.25	 .0730	24	1	100.0	1
09/02/24	14:24	-11.0	-11.0	-11.1	49	-19.6	11.3	NW	0.19	13.0	NW	-19.2	-11.2	-19.4	742.7	0.020	0.000	21.5	5	-19.8	18.4	1.25	 .0730	23	1	100.0	1
09/02/24	14:25	-11.0	-11.0	-11.0	49	-19.6	10.4	NW	0.17	11.3	NNW	-18.9	-11.2	-19.1	742.8	0.020	0.000	21.5	5	-19.8	18.4	1.25	 .0730	24	1	100.0	1
09/02/24	14:26	-11.0	-10.9	-11.0	48	-19.9	9.6	NNW	0.16	10.4	NW	-18.6	-11.2	-18.8	742.8	0.020	0.000	21.5	5	-19.8	18.4	1.25	 .0730	23	1	100.0	1
09/02/24	14:27	-10.9	-10.9	-10.9	48	-19.8	9.6	NNW	0.16	11.3	NNW	-18.5	-11.2	-18.7	742.7	0.020	0.000	21.5	5	-19.8	18.4	1.25	 .0730	23	1	100.0	1
09/02/24	14:28	-10.9	-10.9	-10.9	48	-19.8	9.6	NNW	0.16	11.3	NNW	-18.4	-11.1	-18.6	742.7	0.020	0.000	21.5	5	-19.8	18.4	1.25	 .0730	24	1	100.0	1
09/02/24	14:29	-10.8	-10.8	-10.8	48	-19.7	9.6	NNW	0.16	10.4	NNW	-18.3	-11.0	-18.5	742.7	0.020	0.000	21.5	5	-19.8	18.4	1.25	 .0730	23	1	100.0	1
09/02/24	14:30	-10.8	-10.8	-10.8	48	-19.7	9.6	NNW	0.16	10.4	NNW	-18.3	-11.0	-18.5	742.7	0.020	0.000	21.5	5	-19.8	18.4	1.25	 .0730	24	1	100.0	1
09/02/24	14:31	-10.8	-10.8	-10.8	48	-19.7	9.6	NW	0.16	10.4	NW	-18.3	-11.0	-18.5	742.8	0.020	0.000	21.5	5	-19.8	18.4	1.25	 .0730	23	1	100.0	1
09/02/24	14:32	-10.8	-10.7	-10.8	48	-19.7	10.4	NW	0.17	11.3	NW	-18.6	-11.0	-18.8	742.8	0.020	0.000	21.5	5	-19.8	18.4	1.25	 .0730	23	1	100.0	1
09/02/24	14:33	-10.7	-10.7	-10.8	48	-19.6	9.6	NW	0.16	11.3	NW	-18.2	-10.9	-18.4	742.8	0.020	0.000	21.5	5	-19.8	18.4	1.25	 .0730	24	1	100.0	1
09/02/24	14:34	-10.7	-10.7	-10.7	48	-19.6	9.6	NW	0.16	11.3	NW	-18.1	-10.9	-18.3	742.8	0.020	0.000	21.5	5	-19.8	18.4	1.25	 .0730	23	1	100.0	1
09/02/24	14:35	-10.7	-10.7	-10.7	48	-19.6	9.6	NW	0.16	10.4	NW	-18.1	-10.9	-18.3	742.8	0.020	0.000	21.5	5	-19.8	18.4	1.25	 .0730	24	1	100.0	1
09/02/24	14:36	-10.7	-10.7	-10.7	48	-19.6	10.4	NW	0.17	11.3	NW	-18.5	-10.9	-18.7	742.7	0.020	0.000	21.4	5	-19.9	18.3	1.25	 .0730	23	1	100.0	1
09/02/24	14:37	-10.6	-10.6	-10.7	48	-19.5	10.4	NW	0.17	12.2	NW	-18.3	-10.8	-18.6	742.7	0.020	0.000	21.4	5	-19.9	18.3	1.25	 .0730	24	1	100.0	1
09/02/24	14:38	-10.6	-10.6	-10.6	47	-19.7	10.4	NW	0.17	11.3	NW	-18.3	-10.8	-18.6	742.7	0.020	0.000	21.4	5	-19.9	18.3	1.25	 .0730	23	1	100.0	1
09/02/24	14:39	-10.6	-10.5	-10.6	47	-19.7	10.4	NW	0.17	11.3	NW	-18.3	-10.8	-18.6	742.7	0.020	0.000	21.4	5	-19.9	18.3	1.25	 .0730	23	1	100.0	1
09/02/24	14:40	-10.6	-10.6	-10.6	47	-19.8	9.6	NW	0.16	10.4	NNW	-18.1	-10.9	-18.3	742.7	0.020	0.000	21.4	5	-19.9	18.3	1.25	 .0730	24	1	100.0	1
09/02/24	14:41	-10.6	-10.6	-10.7	47	-19.8	10.4	NW	0.17	11.3	NW	-18.4	-10.9	-18.7	742.7	0.020	0.000	21.4	5	-19.9	18.3	1.25	 .0730	23	1	100.0	1
09/02/24	14:42	-10.7	-10.6	-10.7	47	-19.8	9.6	NW	0.16	11.3	NW	-18.1	-10.9	-18.3	742.7	0.020	0.000	21.4	5	-19.9	18.2	1.25	 .0731	24	1	100.0	1
09/02/24	14:43	-10.7	-10.7	-10.7	47	-19.8	10.4	NW	0.17	11.3	NW	-18.5	-10.9	-18.7	742.7	0.020	0.000	21.4	5	-19.9	18.2	1.25	 .0731	23	1	100.0	1
09/02/24	14:44	-10.7	-10.7	-10.7	47	-19.8	9.6	NW	0.16	11.3	NW	-18.1	-10.9	-18.3	742.6	0.020	0.000	21.4	5	-19.9	18.2	1.25	 .0731	23	1	100.0	1
09/02/24	14:45	-10.7	-10.7	-10.7	47	-19.9	8.7	NW	0.14	9.6	NW	-17.8	-10.9	-18.1	742.6	0.020	0.000	21.4	5	-19.9	18.2	1.25	 .0731	24	1	100.0	1
09/02/24	14:46	-10.8	-10.7	-10.8	47	-20.0	8.7	NW	0.14	9.6	NW	-17.9	-11.1	-18.2	742.6	0.020	0.000	21.4	5	-19.9	18.2	1.25	 .0730	23	1	100.0	1
09/02/24	14:47	-11.0	-10.9	-11.0	48	-19.9	7.8	NW	0.13	8.7	NW	-17.8	-11.2	-18.0	742.7	0.020	0.000	21.4	5	-19.9	18.2	1.25	 .0731	24	1	100.0	1
09/02/24	14:48	-11.1	-11.0	-11.1	48	-19.9	8.7	NW	0.14	9.6	NW	-18.2	-11.3	-18.4	742.6	0.020	0.000	21.3	5	-19.9	18.2	1.25	 .0731	23	1	100.0	1
09/02/24	14:49	-11.2	-11.1	-11.2	49	-19.8	7.8	NW	0.13	8.7	NW	-17.9	-11.4	-18.2	742.6	0.020	0.000	21.3	5	-19.9	18.2	1.25	 .0731	23	1	100.0	1
09/02/24	14:50	-11.3	-11.2	-11.3	49	-19.9	8.7	NW	0.14	8.7	NW	-18.5	-11.5	-18.7	742.6	0.021	0.000	21.4	5	-19.9	18.2	1.25	 .0730	24	1	100.0	1
09/02/24	14:51	-11.4	-11.3	-11.4	50	-19.8	7.8	NW	0.13	9.6	NW	-18.2	-11.6	-18.4	742.5	0.021	0.000	21.3	5	-19.9	18.2	1.25	 .0731	23	1	100.0	1
09/02/24	14:52	-11.5	-11.4	-11.5	50	-19.9	7.8	NW	0.13	8.7	NW	-18.4	-11.7	-18.6	742.5	0.021	0.000	21.3	5	-19.9	18.2	1.25	 .0731	24	1	100.0	1
09/02/24	14:53	-11.6	-11.6	-11.6	50	-20.0	7.8	NW	0.13	8.7	NW	-18.5	-11.8	-18.7	742.5	0.021	0.000	21.4	5	-19.9	18.2	1.25	 .0730	23	1	100.0	1
09/02/24	14:54	-11.7	-11.7	-11.7	51	-19.8	7.0	NW	0.12	7.8	NW	-18.2	-11.9	-18.4	742.5	0.021	0.000	21.4	5	-19.9	18.2	1.25	 .0730	24	1	100.0	1
09/02/24	14:55	-11.8	-11.8	-11.8	51	-19.9	6.1	WNW	0.10	7.0	NW	-17.8	-12.1	-18.1	742.5	0.021	0.000	21.4	5	-19.9	18.2	1.25	 .0730	23	1	100.0	1
09/02/24	14:56	-11.9	-11.8	-11.9	51	-20.0	4.3	WNW	0.07	6.1	WNW	-16.8	-12.2	-17.0	742.5	0.021	0.000	21.4	5	-19.9	18.2	1.25	 .0730	23	1	100.0	1
09/02/24	14:57	-12.0	-11.9	-12.0	52	-19.9	5.2	NW	0.09	7.8	NW	-17.5	-12.2	-17.7	742.5	0.021	0.000	21.4	5	-19.9	18.2	1.25	 .0730	24	1	100.0	1
09/02/24	14:58	-11.9	-11.9	-12.0	52	-19.8	6.1	NW	0.10	7.8	NW	-17.9	-12.2	-18.2	742.6	0.021	0.000	21.4	5	-19.9	18.2	1.25	 .0730	23	1	100.0	1
09/02/24	14:59	-11.9	-11.9	-11.9	52	-19.8	5.2	NW	0.09	7.0	NW	-17.4	-12.2	-17.7	742.5	0.021	0.000	21.4	5	-19.9	18.2	1.25	 .0730	24	1	100.0	1
09/02/24	15:00	-11.9	-11.9	-11.9	52	-19.8	4.3	NW	0.07	6.1	NW	-16.8	-12.2	-17.0	742.5	0.021	0.000	21.4	5	-19.9	18.2	1.25	 .0730	23	1	100.0	1
09/02/24	15:01	-11.9	-11.9	-11.9	52	-19.8	3.5	NW	0.06	4.3	NW	-16.0	-12.2	-16.2	742.5	0.021	0.000	21.4	5	-19.9	18.2	1.25	 .0730	23	1	100.0	1
09/02/24	15:02	-11.9	-11.9	-11.9	52	-19.8	3.5	NW	0.06	4.3	NW	-15.9	-12.1	-16.1	742.5	0.021	0.000	21.4	5	-19.9	18.3	1.25	 .0730	24	1	100.0	1
09/02/24	15:03	-11.9	-11.9	-11.9	53	-19.6	2.6	NW	0.04	3.5	NW	-14.9	-12.1	-15.1	742.5	0.021	0.000	21.4	5	-19.9	18.3	1.25	 .0730	23	1	100.0	1
09/02/24	15:04	-11.8	-11.8	-11.9	52	-19.7	3.5	NW	0.06	4.3	NW	-15.8	-12.1	-16.1	742.5	0.021	0.000	21.4	5	-19.9	18.3	1.25	 .0730	24	1	100.0	1
09/02/24	15:05	-11.8	-11.8	-11.8	52	-19.7	4.3	NW	0.07	5.2	NW	-16.6	-12.1	-16.8	742.5	0.021	0.000	21.4	5	-19.9	18.3	1.25	 .0730	23	1	100.0	1
09/02/24	15:06	-11.8	-11.8	-11.8	52	-19.7	7.0	NNW	0.12	10.4	NNW	-18.3	-12.0	-18.5	742.4	0.021	0.000	21.5	5	-19.8	18.4	1.25	 .0730	24	1	100.0	1
09/02/24	15:07	-11.6	-11.6	-11.8	51	-19.7	8.7	NNW	0.14	9.6	NNW	-18.9	-11.8	-19.2	742.4	0.021	0.000	21.5	5	-19.8	18.4	1.25	 .0730	23	1	100.0	1
09/02/24	15:08	-11.3	-11.3	-11.6	51	-19.5	7.8	NW	0.13	8.7	NW	-18.2	-11.6	-18.4	742.4	0.021	0.000	21.5	5	-19.8	18.4	1.25	 .0730	23	1	100.0	1
09/02/24	15:09	-11.1	-11.1	-11.3	50	-19.5	7.0	NW	0.12	7.8	NW	-17.4	-11.3	-17.7	742.4	0.020	0.000	21.5	5	-19.8	18.4	1.25	 .0730	24	1	100.0	1
09/02/24	15:10	-10.9	-10.9	-11.1	49	-19.6	7.8	NW	0.13	8.7	NW	-17.8	-11.2	-18.0	742.4	0.020	0.000	21.5	5	-19.8	18.4	1.25	 .0730	23	1	100.0	1
09/02/24	15:11	-10.8	-10.8	-10.9	48	-19.7	7.8	NW	0.13	8.7	NW	-17.6	-11.0	-17.8	742.4	0.020	0.000	21.5	5	-19.8	18.4	1.25	 .0730	24	1	100.0	1
09/02/24	15:12	-10.7	-10.7	-10.8	48	-19.6	7.8	NW	0.13	9.6	NW	-17.5	-10.9	-17.7	742.4	0.020	0.000	21.6	5	-19.8	18.6	1.25	 .0730	23	1	100.0	1
09/02/24	15:13	-10.7	-10.7	-10.7	47	-19.9	8.7	NNW	0.14	10.4	NNW	-17.8	-10.9	-18.1	742.4	0.020	0.000	21.6	5	-19.8	18.6	1.25	 .0730	23	1	100.0	1
09/02/24	15:14	-10.6	-10.6	-10.7	47	-19.8	9.6	NW	0.16	10.4	NW	-18.1	-10.9	-18.3	742.3	0.020	0.000	21.6	5	-19.8	18.6	1.25	 .0730	24	1	100.0	1
09/02/24	15:15	-10.6	-10.6	-10.6	46	-20.0	9.6	NW	0.16	9.6	NW	-18.0	-10.8	-18.3	742.3	0.020	0.000	21.6	5	-19.8	18.6	1.25	 .0730	23	1	100.0	1
09/02/24	15:16	-10.5	-10.5	-10.6	46	-19.9	9.6	NW	0.16	10.4	NW	-17.9	-10.8	-18.2	742.4	0.020	0.000	21.6	5	-19.8	18.6	1.25	 .0730	24	1	100.0	1
09/02/24	15:17	-10.4	-10.4	-10.5	46	-19.9	9.6	NW	0.16	10.4	WNW	-17.8	-10.7	-18.1	742.4	0.020	0.000	21.6	5	-19.8	18.6	1.25	 .0730	23	1	100.0	1
09/02/24	15:18	-10.3	-10.3	-10.4	46	-19.8	8.7	NW	0.14	9.6	WNW	-17.4	-10.6	-17.7	742.4	0.020	0.000	21.6	5	-19.8	18.6	1.25	 .0730	24	1	100.0	1
09/02/24	15:19	-10.3	-10.3	-10.3	46	-19.8	7.8	NW	0.13	8.7	NW	-17.0	-10.6	-17.3	742.4	0.020	0.000	21.6	5	-19.8	18.6	1.25	 .0730	23	1	100.0	1
09/02/24	15:20	-10.5	-10.4	-10.5	45	-20.2	7.0	NW	0.12	7.8	NW	-16.8	-10.8	-17.1	742.4	0.020	0.000	21.6	5	-19.8	18.6	1.25	 .0730	23	1	100.0	1
09/02/24	15:21	-10.6	-10.5	-10.6	46	-20.0	7.0	NW	0.12	7.8	NW	-16.9	-10.9	-17.2	742.4	0.020	0.000	21.5	5	-19.8	18.4	1.25	 .0730	24	1	100.0	1
09/02/24	15:22	-10.7	-10.6	-10.7	46	-20.1	7.0	NW	0.12	7.8	NW	-16.9	-10.9	-17.2	742.4	0.020	0.000	21.5	5	-19.8	18.4	1.25	 .0730	23	1	100.0	1
09/02/24	15:23	-10.7	-10.7	-10.7	46	-20.1	6.1	NW	0.10	7.8	NW	-16.4	-10.9	-16.7	742.4	0.020	0.000	21.5	5	-19.8	18.4	1.25	 .0730	24	1	100.0	1
09/02/24	15:24	-10.6	-10.6	-10.7	46	-20.0	7.0	NW	0.12	8.7	NW	-16.9	-10.9	-17.2	742.4	0.020	0.000	21.5	5	-19.8	18.4	1.25	 .0730	23	1	100.0	1
09/02/24	15:25	-10.6	-10.6	-10.6	46	-20.0	7.0	NW	0.12	7.8	NW	-16.8	-10.8	-17.1	742.3	0.020	0.000	21.5	5	-19.8	18.4	1.25	 .0730	23	1	100.0	1
09/02/24	15:26	-10.4	-10.4	-10.6	45	-20.1	7.8	NW	0.13	7.8	NW	-17.1	-10.7	-17.4	742.3	0.020	0.000	21.5	5	-19.8	18.4	1.25	 .0730	24	1	100.0	1
09/02/24	15:27	-10.4	-10.4	-10.4	45	-20.1	7.0	NW	0.12	7.8	NW	-16.6	-10.7	-16.9	742.3	0.020	0.000	21.5	5	-19.8	18.4	1.25	 .0730	23	1	100.0	1
09/02/24	15:28	-10.3	-10.3	-10.3	45	-20.0	7.0	NW	0.12	7.8	NW	-16.5	-10.6	-16.8	742.3	0.020	0.000	21.4	5	-19.9	18.3	1.25	 .0730	24	1	100.0	1
09/02/24	15:29	-10.2	-10.2	-10.3	44	-20.1	6.1	NW	0.10	7.8	NW	-15.9	-10.4	-16.2	742.3	0.020	0.000	21.4	5	-19.9	18.3	1.25	 .0730	23	1	100.0	1
09/02/24	15:30	-10.1	-10.1	-10.2	44	-20.1	5.2	NW	0.09	7.0	NW	-15.2	-10.4	-15.5	742.3	0.020	0.000	21.4	5	-19.9	18.2	1.25	 .0730	23	1	100.0	1
09/02/24	15:31	-10.1	-10.1	-10.1	44	-20.0	5.2	NW	0.09	5.2	NW	-15.2	-10.3	-15.4	742.3	0.020	0.000	21.4	5	-19.9	18.2	1.25	 .0730	24	1	100.0	1
09/02/24	15:32	-10.1	-10.1	-10.1	44	-20.0	5.2	NW	0.09	7.0	NW	-15.2	-10.3	-15.4	742.3	0.020	0.000	21.4	5	-19.9	18.2	1.25	 .0730	23	1	100.0	1
09/02/24	15:33	-10.0	-10.0	-10.1	44	-20.0	6.1	NNW	0.10	7.0	NW	-15.7	-10.3	-15.9	742.2	0.020	0.000	21.4	5	-19.9	18.2	1.25	 .0730	24	1	100.0	1
09/02/24	15:34	-10.0	-10.0	-10.0	43	-20.2	6.1	NNW	0.10	7.0	NNW	-15.7	-10.3	-15.9	742.3	0.020	0.000	21.4	5	-19.9	18.2	1.25	 .0730	23	1	100.0	1
09/02/24	15:35	-9.9	-9.9	-9.9	43	-20.1	7.0	NNW	0.12	7.8	NNW	-16.0	-10.2	-16.3	742.2	0.020	0.000	21.3	5	-19.9	18.2	1.25	 .0730	24	1	100.0	1
09/02/24	15:36	-9.8	-9.8	-9.9	43	-20.1	7.0	NNW	0.12	7.8	NNW	-15.9	-10.1	-16.2	742.2	0.020	0.000	21.3	5	-19.9	18.2	1.25	 .0730	23	1	100.0	1
09/02/24	15:37	-9.7	-9.7	-9.8	43	-20.0	7.0	NW	0.12	7.8	NNW	-15.8	-10.0	-16.1	742.2	0.019	0.000	21.3	5	-19.9	18.2	1.25	 .0730	23	1	100.0	1
09/02/24	15:38	-9.6	-9.6	-9.7	42	-20.2	6.1	NW	0.10	7.0	NW	-15.2	-9.9	-15.5	742.2	0.019	0.000	21.3	5	-19.9	18.2	1.25	 .0730	24	1	100.0	1
09/02/24	15:39	-9.6	-9.6	-9.6	42	-20.1	5.2	NW	0.09	7.0	NW	-14.6	-9.8	-14.9	742.2	0.019	0.000	21.3	5	-19.9	18.2	1.25	 .0730	23	1	100.0	1
09/02/24	15:40	-9.6	-9.6	-9.6	42	-20.1	4.3	NW	0.07	5.2	NW	-13.9	-9.8	-14.2	742.2	0.019	0.000	21.3	5	-19.9	18.2	1.25	 .0730	24	1	100.0	1
09/02/24	15:41	-9.7	-9.6	-9.7	42	-20.2	4.3	NW	0.07	5.2	NW	-14.1	-9.9	-14.4	742.2	0.019	0.000	21.3	5	-19.9	18.2	1.25	 .0730	23	1	100.0	1
09/02/24	15:42	-9.7	-9.7	-9.7	42	-20.2	4.3	NW	0.07	7.0	NW	-14.1	-9.9	-14.4	742.1	0.019	0.000	21.3	5	-19.9	18.2	1.25	 .0730	23	1	100.0	1
09/02/24	15:43	-9.7	-9.7	-9.7	42	-20.3	4.3	NW	0.07	5.2	NW	-14.2	-10.0	-14.4	742.1	0.019	0.000	21.3	5	-19.9	18.2	1.25	 .0730	24	1	100.0	1
09/02/24	15:44	-9.7	-9.7	-9.7	42	-20.3	6.1	NW	0.10	7.0	NW	-15.3	-10.0	-15.6	742.1	0.019	0.000	21.4	5	-19.9	18.2	1.25	 .0730	23	1	100.0	1
09/02/24	15:45	-9.7	-9.7	-9.7	42	-20.3	6.1	NW	0.10	7.0	NW	-15.3	-10.0	-15.6	742.1	0.019	0.000	21.3	5	-19.9	18.2	1.25	 .0730	24	1	100.0	1
09/02/24	15:46	-9.7	-9.7	-9.7	42	-20.3	6.1	NW	0.10	7.0	NW	-15.3	-10.0	-15.6	742.1	0.019	0.000	21.4	5	-19.9	18.2	1.25	 .0730	23	1	100.0	1
09/02/24	15:47	-9.7	-9.7	-9.7	42	-20.2	6.1	NW	0.10	7.8	NW	-15.3	-9.9	-15.6	742.1	0.019	0.000	21.4	5	-19.9	18.2	1.25	 .0730	24	1	100.0	1
09/02/24	15:48	-9.7	-9.7	-9.7	42	-20.2	7.0	NW	0.12	7.0	NW	-15.7	-9.9	-16.0	742.0	0.019	0.000	21.4	5	-19.9	18.2	1.25	 .0730	23	1	100.0	1
09/02/24	15:49	-9.6	-9.6	-9.7	42	-20.2	6.1	NW	0.10	7.0	NW	-15.2	-9.9	-15.5	742.0	0.019	0.000	21.4	5	-19.9	18.2	1.25	 .0730	23	1	100.0	1
09/02/24	15:50	-9.6	-9.6	-9.6	41	-20.4	5.2	NW	0.09	7.0	NW	-14.7	-9.9	-14.9	742.1	0.019	0.000	21.4	5	-19.9	18.2	1.25	 .0730	24	1	100.0	1
09/02/24	15:51	-9.6	-9.6	-9.6	41	-20.4	5.2	NW	0.09	7.0	NW	-14.6	-9.8	-14.9	742.0	0.019	0.000	21.4	5	-19.9	18.2	1.25	 .0730	23	1	100.0	1
09/02/24	15:52	-9.5	-9.5	-9.6	41	-20.3	6.1	NW	0.10	7.8	NW	-15.1	-9.8	-15.3	742.1	0.019	0.000	21.4	5	-19.9	18.3	1.25	 .0730	24	1	100.0	1
09/02/24	15:53	-9.4	-9.4	-9.5	41	-20.3	7.0	NW	0.12	7.8	NW	-15.5	-9.7	-15.8	742.1	0.019	0.000	21.4	5	-19.9	18.3	1.25	 .0730	23	1	100.0	1
09/02/24	15:54	-9.3	-9.3	-9.4	41	-20.2	7.0	NW	0.12	7.8	NW	-15.3	-9.6	-15.6	742.0	0.019	0.000	21.4	5	-19.9	18.3	1.25	 .0730	23	1	100.0	1
09/02/24	15:55	-9.3	-9.3	-9.3	41	-20.1	7.0	NW	0.12	7.8	NW	-15.3	-9.6	-15.6	742.0	0.019	0.000	21.4	5	-19.9	18.3	1.25	 .0730	24	1	100.0	1
09/02/24	15:56	-9.2	-9.2	-9.3	40	-20.4	7.0	NW	0.12	7.8	NW	-15.2	-9.5	-15.5	742.1	0.019	0.000	21.4	5	-19.9	18.3	1.25	 .0730	23	1	100.0	1
09/02/24	15:57	-9.2	-9.2	-9.2	40	-20.3	7.0	NW	0.12	7.8	NW	-15.1	-9.5	-15.4	742.0	0.019	0.000	21.5	5	-19.8	18.4	1.25	 .0730	24	1	100.0	1
09/02/24	15:58	-9.1	-9.1	-9.2	40	-20.3	7.8	NW	0.13	7.8	NW	-15.5	-9.4	-15.8	742.0	0.019	0.000	21.4	5	-19.9	18.3	1.25	 .0730	23	1	100.0	1
09/02/24	15:59	-9.1	-9.1	-9.1	40	-20.2	7.8	NW	0.13	8.7	NW	-15.4	-9.4	-15.8	742.0	0.019	0.000	21.5	5	-19.8	18.4	1.25	 .0730	24	1	100.0	1
09/02/24	16:00	-9.1	-9.1	-9.1	40	-20.2	7.8	NW	0.13	7.8	NW	-15.4	-9.4	-15.8	742.0	0.019	0.000	21.5	5	-19.8	18.4	1.25	 .0730	23	1	100.0	1
09/02/24	16:01	-9.1	-9.1	-9.1	40	-20.2	7.0	NNW	0.12	7.8	NW	-15.0	-9.4	-15.3	741.9	0.019	0.000	21.5	5	-19.8	18.4	1.25	 .0730	23	1	100.0	1
09/02/24	16:02	-9.0	-9.0	-9.1	40	-20.2	7.0	NNW	0.12	7.8	NNW	-14.9	-9.3	-15.3	741.9	0.019	0.000	21.5	5	-19.8	18.4	1.25	 .0729	24	1	100.0	1
09/02/24	16:03	-9.0	-9.0	-9.0	40	-20.2	7.8	NNW	0.13	7.8	NNW	-15.4	-9.3	-15.7	741.8	0.019	0.000	21.5	5	-19.8	18.4	1.25	 .0729	23	1	100.0	1
09/02/24	16:04	-8.9	-8.9	-9.0	40	-20.1	8.7	NNW	0.14	9.6	NNW	-15.7	-9.3	-16.0	741.9	0.019	0.000	21.5	5	-19.8	18.4	1.25	 .0729	24	1	100.0	1
09/02/24	16:05	-8.9	-8.9	-8.9	40	-20.1	9.6	NNW	0.16	9.6	NNW	-15.9	-9.2	-16.3	741.8	0.019	0.000	21.4	5	-19.9	18.3	1.25	 .0730	23	1	100.0	1
09/02/24	16:06	-8.7	-8.7	-8.8	39	-20.2	9.6	NNW	0.16	10.4	NNW	-15.8	-9.1	-16.1	741.8	0.019	0.000	21.4	5	-19.9	18.3	1.25	 .0730	23	1	100.0	1
09/02/24	16:07	-8.6	-8.6	-8.7	39	-20.1	8.7	NNW	0.14	9.6	NNW	-15.2	-8.9	-15.6	741.8	0.019	0.000	21.4	5	-19.9	18.3	1.25	 .0730	24	1	100.0	1
09/02/24	16:08	-8.3	-8.3	-8.5	39	-19.9	8.7	NW	0.14	10.4	NW	-14.9	-8.7	-15.3	741.8	0.019	0.000	21.4	5	-19.9	18.3	1.25	 .0729	23	1	100.0	1
09/02/24	16:09	-8.3	-8.3	-8.3	38	-20.1	7.8	NW	0.13	9.6	NW	-14.5	-8.6	-14.8	741.8	0.018	0.000	21.4	5	-19.9	18.3	1.25	 .0730	24	1	100.0	1
09/02/24	16:10	-8.4	-8.3	-8.4	38	-20.3	6.1	NW	0.10	7.8	NW	-13.8	-8.8	-14.1	741.8	0.019	0.000	21.4	5	-19.9	18.3	1.25	 .0730	23	1	100.0	1
09/02/24	16:11	-8.7	-8.5	-8.7	38	-20.5	6.1	NW	0.10	7.0	NW	-14.1	-9.1	-14.4	741.8	0.019	0.000	21.4	5	-19.9	18.3	1.25	 .0729	24	1	100.0	1
09/02/24	16:12	-8.9	-8.7	-8.9	39	-20.4	7.0	NNW	0.12	9.6	NNW	-14.9	-9.3	-15.2	741.7	0.019	0.000	21.4	5	-19.9	18.2	1.25	 .0730	23	1	100.0	1
09/02/24	16:13	-9.0	-8.9	-9.0	39	-20.5	9.6	NNW	0.16	10.4	NNW	-16.1	-9.3	-16.4	741.7	0.019	0.000	21.4	5	-19.9	18.2	1.25	 .0730	23	1	100.0	1
09/02/24	16:14	-8.8	-8.8	-8.9	39	-20.3	8.7	NNW	0.14	9.6	NNW	-15.5	-9.1	-15.8	741.7	0.019	0.000	21.4	5	-19.9	18.2	1.25	 .0730	24	1	100.0	1
09/02/24	16:15	-8.5	-8.5	-8.8	39	-20.0	8.7	NNW	0.14	9.6	NNW	-15.1	-8.8	-15.4	741.6	0.019	0.000	21.4	5	-19.9	18.2	1.25	 .0730	23	1	100.0	1
09/02/24	16:16	-8.2	-8.2	-8.4	38	-20.1	8.7	NNW	0.14	9.6	NNW	-14.8	-8.6	-15.1	741.7	0.018	0.000	21.4	5	-19.9	18.2	1.25	 .0730	24	1	100.0	1
09/02/24	16:17	-8.1	-8.1	-8.2	38	-20.0	8.7	NW	0.14	10.4	NW	-14.7	-8.4	-15.0	741.7	0.018	0.000	21.4	5	-19.9	18.2	1.25	 .0730	23	1	100.0	1
09/02/24	16:18	-8.2	-8.1	-8.2	38	-20.1	8.7	NW	0.14	8.7	NW	-14.8	-8.6	-15.1	741.7	0.018	0.000	21.4	5	-19.9	18.2	1.25	 .0730	23	1	100.0	1
09/02/24	16:19	-8.6	-8.3	-8.6	38	-20.4	7.8	NW	0.13	8.7	NW	-14.8	-8.9	-15.2	741.7	0.019	0.000	21.3	5	-19.9	18.2	1.25	 .0730	24	1	100.0	1
09/02/24	16:20	-8.8	-8.6	-8.8	38	-20.6	7.8	NW	0.13	8.7	NW	-15.2	-9.2	-15.5	741.6	0.019	0.000	21.3	5	-19.9	18.2	1.25	 .0730	23	1	100.0	1
09/02/24	16:21	-9.1	-8.9	-9.1	39	-20.6	7.8	NW	0.13	7.8	NW	-15.5	-9.4	-15.8	741.7	0.019	0.000	21.3	5	-19.9	18.2	1.25	 .0730	24	1	100.0	1
09/02/24	16:22	-9.3	-9.2	-9.3	39	-20.8	7.0	NW	0.12	7.8	NW	-15.3	-9.6	-15.6	741.7	0.019	0.000	21.4	5	-19.9	18.2	1.25	 .0730	23	1	100.0	1
09/02/24	16:23	-9.6	-9.3	-9.6	40	-20.7	6.1	NW	0.10	7.0	NW	-15.1	-9.8	-15.4	741.7	0.019	0.000	21.3	5	-19.9	18.2	1.25	 .0730	23	1	100.0	1
09/02/24	16:24	-9.8	-9.6	-9.8	41	-20.6	7.0	WNW	0.12	7.0	WNW	-15.9	-10.1	-16.2	741.7	0.020	0.000	21.4	5	-19.9	18.2	1.25	 .0730	24	1	100.0	1
09/02/24	16:25	-10.1	-9.8	-10.1	43	-20.3	5.2	WNW	0.09	6.1	WNW	-15.2	-10.3	-15.4	741.7	0.020	0.000	21.3	5	-19.9	18.2	1.25	 .0730	23	1	100.0	1
09/02/24	16:26	-10.3	-10.1	-10.3	44	-20.3	5.2	NW	0.09	5.2	NW	-15.5	-10.6	-15.8	741.7	0.020	0.000	21.4	5	-19.9	18.2	1.25	 .0730	24	1	100.0	1
09/02/24	16:27	-10.5	-10.3	-10.5	45	-20.2	5.2	NNW	0.09	7.8	NNW	-15.7	-10.8	-16.0	741.7	0.020	0.000	21.4	5	-19.9	18.2	1.25	 .0730	23	1	100.0	1
09/02/24	16:28	-10.6	-10.6	-10.6	45	-20.3	7.8	NNW	0.13	8.7	NNW	-17.3	-10.9	-17.6	741.7	0.020	0.000	21.4	5	-19.9	18.2	1.25	 .0730	24	1	100.0	1
09/02/24	16:29	-10.4	-10.4	-10.6	44	-20.4	7.8	NNW	0.13	8.7	NNW	-17.1	-10.7	-17.4	741.7	0.020	0.000	21.4	5	-19.9	18.2	1.25	 .0730	23	1	100.0	1
09/02/24	16:30	-10.0	-10.0	-10.4	44	-20.0	7.8	NNW	0.13	8.7	NNW	-16.6	-10.3	-16.9	741.6	0.020	0.000	21.4	5	-19.9	18.2	1.25	 .0730	23	1	100.0	1
09/02/24	16:31	-9.6	-9.6	-9.9	42	-20.1	8.7	NNW	0.14	9.6	NNW	-16.4	-9.8	-16.7	741.7	0.019	0.000	21.4	5	-19.9	18.2	1.25	 .0730	24	1	100.0	1
09/02/24	16:32	-9.1	-9.1	-9.4	41	-20.0	8.7	NW	0.14	9.6	NNW	-15.9	-9.4	-16.2	741.7	0.019	0.000	21.4	5	-19.9	18.2	1.25	 .0730	23	1	100.0	1
09/02/24	16:33	-9.0	-9.0	-9.1	40	-20.2	8.7	NNW	0.14	9.6	NNW	-15.8	-9.3	-16.1	741.6	0.019	0.000	21.4	5	-19.9	18.3	1.25	 .0729	24	1	100.0	1
09/02/24	16:34	-9.0	-9.0	-9.0	40	-20.2	8.7	NNW	0.14	8.7	NNW	-15.8	-9.3	-16.1	741.6	0.019	0.000	21.4	5	-19.9	18.3	1.25	 .0729	23	1	100.0	1
09/02/24	16:35	-9.1	-9.0	-9.1	39	-20.5	7.0	NW	0.12	8.7	NNW	-15.0	-9.4	-15.3	741.6	0.019	0.000	21.4	5	-19.9	18.3	1.25	 .0729	23	1	100.0	1
09/02/24	16:36	-9.2	-9.1	-9.2	39	-20.6	7.0	NNW	0.12	7.8	NNW	-15.1	-9.5	-15.4	741.6	0.019	0.000	21.4	5	-19.9	18.3	1.25	 .0729	24	1	100.0	1
09/02/24	16:37	-9.3	-9.2	-9.3	40	-20.4	6.1	NW	0.10	7.8	NW	-14.8	-9.6	-15.1	741.6	0.019	0.000	21.4	5	-19.9	18.3	1.25	 .0729	23	1	100.0	1
09/02/24	16:38	-9.3	-9.3	-9.3	40	-20.5	7.0	NW	0.12	7.8	NW	-15.3	-9.6	-15.6	741.6	0.019	0.000	21.5	5	-19.8	18.4	1.25	 .0729	24	1	100.0	1
09/02/24	16:39	-9.3	-9.3	-9.3	40	-20.5	6.1	NW	0.10	7.0	NW	-14.8	-9.6	-15.1	741.6	0.019	0.000	21.5	5	-19.8	18.4	1.25	 .0729	23	1	100.0	1
09/02/24	16:40	-9.3	-9.3	-9.3	40	-20.4	7.0	NW	0.12	7.8	NW	-15.3	-9.6	-15.6	741.6	0.019	0.000	21.5	5	-19.8	18.4	1.25	 .0729	24	1	100.0	1
09/02/24	16:41	-9.2	-9.2	-9.2	40	-20.4	7.0	NW	0.12	7.8	NW	-15.2	-9.5	-15.5	741.6	0.019	0.000	21.5	5	-19.8	18.4	1.25	 .0729	23	1	100.0	1
09/02/24	16:42	-9.2	-9.2	-9.2	40	-20.4	5.2	NW	0.09	7.0	NW	-14.2	-9.5	-14.4	741.6	0.019	0.000	21.6	5	-19.8	18.6	1.25	 .0729	23	1	100.0	1
09/02/24	16:43	-9.3	-9.2	-9.3	40	-20.4	5.2	NW	0.09	5.2	NW	-14.3	-9.6	-14.6	741.6	0.019	0.000	21.6	5	-19.8	18.6	1.25	 .0729	24	1	100.0	1
09/02/24	16:44	-9.3	-9.3	-9.3	40	-20.5	5.2	NW	0.09	5.2	NW	-14.3	-9.6	-14.6	741.6	0.019	0.000	21.6	5	-19.8	18.6	1.25	 .0729	23	1	100.0	1
09/02/24	16:45	-9.4	-9.3	-9.4	40	-20.5	5.2	NW	0.09	6.1	NW	-14.4	-9.7	-14.7	741.6	0.019	0.000	21.6	5	-19.8	18.6	1.25	 .0729	24	1	100.0	1
09/02/24	16:46	-9.5	-9.4	-9.5	40	-20.6	4.3	W	0.07	6.1	WNW	-13.9	-9.8	-14.2	741.6	0.019	0.000	21.6	5	-19.8	18.6	1.25	 .0729	23	1	100.0	1
09/02/24	16:47	-9.7	-9.6	-9.7	41	-20.5	1.7	W	0.03	2.6	W	-11.2	-9.9	-11.5	741.6	0.019	0.000	21.6	5	-19.8	18.6	1.25	 .0729	23	1	100.0	1
09/02/24	16:48	-9.8	-9.7	-9.8	41	-20.6	2.6	W	0.04	3.5	W	-12.6	-10.1	-12.8	741.6	0.020	0.000	21.5	5	-19.8	18.4	1.25	 .0729	24	1	100.0	1
09/02/24	16:49	-9.8	-9.8	-9.8	42	-20.4	2.6	W	0.04	2.6	W	-12.6	-10.1	-12.9	741.6	0.020	0.000	21.5	5	-19.8	18.4	1.25	 .0729	23	1	100.0	1
09/02/24	16:50	-9.9	-9.8	-9.9	42	-20.4	2.6	W	0.04	2.6	W	-12.7	-10.2	-12.9	741.6	0.020	0.000	21.5	5	-19.8	18.4	1.25	 .0729	24	1	100.0	1
09/02/24	16:51	-9.9	-9.9	-9.9	42	-20.4	2.6	W	0.04	3.5	W	-12.7	-10.2	-12.9	741.6	0.020	0.000	21.5	5	-19.8	18.4	1.25	 .0729	23	1	100.0	1
09/02/24	16:52	-9.8	-9.8	-9.9	42	-20.4	3.5	W	0.06	3.5	W	-13.6	-10.1	-13.8	741.5	0.020	0.000	21.5	5	-19.8	18.4	1.25	 .0729	24	1	100.0	1
09/02/24	16:53	-9.8	-9.8	-9.8	42	-20.3	3.5	W	0.06	3.5	W	-13.5	-10.1	-13.8	741.5	0.020	0.000	21.5	5	-19.8	18.4	1.25	 .0729	23	1	100.0	1
09/02/24	16:54	-9.7	-9.7	-9.7	42	-20.3	3.5	WNW	0.06	4.3	WNW	-13.4	-10.0	-13.7	741.5	0.019	0.000	21.5	5	-19.8	18.4	1.25	 .0729	23	1	100.0	1
09/02/24	16:55	-9.7	-9.7	-9.7	41	-20.5	3.5	WNW	0.06	4.3	WNW	-13.3	-9.9	-13.6	741.5	0.019	0.000	21.5	5	-19.8	18.4	1.25	 .0729	24	1	100.0	1
09/02/24	16:56	-9.7	-9.7	-9.7	41	-20.5	3.5	WNW	0.06	4.3	WNW	-13.3	-9.9	-13.6	741.5	0.019	0.000	21.5	5	-19.8	18.4	1.25	 .0729	23	1	100.0	1
09/02/24	16:57	-9.7	-9.7	-9.7	41	-20.5	3.5	WNW	0.06	4.3	WNW	-13.4	-10.0	-13.7	741.5	0.019	0.000	21.4	5	-19.9	18.3	1.25	 .0729	24	1	100.0	1
09/02/24	16:58	-9.7	-9.7	-9.7	41	-20.5	3.5	WNW	0.06	3.5	WNW	-13.4	-10.0	-13.7	741.5	0.019	0.000	21.4	5	-19.9	18.3	1.25	 .0729	23	1	100.0	1
09/02/24	16:59	-9.7	-9.7	-9.7	41	-20.5	3.5	WNW	0.06	4.3	WNW	-13.3	-9.9	-13.6	741.4	0.019	0.000	21.4	5	-19.9	18.3	1.25	 .0729	23	1	100.0	1
09/02/24	17:00	-9.7	-9.7	-9.7	41	-20.5	3.5	WNW	0.06	4.3	WNW	-13.3	-9.9	-13.6	741.5	0.019	0.000	21.4	5	-19.9	18.2	1.25	 .0729	24	1	100.0	1
09/02/24	17:01	-9.6	-9.6	-9.7	41	-20.4	2.6	WNW	0.04	3.5	WNW	-12.4	-9.9	-12.7	741.5	0.019	0.000	21.4	5	-19.9	18.2	1.25	 .0729	23	1	100.0	1
09/02/24	17:02	-9.6	-9.6	-9.6	41	-20.4	1.7	WNW	0.03	2.6	WNW	-11.1	-9.8	-11.3	741.4	0.019	0.000	21.4	5	-19.9	18.2	1.25	 .0729	24	1	100.0	1
09/02/24	17:03	-9.6	-9.6	-9.6	41	-20.4	0.9	WNW	0.01	1.7	WNW	-9.6	-9.8	-9.8	741.5	0.019	0.000	21.4	5	-19.9	18.2	1.25	 .0729	23	1	100.0	1
09/02/24	17:04	-9.5	-9.5	-9.6	41	-20.3	0.9	WNW	0.01	0.9	WNW	-9.5	-9.8	-9.8	741.4	0.019	0.000	21.4	5	-19.9	18.2	1.25	 .0729	24	1	100.0	1
09/02/24	17:05	-9.5	-9.5	-9.5	41	-20.3	0.9	WNW	0.01	1.7	WNW	-9.5	-9.8	-9.8	741.4	0.019	0.000	21.3	5	-19.9	18.2	1.25	 .0729	23	1	100.0	1
09/02/24	17:06	-9.4	-9.4	-9.5	41	-20.3	1.7	WNW	0.03	1.7	WNW	-10.9	-9.7	-11.2	741.5	0.019	0.000	21.3	5	-19.9	18.2	1.25	 .0729	23	1	100.0	1
09/02/24	17:07	-9.4	-9.4	-9.5	41	-20.3	1.7	WNW	0.03	1.7	WNW	-10.9	-9.7	-11.2	741.4	0.019	0.000	21.3	5	-19.9	18.2	1.25	 .0729	24	1	100.0	1
09/02/24	17:08	-9.4	-9.4	-9.4	41	-20.3	1.7	WNW	0.03	2.6	WNW	-10.9	-9.7	-11.2	741.4	0.019	0.000	21.3	5	-19.9	18.2	1.25	 .0729	23	1	100.0	1
09/02/24	17:09	-9.3	-9.3	-9.4	40	-20.5	2.6	WNW	0.04	3.5	WNW	-12.1	-9.6	-12.3	741.4	0.019	0.000	21.3	5	-19.9	18.2	1.25	 .0729	24	1	100.0	1
09/02/24	17:10	-9.3	-9.3	-9.3	40	-20.4	2.6	WNW	0.04	4.3	WNW	-12.0	-9.6	-12.3	741.4	0.019	0.000	21.4	5	-19.9	18.2	1.25	 .0729	23	1	100.0	1
09/02/24	17:11	-9.2	-9.2	-9.3	40	-20.4	2.6	WNW	0.04	2.6	WNW	-11.9	-9.5	-12.2	741.4	0.019	0.000	21.4	5	-19.9	18.2	1.25	 .0729	23	1	100.0	1
09/02/24	17:12	-9.2	-9.2	-9.2	40	-20.3	3.5	WNW	0.06	3.5	WNW	-12.8	-9.5	-13.1	741.3	0.019	0.000	21.3	5	-19.9	18.2	1.25	 .0729	24	1	100.0	1
09/02/24	17:13	-9.2	-9.2	-9.2	40	-20.3	3.5	WNW	0.06	3.5	WNW	-12.8	-9.5	-13.1	741.4	0.019	0.000	21.3	5	-19.9	18.2	1.25	 .0729	23	1	100.0	1
09/02/24	17:14	-9.1	-9.1	-9.2	40	-20.3	2.6	WNW	0.04	2.6	WNW	-11.8	-9.4	-12.1	741.3	0.019	0.000	21.3	5	-19.9	18.2	1.25	 .0729	24	1	100.0	1
09/02/24	17:15	-9.2	-9.1	-9.2	41	-20.0	1.7	WNW	0.03	1.7	WNW	-10.7	-9.4	-10.9	741.4	0.019	0.000	21.4	5	-19.9	18.2	1.25	 .0729	23	1	100.0	1
09/02/24	17:16	-9.2	-9.2	-9.2	41	-20.0	0.9	WNW	0.01	1.7	WNW	-9.2	-9.4	-9.4	741.3	0.019	0.000	21.4	5	-19.9	18.2	1.25	 .0729	23	1	100.0	1
09/02/24	17:17	-9.2	-9.2	-9.2	41	-20.0	0.9	WNW	0.01	1.7	WNW	-9.2	-9.4	-9.4	741.3	0.019	0.000	21.4	5	-19.9	18.2	1.25	 .0729	24	1	100.0	1
09/02/24	17:18	-9.2	-9.2	-9.2	41	-20.0	0.0	---	0.00	0.0	---	-9.2	-9.4	-9.4	741.3	0.019	0.000	21.4	5	-19.9	18.2	1.25	 .0729	23	1	100.0	1
09/02/24	17:19	-9.2	-9.2	-9.2	41	-20.1	0.0	---	0.00	0.0	---	-9.2	-9.5	-9.5	741.3	0.019	0.000	21.4	5	-19.9	18.3	1.25	 .0729	24	1	100.0	1
09/02/24	17:20	-9.2	-9.2	-9.2	41	-20.1	0.0	---	0.00	0.0	---	-9.2	-9.5	-9.5	741.3	0.019	0.000	21.4	5	-19.9	18.2	1.25	 .0729	23	1	100.0	1
09/02/24	17:21	-9.3	-9.2	-9.3	41	-20.1	0.0	---	0.00	0.0	---	-9.3	-9.6	-9.6	741.3	0.019	0.000	21.4	5	-19.9	18.3	1.25	 .0729	24	1	100.0	1
09/02/24	17:22	-9.3	-9.3	-9.3	41	-20.1	0.0	---	0.00	0.0	---	-9.3	-9.6	-9.6	741.3	0.019	0.000	21.4	5	-19.9	18.3	1.25	 .0729	23	1	100.0	1
09/02/24	17:23	-9.3	-9.3	-9.3	41	-20.2	0.0	---	0.00	0.0	---	-9.3	-9.6	-9.6	741.3	0.019	0.000	21.4	5	-19.9	18.3	1.25	 .0729	23	1	100.0	1
09/02/24	17:24	-9.4	-9.3	-9.4	41	-20.2	2.6	ENE	0.04	3.5	NE	-12.1	-9.7	-12.4	741.3	0.019	0.000	21.5	5	-19.8	18.4	1.25	 .0729	24	1	100.0	1
09/02/24	17:25	-9.4	-9.3	-9.4	41	-20.2	3.5	ENE	0.06	3.5	ENE	-13.0	-9.7	-13.3	741.3	0.019	0.000	21.5	5	-19.8	18.4	1.25	 .0729	23	1	100.0	1
09/02/24	17:26	-9.4	-9.4	-9.4	41	-20.3	2.6	ENE	0.04	3.5	ENE	-12.2	-9.7	-12.4	741.3	0.019	0.000	21.5	5	-19.8	18.4	1.25	 .0729	24	1	100.0	1
09/02/24	17:27	-9.4	-9.4	-9.4	41	-20.3	2.6	ENE	0.04	2.6	ENE	-12.2	-9.7	-12.4	741.3	0.019	0.000	21.5	5	-19.8	18.4	1.25	 .0729	23	1	100.0	1
09/02/24	17:28	-9.4	-9.4	-9.4	41	-20.2	1.7	ENE	0.03	2.6	ENE	-10.9	-9.7	-11.2	741.3	0.019	0.000	21.5	5	-19.8	18.4	1.25	 .0729	23	1	100.0	1
09/02/24	17:29	-9.3	-9.3	-9.4	41	-20.2	1.7	ENE	0.03	2.6	ENE	-10.8	-9.6	-11.1	741.3	0.019	0.000	21.6	5	-19.8	18.6	1.25	 .0729	24	1	100.0	1
09/02/24	17:30	-9.3	-9.3	-9.3	40	-20.4	1.7	NE	0.03	2.6	NE	-10.8	-9.6	-11.1	741.2	0.019	0.000	21.6	5	-19.8	18.6	1.25	 .0729	23	1	100.0	1
09/02/24	17:31	-9.1	-9.1	-9.2	40	-20.3	2.6	NE	0.04	3.5	NE	-11.8	-9.4	-12.1	741.3	0.019	0.000	21.6	5	-19.8	18.6	1.25	 .0729	24	1	100.0	1
09/02/24	17:32	-8.9	-8.9	-9.1	40	-20.1	1.7	NE	0.03	2.6	NE	-10.3	-9.2	-10.7	741.2	0.019	0.000	21.6	5	-19.8	18.6	1.25	 .0729	23	1	100.0	1
09/02/24	17:33	-8.7	-8.7	-8.8	39	-20.2	2.6	NE	0.04	2.6	NE	-11.3	-9.0	-11.6	741.2	0.019	0.000	21.6	5	-19.8	18.6	1.25	 .0729	24	1	100.0	1
09/02/24	17:34	-8.4	-8.4	-8.7	39	-20.0	2.6	NE	0.04	3.5	NE	-11.1	-8.8	-11.4	741.2	0.019	0.000	21.6	5	-19.8	18.6	1.25	 .0729	23	1	100.0	1
09/02/24	17:35	-8.3	-8.3	-8.4	38	-20.1	2.6	NE	0.04	2.6	NE	-10.8	-8.6	-11.2	741.2	0.018	0.000	21.6	5	-19.7	18.6	1.25	 .0728	23	1	100.0	1
09/02/24	17:36	-8.1	-8.1	-8.3	37	-20.3	2.6	NE	0.04	3.5	NE	-10.7	-8.4	-11.0	741.2	0.018	0.000	21.6	5	-19.8	18.6	1.25	 .0729	24	1	100.0	1
09/02/24	17:37	-7.9	-7.9	-8.1	37	-20.1	2.6	NNE	0.04	3.5	NNE	-10.4	-8.2	-10.7	741.1	0.018	0.000	21.6	5	-19.8	18.6	1.25	 .0729	23	1	100.0	1
09/02/24	17:38	-7.7	-7.7	-7.8	36	-20.2	3.5	N	0.06	4.3	NNW	-11.1	-8.1	-11.4	741.2	0.018	0.000	21.6	5	-19.8	18.6	1.25	 .0729	24	1	100.0	1
09/02/24	17:39	-7.6	-7.6	-7.6	36	-20.1	3.5	NW	0.06	4.3	NW	-10.9	-7.9	-11.3	741.1	0.018	0.000	21.6	5	-19.8	18.6	1.25	 .0729	23	1	100.0	1
09/02/24	17:40	-7.6	-7.5	-7.6	35	-20.4	3.5	NW	0.06	4.3	NW	-10.9	-7.9	-11.3	741.2	0.018	0.000	21.6	5	-19.8	18.6	1.25	 .0729	23	1	100.0	1
09/02/24	17:41	-7.7	-7.6	-7.7	35	-20.6	3.5	NW	0.06	4.3	NW	-11.1	-8.1	-11.5	741.2	0.018	0.000	21.6	5	-19.8	18.6	1.25	 .0729	24	1	100.0	1
09/02/24	17:42	-7.9	-7.8	-7.9	36	-20.4	4.3	NW	0.07	5.2	NW	-12.1	-8.3	-12.4	741.2	0.018	0.000	21.6	5	-19.8	18.6	1.25	 .0729	23	1	100.0	1
09/02/24	17:43	-8.2	-8.0	-8.2	36	-20.7	4.3	NW	0.07	5.2	NW	-12.4	-8.6	-12.7	741.1	0.018	0.000	21.6	5	-19.8	18.6	1.25	 .0729	24	1	100.0	1
09/02/24	17:44	-8.4	-8.2	-8.4	37	-20.6	3.5	NW	0.06	3.5	NW	-11.9	-8.8	-12.3	741.2	0.019	0.000	21.6	5	-19.8	18.6	1.25	 .0729	23	1	100.0	1
09/02/24	17:45	-8.6	-8.5	-8.6	37	-20.7	2.6	NW	0.04	3.5	NW	-11.2	-8.9	-11.6	741.1	0.019	0.000	21.6	5	-19.8	18.6	1.25	 .0729	24	1	100.0	1
09/02/24	17:46	-8.7	-8.7	-8.7	38	-20.5	2.6	NW	0.04	2.6	NW	-11.3	-9.1	-11.7	741.1	0.019	0.000	21.5	5	-19.8	18.4	1.25	 .0729	23	1	100.0	1
09/02/24	17:47	-8.8	-8.8	-8.8	38	-20.6	2.6	NW	0.04	3.5	NW	-11.5	-9.2	-11.8	741.1	0.019	0.000	21.5	5	-19.8	18.4	1.25	 .0729	23	1	100.0	1
09/02/24	17:48	-8.9	-8.8	-8.9	39	-20.4	2.6	NW	0.04	3.5	NW	-11.6	-9.3	-11.9	741.1	0.019	0.000	21.5	5	-19.8	18.4	1.25	 .0729	24	1	100.0	1
09/02/24	17:49	-9.1	-8.9	-9.1	39	-20.5	4.3	NW	0.07	4.3	NW	-13.4	-9.4	-13.7	741.1	0.019	0.000	21.5	5	-19.8	18.4	1.25	 .0729	23	1	100.0	1
09/02/24	17:50	-9.2	-9.1	-9.2	40	-20.3	4.3	NW	0.07	5.2	NW	-13.5	-9.5	-13.8	741.1	0.019	0.000	21.5	5	-19.8	18.4	1.25	 .0729	24	1	100.0	1
09/02/24	17:51	-9.3	-9.2	-9.3	40	-20.4	4.3	NW	0.07	5.2	NW	-13.6	-9.6	-13.9	741.1	0.019	0.000	21.5	5	-19.8	18.4	1.25	 .0729	23	1	100.0	1
09/02/24	17:52	-9.4	-9.3	-9.4	40	-20.6	4.3	NW	0.07	5.2	NW	-13.8	-9.7	-14.1	741.1	0.019	0.000	21.5	5	-19.8	18.4	1.25	 .0729	23	1	100.0	1
09/02/24	17:53	-9.5	-9.4	-9.5	41	-20.3	4.3	NW	0.07	5.2	NW	-13.9	-9.8	-14.2	741.1	0.019	0.000	21.4	5	-19.9	18.3	1.25	 .0729	24	1	100.0	1
09/02/24	17:54	-9.6	-9.6	-9.6	41	-20.4	4.3	NW	0.07	5.2	NW	-14.0	-9.9	-14.3	741.0	0.019	0.000	21.4	5	-19.9	18.3	1.25	 .0729	23	1	100.0	1
09/02/24	17:55	-9.7	-9.7	-9.7	41	-20.5	5.2	NW	0.09	5.2	NW	-14.8	-10.0	-15.1	741.1	0.019	0.000	21.5	5	-19.8	18.4	1.25	 .0729	24	1	100.0	1
09/02/24	17:56	-9.8	-9.8	-9.8	41	-20.6	4.3	NW	0.07	5.2	NW	-14.2	-10.1	-14.5	741.1	0.020	0.000	21.4	5	-19.9	18.3	1.25	 .0729	23	1	100.0	1
09/02/24	17:57	-9.8	-9.8	-9.8	42	-20.4	4.3	NW	0.07	5.2	NW	-14.3	-10.1	-14.6	741.1	0.020	0.000	21.5	5	-19.8	18.4	1.25	 .0729	23	1	100.0	1
09/02/24	17:58	-9.8	-9.8	-9.8	42	-20.4	5.2	NW	0.09	7.0	NNW	-14.9	-10.1	-15.2	741.0	0.020	0.000	21.5	5	-19.8	18.4	1.25	 .0729	24	1	100.0	1
09/02/24	17:59	-9.8	-9.8	-9.8	42	-20.4	6.1	NNW	0.10	7.0	NNW	-15.4	-10.1	-15.7	741.0	0.020	0.000	21.4	5	-19.9	18.3	1.25	 .0729	23	1	100.0	1
09/02/24	18:00	-9.8	-9.8	-9.8	42	-20.3	7.0	NNW	0.12	7.8	NNW	-15.9	-10.1	-16.2	741.0	0.020	0.000	21.5	5	-19.8	18.4	1.25	 .0729	24	1	100.0	1
09/02/24	18:01	-9.8	-9.8	-9.8	41	-20.6	7.0	NNW	0.12	7.8	NNW	-15.9	-10.1	-16.2	741.0	0.020	0.000	21.4	5	-19.9	18.3	1.25	 .0729	23	1	100.0	1
09/02/24	18:02	-9.7	-9.7	-9.8	41	-20.5	7.0	NNW	0.12	7.8	NNW	-15.8	-10.0	-16.1	740.9	0.019	0.000	21.5	5	-19.8	18.4	1.25	 .0729	24	1	100.0	1
09/02/24	18:03	-9.7	-9.7	-9.7	41	-20.5	6.1	NNW	0.10	7.0	NNW	-15.3	-10.0	-15.6	740.9	0.019	0.000	21.5	5	-19.8	18.4	1.25	 .0729	23	1	100.0	1
09/02/24	18:04	-9.7	-9.7	-9.7	41	-20.5	6.1	NNW	0.10	7.0	NNW	-15.3	-10.0	-15.6	740.9	0.019	0.000	21.5	5	-19.8	18.4	1.25	 .0729	23	1	100.0	1
09/02/24	18:05	-9.7	-9.7	-9.7	41	-20.5	5.2	NNW	0.09	5.2	NNW	-14.7	-9.9	-15.0	740.9	0.019	0.000	21.5	5	-19.8	18.4	1.25	 .0729	24	1	100.0	1
09/02/24	18:06	-9.7	-9.7	-9.7	41	-20.5	5.2	NNW	0.09	5.2	NNW	-14.7	-9.9	-15.0	740.9	0.019	0.000	21.5	5	-19.8	18.4	1.25	 .0729	23	1	100.0	1
09/02/24	18:07	-9.6	-9.6	-9.7	41	-20.4	5.2	NNW	0.09	5.2	NNW	-14.7	-9.9	-14.9	740.9	0.019	0.000	21.6	5	-19.8	18.6	1.25	 .0728	24	1	100.0	1
09/02/24	18:08	-9.5	-9.5	-9.6	41	-20.3	5.2	NNW	0.09	5.2	NNW	-14.5	-9.8	-14.8	740.8	0.019	0.000	21.6	5	-19.8	18.6	1.25	 .0728	23	1	100.0	1
09/02/24	18:09	-9.4	-9.4	-9.5	41	-20.3	4.3	NNW	0.07	5.2	NNW	-13.8	-9.7	-14.1	740.8	0.019	0.000	21.6	5	-19.8	18.6	1.25	 .0728	23	1	100.0	1
09/02/24	18:10	-9.3	-9.3	-9.4	40	-20.5	3.5	NNW	0.06	4.3	NNW	-12.9	-9.6	-13.2	740.8	0.019	0.000	21.6	5	-19.8	18.6	1.25	 .0728	24	1	100.0	1
09/02/24	18:11	-9.2	-9.2	-9.3	40	-20.4	4.3	NNW	0.07	4.3	NNW	-13.6	-9.5	-13.8	740.8	0.019	0.000	21.6	5	-19.8	18.6	1.25	 .0728	23	1	100.0	1
09/02/24	18:12	-9.1	-9.1	-9.2	40	-20.2	3.5	NNW	0.06	4.3	NNW	-12.7	-9.4	-13.0	740.8	0.019	0.000	21.6	5	-19.8	18.6	1.25	 .0728	24	1	100.0	1
09/02/24	18:13	-8.8	-8.8	-9.0	39	-20.3	4.3	NNW	0.07	4.3	NNW	-13.1	-9.2	-13.4	740.8	0.019	0.000	21.6	5	-19.7	18.6	1.25	 .0728	23	1	100.0	1
09/02/24	18:14	-8.6	-8.6	-8.8	39	-20.1	4.3	NNW	0.07	4.3	NNW	-12.8	-8.9	-13.1	740.7	0.019	0.000	21.6	5	-19.7	18.6	1.25	 .0728	24	1	100.0	1
09/02/24	18:15	-8.3	-8.3	-8.6	38	-20.2	3.5	NNW	0.06	3.5	NNW	-11.8	-8.7	-12.2	740.7	0.019	0.000	21.6	5	-19.7	18.6	1.25	 .0728	23	1	100.0	1
09/02/24	18:16	-8.1	-8.1	-8.3	37	-20.3	3.5	NNW	0.06	3.5	NNW	-11.6	-8.4	-11.9	740.8	0.018	0.000	21.6	5	-19.7	18.6	1.25	 .0728	23	1	100.0	1
09/02/24	18:17	-7.9	-7.9	-8.1	37	-20.1	3.5	NNW	0.06	4.3	NNW	-11.3	-8.2	-11.6	740.8	0.018	0.000	21.6	5	-19.7	18.6	1.25	 .0728	24	1	100.0	1
09/02/24	18:18	-7.8	-7.8	-7.9	36	-20.3	3.5	NW	0.06	4.3	NW	-11.2	-8.2	-11.6	740.8	0.018	0.000	21.6	5	-19.7	18.6	1.25	 .0728	23	1	100.0	1
09/02/24	18:19	-7.9	-7.9	-7.9	36	-20.4	4.3	WNW	0.07	6.1	WNW	-12.1	-8.3	-12.4	740.8	0.018	0.000	21.6	5	-19.7	18.6	1.25	 .0728	24	1	100.0	1
09/02/24	18:20	-8.2	-8.0	-8.2	36	-20.7	3.5	WNW	0.06	4.3	WNW	-11.7	-8.6	-12.0	740.8	0.018	0.000	21.6	5	-19.7	18.6	1.25	 .0728	23	1	100.0	1
09/02/24	18:21	-8.4	-8.2	-8.4	36	-20.9	2.6	WNW	0.04	2.6	WNW	-11.1	-8.8	-11.4	740.8	0.019	0.000	21.6	5	-19.7	18.6	1.25	 .0728	23	1	100.0	1
09/02/24	18:22	-8.7	-8.5	-8.7	37	-20.8	2.6	WNW	0.04	2.6	WNW	-11.3	-9.1	-11.7	740.8	0.019	0.000	21.6	5	-19.7	18.6	1.25	 .0728	24	1	100.0	1
09/02/24	18:23	-9.0	-8.8	-9.0	38	-20.8	2.6	WNW	0.04	3.5	WNW	-11.7	-9.3	-12.0	740.8	0.019	0.000	21.6	5	-19.7	18.6	1.25	 .0728	23	1	100.0	1
09/02/24	18:24	-9.3	-9.1	-9.3	39	-20.8	3.5	WNW	0.06	4.3	WNW	-12.9	-9.6	-13.2	740.8	0.019	0.000	21.6	5	-19.7	18.6	1.25	 .0728	24	1	100.0	1
09/02/24	18:25	-9.7	-9.4	-9.7	40	-20.8	2.6	WNW	0.04	3.5	WNW	-12.5	-10.0	-12.8	740.8	0.019	0.000	21.6	5	-19.7	18.6	1.25	 .0728	23	1	100.0	1
09/02/24	18:26	-10.1	-9.8	-10.1	41	-20.8	1.7	WNW	0.03	2.6	WNW	-11.6	-10.3	-11.9	740.8	0.020	0.000	21.6	5	-19.7	18.6	1.25	 .0728	24	1	100.0	1
09/02/24	18:27	-10.3	-10.1	-10.3	42	-20.8	1.7	WNW	0.03	2.6	WNW	-11.9	-10.6	-12.2	740.8	0.020	0.000	21.6	5	-19.7	18.6	1.25	 .0728	23	1	100.0	1
09/02/24	18:28	-10.4	-10.3	-10.4	43	-20.6	0.0	WNW	0.00	1.7	WNW	-10.4	-10.7	-10.7	740.8	0.020	0.000	21.6	5	-19.7	18.6	1.25	 .0728	23	1	100.0	1
09/02/24	18:29	-10.6	-10.4	-10.6	43	-20.7	0.0	---	0.00	0.0	---	-10.6	-10.8	-10.8	740.8	0.020	0.000	21.6	5	-19.8	18.6	1.25	 .0728	24	1	100.0	1
09/02/24	18:30	-10.6	-10.6	-10.6	43	-20.7	0.9	WNW	0.01	1.7	WNW	-10.6	-10.8	-10.8	740.8	0.020	0.000	21.6	5	-19.8	18.6	1.25	 .0728	23	1	100.0	1
09/02/24	18:31	-10.6	-10.6	-10.6	43	-20.7	6.1	ENE	0.10	9.6	ENE	-16.3	-10.8	-16.6	740.8	0.020	0.000	21.6	5	-19.8	18.6	1.25	 .0728	24	1	100.0	1
09/02/24	18:32	-10.8	-10.6	-10.8	43	-20.9	8.7	ENE	0.14	10.4	ENE	-17.9	-11.1	-18.2	740.7	0.020	0.000	21.6	5	-19.8	18.6	1.25	 .0728	23	1	100.0	1
09/02/24	18:33	-11.1	-10.8	-11.1	43	-21.2	9.6	ENE	0.16	11.3	ENE	-18.6	-11.3	-18.8	740.7	0.020	0.000	21.6	5	-19.8	18.6	1.25	 .0728	23	1	100.0	1
09/02/24	18:34	-11.3	-11.1	-11.3	45	-20.9	10.4	ENE	0.17	11.3	ENE	-19.2	-11.5	-19.4	740.7	0.021	0.000	21.5	5	-19.8	18.4	1.25	 .0728	24	1	100.0	1
09/02/24	18:35	-11.4	-11.3	-11.4	46	-20.8	10.4	ENE	0.17	10.4	ENE	-19.4	-11.7	-19.7	740.7	0.021	0.000	21.5	5	-19.8	18.4	1.25	 .0728	23	1	100.0	1
09/02/24	18:36	-11.6	-11.5	-11.6	46	-20.9	8.7	ENE	0.14	9.6	ENE	-18.9	-11.8	-19.1	740.7	0.021	0.000	21.5	5	-19.8	18.4	1.25	 .0728	24	1	100.0	1
09/02/24	18:37	-11.6	-11.6	-11.6	47	-20.6	8.7	NE	0.14	8.7	ENE	-18.9	-11.8	-19.1	740.7	0.021	0.000	21.5	5	-19.8	18.4	1.25	 .0728	23	1	100.0	1
09/02/24	18:38	-11.4	-11.4	-11.6	47	-20.5	6.1	NE	0.10	7.8	ENE	-17.4	-11.7	-17.6	740.7	0.021	0.000	21.5	5	-19.8	18.4	1.25	 .0728	24	1	100.0	1
09/02/24	18:39	-11.3	-11.3	-11.4	47	-20.4	4.3	NE	0.07	5.2	NE	-16.0	-11.5	-16.2	740.7	0.021	0.000	21.4	5	-19.9	18.3	1.25	 .0728	23	1	100.0	1
09/02/24	18:40	-11.1	-11.1	-11.3	46	-20.5	3.5	N	0.06	4.3	NNE	-15.0	-11.3	-15.2	740.7	0.020	0.000	21.4	5	-19.9	18.3	1.25	 .0728	23	1	100.0	1
09/02/24	18:41	-11.1	-11.1	-11.1	46	-20.5	7.0	NW	0.12	7.8	NW	-17.5	-11.3	-17.7	740.7	0.020	0.000	21.4	5	-19.9	18.3	1.25	 .0728	24	1	100.0	1
09/02/24	18:42	-11.3	-11.2	-11.3	46	-20.6	6.1	NW	0.10	7.0	NW	-17.2	-11.5	-17.4	740.7	0.021	0.000	21.4	5	-19.9	18.3	1.25	 .0728	23	1	100.0	1
09/02/24	18:43	-11.4	-11.3	-11.4	46	-20.8	5.2	NW	0.09	5.2	NW	-16.8	-11.7	-17.1	740.7	0.021	0.000	21.4	5	-19.9	18.3	1.25	 .0728	24	1	100.0	1
09/02/24	18:44	-11.6	-11.4	-11.6	46	-20.9	3.5	NW	0.06	4.3	NW	-15.6	-11.8	-15.8	740.7	0.021	0.000	21.4	5	-19.9	18.3	1.25	 .0728	23	1	100.0	1
09/02/24	18:45	-11.7	-11.6	-11.7	47	-20.8	4.3	NW	0.07	4.3	NW	-16.5	-11.9	-16.7	740.6	0.021	0.000	21.4	5	-19.9	18.2	1.25	 .0729	23	1	100.0	1
09/02/24	18:46	-11.8	-11.7	-11.8	48	-20.6	4.3	NW	0.07	4.3	NW	-16.6	-12.0	-16.8	740.6	0.021	0.000	21.4	5	-19.9	18.3	1.25	 .0728	24	1	100.0	1
09/02/24	18:47	-11.9	-11.8	-11.9	48	-20.7	4.3	NNW	0.07	5.2	NNW	-16.7	-12.1	-16.9	740.6	0.021	0.000	21.4	5	-19.9	18.3	1.25	 .0728	23	1	100.0	1
09/02/24	18:48	-11.9	-11.9	-11.9	49	-20.5	4.3	NNW	0.07	5.2	NNW	-16.8	-12.2	-17.0	740.5	0.021	0.000	21.4	5	-19.9	18.3	1.25	 .0728	24	1	100.0	1
09/02/24	18:49	-11.9	-11.9	-11.9	49	-20.5	5.2	NNW	0.09	7.0	NNW	-17.4	-12.2	-17.7	740.5	0.021	0.000	21.4	5	-19.9	18.3	1.25	 .0728	23	1	100.0	1
09/02/24	18:50	-12.0	-11.9	-12.0	49	-20.6	6.1	NNW	0.10	7.0	NNW	-18.0	-12.2	-18.2	740.5	0.021	0.000	21.4	5	-19.9	18.3	1.25	 .0728	23	1	100.0	1
09/02/24	18:51	-11.9	-11.9	-12.0	49	-20.5	7.0	NNW	0.12	7.8	NNW	-18.4	-12.1	-18.6	740.5	0.021	0.000	21.4	5	-19.9	18.3	1.25	 .0728	24	1	100.0	1
09/02/24	18:52	-11.7	-11.7	-11.9	49	-20.3	7.8	N	0.13	8.7	N	-18.6	-11.9	-18.8	740.5	0.021	0.000	21.5	5	-19.8	18.4	1.25	 .0728	23	1	100.0	1
09/02/24	18:53	-11.3	-11.3	-11.7	49	-19.9	7.8	N	0.13	7.8	N	-18.2	-11.6	-18.4	740.5	0.021	0.000	21.5	5	-19.8	18.4	1.25	 .0728	24	1	100.0	1
09/02/24	18:54	-11.0	-11.0	-11.3	48	-19.9	7.8	N	0.13	7.8	N	-17.8	-11.2	-18.0	740.5	0.020	0.000	21.5	5	-19.8	18.4	1.25	 .0728	23	1	100.0	1
09/02/24	18:55	-10.7	-10.7	-10.9	47	-19.8	7.8	N	0.13	8.7	NNW	-17.4	-10.9	-17.6	740.6	0.020	0.000	21.5	5	-19.8	18.4	1.25	 .0728	24	1	100.0	1
09/02/24	18:56	-10.3	-10.3	-10.6	47	-19.5	7.8	NNW	0.13	8.7	NNW	-17.0	-10.6	-17.3	740.6	0.020	0.000	21.5	5	-19.8	18.4	1.25	 .0728	23	1	100.0	1
09/02/24	18:57	-10.2	-10.2	-10.3	45	-19.9	8.7	NNW	0.14	9.6	NNW	-17.2	-10.4	-17.5	740.6	0.020	0.000	21.5	5	-19.8	18.4	1.25	 .0728	23	1	100.0	1
09/02/24	18:58	-9.9	-9.9	-10.1	44	-19.9	8.7	NNW	0.14	9.6	NNW	-16.8	-10.2	-17.1	740.6	0.020	0.000	21.6	5	-19.8	18.6	1.25	 .0728	24	1	100.0	1
09/02/24	18:59	-9.8	-9.8	-9.9	44	-19.8	8.7	NNW	0.14	8.7	NNW	-16.8	-10.1	-17.1	740.6	0.020	0.000	21.5	5	-19.8	18.4	1.25	 .0728	23	1	100.0	1
09/02/24	19:00	-9.8	-9.8	-9.8	43	-20.1	7.0	NW	0.12	8.7	NW	-15.9	-10.1	-16.2	740.6	0.020	0.000	21.6	5	-19.8	18.6	1.25	 .0728	24	1	100.0	1
09/02/24	19:01	-10.1	-9.9	-10.1	43	-20.3	4.3	NW	0.07	5.2	NW	-14.6	-10.3	-14.8	740.6	0.020	0.000	21.6	5	-19.8	18.6	1.25	 .0728	23	1	100.0	1
09/02/24	19:02	-10.3	-10.1	-10.3	43	-20.5	3.5	NW	0.06	4.3	NW	-14.1	-10.6	-14.3	740.6	0.020	0.000	21.6	5	-19.8	18.6	1.25	 .0728	23	1	100.0	1
09/02/24	19:03	-10.5	-10.3	-10.5	44	-20.4	3.5	NW	0.06	4.3	NW	-14.3	-10.8	-14.6	740.6	0.020	0.000	21.6	5	-19.8	18.6	1.25	 .0728	24	1	100.0	1
09/02/24	19:04	-10.7	-10.5	-10.7	45	-20.3	3.5	NW	0.06	4.3	NW	-14.5	-10.9	-14.8	740.6	0.020	0.000	21.6	5	-19.7	18.6	1.25	 .0728	23	1	100.0	1
09/02/24	19:05	-10.8	-10.7	-10.8	45	-20.4	4.3	NW	0.07	4.3	NW	-15.4	-11.1	-15.7	740.6	0.020	0.000	21.6	5	-19.7	18.6	1.25	 .0728	24	1	100.0	1
09/02/24	19:06	-10.8	-10.8	-10.8	45	-20.5	3.5	NW	0.06	5.2	NW	-14.7	-11.1	-14.9	740.6	0.020	0.000	21.6	5	-19.7	18.6	1.25	 .0728	23	1	100.0	1
09/02/24	19:07	-10.8	-10.8	-10.9	46	-20.2	4.3	NNW	0.07	4.3	NW	-15.4	-11.1	-15.7	740.6	0.020	0.000	21.6	5	-19.7	18.6	1.25	 .0728	24	1	100.0	1
09/02/24	19:08	-10.8	-10.8	-10.9	46	-20.2	3.5	NNW	0.06	4.3	NNW	-14.7	-11.1	-14.9	740.6	0.020	0.000	21.6	5	-19.7	18.6	1.25	 .0728	23	1	100.0	1
09/02/24	19:09	-10.8	-10.8	-10.8	46	-20.2	3.5	NNW	0.06	4.3	NNW	-14.6	-11.0	-14.8	740.6	0.020	0.000	21.6	5	-19.7	18.6	1.25	 .0728	23	1	100.0	1
09/02/24	19:10	-10.7	-10.7	-10.8	46	-20.1	3.5	N	0.06	4.3	N	-14.6	-11.0	-14.8	740.6	0.020	0.000	21.6	5	-19.7	18.6	1.25	 .0728	24	1	100.0	1
09/02/24	19:11	-10.6	-10.6	-10.7	46	-20.0	3.5	N	0.06	3.5	N	-14.4	-10.8	-14.7	740.6	0.020	0.000	21.6	5	-19.7	18.6	1.25	 .0728	23	1	100.0	1
09/02/24	19:12	-10.5	-10.5	-10.6	45	-20.2	3.5	N	0.06	3.5	N	-14.3	-10.8	-14.6	740.6	0.020	0.000	21.6	5	-19.7	18.6	1.25	 .0728	24	1	100.0	1
09/02/24	19:13	-10.6	-10.5	-10.6	45	-20.2	3.5	ENE	0.06	4.3	ENE	-14.4	-10.8	-14.7	740.6	0.020	0.000	21.6	5	-19.7	18.6	1.25	 .0728	23	1	100.0	1
09/02/24	19:14	-10.7	-10.6	-10.7	44	-20.6	3.5	ENE	0.06	3.5	ENE	-14.5	-10.9	-14.8	740.6	0.020	0.000	21.6	5	-19.7	18.6	1.25	 .0728	23	1	100.0	1
09/02/24	19:15	-10.8	-10.7	-10.8	44	-20.7	2.6	ENE	0.04	3.5	ENE	-13.7	-11.1	-13.9	740.6	0.020	0.000	21.6	5	-19.7	18.6	1.25	 .0728	24	1	100.0	1
09/02/24	19:16	-10.9	-10.8	-10.9	45	-20.5	2.6	ENE	0.04	3.5	ENE	-13.8	-11.1	-14.1	740.5	0.020	0.000	21.6	5	-19.7	18.6	1.25	 .0728	23	1	100.0	1
09/02/24	19:17	-10.8	-10.8	-10.9	45	-20.5	2.6	ENE	0.04	3.5	ENE	-13.7	-11.1	-13.9	740.5	0.020	0.000	21.6	5	-19.7	18.6	1.25	 .0728	24	1	100.0	1
09/02/24	19:18	-10.7	-10.7	-10.8	45	-20.4	2.6	ENE	0.04	3.5	ENE	-13.6	-11.0	-13.9	740.5	0.020	0.000	21.6	5	-19.7	18.6	1.25	 .0728	23	1	100.0	1
09/02/24	19:19	-10.5	-10.5	-10.7	45	-20.2	3.5	NNE	0.06	3.5	NE	-14.3	-10.8	-14.6	740.5	0.020	0.000	21.6	5	-19.7	18.6	1.25	 .0728	24	1	100.0	1
09/02/24	19:20	-10.3	-10.3	-10.5	45	-20.0	3.5	NNE	0.06	4.3	N	-14.1	-10.6	-14.3	740.5	0.020	0.000	21.6	5	-19.7	18.6	1.25	 .0728	23	1	100.0	1
09/02/24	19:21	-9.9	-9.9	-10.2	44	-19.9	4.3	NNW	0.07	5.2	NNW	-14.4	-10.2	-14.7	740.5	0.020	0.000	21.6	5	-19.7	18.6	1.25	 .0728	23	1	100.0	1
09/02/24	19:22	-9.6	-9.6	-9.9	43	-19.9	5.2	NW	0.09	5.2	NNW	-14.7	-9.9	-14.9	740.5	0.019	0.000	21.6	5	-19.7	18.6	1.25	 .0728	24	1	100.0	1
09/02/24	19:23	-9.3	-9.3	-9.6	42	-19.9	5.2	NW	0.09	7.0	NW	-14.3	-9.6	-14.6	740.5	0.019	0.000	21.6	5	-19.8	18.6	1.25	 .0728	23	1	100.0	1
09/02/24	19:24	-9.1	-9.1	-9.3	41	-19.9	6.1	NW	0.10	7.0	NW	-14.5	-9.4	-14.8	740.5	0.019	0.000	21.6	5	-19.8	18.6	1.25	 .0728	24	1	100.0	1
09/02/24	19:25	-8.9	-8.9	-9.0	41	-19.8	6.1	NW	0.10	7.8	NW	-14.3	-9.2	-14.7	740.5	0.019	0.000	21.6	5	-19.8	18.6	1.25	 .0728	23	1	100.0	1
09/02/24	19:26	-8.7	-8.7	-8.8	40	-19.9	7.0	NNW	0.12	7.8	NW	-14.6	-9.1	-14.9	740.5	0.019	0.000	21.6	5	-19.8	18.6	1.25	 .0728	23	1	100.0	1
09/02/24	19:27	-8.6	-8.6	-8.7	40	-19.8	7.8	NNW	0.13	7.8	NNW	-14.8	-8.9	-15.2	740.5	0.019	0.000	21.6	5	-19.8	18.6	1.25	 .0728	24	1	100.0	1
09/02/24	19:28	-8.4	-8.4	-8.6	39	-20.0	7.0	NNW	0.12	7.8	NNW	-14.3	-8.8	-14.6	740.4	0.019	0.000	21.5	5	-19.8	18.4	1.25	 .0728	23	1	100.0	1
09/02/24	19:29	-8.3	-8.3	-8.4	39	-19.9	7.0	NNW	0.12	7.8	NNW	-14.1	-8.7	-14.4	740.5	0.019	0.000	21.5	5	-19.8	18.4	1.25	 .0728	24	1	100.0	1
09/02/24	19:30	-8.2	-8.2	-8.3	38	-20.1	7.0	NNW	0.12	8.7	NNW	-14.0	-8.6	-14.3	740.4	0.018	0.000	21.5	5	-19.8	18.4	1.25	 .0728	23	1	100.0	1
09/02/24	19:31	-8.1	-8.1	-8.2	38	-20.0	7.8	NNW	0.13	7.8	NNW	-14.3	-8.4	-14.6	740.4	0.018	0.000	21.5	5	-19.8	18.4	1.25	 .0728	24	1	100.0	1
09/02/24	19:32	-8.1	-8.1	-8.1	37	-20.2	7.0	NNW	0.12	7.8	NNW	-13.8	-8.4	-14.1	740.4	0.018	0.000	21.5	5	-19.8	18.4	1.25	 .0728	23	1	100.0	1
09/02/24	19:33	-8.0	-8.0	-8.1	37	-20.2	7.0	NNW	0.12	7.8	NNW	-13.7	-8.3	-14.1	740.4	0.018	0.000	21.5	5	-19.8	18.4	1.25	 .0728	23	1	100.0	1
09/02/24	19:34	-7.9	-7.9	-7.9	37	-20.1	7.8	NNW	0.13	8.7	NNW	-14.1	-8.3	-14.4	740.4	0.018	0.000	21.5	5	-19.8	18.4	1.25	 .0728	24	1	100.0	1
09/02/24	19:35	-7.9	-7.9	-7.9	37	-20.1	7.8	NNW	0.13	7.8	NNW	-14.0	-8.2	-14.3	740.4	0.018	0.000	21.5	5	-19.8	18.4	1.25	 .0728	23	1	100.0	1
09/02/24	19:36	-7.8	-7.8	-7.9	37	-20.0	7.8	NNW	0.13	8.7	NNW	-13.9	-8.2	-14.3	740.4	0.018	0.000	21.5	5	-19.8	18.4	1.25	 .0728	24	1	100.0	1
09/02/24	19:37	-7.8	-7.8	-7.8	36	-20.3	7.8	N	0.13	8.7	N	-13.9	-8.2	-14.3	740.3	0.018	0.000	21.5	5	-19.8	18.4	1.25	 .0728	23	1	100.0	1
09/02/24	19:38	-7.8	-7.8	-7.8	36	-20.3	8.7	N	0.14	9.6	N	-14.3	-8.2	-14.7	740.3	0.018	0.000	21.5	5	-19.8	18.4	1.25	 .0728	23	1	100.0	1
09/02/24	19:39	-7.8	-7.8	-7.8	36	-20.3	8.7	N	0.14	9.6	N	-14.2	-8.2	-14.6	740.3	0.018	0.000	21.5	5	-19.8	18.4	1.25	 .0728	24	1	100.0	1
09/02/24	19:40	-7.8	-7.8	-7.8	36	-20.3	9.6	N	0.16	10.4	N	-14.6	-8.2	-14.9	740.3	0.018	0.000	21.5	5	-19.8	18.4	1.25	 .0728	23	1	100.0	1
09/02/24	19:41	-7.7	-7.7	-7.8	36	-20.2	8.7	N	0.14	9.6	N	-14.2	-8.1	-14.6	740.3	0.018	0.000	21.5	5	-19.8	18.4	1.25	 .0728	24	1	100.0	1
09/02/24	19:42	-7.7	-7.7	-7.7	36	-20.2	8.7	NNW	0.14	9.6	NNW	-14.2	-8.1	-14.6	740.3	0.018	0.000	21.5	5	-19.8	18.4	1.25	 .0728	23	1	100.0	1
09/02/24	19:43	-7.7	-7.7	-7.7	36	-20.2	8.7	NNW	0.14	9.6	NNW	-14.2	-8.1	-14.6	740.3	0.018	0.000	21.5	5	-19.8	18.4	1.25	 .0728	23	1	100.0	1
09/02/24	19:44	-7.8	-7.7	-7.8	36	-20.3	9.6	NNW	0.16	9.6	NNW	-14.6	-8.2	-14.9	740.3	0.018	0.000	21.5	5	-19.8	18.4	1.25	 .0728	24	1	100.0	1
09/02/24	19:45	-7.8	-7.8	-7.8	36	-20.3	9.6	NNW	0.16	12.2	NNW	-14.6	-8.2	-14.9	740.3	0.018	0.000	21.5	5	-19.8	18.4	1.25	 .0728	23	1	100.0	1
09/02/24	19:46	-8.1	-7.8	-8.1	36	-20.6	10.4	NNW	0.17	11.3	NNW	-15.3	-8.4	-15.7	740.3	0.018	0.000	21.6	5	-19.8	18.6	1.25	 .0728	24	1	100.0	1
09/02/24	19:47	-8.8	-8.2	-8.8	37	-20.9	9.6	NNW	0.16	10.4	NNW	-15.9	-9.2	-16.2	740.3	0.019	0.000	21.6	5	-19.8	18.6	1.25	 .0728	23	1	100.0	1
09/02/24	19:48	-9.1	-8.9	-9.1	37	-21.1	7.8	NW	0.13	8.7	NW	-15.4	-9.4	-15.8	740.3	0.019	0.000	21.6	5	-19.8	18.6	1.25	 .0728	8	1	34.8	1
09/02/24	19:49	-9.9	-9.8	-9.9	37	-21.9	4.3	WNW	0.07	6.1	WNW	-14.4	-10.3	-14.7	740.3	0.020	0.000	21.6	5	-19.8	18.6	1.25	 .0728	11	1	47.8	1
09/02/24	19:50	-10.3	-10.0	-10.3	42	-20.8	6.1	WNW	0.10	7.0	WNW	-16.0	-10.6	-16.3	740.3	0.020	0.000	21.6	5	-19.7	18.6	1.25	 .0728	23	1	100.0	1
09/02/24	19:51	-10.6	-10.3	-10.6	43	-20.7	7.0	WNW	0.12	7.8	WNW	-16.8	-10.8	-17.1	740.3	0.020	0.000	21.6	5	-19.7	18.6	1.25	 .0728	24	1	100.0	1
09/02/24	19:52	-10.8	-10.6	-10.8	44	-20.7	7.0	W	0.12	7.8	WNW	-17.1	-11.1	-17.4	740.3	0.020	0.000	21.6	5	-19.7	18.6	1.25	 .0728	23	1	100.0	1
09/02/24	19:53	-10.9	-10.8	-10.9	44	-20.8	6.1	W	0.10	7.0	W	-16.8	-11.2	-17.0	740.4	0.020	0.000	21.6	5	-19.7	18.6	1.25	 .0728	24	1	100.0	1
09/02/24	19:54	-11.1	-11.0	-11.1	45	-20.7	5.2	W	0.09	6.1	W	-16.4	-11.3	-16.6	740.4	0.020	0.000	21.6	5	-19.7	18.6	1.25	 .0728	23	1	100.0	1
09/02/24	19:55	-11.2	-11.1	-11.2	46	-20.5	5.2	W	0.09	6.1	W	-16.5	-11.4	-16.7	740.4	0.020	0.000	21.6	5	-19.7	18.6	1.25	 .0728	23	1	100.0	1
09/02/24	19:56	-11.2	-11.2	-11.2	47	-20.3	6.1	WNW	0.10	7.0	WNW	-17.1	-11.4	-17.3	740.4	0.021	0.000	21.6	5	-19.7	18.6	1.25	 .0728	24	1	100.0	1
09/02/24	19:57	-11.2	-11.2	-11.2	47	-20.3	4.3	WNW	0.07	6.1	WNW	-15.9	-11.4	-16.2	740.4	0.021	0.000	21.6	5	-19.7	18.6	1.25	 .0728	23	1	100.0	1
09/02/24	19:58	-11.3	-11.2	-11.3	47	-20.4	4.3	WNW	0.07	6.1	WNW	-16.0	-11.5	-16.2	740.4	0.021	0.000	21.6	5	-19.7	18.6	1.25	 .0728	24	1	100.0	1
09/02/24	19:59	-11.3	-11.3	-11.3	47	-20.4	5.2	NW	0.09	6.1	NW	-16.7	-11.6	-16.9	740.3	0.021	0.000	21.6	5	-19.7	18.6	1.25	 .0728	23	1	100.0	1
09/02/24	20:00	-11.4	-11.3	-11.4	47	-20.5	4.3	NW	0.07	4.3	NW	-16.2	-11.7	-16.4	740.3	0.021	0.000	21.6	5	-19.7	18.6	1.25	 .0728	24	1	100.0	1
09/02/24	20:01	-11.4	-11.4	-11.4	47	-20.5	4.3	NW	0.07	5.2	NW	-16.2	-11.7	-16.4	740.2	0.021	0.000	21.6	5	-19.7	18.6	1.25	 .0728	23	1	100.0	1
09/02/24	20:02	-11.4	-11.4	-11.4	48	-20.3	4.3	NW	0.07	5.2	NW	-16.2	-11.7	-16.4	740.2	0.021	0.000	21.6	5	-19.7	18.6	1.25	 .0728	23	1	100.0	1
09/02/24	20:03	-11.4	-11.4	-11.4	48	-20.3	3.5	NNW	0.06	3.5	NW	-15.4	-11.7	-15.6	740.3	0.021	0.000	21.6	5	-19.7	18.6	1.25	 .0728	24	1	100.0	1
09/02/24	20:04	-11.4	-11.3	-11.4	48	-20.2	3.5	NNW	0.06	3.5	NNW	-15.3	-11.6	-15.6	740.2	0.021	0.000	21.6	5	-19.7	18.6	1.25	 .0728	23	1	100.0	1
09/02/24	20:05	-11.3	-11.3	-11.3	48	-20.2	2.6	NNW	0.04	2.6	NNW	-14.3	-11.6	-14.6	740.2	0.021	0.000	21.6	5	-19.7	18.6	1.25	 .0728	24	1	100.0	1
09/02/24	20:06	-11.3	-11.3	-11.3	48	-20.1	2.6	NNW	0.04	2.6	NNW	-14.2	-11.5	-14.4	740.2	0.021	0.000	21.6	5	-19.7	18.6	1.25	 .0728	23	1	100.0	1
09/02/24	20:07	-11.2	-11.2	-11.2	48	-20.0	1.7	NNW	0.03	2.6	NNW	-12.8	-11.4	-13.1	740.2	0.020	0.000	21.6	5	-19.7	18.6	1.25	 .0728	23	1	100.0	1
09/02/24	20:08	-11.1	-11.1	-11.2	47	-20.2	1.7	NNW	0.03	2.6	NNW	-12.8	-11.3	-13.0	740.2	0.020	0.000	21.6	5	-19.8	18.6	1.25	 .0728	24	1	100.0	1
09/02/24	20:09	-11.1	-11.1	-11.1	47	-20.2	2.6	NNW	0.04	3.5	NNW	-14.0	-11.3	-14.2	740.2	0.020	0.000	21.6	5	-19.8	18.6	1.25	 .0728	23	1	100.0	1
09/02/24	20:10	-11.0	-11.0	-11.1	46	-20.4	1.7	NNW	0.03	3.5	NNW	-12.7	-11.2	-12.9	740.2	0.020	0.000	21.6	5	-19.8	18.6	1.25	 .0728	24	1	100.0	1
09/02/24	20:11	-10.9	-10.9	-11.0	46	-20.3	2.6	NNW	0.04	3.5	NNW	-13.9	-11.2	-14.1	740.2	0.020	0.000	21.6	5	-19.8	18.6	1.25	 .0728	23	1	100.0	1
09/02/24	20:12	-10.8	-10.8	-10.9	46	-20.2	4.3	N	0.07	4.3	N	-15.4	-11.0	-15.6	740.2	0.020	0.000	21.6	5	-19.8	18.6	1.25	 .0728	24	1	100.0	1
09/02/24	20:13	-10.6	-10.6	-10.7	45	-20.2	4.3	N	0.07	5.2	N	-15.1	-10.8	-15.4	740.1	0.020	0.000	21.5	5	-19.8	18.4	1.25	 .0728	23	1	100.0	1
09/02/24	20:14	-10.2	-10.2	-10.5	44	-20.1	6.1	N	0.10	7.0	N	-15.9	-10.4	-16.2	740.1	0.020	0.000	21.6	5	-19.8	18.6	1.25	 .0728	23	1	100.0	1
09/02/24	20:15	-9.7	-9.7	-10.1	43	-20.0	5.2	N	0.09	7.0	N	-14.8	-10.0	-15.1	740.1	0.019	0.000	21.5	5	-19.8	18.4	1.25	 .0728	24	1	100.0	1
09/02/24	20:16	-9.2	-9.2	-9.6	42	-19.8	6.1	N	0.10	7.0	N	-14.7	-9.5	-15.0	740.0	0.019	0.000	21.5	5	-19.8	18.4	1.25	 .0728	23	1	100.0	1
09/02/24	20:17	-8.8	-8.8	-9.2	41	-19.7	7.0	N	0.12	7.8	N	-14.7	-9.1	-15.0	740.0	0.019	0.000	21.5	5	-19.8	18.4	1.25	 .0728	24	1	100.0	1
09/02/24	20:18	-8.4	-8.4	-8.7	40	-19.6	5.2	N	0.09	7.0	N	-13.2	-8.7	-13.6	740.0	0.019	0.000	21.5	5	-19.8	18.4	1.25	 .0728	23	1	100.0	1
09/02/24	20:19	-8.2	-8.2	-8.3	38	-20.0	4.3	N	0.07	6.1	N	-12.3	-8.5	-12.7	740.0	0.018	0.000	21.5	5	-19.8	18.4	1.25	 .0728	23	1	100.0	1
09/02/24	20:20	-7.8	-7.8	-8.1	38	-19.7	4.3	N	0.07	4.3	N	-11.9	-8.2	-12.3	740.0	0.018	0.000	21.5	5	-19.8	18.4	1.25	 .0728	24	1	100.0	1
09/02/24	20:21	-7.6	-7.6	-7.8	37	-19.8	3.5	N	0.06	4.3	N	-10.9	-7.9	-11.3	740.0	0.018	0.000	21.5	5	-19.8	18.4	1.25	 .0728	23	1	100.0	1
09/02/24	20:22	-7.6	-7.4	-7.6	37	-19.8	10.4	E	0.17	15.7	E	-14.6	-7.9	-15.0	740.0	0.018	0.000	21.5	5	-19.8	18.4	1.25	 .0728	24	1	100.0	1
09/02/24	20:23	-8.3	-7.7	-8.3	36	-20.7	12.2	ENE	0.20	15.7	ENE	-16.1	-8.6	-16.4	740.1	0.018	0.000	21.5	5	-19.8	18.4	1.25	 .0728	23	1	100.0	1
09/02/24	20:24	-9.3	-8.4	-9.3	36	-21.7	15.7	ENE	0.26	18.3	ENE	-18.4	-9.7	-18.8	740.0	0.019	0.000	21.5	5	-19.8	18.4	1.25	 .0728	23	1	100.0	1
09/02/24	20:25	-10.1	-9.4	-10.1	39	-21.4	14.8	ENE	0.25	16.5	ENE	-19.1	-10.3	-19.4	740.0	0.020	0.000	21.5	5	-19.8	18.4	1.25	 .0728	24	1	100.0	1
09/02/24	20:26	-10.6	-10.2	-10.6	41	-21.3	15.7	ENE	0.26	18.3	NE	-20.0	-10.8	-20.3	740.0	0.020	0.000	21.5	5	-19.8	18.4	1.25	 .0728	23	1	100.0	1
09/02/24	20:27	-11.3	-10.7	-11.3	42	-21.7	16.5	ENE	0.28	18.3	ENE	-21.2	-11.6	-21.4	740.0	0.021	0.000	21.5	5	-19.8	18.4	1.25	 .0728	24	1	100.0	1
09/02/24	20:28	-11.9	-11.4	-11.9	44	-21.7	17.4	ENE	0.29	19.1	NE	-22.2	-12.1	-22.4	740.0	0.021	0.000	21.5	5	-19.8	18.4	1.25	 .0728	23	1	100.0	1
09/02/24	20:29	-12.4	-12.0	-12.4	46	-21.7	16.5	NE	0.28	18.3	NE	-22.7	-12.6	-22.9	740.0	0.021	0.000	21.5	5	-19.8	18.4	1.25	 .0728	24	1	100.0	1
09/02/24	20:30	-12.6	-12.4	-12.6	47	-21.6	15.7	NE	0.26	19.1	ENE	-22.7	-12.8	-22.9	740.0	0.021	0.000	21.5	5	-19.8	18.4	1.25	 .0728	23	1	100.0	1
09/02/24	20:31	-12.8	-12.7	-12.8	49	-21.3	15.7	NE	0.26	17.4	NE	-22.9	-13.0	-23.1	740.0	0.022	0.000	21.5	5	-19.8	18.4	1.25	 .0728	23	1	100.0	1
09/02/24	20:32	-12.7	-12.7	-12.8	50	-21.0	12.2	NE	0.20	14.8	NE	-21.7	-12.9	-21.9	739.9	0.022	0.000	21.6	5	-19.8	18.6	1.25	 .0727	24	1	100.0	1
09/02/24	20:33	-12.4	-12.4	-12.7	51	-20.5	9.6	NNE	0.16	12.2	NE	-20.3	-12.6	-20.5	739.9	0.021	0.000	21.6	5	-19.8	18.6	1.25	 .0727	23	1	100.0	1
09/02/24	20:34	-11.8	-11.8	-12.3	50	-20.1	8.7	N	0.14	9.6	N	-19.1	-12.0	-19.3	739.9	0.021	0.000	21.6	5	-19.8	18.6	1.25	 .0727	24	1	100.0	1
09/02/24	20:35	-11.2	-11.2	-11.7	49	-19.8	8.7	N	0.14	9.6	N	-18.4	-11.4	-18.6	739.9	0.020	0.000	21.6	5	-19.7	18.6	1.25	 .0727	23	1	100.0	1
09/02/24	20:36	-10.6	-10.6	-11.1	48	-19.5	8.7	N	0.14	9.6	N	-17.7	-10.8	-17.9	739.9	0.020	0.000	21.6	5	-19.7	18.6	1.25	 .0727	23	1	100.0	1
09/02/24	20:37	-9.9	-9.9	-10.4	45	-19.7	10.4	N	0.17	11.3	N	-17.6	-10.2	-17.9	739.9	0.020	0.000	21.6	5	-19.7	18.6	1.25	 .0727	24	1	100.0	1
09/02/24	20:38	-9.3	-9.3	-9.8	43	-19.6	11.3	N	0.19	12.2	N	-17.2	-9.6	-17.4	739.8	0.019	0.000	21.6	5	-19.7	18.6	1.25	 .0727	23	1	100.0	1
09/02/24	20:39	-8.9	-8.9	-9.3	42	-19.5	11.3	N	0.19	12.2	N	-16.6	-9.2	-16.9	739.8	0.019	0.000	21.6	5	-19.7	18.6	1.25	 .0727	24	1	100.0	1
09/02/24	20:40	-8.6	-8.6	-8.8	41	-19.5	11.3	NNE	0.19	12.2	NNE	-16.2	-8.9	-16.5	739.8	0.019	0.000	21.6	5	-19.7	18.6	1.25	 .0727	23	1	100.0	1
09/02/24	20:41	-8.5	-8.4	-8.6	40	-19.7	11.3	NNE	0.19	12.2	NNE	-16.1	-8.8	-16.4	739.8	0.019	0.000	21.6	5	-19.7	18.6	1.25	 .0727	24	1	100.0	1
09/02/24	20:42	-8.6	-8.5	-8.6	39	-20.1	10.4	NNE	0.17	12.2	NNE	-15.9	-8.9	-16.2	739.8	0.019	0.000	21.6	5	-19.7	18.6	1.25	 .0727	23	1	100.0	1
09/02/24	20:43	-8.7	-8.6	-8.7	39	-20.2	13.0	NNE	0.22	14.8	NNE	-16.9	-9.1	-17.3	739.9	0.019	0.000	21.6	5	-19.7	18.6	1.25	 .0727	23	1	100.0	1
09/02/24	20:44	-8.8	-8.7	-8.8	39	-20.3	13.9	N	0.23	15.7	N	-17.3	-9.2	-17.7	739.8	0.019	0.000	21.6	5	-19.7	18.6	1.25	 .0727	24	1	100.0	1
09/02/24	20:45	-8.9	-8.9	-8.9	40	-20.1	13.9	NNE	0.23	14.8	N	-17.5	-9.3	-17.8	739.8	0.019	0.000	21.6	5	-19.7	18.6	1.25	 .0727	23	1	100.0	1
09/02/24	20:46	-8.9	-8.9	-8.9	39	-20.4	13.0	N	0.22	13.9	NNE	-17.2	-9.3	-17.6	739.8	0.019	0.000	21.6	5	-19.7	18.6	1.25	 .0727	24	1	100.0	1
09/02/24	20:47	-8.9	-8.9	-8.9	39	-20.4	13.0	N	0.22	14.8	N	-17.2	-9.2	-17.5	739.9	0.019	0.000	21.6	5	-19.7	18.6	1.25	 .0727	23	1	100.0	1
09/02/24	20:48	-8.8	-8.8	-8.8	39	-20.3	12.2	N	0.20	13.9	N	-16.8	-9.1	-17.1	739.9	0.019	0.000	21.6	5	-19.7	18.6	1.25	 .0727	23	1	100.0	1
09/02/24	20:49	-8.8	-8.8	-8.8	39	-20.3	12.2	N	0.20	13.9	N	-16.8	-9.1	-17.1	739.9	0.019	0.000	21.6	5	-19.7	18.6	1.25	 .0727	24	1	100.0	1
09/02/24	20:50	-8.8	-8.8	-8.8	39	-20.3	12.2	N	0.20	13.0	N	-16.8	-9.1	-17.1	739.9	0.019	0.000	21.6	5	-19.8	18.6	1.25	 .0727	23	1	100.0	1
09/02/24	20:51	-8.8	-8.8	-8.8	38	-20.6	11.3	N	0.19	12.2	N	-16.4	-9.1	-16.8	739.9	0.019	0.000	21.6	5	-19.7	18.6	1.25	 .0727	24	1	100.0	1
09/02/24	20:52	-8.7	-8.7	-8.8	38	-20.5	11.3	N	0.19	12.2	N	-16.4	-9.1	-16.7	739.9	0.019	0.000	21.6	5	-19.8	18.6	1.25	 .0727	23	1	100.0	1
09/02/24	20:53	-8.7	-8.7	-8.7	38	-20.5	12.2	NNW	0.20	13.9	NNW	-16.7	-9.1	-17.0	739.9	0.019	0.000	21.6	5	-19.8	18.6	1.25	 .0727	24	1	100.0	1
09/02/24	20:54	-8.7	-8.7	-8.7	38	-20.5	13.0	NNW	0.22	13.9	NNW	-16.9	-9.0	-17.2	739.9	0.019	0.000	21.6	5	-19.8	18.6	1.25	 .0727	23	1	100.0	1
09/02/24	20:55	-8.7	-8.7	-8.7	38	-20.5	13.9	NNW	0.23	14.8	NNW	-17.2	-9.0	-17.5	739.9	0.019	0.000	21.6	5	-19.8	18.6	1.25	 .0727	23	1	100.0	1
09/02/24	20:56	-8.6	-8.6	-8.7	38	-20.4	11.3	NNW	0.19	13.0	NNW	-16.3	-8.9	-16.6	740.0	0.019	0.000	21.6	5	-19.8	18.6	1.25	 .0727	24	1	100.0	1
09/02/24	20:57	-8.7	-8.7	-8.7	38	-20.5	11.3	NNW	0.19	12.2	NNW	-16.4	-9.1	-16.7	739.9	0.019	0.000	21.5	5	-19.8	18.4	1.25	 .0728	23	1	100.0	1
09/02/24	20:58	-8.9	-8.7	-8.9	38	-20.7	10.4	NNW	0.17	13.9	NNW	-16.4	-9.3	-16.7	740.0	0.019	0.000	21.5	5	-19.8	18.4	1.25	 .0728	24	1	100.0	1
09/02/24	20:59	-9.0	-8.9	-9.1	38	-20.8	13.9	NNW	0.23	16.5	NNW	-17.6	-9.3	-17.9	739.9	0.019	0.000	21.5	5	-19.8	18.4	1.25	 .0728	23	1	100.0	1
09/02/24	21:00	-8.9	-8.9	-9.0	38	-20.7	10.4	NNW	0.17	13.0	NNW	-16.4	-9.3	-16.7	740.0	0.019	0.000	21.5	5	-19.8	18.4	1.25	 .0728	23	1	100.0	1
09/02/24	21:01	-8.9	-8.9	-8.9	38	-20.7	10.4	NNW	0.17	13.0	NNW	-16.3	-9.2	-16.6	740.0	0.019	0.000	21.4	5	-19.9	18.3	1.25	 .0728	24	1	100.0	1
09/02/24	21:02	-8.8	-8.8	-8.9	38	-20.6	9.6	NNW	0.16	10.4	NNW	-15.9	-9.2	-16.2	740.0	0.019	0.000	21.4	5	-19.9	18.3	1.25	 .0728	23	1	100.0	1
09/02/24	21:03	-8.8	-8.8	-8.8	38	-20.6	10.4	NNW	0.17	11.3	NNW	-16.2	-9.2	-16.6	740.1	0.019	0.000	21.4	5	-19.9	18.3	1.25	 .0728	24	1	100.0	1
09/02/24	21:04	-8.8	-8.8	-8.8	38	-20.6	10.4	NNW	0.17	11.3	NNW	-16.2	-9.2	-16.6	740.0	0.019	0.000	21.4	5	-19.9	18.3	1.25	 .0728	23	1	100.0	1
09/02/24	21:05	-8.9	-8.8	-8.9	38	-20.7	10.4	NNW	0.17	11.3	NNW	-16.3	-9.2	-16.6	740.1	0.019	0.000	21.4	5	-19.9	18.3	1.25	 .0728	24	1	100.0	1
09/02/24	21:06	-8.9	-8.9	-8.9	38	-20.7	10.4	NNW	0.17	11.3	NNW	-16.4	-9.3	-16.7	740.1	0.019	0.000	21.4	5	-19.9	18.3	1.25	 .0728	23	1	100.0	1
09/02/24	21:07	-9.0	-8.9	-9.0	38	-20.8	11.3	NNW	0.19	11.3	NNW	-16.7	-9.3	-17.1	740.1	0.019	0.000	21.4	5	-19.9	18.3	1.25	 .0728	23	1	100.0	1
09/02/24	21:08	-9.1	-9.0	-9.1	38	-20.8	9.6	NW	0.16	11.3	NW	-16.2	-9.4	-16.5	740.1	0.019	0.000	21.4	5	-19.9	18.3	1.25	 .0728	24	1	100.0	1
09/02/24	21:09	-9.2	-9.1	-9.2	39	-20.6	7.8	NNW	0.13	8.7	NW	-15.6	-9.5	-15.9	740.1	0.019	0.000	21.4	5	-19.9	18.3	1.25	 .0728	23	1	100.0	1
09/02/24	21:10	-9.3	-9.2	-9.3	39	-20.7	7.0	NNW	0.12	7.8	NNW	-15.3	-9.6	-15.6	740.1	0.019	0.000	21.4	5	-19.9	18.3	1.25	 .0728	24	1	100.0	1
09/02/24	21:11	-9.3	-9.3	-9.3	39	-20.8	7.0	NNW	0.12	7.8	NNW	-15.3	-9.6	-15.6	740.1	0.019	0.000	21.4	5	-19.9	18.3	1.25	 .0728	23	1	100.0	1
09/02/24	21:12	-9.4	-9.3	-9.4	39	-20.9	7.0	NNW	0.12	8.7	NNW	-15.5	-9.7	-15.8	740.1	0.019	0.000	21.4	5	-19.9	18.3	1.25	 .0728	23	1	100.0	1
09/02/24	21:13	-9.4	-9.4	-9.4	39	-20.9	7.0	NNW	0.12	7.8	NNW	-15.5	-9.7	-15.8	740.1	0.019	0.000	21.4	5	-19.9	18.3	1.25	 .0728	24	1	100.0	1
09/02/24	21:14	-9.5	-9.4	-9.5	40	-20.6	6.1	NW	0.10	7.0	NNW	-15.1	-9.8	-15.3	740.1	0.019	0.000	21.4	5	-19.9	18.3	1.25	 .0728	23	1	100.0	1
09/02/24	21:15	-9.6	-9.5	-9.6	40	-20.7	4.3	NW	0.07	5.2	NW	-14.0	-9.9	-14.3	740.1	0.019	0.000	21.4	5	-19.9	18.3	1.25	 .0728	24	1	100.0	1
09/02/24	21:16	-9.7	-9.6	-9.7	40	-20.8	3.5	NW	0.06	4.3	NW	-13.4	-10.0	-13.7	740.1	0.019	0.000	21.5	5	-19.8	18.4	1.25	 .0728	23	1	100.0	1
09/02/24	21:17	-9.8	-9.7	-9.8	40	-20.9	1.7	NW	0.03	2.6	NW	-11.3	-10.1	-11.6	740.1	0.020	0.000	21.5	5	-19.8	18.4	1.25	 .0728	23	1	100.0	1
09/02/24	21:18	-9.8	-9.8	-9.8	40	-20.9	1.7	NW	0.03	2.6	NW	-11.4	-10.1	-11.7	740.1	0.020	0.000	21.5	5	-19.8	18.4	1.25	 .0728	24	1	100.0	1
09/02/24	21:19	-9.9	-9.8	-9.9	40	-21.0	0.9	NW	0.01	2.6	NW	-9.9	-10.2	-10.2	740.1	0.020	0.000	21.5	5	-19.8	18.4	1.25	 .0728	23	1	100.0	1
09/02/24	21:20	-10.1	-9.9	-10.1	41	-20.9	2.6	NW	0.04	3.5	NW	-12.9	-10.4	-13.2	740.0	0.020	0.000	21.5	5	-19.8	18.4	1.25	 .0728	24	1	100.0	1
09/02/24	21:21	-10.3	-10.1	-10.3	41	-21.1	2.6	WNW	0.04	3.5	WNW	-13.2	-10.6	-13.4	740.0	0.020	0.000	21.5	5	-19.8	18.4	1.25	 .0728	23	1	100.0	1
09/02/24	21:22	-10.6	-10.3	-10.6	42	-21.0	1.7	WNW	0.03	2.6	WNW	-12.2	-10.8	-12.4	740.0	0.020	0.000	21.5	5	-19.8	18.4	1.25	 .0728	24	1	100.0	1
09/02/24	21:23	-10.8	-10.6	-10.8	42	-21.2	0.9	WNW	0.01	1.7	WNW	-10.8	-11.1	-11.1	739.9	0.020	0.000	21.6	5	-19.8	18.6	1.25	 .0727	23	1	100.0	1
09/02/24	21:24	-11.0	-10.8	-11.0	43	-21.2	2.6	WNW	0.04	3.5	NE	-13.9	-11.3	-14.2	739.9	0.020	0.000	21.6	5	-19.8	18.6	1.25	 .0727	23	1	100.0	1
09/02/24	21:25	-11.2	-11.0	-11.2	43	-21.3	2.6	NE	0.04	2.6	NE	-14.1	-11.4	-14.3	739.9	0.020	0.000	21.6	5	-19.8	18.6	1.25	 .0727	24	1	100.0	1
09/02/24	21:26	-11.3	-11.2	-11.3	44	-21.2	2.6	NE	0.04	2.6	NE	-14.3	-11.6	-14.6	739.9	0.021	0.000	21.6	5	-19.8	18.6	1.25	 .0727	23	1	100.0	1
09/02/24	21:27	-11.4	-11.3	-11.4	44	-21.2	2.6	NNE	0.04	3.5	NNE	-14.4	-11.6	-14.6	739.9	0.021	0.000	21.6	5	-19.7	18.6	1.25	 .0727	24	1	100.0	1
09/02/24	21:28	-11.4	-11.4	-11.4	45	-21.0	2.6	NNE	0.04	2.6	NNE	-14.4	-11.6	-14.6	739.9	0.021	0.000	21.6	5	-19.7	18.6	1.25	 .0727	23	1	100.0	1
09/02/24	21:29	-11.3	-11.3	-11.4	45	-20.9	2.6	NNE	0.04	3.5	NE	-14.3	-11.6	-14.6	739.9	0.021	0.000	21.6	5	-19.7	18.6	1.25	 .0727	23	1	100.0	1
09/02/24	21:30	-11.2	-11.2	-11.3	45	-20.8	4.3	NE	0.07	7.8	NE	-15.9	-11.4	-16.2	739.9	0.021	0.000	21.6	5	-19.7	18.6	1.25	 .0727	24	1	100.0	1
09/02/24	21:31	-11.3	-11.2	-11.3	45	-20.9	9.6	NE	0.16	12.2	NE	-18.9	-11.5	-19.1	740.0	0.021	0.000	21.6	5	-19.7	18.6	1.25	 .0727	23	1	100.0	1
09/02/24	21:32	-11.7	-11.3	-11.7	44	-21.5	10.4	NE	0.17	15.7	NE	-19.8	-11.9	-20.1	739.9	0.021	0.000	21.6	5	-19.7	18.6	1.25	 .0727	24	1	100.0	1
09/02/24	21:33	-11.9	-11.8	-11.9	44	-21.8	6.1	NE	0.10	7.8	ENE	-17.9	-12.2	-18.2	740.0	0.021	0.000	21.6	5	-19.7	18.6	1.25	 .0727	23	1	100.0	1
09/02/24	21:34	-12.1	-12.0	-12.1	45	-21.6	5.2	NE	0.09	9.6	NE	-17.6	-12.3	-17.8	740.0	0.021	0.000	21.6	5	-19.7	18.6	1.25	 .0727	24	1	100.0	1
09/02/24	21:35	-12.1	-12.1	-12.1	46	-21.3	2.6	ENE	0.04	4.3	ENE	-15.1	-12.3	-15.3	740.0	0.021	0.000	21.6	5	-19.7	18.6	1.25	 .0727	23	1	100.0	1
09/02/24	21:36	-12.1	-12.1	-12.1	46	-21.3	1.7	ENE	0.03	2.6	ENE	-13.8	-12.3	-14.1	739.9	0.021	0.000	21.6	5	-19.7	18.6	1.25	 .0727	23	1	100.0	1
09/02/24	21:37	-12.0	-12.0	-12.0	46	-21.3	1.7	ENE	0.03	2.6	ENE	-13.8	-12.2	-14.0	739.9	0.021	0.000	21.6	5	-19.7	18.6	1.25	 .0727	24	1	100.0	1
09/02/24	21:38	-11.9	-11.9	-11.9	47	-20.9	1.7	ENE	0.03	1.7	ENE	-13.7	-12.1	-13.9	739.9	0.021	0.000	21.6	5	-19.7	18.6	1.25	 .0727	23	1	100.0	1
09/02/24	21:39	-11.8	-11.8	-11.9	47	-20.8	4.3	ENE	0.07	8.7	SE	-16.6	-12.0	-16.8	739.9	0.021	0.000	21.6	5	-19.7	18.6	1.25	 .0727	24	1	100.0	1
09/02/24	21:40	-12.2	-11.7	-12.2	46	-21.5	15.7	ENE	0.26	20.9	E	-22.2	-12.4	-22.4	739.9	0.021	0.000	21.6	5	-19.7	18.6	1.25	 .0727	23	1	100.0	1
09/02/24	21:41	-13.1	-12.3	-13.1	45	-22.5	15.7	ENE	0.26	20.9	ENE	-23.3	-13.3	-23.5	740.0	0.022	0.000	21.6	5	-19.7	18.6	1.25	 .0727	23	1	100.0	1
09/02/24	21:42	-14.1	-13.2	-14.1	47	-22.9	16.5	NE	0.28	20.9	NE	-24.8	-14.2	-25.0	740.0	0.022	0.000	21.6	5	-19.8	18.6	1.25	 .0727	24	1	100.0	1
09/02/24	21:43	-14.7	-14.2	-14.7	48	-23.3	13.0	NE	0.22	18.3	NE	-24.5	-14.8	-24.7	740.1	0.023	0.000	21.6	5	-19.8	18.6	1.25	 .0728	23	1	100.0	1
09/02/24	21:44	-15.0	-14.7	-15.0	50	-23.1	15.7	NE	0.26	16.5	NE	-25.8	-15.2	-25.9	739.9	0.023	0.000	21.6	5	-19.8	18.6	1.25	 .0727	24	1	100.0	1
09/02/24	21:45	-14.9	-14.9	-15.0	53	-22.4	14.8	NE	0.25	16.5	NE	-25.4	-15.1	-25.6	739.9	0.023	0.000	21.6	6	-17.6	18.6	1.53	 .0727	23	1	100.0	1
09/02/24	21:46	-14.7	-14.7	-14.9	54	-22.0	13.9	NE	0.23	15.7	NE	-24.9	-14.9	-25.1	739.9	0.023	0.000	21.6	5	-19.8	18.6	1.25	 .0727	24	1	100.0	1
09/02/24	21:47	-14.5	-14.5	-14.7	54	-21.8	13.0	NE	0.22	14.8	NE	-24.3	-14.7	-24.4	739.9	0.023	0.000	21.6	5	-19.8	18.6	1.25	 .0727	23	1	100.0	1
09/02/24	21:48	-14.2	-14.2	-14.4	54	-21.5	13.9	NE	0.23	15.7	NE	-24.2	-14.3	-24.3	739.9	0.023	0.000	21.6	5	-19.8	18.6	1.25	 .0727	23	1	100.0	1
09/02/24	21:49	-14.2	-14.2	-14.2	53	-21.7	13.9	NE	0.23	16.5	NE	-24.2	-14.3	-24.3	739.9	0.023	0.000	21.5	5	-19.8	18.4	1.25	 .0727	24	1	100.0	1
09/02/24	21:50	-14.2	-14.2	-14.2	53	-21.7	13.9	NE	0.23	17.4	NE	-24.2	-14.3	-24.3	739.9	0.023	0.000	21.5	5	-19.8	18.4	1.25	 .0727	23	1	100.0	1
09/02/24	21:51	-14.3	-14.2	-14.3	53	-21.8	15.7	NE	0.26	17.4	NE	-24.8	-14.4	-25.0	739.9	0.023	0.000	21.5	5	-19.8	18.4	1.25	 .0728	24	1	100.0	1
09/02/24	21:52	-14.4	-14.3	-14.4	53	-21.9	15.7	ENE	0.26	17.4	NE	-25.1	-14.6	-25.2	740.0	0.023	0.000	21.5	5	-19.8	18.4	1.25	 .0728	23	1	100.0	1
09/02/24	21:53	-14.4	-14.4	-14.4	53	-21.9	17.4	ENE	0.29	20.0	ENE	-25.5	-14.6	-25.7	739.9	0.023	0.000	21.5	5	-19.8	18.4	1.25	 .0728	23	1	100.0	1
09/02/24	21:54	-14.7	-14.4	-14.7	52	-22.4	15.7	NE	0.26	19.1	NE	-25.4	-14.9	-25.6	739.9	0.023	0.000	21.5	5	-19.8	18.4	1.25	 .0728	24	1	100.0	1
09/02/24	21:55	-15.2	-14.8	-15.2	52	-22.9	18.3	ENE	0.30	21.7	ENE	-26.8	-15.4	-27.0	739.9	0.023	0.000	21.5	5	-19.8	18.4	1.25	 .0728	23	1	100.0	1
09/02/24	21:56	-15.8	-15.3	-15.8	53	-23.2	20.0	ENE	0.33	23.5	ENE	-28.0	-15.9	-28.2	739.9	0.024	0.000	21.5	5	-19.8	18.4	1.25	 .0727	24	1	100.0	1
09/02/24	21:57	-16.2	-15.9	-16.2	55	-23.2	19.1	ENE	0.32	21.7	ENE	-28.4	-16.4	-28.6	739.9	0.024	0.000	21.5	5	-19.8	18.4	1.25	 .0727	23	1	100.0	1
09/02/24	21:58	-16.5	-16.3	-16.5	56	-23.2	18.3	ENE	0.30	20.9	ENE	-28.5	-16.6	-28.6	739.9	0.024	0.000	21.5	5	-19.8	18.4	1.25	 .0728	24	1	100.0	1
09/02/24	21:59	-16.7	-16.6	-16.7	58	-23.1	17.4	ENE	0.29	20.0	ENE	-28.6	-16.8	-28.7	739.9	0.024	0.000	21.5	5	-19.8	18.4	1.25	 .0727	23	1	100.0	1
09/02/24	22:00	-16.9	-16.8	-16.9	59	-23.1	13.9	ENE	0.23	19.1	ENE	-27.7	-17.1	-27.8	740.0	0.024	0.000	21.5	5	-19.8	18.4	1.25	 .0728	24	1	100.0	1
09/02/24	22:01	-17.1	-17.0	-17.1	60	-23.0	16.5	ENE	0.28	20.9	ENE	-28.8	-17.2	-28.9	739.9	0.025	0.000	21.5	5	-19.8	18.4	1.25	 .0727	23	1	100.0	1
09/02/24	22:02	-17.3	-17.2	-17.3	60	-23.3	15.7	ENE	0.26	17.4	ENE	-28.8	-17.4	-28.9	739.9	0.025	0.000	21.6	5	-19.8	18.6	1.25	 .0727	23	1	100.0	1
09/02/24	22:03	-17.4	-17.3	-17.4	61	-23.1	14.8	ENE	0.25	20.0	ENE	-28.6	-17.5	-28.7	740.0	0.025	0.000	21.6	5	-19.8	18.6	1.25	 .0727	24	1	100.0	1
09/02/24	22:04	-17.2	-17.2	-17.3	61	-23.0	18.3	ENE	0.30	20.0	ENE	-29.4	-17.3	-29.6	739.9	0.025	0.000	21.6	5	-19.8	18.6	1.25	 .0727	23	1	100.0	1
09/02/24	22:05	-17.1	-17.1	-17.2	63	-22.4	18.3	ENE	0.30	20.9	ENE	-29.2	-17.2	-29.3	739.9	0.025	0.000	21.6	5	-19.8	18.6	1.25	 .0727	23	1	100.0	1
09/02/24	22:06	-16.9	-16.9	-17.1	63	-22.3	13.9	ENE	0.23	18.3	ENE	-27.7	-17.1	-27.8	740.0	0.024	0.000	21.6	5	-19.8	18.6	1.25	 .0727	24	1	100.0	1
09/02/24	22:07	-16.9	-16.9	-16.9	62	-22.5	15.7	ENE	0.26	18.3	ENE	-28.3	-17.1	-28.4	739.9	0.024	0.000	21.6	5	-19.8	18.6	1.25	 .0727	23	1	100.0	1
09/02/24	22:08	-16.9	-16.9	-16.9	62	-22.5	13.9	ENE	0.23	17.4	ENE	-27.7	-17.0	-27.8	739.9	0.024	0.000	21.6	5	-19.8	18.6	1.25	 .0727	24	1	100.0	1
09/02/24	22:09	-16.8	-16.8	-16.9	62	-22.4	10.4	NE	0.17	15.7	ENE	-26.2	-16.9	-26.3	740.0	0.024	0.000	21.6	5	-19.8	18.6	1.25	 .0727	23	1	100.0	1
09/02/24	22:10	-16.9	-16.9	-16.9	62	-22.5	10.4	ENE	0.17	15.7	ENE	-26.4	-17.1	-26.5	739.9	0.024	0.000	21.6	5	-19.7	18.6	1.25	 .0727	23	1	100.0	1
09/02/24	22:11	-17.0	-16.9	-17.1	62	-22.6	19.1	ENE	0.32	20.9	ENE	-29.4	-17.1	-29.5	739.9	0.025	0.000	21.6	5	-19.7	18.6	1.25	 .0727	24	1	100.0	1
09/02/24	22:12	-17.1	-17.0	-17.1	62	-22.6	14.8	ENE	0.25	19.1	ENE	-28.2	-17.2	-28.3	740.0	0.025	0.000	21.6	5	-19.7	18.6	1.25	 .0727	23	1	100.0	1
09/02/24	22:13	-17.0	-17.0	-17.1	62	-22.6	11.3	ENE	0.19	16.5	ENE	-26.8	-17.1	-26.9	740.0	0.025	0.000	21.6	6	-17.6	18.7	1.53	 .0727	24	1	100.0	1
09/02/24	22:14	-17.1	-17.0	-17.1	62	-22.6	15.7	ENE	0.26	20.0	ENE	-28.4	-17.2	-28.6	740.0	0.025	0.000	21.6	6	-17.6	18.7	1.53	 .0727	23	1	100.0	1
09/02/24	22:15	-17.1	-17.1	-17.1	62	-22.6	10.4	ENE	0.17	17.4	ENE	-26.5	-17.2	-26.6	740.0	0.025	0.000	21.6	6	-17.6	18.7	1.53	 .0727	24	1	100.0	1
09/02/24	22:16	-17.1	-17.0	-17.1	63	-22.4	17.4	ENE	0.29	20.0	ENE	-29.0	-17.2	-29.1	740.0	0.025	0.000	21.6	6	-17.6	18.7	1.53	 .0727	23	1	100.0	1
09/02/24	22:17	-17.2	-17.1	-17.2	63	-22.5	13.9	ENE	0.23	17.4	ENE	-28.1	-17.3	-28.2	739.9	0.025	0.000	21.7	6	-17.6	18.8	1.53	 .0727	23	1	100.0	1
09/02/24	22:18	-17.3	-17.2	-17.3	63	-22.6	16.5	ENE	0.28	19.1	ENE	-29.0	-17.4	-29.1	739.9	0.025	0.000	21.7	6	-17.6	18.8	1.53	 .0727	24	1	100.0	1
09/02/24	22:19	-17.4	-17.3	-17.4	64	-22.6	14.8	ENE	0.25	20.9	ENE	-28.7	-17.6	-28.8	739.9	0.025	0.000	21.7	6	-17.6	18.8	1.53	 .0727	23	1	100.0	1
09/02/24	22:20	-17.4	-17.4	-17.4	64	-22.6	17.4	ENE	0.29	20.9	ENE	-29.5	-17.6	-29.6	739.9	0.025	0.000	21.7	6	-17.6	18.8	1.53	 .0727	24	1	100.0	1
09/02/24	22:21	-17.4	-17.4	-17.4	65	-22.5	15.7	ENE	0.26	23.5	ENE	-28.9	-17.6	-29.1	740.0	0.025	0.000	21.7	6	-17.6	18.8	1.53	 .0727	23	1	100.0	1
09/02/24	22:22	-17.3	-17.3	-17.4	66	-22.2	15.7	ENE	0.26	22.6	ENE	-28.8	-17.4	-28.9	739.8	0.025	0.000	21.6	6	-17.6	18.7	1.53	 .0727	23	1	100.0	1
09/02/24	22:23	-17.2	-17.2	-17.3	66	-22.1	16.5	ENE	0.28	20.9	ENE	-28.9	-17.3	-29.1	740.0	0.025	0.000	21.6	6	-17.6	18.7	1.53	 .0727	24	1	100.0	1
09/02/24	22:24	-17.2	-17.2	-17.2	66	-22.1	19.1	ENE	0.32	20.9	ENE	-29.7	-17.3	-29.8	739.9	0.025	0.000	21.6	6	-17.6	18.7	1.53	 .0727	23	1	100.0	1
09/02/24	22:25	-17.3	-17.3	-17.3	66	-22.1	20.9	ENE	0.35	22.6	ENE	-30.2	-17.4	-30.3	739.8	0.025	0.000	21.6	6	-17.6	18.7	1.53	 .0727	24	1	100.0	1
09/02/24	22:26	-17.3	-17.3	-17.3	66	-22.2	18.3	ENE	0.30	21.7	ENE	-29.6	-17.4	-29.7	739.8	0.025	0.000	21.6	6	-17.6	18.7	1.53	 .0727	23	1	100.0	1
09/02/24	22:27	-17.4	-17.3	-17.4	66	-22.3	15.7	ENE	0.26	18.3	ENE	-28.9	-17.6	-29.1	739.9	0.025	0.000	21.6	6	-17.6	18.7	1.53	 .0727	24	1	100.0	1
09/02/24	22:28	-17.6	-17.4	-17.6	66	-22.4	18.3	ENE	0.30	20.0	ENE	-30.0	-17.7	-30.1	739.9	0.025	0.000	21.6	6	-17.6	18.7	1.53	 .0727	23	1	100.0	1
09/02/24	22:29	-17.7	-17.6	-17.7	66	-22.5	19.1	ENE	0.32	20.9	ENE	-30.3	-17.8	-30.4	739.9	0.025	0.000	21.6	6	-17.6	18.7	1.53	 .0727	23	1	100.0	1
09/02/24	22:30	-17.6	-17.6	-17.6	67	-22.2	14.8	ENE	0.25	20.0	ENE	-28.8	-17.7	-28.9	739.9	0.025	0.000	21.6	6	-17.6	18.6	1.53	 .0727	24	1	100.0	1
09/02/24	22:31	-17.5	-17.5	-17.6	67	-22.2	21.7	ENE	0.36	24.3	ENE	-30.7	-17.6	-30.8	739.7	0.025	0.000	21.6	6	-17.6	18.6	1.53	 .0727	23	1	100.0	1
09/02/24	22:32	-17.5	-17.5	-17.5	68	-22.0	18.3	ENE	0.30	21.7	ENE	-29.8	-17.6	-29.9	739.8	0.025	0.000	21.6	6	-17.6	18.6	1.53	 .0727	24	1	100.0	1
09/02/24	22:33	-17.5	-17.5	-17.5	68	-22.0	20.9	ENE	0.35	24.3	ENE	-30.5	-17.6	-30.6	739.8	0.025	0.000	21.6	6	-17.6	18.6	1.53	 .0727	23	1	100.0	1
09/02/24	22:34	-17.6	-17.5	-17.6	68	-22.0	20.0	ENE	0.33	23.5	ENE	-30.4	-17.7	-30.5	739.8	0.025	0.000	21.6	6	-17.6	18.6	1.53	 .0727	23	1	100.0	1
09/02/24	22:35	-17.7	-17.6	-17.7	68	-22.2	20.0	ENE	0.33	21.7	ENE	-30.5	-17.8	-30.6	739.7	0.025	0.000	21.6	6	-17.6	18.6	1.53	 .0727	24	1	100.0	1
09/02/24	22:36	-17.7	-17.7	-17.7	68	-22.2	18.3	ENE	0.30	24.3	ENE	-30.1	-17.8	-30.2	739.8	0.025	0.000	21.5	6	-17.7	18.5	1.54	 .0727	23	1	100.0	1
09/02/24	22:37	-17.8	-17.7	-17.8	68	-22.3	23.5	ENE	0.39	26.1	ENE	-31.5	-17.8	-31.6	739.7	0.025	0.000	21.5	6	-17.7	18.5	1.54	 .0727	24	1	100.0	1
09/02/24	22:38	-17.8	-17.7	-17.8	68	-22.3	16.5	ENE	0.28	20.0	ENE	-29.7	-17.8	-29.7	739.9	0.025	0.000	21.5	6	-17.7	18.5	1.54	 .0727	23	1	100.0	1
09/02/24	22:39	-17.8	-17.8	-17.8	69	-22.1	20.0	ENE	0.33	24.3	ENE	-30.7	-17.9	-30.8	739.8	0.025	0.000	21.5	6	-17.7	18.5	1.54	 .0727	23	1	100.0	1
09/02/24	22:40	-17.9	-17.9	-17.9	68	-22.4	21.7	ENE	0.36	25.2	ENE	-31.3	-17.9	-31.3	739.7	0.025	0.000	21.5	6	-17.7	18.5	1.54	 .0727	24	1	100.0	1
09/02/24	22:41	-17.9	-17.9	-17.9	69	-22.2	21.7	ENE	0.36	23.5	ENE	-31.3	-17.9	-31.3	739.7	0.025	0.000	21.5	6	-17.7	18.5	1.54	 .0727	23	1	100.0	1
09/02/24	22:42	-17.9	-17.8	-17.9	69	-22.2	20.9	ENE	0.35	24.3	ENE	-31.1	-17.9	-31.1	739.8	0.025	0.000	21.5	6	-17.7	18.5	1.54	 .0727	24	1	100.0	1
09/02/24	22:43	-17.8	-17.8	-17.9	69	-22.1	23.5	ENE	0.39	26.1	ENE	-31.6	-17.9	-31.7	739.8	0.025	0.000	21.5	6	-17.7	18.5	1.54	 .0727	23	1	100.0	1
09/02/24	22:44	-17.6	-17.6	-17.8	69	-21.9	21.7	ENE	0.36	24.3	ENE	-30.8	-17.7	-30.9	739.8	0.025	0.000	21.5	6	-17.7	18.5	1.54	 .0727	24	1	100.0	1
09/02/24	22:45	-17.4	-17.4	-17.6	69	-21.8	16.5	ENE	0.28	18.3	ENE	-29.2	-17.6	-29.3	739.9	0.025	0.000	21.5	6	-17.7	18.5	1.54	 .0727	23	1	100.0	1
09/02/24	22:46	-17.6	-17.4	-17.6	68	-22.0	19.1	ENE	0.32	24.3	ENE	-30.2	-17.7	-30.3	739.9	0.025	0.000	21.5	6	-17.7	18.5	1.54	 .0727	23	1	100.0	1
09/02/24	22:47	-17.4	-17.4	-17.6	68	-21.9	24.3	ENE	0.41	26.1	ENE	-31.3	-17.6	-31.4	739.7	0.025	0.000	21.6	6	-17.6	18.6	1.53	 .0727	24	1	100.0	1
09/02/24	22:48	-17.3	-17.3	-17.4	69	-21.7	17.4	ENE	0.29	20.9	ENE	-29.3	-17.4	-29.4	739.9	0.025	0.000	21.6	6	-17.6	18.6	1.53	 .0727	23	1	100.0	1
09/02/24	22:49	-17.3	-17.3	-17.3	68	-21.8	22.6	ENE	0.38	27.8	ENE	-30.7	-17.4	-30.8	739.8	0.025	0.000	21.6	6	-17.6	18.6	1.53	 .0727	24	1	100.0	1
09/02/24	22:50	-17.1	-17.1	-17.2	68	-21.6	23.5	ENE	0.39	28.7	ENE	-30.6	-17.2	-30.7	739.7	0.025	0.000	21.6	6	-17.6	18.6	1.53	 .0727	23	1	100.0	1
09/02/24	22:51	-17.0	-17.0	-17.0	68	-21.5	17.4	ENE	0.29	20.0	ENE	-28.9	-17.1	-29.1	739.9	0.025	0.000	21.6	6	-17.6	18.6	1.53	 .0727	24	1	100.0	1
09/02/24	22:52	-17.1	-17.1	-17.1	67	-21.8	20.9	ENE	0.35	23.5	ENE	-30.0	-17.2	-30.1	739.9	0.025	0.000	21.6	6	-17.6	18.6	1.53	 .0727	23	1	100.0	1
09/02/24	22:53	-17.2	-17.2	-17.2	67	-21.9	20.0	ENE	0.33	23.5	ENE	-29.9	-17.3	-30.1	739.8	0.025	0.000	21.6	6	-17.6	18.7	1.53	 .0727	23	1	100.0	1
09/02/24	22:54	-17.3	-17.2	-17.3	67	-22.0	20.9	ENE	0.35	24.3	ENE	-30.3	-17.4	-30.4	740.0	0.025	0.000	21.6	6	-17.6	18.7	1.53	 .0727	24	1	100.0	1
09/02/24	22:55	-17.3	-17.3	-17.3	67	-21.9	21.7	ENE	0.36	24.3	ENE	-30.4	-17.4	-30.6	739.8	0.025	0.000	21.6	6	-17.6	18.7	1.53	 .0727	23	1	100.0	1
09/02/24	22:56	-17.3	-17.3	-17.3	67	-22.0	20.0	ENE	0.33	22.6	ENE	-30.1	-17.4	-30.2	739.9	0.025	0.000	21.6	6	-17.6	18.7	1.53	 .0727	24	1	100.0	1
09/02/24	22:57	-17.4	-17.3	-17.4	66	-22.3	20.9	ENE	0.35	22.6	E	-30.4	-17.6	-30.6	739.9	0.025	0.000	21.6	6	-17.6	18.7	1.53	 .0727	23	1	100.0	1
09/02/24	22:58	-17.6	-17.5	-17.6	66	-22.4	18.3	ENE	0.30	21.7	ENE	-29.9	-17.7	-30.0	739.9	0.025	0.000	21.6	6	-17.6	18.7	1.53	 .0727	23	1	100.0	1
09/02/24	22:59	-17.6	-17.6	-17.6	66	-22.4	22.6	ENE	0.38	25.2	E	-31.0	-17.7	-31.1	739.8	0.025	0.000	21.7	6	-17.6	18.8	1.53	 .0727	24	1	100.0	1
09/02/24	23:00	-17.6	-17.6	-17.6	67	-22.2	16.5	ENE	0.28	21.7	ENE	-29.4	-17.7	-29.5	740.0	0.025	0.000	21.7	6	-17.6	18.8	1.53	 .0727	23	1	100.0	1
09/02/24	23:01	-17.6	-17.6	-17.6	67	-22.3	20.9	ENE	0.35	23.5	ENE	-30.7	-17.7	-30.8	739.9	0.025	0.000	21.7	6	-17.6	18.8	1.53	 .0727	24	1	100.0	1
09/02/24	23:02	-17.6	-17.6	-17.6	67	-22.3	16.5	ENE	0.28	18.3	ENE	-29.4	-17.7	-29.6	740.0	0.025	0.000	21.7	6	-17.6	18.8	1.53	 .0727	23	1	100.0	1
09/02/24	23:03	-17.7	-17.7	-17.7	67	-22.3	21.7	ENE	0.36	23.5	E	-30.9	-17.8	-31.1	739.9	0.025	0.000	21.7	6	-17.5	18.8	1.53	 .0727	23	1	100.0	1
09/02/24	23:04	-17.6	-17.6	-17.7	68	-22.1	20.0	ENE	0.33	22.6	ENE	-30.4	-17.7	-30.6	739.9	0.025	0.000	21.7	6	-17.5	18.8	1.53	 .0727	24	1	100.0	1
09/02/24	23:05	-17.6	-17.6	-17.6	68	-22.0	15.7	ENE	0.26	17.4	ENE	-29.1	-17.7	-29.2	740.0	0.025	0.000	21.7	6	-17.5	18.8	1.53	 .0727	23	1	100.0	1
09/02/24	23:06	-17.6	-17.6	-17.6	67	-22.2	22.6	ENE	0.38	25.2	ENE	-31.0	-17.7	-31.1	739.8	0.025	0.000	21.7	6	-17.5	18.8	1.53	 .0727	24	1	100.0	1
09/02/24	23:07	-17.5	-17.5	-17.6	67	-22.2	20.9	ENE	0.35	22.6	ENE	-30.5	-17.6	-30.6	739.9	0.025	0.000	21.7	6	-17.5	18.8	1.53	 .0727	23	1	100.0	1
09/02/24	23:08	-17.4	-17.4	-17.4	67	-22.1	17.4	ENE	0.29	20.0	ENE	-29.4	-17.5	-29.6	739.9	0.025	0.000	21.7	6	-17.5	18.8	1.53	 .0727	24	1	100.0	1
09/02/24	23:09	-17.4	-17.3	-17.4	66	-22.2	15.7	ENE	0.26	24.3	ENE	-28.9	-17.5	-29.0	739.9	0.025	0.000	21.7	6	-17.5	18.8	1.53	 .0727	23	1	100.0	1
09/02/24	23:10	-17.3	-17.3	-17.3	67	-21.9	21.7	ENE	0.36	24.3	ENE	-30.4	-17.4	-30.6	739.7	0.025	0.000	21.7	6	-17.5	18.8	1.53	 .0727	23	1	100.0	1
09/02/24	23:11	-17.3	-17.3	-17.3	67	-22.0	23.5	E	0.39	26.1	E	-30.9	-17.4	-31.1	739.7	0.025	0.000	21.7	6	-17.5	18.8	1.53	 .0727	24	1	100.0	1
09/02/24	23:12	-17.1	-17.1	-17.3	68	-21.6	15.7	ENE	0.26	22.6	ENE	-28.6	-17.2	-28.7	739.8	0.025	0.000	21.7	6	-17.5	18.8	1.53	 .0727	23	1	100.0	1
09/02/24	23:13	-16.9	-16.9	-17.1	69	-21.3	22.6	ENE	0.38	24.3	ENE	-30.2	-17.1	-30.3	739.9	0.024	0.000	21.7	6	-17.5	18.8	1.53	 .0727	24	1	100.0	1
09/02/24	23:14	-16.8	-16.8	-16.8	70	-21.0	17.4	E	0.29	20.9	ENE	-28.6	-16.9	-28.7	739.9	0.024	0.000	21.7	6	-17.5	18.8	1.53	 .0727	23	1	100.0	1
09/02/24	23:15	-16.9	-16.8	-16.9	69	-21.2	15.7	E	0.26	20.9	ENE	-28.2	-17.0	-28.3	740.0	0.024	0.000	21.7	6	-17.5	18.8	1.53	 .0727	23	1	100.0	1
09/02/24	23:16	-17.1	-16.9	-17.1	69	-21.4	19.1	ENE	0.32	20.9	ENE	-29.5	-17.2	-29.6	739.9	0.025	0.000	21.7	6	-17.6	18.8	1.53	 .0727	24	1	100.0	1
09/02/24	23:17	-17.1	-17.1	-17.1	68	-21.6	20.9	ENE	0.35	22.6	ENE	-29.9	-17.2	-30.1	739.9	0.025	0.000	21.7	6	-17.6	18.8	1.53	 .0727	23	1	100.0	1
09/02/24	23:18	-17.0	-17.0	-17.1	68	-21.5	17.4	ENE	0.29	20.9	ENE	-28.9	-17.1	-29.1	739.9	0.025	0.000	21.7	6	-17.6	18.8	1.53	 .0727	24	1	100.0	1
09/02/24	23:19	-16.9	-16.9	-17.0	67	-21.6	20.0	ENE	0.33	23.5	ENE	-29.5	-17.0	-29.6	739.9	0.024	0.000	21.7	6	-17.6	18.8	1.53	 .0727	23	1	100.0	1
09/02/24	23:20	-16.9	-16.8	-16.9	67	-21.6	13.9	ENE	0.23	20.9	ENE	-27.7	-17.0	-27.8	740.0	0.024	0.000	21.7	6	-17.6	18.8	1.53	 .0727	23	1	100.0	1
09/02/24	23:21	-16.9	-16.9	-16.9	66	-21.8	20.0	ENE	0.33	21.7	ENE	-29.6	-17.1	-29.7	739.9	0.024	0.000	21.7	6	-17.6	18.8	1.53	 .0727	24	1	100.0	1
09/02/24	23:22	-16.8	-16.8	-16.9	67	-21.5	18.3	ENE	0.30	20.0	ENE	-28.9	-16.9	-29.0	740.0	0.024	0.000	21.7	6	-17.6	18.8	1.53	 .0727	23	1	100.0	1
09/02/24	23:23	-16.8	-16.8	-16.8	68	-21.4	15.7	ENE	0.26	21.7	ENE	-28.2	-16.9	-28.3	740.1	0.024	0.000	21.6	6	-17.6	18.7	1.53	 .0727	24	1	100.0	1
09/02/24	23:24	-16.9	-16.8	-16.9	67	-21.6	17.4	ENE	0.29	20.9	ENE	-28.8	-17.1	-28.9	740.0	0.024	0.000	21.6	6	-17.6	18.7	1.53	 .0727	23	1	100.0	1
09/02/24	23:25	-16.8	-16.8	-16.9	67	-21.5	19.1	ENE	0.32	20.9	ENE	-29.2	-16.9	-29.3	740.0	0.024	0.000	21.6	6	-17.6	18.7	1.53	 .0727	24	1	100.0	1
09/02/24	23:26	-16.7	-16.7	-16.8	68	-21.2	15.7	ENE	0.26	20.0	ENE	-28.1	-16.8	-28.2	740.1	0.024	0.000	21.6	6	-17.6	18.7	1.53	 .0727	23	1	100.0	1
09/02/24	23:27	-16.9	-16.8	-16.9	68	-21.4	20.0	ENE	0.33	21.7	ENE	-29.5	-17.0	-29.6	740.0	0.024	0.000	21.6	6	-17.6	18.7	1.53	 .0727	23	1	100.0	1
09/02/24	23:28	-16.9	-16.9	-17.0	68	-21.5	20.9	ENE	0.35	23.5	ENE	-29.8	-17.1	-29.9	740.1	0.024	0.000	21.6	6	-17.6	18.6	1.53	 .0727	24	1	100.0	1
09/02/24	23:29	-16.8	-16.8	-16.9	69	-21.2	19.1	ENE	0.32	21.7	ENE	-29.2	-16.9	-29.3	740.1	0.024	0.000	21.6	6	-17.6	18.6	1.53	 .0727	23	1	100.0	1
09/02/24	23:30	-16.7	-16.7	-16.8	70	-20.9	17.4	ENE	0.29	20.9	ENE	-28.5	-16.8	-28.6	740.1	0.024	0.000	21.6	6	-17.6	18.6	1.53	 .0727	24	1	100.0	1
09/02/24	23:31	-16.6	-16.6	-16.6	71	-20.6	18.3	ENE	0.30	22.6	ENE	-28.6	-16.7	-28.7	740.0	0.024	0.000	21.6	6	-17.6	18.6	1.53	 .0727	23	1	100.0	1
09/02/24	23:32	-16.4	-16.4	-16.6	71	-20.5	21.7	ENE	0.36	23.5	ENE	-29.3	-16.6	-29.4	739.9	0.024	0.000	21.6	6	-17.6	18.6	1.53	 .0727	23	1	100.0	1
09/02/24	23:33	-16.1	-16.1	-16.4	71	-20.2	15.7	NE	0.26	20.0	ENE	-27.2	-16.2	-27.3	740.0	0.024	0.000	21.6	6	-17.6	18.6	1.53	 .0727	24	1	100.0	1
09/02/24	23:34	-16.1	-16.1	-16.1	71	-20.1	18.3	ENE	0.30	22.6	ENE	-27.9	-16.2	-28.1	740.0	0.024	0.000	21.6	6	-17.6	18.6	1.53	 .0727	23	1	100.0	1
09/02/24	23:35	-15.9	-15.9	-16.1	71	-20.0	20.9	ENE	0.35	23.5	ENE	-28.4	-16.1	-28.6	739.9	0.024	0.000	21.5	6	-17.7	18.5	1.54	 .0727	24	1	100.0	1
09/02/24	23:36	-15.8	-15.8	-15.9	71	-19.9	14.8	ENE	0.25	17.4	ENE	-26.6	-15.9	-26.7	740.1	0.024	0.000	21.6	6	-17.6	18.6	1.53	 .0727	23	1	100.0	1
09/02/24	23:37	-16.1	-15.8	-16.1	71	-20.1	16.5	ENE	0.28	20.0	ENE	-27.4	-16.2	-27.6	740.0	0.024	0.000	21.6	6	-17.6	18.6	1.53	 .0727	24	1	100.0	1
09/02/24	23:38	-16.2	-16.1	-16.2	69	-20.5	18.3	ENE	0.30	20.9	ENE	-28.1	-16.3	-28.2	740.0	0.024	0.000	21.6	6	-17.6	18.6	1.53	 .0727	23	1	100.0	1
09/02/24	23:39	-16.2	-16.2	-16.2	69	-20.6	17.4	ENE	0.29	19.1	ENE	-27.9	-16.3	-28.0	740.0	0.024	0.000	21.6	6	-17.6	18.6	1.53	 .0727	23	1	100.0	1
09/02/24	23:40	-16.3	-16.3	-16.3	69	-20.7	19.1	ENE	0.32	20.0	ENE	-28.5	-16.4	-28.6	740.0	0.024	0.000	21.6	6	-17.6	18.6	1.53	 .0727	24	1	100.0	1
09/02/24	23:41	-16.4	-16.3	-16.4	69	-20.8	15.7	ENE	0.26	20.0	ENE	-27.6	-16.5	-27.7	740.1	0.024	0.000	21.6	6	-17.6	18.6	1.53	 .0727	23	1	100.0	1
09/02/24	23:42	-16.3	-16.3	-16.4	69	-20.6	19.1	ENE	0.32	20.9	ENE	-28.4	-16.4	-28.6	740.0	0.024	0.000	21.6	6	-17.6	18.6	1.53	 .0727	24	1	100.0	1
09/02/24	23:43	-16.2	-16.2	-16.3	70	-20.4	14.8	ENE	0.25	16.5	ENE	-27.1	-16.3	-27.2	740.1	0.024	0.000	21.6	6	-17.6	18.7	1.53	 .0727	23	1	100.0	1
09/02/24	23:44	-16.3	-16.3	-16.3	69	-20.7	17.4	ENE	0.29	18.3	ENE	-28.1	-16.4	-28.2	740.1	0.024	0.000	21.6	6	-17.6	18.7	1.53	 .0727	23	1	100.0	1
09/02/24	23:45	-16.3	-16.3	-16.3	69	-20.7	15.7	ENE	0.26	17.4	ENE	-27.5	-16.4	-27.6	740.1	0.024	0.000	21.6	6	-17.6	18.7	1.53	 .0727	24	1	100.0	1
09/02/24	23:46	-16.4	-16.3	-16.4	68	-21.0	20.0	ENE	0.33	20.9	ENE	-28.9	-16.6	-29.0	740.1	0.024	0.000	21.6	6	-17.6	18.7	1.53	 .0727	23	1	100.0	1
09/02/24	23:47	-16.5	-16.4	-16.5	69	-20.9	17.4	ENE	0.29	19.1	ENE	-28.3	-16.6	-28.4	740.1	0.024	0.000	21.6	6	-17.6	18.7	1.53	 .0727	24	1	100.0	1
09/02/24	23:48	-16.5	-16.5	-16.6	69	-20.9	16.5	ENE	0.28	18.3	ENE	-28.0	-16.6	-28.1	740.1	0.024	0.000	21.6	6	-17.6	18.7	1.53	 .0727	23	1	100.0	1
09/02/24	23:49	-16.4	-16.4	-16.5	69	-20.8	18.3	ENE	0.30	20.0	ENE	-28.4	-16.6	-28.6	740.1	0.024	0.000	21.7	6	-17.6	18.8	1.53	 .0727	24	1	100.0	1
09/02/24	23:50	-16.4	-16.4	-16.5	70	-20.6	20.0	ENE	0.33	21.7	ENE	-28.9	-16.6	-29.0	740.1	0.024	0.000	21.7	6	-17.6	18.8	1.53	 .0727	23	1	100.0	1
09/02/24	23:51	-16.4	-16.4	-16.4	70	-20.6	17.4	ENE	0.29	19.1	ENE	-28.2	-16.6	-28.3	740.1	0.024	0.000	21.7	6	-17.6	18.8	1.53	 .0727	23	1	100.0	1
09/02/24	23:52	-16.5	-16.4	-16.5	70	-20.7	16.5	ENE	0.28	18.3	ENE	-28.0	-16.6	-28.1	740.1	0.024	0.000	21.7	6	-17.6	18.8	1.53	 .0727	24	1	100.0	1
09/02/24	23:53	-16.5	-16.5	-16.6	70	-20.7	20.0	ENE	0.33	20.9	ENE	-28.9	-16.6	-29.1	740.0	0.024	0.000	21.7	6	-17.6	18.8	1.53	 .0727	23	1	100.0	1
09/02/24	23:54	-16.5	-16.4	-16.5	70	-20.7	17.4	ENE	0.29	20.0	ENE	-28.3	-16.6	-28.4	740.0	0.024	0.000	21.7	6	-17.6	18.8	1.53	 .0727	24	1	100.0	1
09/02/24	23:55	-16.6	-16.5	-16.6	70	-20.8	18.3	ENE	0.30	20.0	ENE	-28.6	-16.7	-28.7	740.1	0.024	0.000	21.7	6	-17.6	18.8	1.53	 .0727	23	1	100.0	1
09/02/24	23:56	-16.6	-16.6	-16.6	70	-20.8	18.3	ENE	0.30	20.0	ENE	-28.7	-16.7	-28.8	740.1	0.024	0.000	21.7	6	-17.6	18.8	1.53	 .0727	23	1	100.0	1
09/02/24	23:57	-16.6	-16.6	-16.7	70	-20.8	18.3	ENE	0.30	20.9	ENE	-28.7	-16.7	-28.8	740.1	0.024	0.000	21.7	6	-17.6	18.8	1.53	 .0727	24	1	100.0	1
09/02/24	23:58	-16.6	-16.6	-16.6	71	-20.6	19.1	ENE	0.32	20.0	ENE	-28.8	-16.7	-28.9	740.1	0.024	0.000	21.7	6	-17.6	18.8	1.53	 .0727	23	1	100.0	1
09/02/24	23:59	-16.4	-16.4	-16.6	71	-20.5	19.1	ENE	0.32	20.0	ENE	-28.7	-16.6	-28.8	740.2	0.024	0.000	21.7	6	-17.5	18.8	1.53	 .0727	24	1	100.0	1
09/03/24	00:00	-16.3	-16.3	-16.4	71	-20.3	19.1	ENE	0.32	21.7	ENE	-28.4	-16.4	-28.6	740.2	0.024	0.000	21.7	6	-17.6	18.8	1.53	 .0727	23	1	100.0	1